<?xml version="1.0" encoding="UTF-8" standalone="no" ?>
<gpx xmlns="http://www.topografix.com/GPX/1/1" xmlns:xsi="http://www.w3.org/2001/XMLSchema-instance" xsi:schemaLocation="http://www.topografix.com/GPX/1/1 http://www.topografix.com/GPX/1/1/gpx.xsd" version="1.1" creator="VisuGPX - https://www.visugpx.com">
  <metadata>
    <name>Des Mouettes aux Cigales 2021</name>
  </metadata>
  <trk>
    <name><![CDATA[Etape 10 : Lyon - Vion]]></name>
    <extensions>
      <line xmlns="http://www.topografix.com/GPX/gpx_style/0/2">
        <color>888800</color>
        <width>4</width>
      </line>
    </extensions>
    <trkseg>
      <trkpt lat="45.77431" lon="4.80684">
        <ele>177.004392</ele>
        <time>2021-09-14T05:19:05.000Z</time>
      </trkpt>
      <trkpt lat="45.77441" lon="4.80683">
        <ele>177.004392</ele>
        <time>2021-09-14T05:19:11.000Z</time>
      </trkpt>
      <trkpt lat="45.77445" lon="4.80683">
        <ele>177.004392</ele>
        <time>2021-09-14T05:19:13.000Z</time>
      </trkpt>
      <trkpt lat="45.7745" lon="4.80683">
        <ele>177.004392</ele>
        <time>2021-09-14T05:19:15.000Z</time>
      </trkpt>
      <trkpt lat="45.77453" lon="4.80683">
        <ele>177.004392</ele>
        <time>2021-09-14T05:19:17.000Z</time>
      </trkpt>
      <trkpt lat="45.77455" lon="4.80682">
        <ele>177.004392</ele>
        <time>2021-09-14T05:19:18.000Z</time>
      </trkpt>
      <trkpt lat="45.77462" lon="4.80682">
        <ele>177.004392</ele>
        <time>2021-09-14T05:19:23.000Z</time>
      </trkpt>
      <trkpt lat="45.77462" lon="4.80682">
        <ele>177.004392</ele>
        <time>2021-09-14T05:19:28.000Z</time>
      </trkpt>
      <trkpt lat="45.77462" lon="4.80682">
        <ele>177.004392</ele>
        <time>2021-09-14T05:19:36.000Z</time>
      </trkpt>
      <trkpt lat="45.7749" lon="4.80711">
        <ele>177.004392</ele>
        <time>2021-09-14T05:19:37.000Z</time>
      </trkpt>
      <trkpt lat="45.77493" lon="4.80726">
        <ele>177.004392</ele>
        <time>2021-09-14T05:19:42.000Z</time>
      </trkpt>
      <trkpt lat="45.775" lon="4.80752">
        <ele>177.051574</ele>
        <time>2021-09-14T05:19:49.000Z</time>
      </trkpt>
      <trkpt lat="45.77497" lon="4.80772">
        <ele>177.170702</ele>
        <time>2021-09-14T05:19:55.000Z</time>
      </trkpt>
      <trkpt lat="45.77494" lon="4.80799">
        <ele>177.328185</ele>
        <time>2021-09-14T05:20:01.000Z</time>
      </trkpt>
      <trkpt lat="45.77492" lon="4.8082">
        <ele>177.450392</ele>
        <time>2021-09-14T05:20:06.000Z</time>
      </trkpt>
      <trkpt lat="45.77492" lon="4.80827">
        <ele>177.491952</ele>
        <time>2021-09-14T05:20:08.000Z</time>
      </trkpt>
      <trkpt lat="45.77492" lon="4.80834">
        <ele>177.5295</ele>
        <time>2021-09-14T05:20:10.000Z</time>
      </trkpt>
      <trkpt lat="45.77485" lon="4.80854">
        <ele>177.658876</ele>
        <time>2021-09-14T05:20:15.000Z</time>
      </trkpt>
      <trkpt lat="45.77485" lon="4.8086">
        <ele>177.694657</ele>
        <time>2021-09-14T05:20:21.000Z</time>
      </trkpt>
      <trkpt lat="45.77485" lon="4.8086">
        <ele>177.694657</ele>
        <time>2021-09-14T05:20:32.000Z</time>
      </trkpt>
      <trkpt lat="45.77485" lon="4.8086">
        <ele>177.694657</ele>
        <time>2021-09-14T05:20:33.000Z</time>
      </trkpt>
      <trkpt lat="45.7748" lon="4.80876">
        <ele>177.79415</ele>
        <time>2021-09-14T05:20:35.000Z</time>
      </trkpt>
      <trkpt lat="45.77485" lon="4.80884">
        <ele>177.853878</ele>
        <time>2021-09-14T05:20:37.000Z</time>
      </trkpt>
      <trkpt lat="45.77484" lon="4.80905">
        <ele>177.974737</ele>
        <time>2021-09-14T05:20:42.000Z</time>
      </trkpt>
      <trkpt lat="45.77481" lon="4.80932">
        <ele>178.132388</ele>
        <time>2021-09-14T05:20:50.000Z</time>
      </trkpt>
      <trkpt lat="45.7748" lon="4.80943">
        <ele>178.198598</ele>
        <time>2021-09-14T05:20:56.000Z</time>
      </trkpt>
      <trkpt lat="45.77478" lon="4.80966">
        <ele>178.333505</ele>
        <time>2021-09-14T05:21:04.000Z</time>
      </trkpt>
      <trkpt lat="45.77471" lon="4.81017">
        <ele>178.211571</ele>
        <time>2021-09-14T05:21:14.000Z</time>
      </trkpt>
      <trkpt lat="45.77468" lon="4.81055">
        <ele>177.765271</ele>
        <time>2021-09-14T05:21:24.000Z</time>
      </trkpt>
      <trkpt lat="45.77471" lon="4.81074">
        <ele>177.545544</ele>
        <time>2021-09-14T05:21:32.000Z</time>
      </trkpt>
      <trkpt lat="45.77464" lon="4.81103">
        <ele>177.18431</ele>
        <time>2021-09-14T05:21:39.000Z</time>
      </trkpt>
      <trkpt lat="45.77464" lon="4.81104">
        <ele>177.176016</ele>
        <time>2021-09-14T05:21:42.000Z</time>
      </trkpt>
      <trkpt lat="45.77467" lon="4.81101">
        <ele>177.116441</ele>
        <time>2021-09-14T05:22:36.000Z</time>
      </trkpt>
      <trkpt lat="45.77471" lon="4.81102">
        <ele>177.055813</ele>
        <time>2021-09-14T05:22:37.000Z</time>
      </trkpt>
      <trkpt lat="45.77485" lon="4.81106">
        <ele>176.810498</ele>
        <time>2021-09-14T05:22:42.000Z</time>
      </trkpt>
      <trkpt lat="45.77488" lon="4.81106">
        <ele>176.761349</ele>
        <time>2021-09-14T05:22:44.000Z</time>
      </trkpt>
      <trkpt lat="45.77488" lon="4.8112">
        <ele>176.599966</ele>
        <time>2021-09-14T05:22:46.000Z</time>
      </trkpt>
      <trkpt lat="45.77487" lon="4.81132">
        <ele>176.461776</ele>
        <time>2021-09-14T05:22:49.000Z</time>
      </trkpt>
      <trkpt lat="45.77486" lon="4.81136">
        <ele>176.411613</ele>
        <time>2021-09-14T05:22:50.000Z</time>
      </trkpt>
      <trkpt lat="45.77483" lon="4.81169">
        <ele>176.032219</ele>
        <time>2021-09-14T05:22:56.000Z</time>
      </trkpt>
      <trkpt lat="45.77481" lon="4.81194">
        <ele>175.737419</ele>
        <time>2021-09-14T05:23:02.000Z</time>
      </trkpt>
      <trkpt lat="45.77479" lon="4.81217">
        <ele>175.490794</ele>
        <time>2021-09-14T05:23:09.000Z</time>
      </trkpt>
      <trkpt lat="45.77477" lon="4.81245">
        <ele>175.39415</ele>
        <time>2021-09-14T05:23:17.000Z</time>
      </trkpt>
      <trkpt lat="45.77473" lon="4.81279">
        <ele>175.276163</ele>
        <time>2021-09-14T05:23:25.000Z</time>
      </trkpt>
      <trkpt lat="45.77471" lon="4.81307">
        <ele>175.182732</ele>
        <time>2021-09-14T05:23:32.000Z</time>
      </trkpt>
      <trkpt lat="45.77469" lon="4.81336">
        <ele>175.08418</ele>
        <time>2021-09-14T05:23:39.000Z</time>
      </trkpt>
      <trkpt lat="45.77466" lon="4.81366">
        <ele>174.978703</ele>
        <time>2021-09-14T05:23:45.000Z</time>
      </trkpt>
      <trkpt lat="45.77466" lon="4.81372">
        <ele>174.958096</ele>
        <time>2021-09-14T05:23:47.000Z</time>
      </trkpt>
      <trkpt lat="45.77464" lon="4.81399">
        <ele>174.866728</ele>
        <time>2021-09-14T05:23:50.000Z</time>
      </trkpt>
      <trkpt lat="45.77465" lon="4.81428">
        <ele>174.76745</ele>
        <time>2021-09-14T05:23:54.000Z</time>
      </trkpt>
      <trkpt lat="45.77465" lon="4.81436">
        <ele>174.742953</ele>
        <time>2021-09-14T05:23:55.000Z</time>
      </trkpt>
      <trkpt lat="45.77289" lon="4.83713">
        <ele>171.521014</ele>
        <time>2021-09-14T05:28:13.000Z</time>
      </trkpt>
      <trkpt lat="45.7729" lon="4.83712">
        <ele>171.522917</ele>
        <time>2021-09-14T05:28:15.000Z</time>
      </trkpt>
      <trkpt lat="45.77283" lon="4.83778">
        <ele>171.674261</ele>
        <time>2021-09-14T05:28:23.000Z</time>
      </trkpt>
      <trkpt lat="45.77281" lon="4.83797">
        <ele>171.802631</ele>
        <time>2021-09-14T05:28:26.000Z</time>
      </trkpt>
      <trkpt lat="45.77279" lon="4.83821">
        <ele>171.967592</ele>
        <time>2021-09-14T05:28:30.000Z</time>
      </trkpt>
      <trkpt lat="45.77278" lon="4.83839">
        <ele>172.092891</ele>
        <time>2021-09-14T05:28:35.000Z</time>
      </trkpt>
      <trkpt lat="45.77277" lon="4.83852">
        <ele>172.18227</ele>
        <time>2021-09-14T05:28:39.000Z</time>
      </trkpt>
      <trkpt lat="45.77262" lon="4.83864">
        <ele>172.35287</ele>
        <time>2021-09-14T05:28:45.000Z</time>
      </trkpt>
      <trkpt lat="45.77258" lon="4.83899">
        <ele>172.595904</ele>
        <time>2021-09-14T05:28:50.000Z</time>
      </trkpt>
      <trkpt lat="45.77255" lon="4.83936">
        <ele>172.857312</ele>
        <time>2021-09-14T05:28:57.000Z</time>
      </trkpt>
      <trkpt lat="45.77252" lon="4.83966">
        <ele>173.061833</ele>
        <time>2021-09-14T05:29:03.000Z</time>
      </trkpt>
      <trkpt lat="45.77248" lon="4.84016">
        <ele>173.408401</ele>
        <time>2021-09-14T05:29:09.000Z</time>
      </trkpt>
      <trkpt lat="45.77247" lon="4.84031">
        <ele>173.433037</ele>
        <time>2021-09-14T05:29:12.000Z</time>
      </trkpt>
      <trkpt lat="45.77245" lon="4.8406">
        <ele>173.432057</ele>
        <time>2021-09-14T05:29:15.000Z</time>
      </trkpt>
      <trkpt lat="45.77244" lon="4.84073">
        <ele>173.431623</ele>
        <time>2021-09-14T05:29:18.000Z</time>
      </trkpt>
      <trkpt lat="45.77243" lon="4.84086">
        <ele>173.431179</ele>
        <time>2021-09-14T05:29:20.000Z</time>
      </trkpt>
      <trkpt lat="45.77245" lon="4.84103">
        <ele>173.430621</ele>
        <time>2021-09-14T05:29:22.000Z</time>
      </trkpt>
      <trkpt lat="45.77255" lon="4.84107">
        <ele>173.430107</ele>
        <time>2021-09-14T05:29:23.000Z</time>
      </trkpt>
      <trkpt lat="45.77284" lon="4.84113">
        <ele>173.428733</ele>
        <time>2021-09-14T05:29:28.000Z</time>
      </trkpt>
      <trkpt lat="45.77306" lon="4.84123">
        <ele>173.427605</ele>
        <time>2021-09-14T05:29:32.000Z</time>
      </trkpt>
      <trkpt lat="45.77316" lon="4.84127">
        <ele>173.427128</ele>
        <time>2021-09-14T05:29:34.000Z</time>
      </trkpt>
      <trkpt lat="45.77319" lon="4.84125">
        <ele>173.426961</ele>
        <time>2021-09-14T05:29:36.000Z</time>
      </trkpt>
      <trkpt lat="45.77314" lon="4.84122">
        <ele>173.42668</ele>
        <time>2021-09-14T05:29:39.000Z</time>
      </trkpt>
      <trkpt lat="45.77285" lon="4.84106">
        <ele>173.425233</ele>
        <time>2021-09-14T05:29:44.000Z</time>
      </trkpt>
      <trkpt lat="45.77247" lon="4.84096">
        <ele>173.410148</ele>
        <time>2021-09-14T05:29:51.000Z</time>
      </trkpt>
      <trkpt lat="45.77206" lon="4.8409">
        <ele>173.389686</ele>
        <time>2021-09-14T05:29:56.000Z</time>
      </trkpt>
      <trkpt lat="45.77204" lon="4.8409">
        <ele>173.388508</ele>
        <time>2021-09-14T05:29:58.000Z</time>
      </trkpt>
      <trkpt lat="45.77164" lon="4.84093">
        <ele>173.369247</ele>
        <time>2021-09-14T05:30:04.000Z</time>
      </trkpt>
      <trkpt lat="45.77136" lon="4.841">
        <ele>173.355317</ele>
        <time>2021-09-14T05:30:11.000Z</time>
      </trkpt>
      <trkpt lat="45.7713" lon="4.84097">
        <ele>173.351803</ele>
        <time>2021-09-14T05:30:13.000Z</time>
      </trkpt>
      <trkpt lat="45.7713" lon="4.84092">
        <ele>173.349954</ele>
        <time>2021-09-14T05:30:14.000Z</time>
      </trkpt>
      <trkpt lat="45.77113" lon="4.84093">
        <ele>173.341984</ele>
        <time>2021-09-14T05:30:18.000Z</time>
      </trkpt>
      <trkpt lat="45.77094" lon="4.84095">
        <ele>173.354718</ele>
        <time>2021-09-14T05:30:22.000Z</time>
      </trkpt>
      <trkpt lat="45.77089" lon="4.84094">
        <ele>173.365818</ele>
        <time>2021-09-14T05:30:23.000Z</time>
      </trkpt>
      <trkpt lat="45.77079" lon="4.84094">
        <ele>173.388011</ele>
        <time>2021-09-14T05:30:24.000Z</time>
      </trkpt>
      <trkpt lat="45.77068" lon="4.84093">
        <ele>173.411732</ele>
        <time>2021-09-14T05:30:27.000Z</time>
      </trkpt>
      <trkpt lat="45.77062" lon="4.84103">
        <ele>173.430421</ele>
        <time>2021-09-14T05:30:28.000Z</time>
      </trkpt>
      <trkpt lat="45.77045" lon="4.84103">
        <ele>173.468262</ele>
        <time>2021-09-14T05:30:30.000Z</time>
      </trkpt>
      <trkpt lat="45.77024" lon="4.84102">
        <ele>173.514194</ele>
        <time>2021-09-14T05:30:34.000Z</time>
      </trkpt>
      <trkpt lat="45.77012" lon="4.84101">
        <ele>173.5403</ele>
        <time>2021-09-14T05:30:36.000Z</time>
      </trkpt>
      <trkpt lat="45.76992" lon="4.841">
        <ele>173.582731</ele>
        <time>2021-09-14T05:30:39.000Z</time>
      </trkpt>
      <trkpt lat="45.76987" lon="4.84092">
        <ele>173.600767</ele>
        <time>2021-09-14T05:30:40.000Z</time>
      </trkpt>
      <trkpt lat="45.7696" lon="4.84089">
        <ele>173.660036</ele>
        <time>2021-09-14T05:30:45.000Z</time>
      </trkpt>
      <trkpt lat="45.76941" lon="4.8409">
        <ele>173.70049</ele>
        <time>2021-09-14T05:30:48.000Z</time>
      </trkpt>
      <trkpt lat="45.76931" lon="4.84104">
        <ele>173.727015</ele>
        <time>2021-09-14T05:30:49.000Z</time>
      </trkpt>
      <trkpt lat="45.76926" lon="4.84106">
        <ele>173.725472</ele>
        <time>2021-09-14T05:30:51.000Z</time>
      </trkpt>
      <trkpt lat="45.76909" lon="4.84098">
        <ele>173.720341</ele>
        <time>2021-09-14T05:30:54.000Z</time>
      </trkpt>
      <trkpt lat="45.76904" lon="4.84099">
        <ele>173.718961</ele>
        <time>2021-09-14T05:30:55.000Z</time>
      </trkpt>
      <trkpt lat="45.76882" lon="4.84102">
        <ele>173.712435</ele>
        <time>2021-09-14T05:31:00.000Z</time>
      </trkpt>
      <trkpt lat="45.7688" lon="4.84102">
        <ele>173.711936</ele>
        <time>2021-09-14T05:31:03.000Z</time>
      </trkpt>
      <trkpt lat="45.76879" lon="4.84106">
        <ele>173.711013</ele>
        <time>2021-09-14T05:32:15.000Z</time>
      </trkpt>
      <trkpt lat="45.76865" lon="4.84103">
        <ele>173.707059</ele>
        <time>2021-09-14T05:32:20.000Z</time>
      </trkpt>
      <trkpt lat="45.76862" lon="4.84104">
        <ele>173.706</ele>
        <time>2021-09-14T05:32:21.000Z</time>
      </trkpt>
      <trkpt lat="45.76844" lon="4.84107">
        <ele>173.700707</ele>
        <time>2021-09-14T05:32:25.000Z</time>
      </trkpt>
      <trkpt lat="45.7681" lon="4.84113">
        <ele>173.690703</ele>
        <time>2021-09-14T05:32:30.000Z</time>
      </trkpt>
      <trkpt lat="45.76768" lon="4.8412">
        <ele>173.678309</ele>
        <time>2021-09-14T05:32:37.000Z</time>
      </trkpt>
      <trkpt lat="45.76726" lon="4.84128">
        <ele>173.708318</ele>
        <time>2021-09-14T05:32:43.000Z</time>
      </trkpt>
      <trkpt lat="45.76703" lon="4.84134">
        <ele>173.734901</ele>
        <time>2021-09-14T05:32:46.000Z</time>
      </trkpt>
      <trkpt lat="45.76698" lon="4.84135">
        <ele>173.740811</ele>
        <time>2021-09-14T05:32:48.000Z</time>
      </trkpt>
      <trkpt lat="45.76666" lon="4.84141">
        <ele>173.776151</ele>
        <time>2021-09-14T05:32:53.000Z</time>
      </trkpt>
      <trkpt lat="45.76653" lon="4.84135">
        <ele>173.791076</ele>
        <time>2021-09-14T05:32:56.000Z</time>
      </trkpt>
      <trkpt lat="45.76647" lon="4.84136">
        <ele>173.797749</ele>
        <time>2021-09-14T05:32:57.000Z</time>
      </trkpt>
      <trkpt lat="45.76616" lon="4.8414">
        <ele>173.832429</ele>
        <time>2021-09-14T05:33:01.000Z</time>
      </trkpt>
      <trkpt lat="45.73052" lon="4.82167">
        <ele>201.234374</ele>
        <time>2021-09-14T05:44:19.000Z</time>
      </trkpt>
      <trkpt lat="45.73047" lon="4.82169">
        <ele>200.525881</ele>
        <time>2021-09-14T05:44:22.000Z</time>
      </trkpt>
      <trkpt lat="45.73033" lon="4.8216">
        <ele>198.340083</ele>
        <time>2021-09-14T05:44:28.000Z</time>
      </trkpt>
      <trkpt lat="45.72997" lon="4.82166">
        <ele>193.244252</ele>
        <time>2021-09-14T05:44:35.000Z</time>
      </trkpt>
      <trkpt lat="45.72968" lon="4.8216">
        <ele>188.971672</ele>
        <time>2021-09-14T05:44:41.000Z</time>
      </trkpt>
      <trkpt lat="45.72943" lon="4.82138">
        <ele>184.901076</ele>
        <time>2021-09-14T05:44:47.000Z</time>
      </trkpt>
      <trkpt lat="45.72929" lon="4.82113">
        <ele>181.684116</ele>
        <time>2021-09-14T05:44:53.000Z</time>
      </trkpt>
      <trkpt lat="45.7291" lon="4.82099">
        <ele>178.62376</ele>
        <time>2021-09-14T05:44:58.000Z</time>
      </trkpt>
      <trkpt lat="45.72898" lon="4.82099">
        <ele>176.926308</ele>
        <time>2021-09-14T05:45:04.000Z</time>
      </trkpt>
      <trkpt lat="45.72888" lon="4.82096">
        <ele>176.318959</ele>
        <time>2021-09-14T05:45:12.000Z</time>
      </trkpt>
      <trkpt lat="45.72885" lon="4.82095">
        <ele>176.27686</ele>
        <time>2021-09-14T05:45:19.000Z</time>
      </trkpt>
      <trkpt lat="45.72884" lon="4.82125">
        <ele>176.017205</ele>
        <time>2021-09-14T05:45:32.000Z</time>
      </trkpt>
      <trkpt lat="45.72891" lon="4.82097">
        <ele>175.760515</ele>
        <time>2021-09-14T05:45:35.000Z</time>
      </trkpt>
      <trkpt lat="45.72906" lon="4.82099">
        <ele>175.572645</ele>
        <time>2021-09-14T05:45:40.000Z</time>
      </trkpt>
      <trkpt lat="45.72929" lon="4.82113">
        <ele>175.259935</ele>
        <time>2021-09-14T05:45:46.000Z</time>
      </trkpt>
      <trkpt lat="45.72937" lon="4.82128">
        <ele>175.087521</ele>
        <time>2021-09-14T05:45:49.000Z</time>
      </trkpt>
      <trkpt lat="45.7294" lon="4.82134">
        <ele>175.025328</ele>
        <time>2021-09-14T05:45:50.000Z</time>
      </trkpt>
      <trkpt lat="45.72949" lon="4.82144">
        <ele>174.89012</ele>
        <time>2021-09-14T05:45:52.000Z</time>
      </trkpt>
      <trkpt lat="45.72967" lon="4.82159">
        <ele>174.621555</ele>
        <time>2021-09-14T05:45:56.000Z</time>
      </trkpt>
      <trkpt lat="45.72973" lon="4.82162">
        <ele>174.550045</ele>
        <time>2021-09-14T05:45:57.000Z</time>
      </trkpt>
      <trkpt lat="45.72989" lon="4.82166">
        <ele>174.349156</ele>
        <time>2021-09-14T05:46:00.000Z</time>
      </trkpt>
      <trkpt lat="45.73005" lon="4.82166">
        <ele>174.145326</ele>
        <time>2021-09-14T05:46:03.000Z</time>
      </trkpt>
      <trkpt lat="45.73043" lon="4.82158">
        <ele>173.732743</ele>
        <time>2021-09-14T05:46:10.000Z</time>
      </trkpt>
      <trkpt lat="45.73053" lon="4.82158">
        <ele>173.624008</ele>
        <time>2021-09-14T05:46:12.000Z</time>
      </trkpt>
      <trkpt lat="45.73069" lon="4.8216">
        <ele>173.450314</ele>
        <time>2021-09-14T05:46:15.000Z</time>
      </trkpt>
      <trkpt lat="45.73101" lon="4.82173">
        <ele>173.085062</ele>
        <time>2021-09-14T05:46:21.000Z</time>
      </trkpt>
      <trkpt lat="45.73124" lon="4.82189">
        <ele>172.809014</ele>
        <time>2021-09-14T05:46:26.000Z</time>
      </trkpt>
      <trkpt lat="45.73152" lon="4.82215">
        <ele>172.445594</ele>
        <time>2021-09-14T05:46:34.000Z</time>
      </trkpt>
      <trkpt lat="45.73167" lon="4.82228">
        <ele>172.254076</ele>
        <time>2021-09-14T05:46:40.000Z</time>
      </trkpt>
      <trkpt lat="45.73171" lon="4.82233">
        <ele>172.205348</ele>
        <time>2021-09-14T05:46:42.000Z</time>
      </trkpt>
      <trkpt lat="45.73172" lon="4.82234">
        <ele>172.217352</ele>
        <time>2021-09-14T05:46:43.000Z</time>
      </trkpt>
      <trkpt lat="45.73171" lon="4.82243">
        <ele>172.261065</ele>
        <time>2021-09-14T05:46:46.000Z</time>
      </trkpt>
      <trkpt lat="45.7317" lon="4.82244">
        <ele>172.266414</ele>
        <time>2021-09-14T05:46:47.000Z</time>
      </trkpt>
      <trkpt lat="45.73172" lon="4.82236">
        <ele>172.307156</ele>
        <time>2021-09-14T05:46:50.000Z</time>
      </trkpt>
      <trkpt lat="45.73175" lon="4.82215">
        <ele>172.411743</ele>
        <time>2021-09-14T05:46:54.000Z</time>
      </trkpt>
      <trkpt lat="45.73176" lon="4.82209">
        <ele>172.440867</ele>
        <time>2021-09-14T05:46:55.000Z</time>
      </trkpt>
      <trkpt lat="45.73183" lon="4.82167">
        <ele>172.651606</ele>
        <time>2021-09-14T05:47:03.000Z</time>
      </trkpt>
      <trkpt lat="45.7319" lon="4.82139">
        <ele>172.794436</ele>
        <time>2021-09-14T05:47:09.000Z</time>
      </trkpt>
      <trkpt lat="45.73207" lon="4.82113">
        <ele>172.966235</ele>
        <time>2021-09-14T05:47:16.000Z</time>
      </trkpt>
      <trkpt lat="45.73229" lon="4.82086">
        <ele>173.163563</ele>
        <time>2021-09-14T05:47:24.000Z</time>
      </trkpt>
      <trkpt lat="45.73245" lon="4.82065">
        <ele>173.317398</ele>
        <time>2021-09-14T05:47:30.000Z</time>
      </trkpt>
      <trkpt lat="45.73262" lon="4.82043">
        <ele>173.453902</ele>
        <time>2021-09-14T05:47:36.000Z</time>
      </trkpt>
      <trkpt lat="45.73289" lon="4.82009">
        <ele>173.519281</ele>
        <time>2021-09-14T05:47:44.000Z</time>
      </trkpt>
      <trkpt lat="45.73308" lon="4.81985">
        <ele>173.566132</ele>
        <time>2021-09-14T05:47:49.000Z</time>
      </trkpt>
      <trkpt lat="45.73334" lon="4.81953">
        <ele>173.628462</ele>
        <time>2021-09-14T05:47:55.000Z</time>
      </trkpt>
      <trkpt lat="45.7334" lon="4.81939">
        <ele>173.649717</ele>
        <time>2021-09-14T05:47:57.000Z</time>
      </trkpt>
      <trkpt lat="45.73345" lon="4.81923">
        <ele>173.671382</ele>
        <time>2021-09-14T05:47:59.000Z</time>
      </trkpt>
      <trkpt lat="45.73361" lon="4.81864">
        <ele>173.752838</ele>
        <time>2021-09-14T05:48:07.000Z</time>
      </trkpt>
      <trkpt lat="45.73365" lon="4.81852">
        <ele>173.769583</ele>
        <time>2021-09-14T05:48:10.000Z</time>
      </trkpt>
      <trkpt lat="45.73367" lon="4.81841">
        <ele>173.780383</ele>
        <time>2021-09-14T05:48:13.000Z</time>
      </trkpt>
      <trkpt lat="45.73369" lon="4.81843">
        <ele>173.783279</ele>
        <time>2021-09-14T05:48:20.000Z</time>
      </trkpt>
      <trkpt lat="45.73367" lon="4.8184">
        <ele>173.786148</ele>
        <time>2021-09-14T05:48:29.000Z</time>
      </trkpt>
      <trkpt lat="45.7337" lon="4.81834">
        <ele>173.791094</ele>
        <time>2021-09-14T05:48:31.000Z</time>
      </trkpt>
      <trkpt lat="45.73379" lon="4.81816">
        <ele>173.806979</ele>
        <time>2021-09-14T05:48:36.000Z</time>
      </trkpt>
      <trkpt lat="45.73386" lon="4.81802">
        <ele>173.819606</ele>
        <time>2021-09-14T05:48:40.000Z</time>
      </trkpt>
      <trkpt lat="45.73386" lon="4.81802">
        <ele>173.819606</ele>
        <time>2021-09-14T05:48:42.000Z</time>
      </trkpt>
      <trkpt lat="45.7339" lon="4.81795">
        <ele>173.825252</ele>
        <time>2021-09-14T05:49:00.000Z</time>
      </trkpt>
      <trkpt lat="45.73399" lon="4.81774">
        <ele>173.842928</ele>
        <time>2021-09-14T05:49:04.000Z</time>
      </trkpt>
      <trkpt lat="45.73397" lon="4.81763">
        <ele>173.850554</ele>
        <time>2021-09-14T05:49:06.000Z</time>
      </trkpt>
      <trkpt lat="45.73387" lon="4.81762">
        <ele>173.860857</ele>
        <time>2021-09-14T05:49:08.000Z</time>
      </trkpt>
      <trkpt lat="45.73379" lon="4.81757">
        <ele>173.86991</ele>
        <time>2021-09-14T05:49:10.000Z</time>
      </trkpt>
      <trkpt lat="45.73347" lon="4.81732">
        <ele>173.906656</ele>
        <time>2021-09-14T05:49:17.000Z</time>
      </trkpt>
      <trkpt lat="45.73322" lon="4.81711">
        <ele>173.936328</ele>
        <time>2021-09-14T05:49:23.000Z</time>
      </trkpt>
      <trkpt lat="45.73292" lon="4.81688">
        <ele>174.07521</ele>
        <time>2021-09-14T05:49:30.000Z</time>
      </trkpt>
      <trkpt lat="45.73287" lon="4.81685">
        <ele>174.121118</ele>
        <time>2021-09-14T05:49:31.000Z</time>
      </trkpt>
      <trkpt lat="45.73264" lon="4.81672">
        <ele>174.349149</ele>
        <time>2021-09-14T05:49:36.000Z</time>
      </trkpt>
      <trkpt lat="45.73225" lon="4.81648">
        <ele>174.749274</ele>
        <time>2021-09-14T05:49:44.000Z</time>
      </trkpt>
      <trkpt lat="45.73192" lon="4.81623">
        <ele>175.098286</ele>
        <time>2021-09-14T05:49:51.000Z</time>
      </trkpt>
      <trkpt lat="45.73157" lon="4.81594">
        <ele>175.478817</ele>
        <time>2021-09-14T05:49:59.000Z</time>
      </trkpt>
      <trkpt lat="45.73118" lon="4.81561">
        <ele>175.754005</ele>
        <time>2021-09-14T05:50:08.000Z</time>
      </trkpt>
      <trkpt lat="45.73073" lon="4.81523">
        <ele>175.972806</ele>
        <time>2021-09-14T05:50:17.000Z</time>
      </trkpt>
      <trkpt lat="45.73056" lon="4.8151">
        <ele>176.052352</ele>
        <time>2021-09-14T05:50:20.000Z</time>
      </trkpt>
      <trkpt lat="45.73045" lon="4.81508">
        <ele>176.099841</ele>
        <time>2021-09-14T05:50:22.000Z</time>
      </trkpt>
      <trkpt lat="45.7304" lon="4.81507">
        <ele>176.123412</ele>
        <time>2021-09-14T05:50:23.000Z</time>
      </trkpt>
      <trkpt lat="45.73029" lon="4.8151">
        <ele>176.168652</ele>
        <time>2021-09-14T05:50:25.000Z</time>
      </trkpt>
      <trkpt lat="45.72995" lon="4.81531">
        <ele>176.324327</ele>
        <time>2021-09-14T05:50:32.000Z</time>
      </trkpt>
      <trkpt lat="45.72982" lon="4.81538">
        <ele>176.381654</ele>
        <time>2021-09-14T05:50:36.000Z</time>
      </trkpt>
      <trkpt lat="45.7297" lon="4.81537">
        <ele>176.397769</ele>
        <time>2021-09-14T05:50:40.000Z</time>
      </trkpt>
      <trkpt lat="45.72969" lon="4.81537">
        <ele>176.398589</ele>
        <time>2021-09-14T05:50:45.000Z</time>
      </trkpt>
      <trkpt lat="45.72965" lon="4.81535">
        <ele>176.401188</ele>
        <time>2021-09-14T05:50:49.000Z</time>
      </trkpt>
      <trkpt lat="45.72959" lon="4.81531">
        <ele>176.405032</ele>
        <time>2021-09-14T05:50:51.000Z</time>
      </trkpt>
      <trkpt lat="45.72948" lon="4.81525">
        <ele>176.412637</ele>
        <time>2021-09-14T05:50:54.000Z</time>
      </trkpt>
      <trkpt lat="45.72921" lon="4.81533">
        <ele>176.429531</ele>
        <time>2021-09-14T05:51:01.000Z</time>
      </trkpt>
      <trkpt lat="45.72912" lon="4.81545">
        <ele>176.437172</ele>
        <time>2021-09-14T05:51:06.000Z</time>
      </trkpt>
      <trkpt lat="45.7291" lon="4.81545">
        <ele>176.437872</ele>
        <time>2021-09-14T05:51:09.000Z</time>
      </trkpt>
      <trkpt lat="45.72916" lon="4.81541">
        <ele>176.441492</ele>
        <time>2021-09-14T05:51:14.000Z</time>
      </trkpt>
      <trkpt lat="45.72915" lon="4.81546">
        <ele>176.443453</ele>
        <time>2021-09-14T05:51:47.000Z</time>
      </trkpt>
      <trkpt lat="45.72915" lon="4.8155">
        <ele>176.445192</ele>
        <time>2021-09-14T05:51:48.000Z</time>
      </trkpt>
      <trkpt lat="45.72906" lon="4.81575">
        <ele>176.457186</ele>
        <time>2021-09-14T05:51:53.000Z</time>
      </trkpt>
      <trkpt lat="45.72899" lon="4.81578">
        <ele>176.461988</ele>
        <time>2021-09-14T05:51:55.000Z</time>
      </trkpt>
      <trkpt lat="45.7289" lon="4.81582">
        <ele>176.467904</ele>
        <time>2021-09-14T05:51:57.000Z</time>
      </trkpt>
      <trkpt lat="45.7286" lon="4.81594">
        <ele>176.486933</ele>
        <time>2021-09-14T05:52:02.000Z</time>
      </trkpt>
      <trkpt lat="45.72824" lon="4.81606">
        <ele>176.254652</ele>
        <time>2021-09-14T05:52:07.000Z</time>
      </trkpt>
      <trkpt lat="45.72783" lon="4.81618">
        <ele>175.367349</ele>
        <time>2021-09-14T05:52:13.000Z</time>
      </trkpt>
      <trkpt lat="45.72768" lon="4.81621">
        <ele>175.050089</ele>
        <time>2021-09-14T05:52:15.000Z</time>
      </trkpt>
      <trkpt lat="45.72746" lon="4.81616">
        <ele>174.58607</ele>
        <time>2021-09-14T05:52:18.000Z</time>
      </trkpt>
      <trkpt lat="45.72734" lon="4.81611">
        <ele>174.313808</ele>
        <time>2021-09-14T05:52:20.000Z</time>
      </trkpt>
      <trkpt lat="45.72723" lon="4.81616">
        <ele>174.071211</ele>
        <time>2021-09-14T05:52:22.000Z</time>
      </trkpt>
      <trkpt lat="45.72715" lon="4.81623">
        <ele>173.878104</ele>
        <time>2021-09-14T05:52:24.000Z</time>
      </trkpt>
      <trkpt lat="45.72704" lon="4.81625">
        <ele>173.642473</ele>
        <time>2021-09-14T05:52:26.000Z</time>
      </trkpt>
      <trkpt lat="45.72693" lon="4.81627">
        <ele>173.400548</ele>
        <time>2021-09-14T05:52:28.000Z</time>
      </trkpt>
      <trkpt lat="45.72675" lon="4.8163">
        <ele>173.014334</ele>
        <time>2021-09-14T05:52:31.000Z</time>
      </trkpt>
      <trkpt lat="45.72663" lon="4.81631">
        <ele>172.752909</ele>
        <time>2021-09-14T05:52:33.000Z</time>
      </trkpt>
      <trkpt lat="45.7265" lon="4.81633">
        <ele>172.359502</ele>
        <time>2021-09-14T05:52:35.000Z</time>
      </trkpt>
      <trkpt lat="45.72644" lon="4.81635">
        <ele>172.152098</ele>
        <time>2021-09-14T05:52:36.000Z</time>
      </trkpt>
      <trkpt lat="45.72621" lon="4.81642">
        <ele>171.295069</ele>
        <time>2021-09-14T05:52:40.000Z</time>
      </trkpt>
      <trkpt lat="45.72609" lon="4.81647">
        <ele>170.878881</ele>
        <time>2021-09-14T05:52:42.000Z</time>
      </trkpt>
      <trkpt lat="45.72581" lon="4.8166">
        <ele>169.849436</ele>
        <time>2021-09-14T05:52:47.000Z</time>
      </trkpt>
      <trkpt lat="45.72554" lon="4.81668">
        <ele>168.87818</ele>
        <time>2021-09-14T05:52:52.000Z</time>
      </trkpt>
      <trkpt lat="45.72549" lon="4.8167">
        <ele>168.685927</ele>
        <time>2021-09-14T05:52:53.000Z</time>
      </trkpt>
      <trkpt lat="45.72532" lon="4.81681">
        <ele>168.031499</ele>
        <time>2021-09-14T05:52:56.000Z</time>
      </trkpt>
      <trkpt lat="45.72503" lon="4.81688">
        <ele>166.987754</ele>
        <time>2021-09-14T05:53:01.000Z</time>
      </trkpt>
      <trkpt lat="45.7248" lon="4.81693">
        <ele>166.255362</ele>
        <time>2021-09-14T05:53:05.000Z</time>
      </trkpt>
      <trkpt lat="45.72468" lon="4.81696">
        <ele>166.02129</ele>
        <time>2021-09-14T05:53:07.000Z</time>
      </trkpt>
      <trkpt lat="45.72437" lon="4.81705">
        <ele>165.416345</ele>
        <time>2021-09-14T05:53:12.000Z</time>
      </trkpt>
      <trkpt lat="45.72384" lon="4.81717">
        <ele>164.384482</ele>
        <time>2021-09-14T05:53:20.000Z</time>
      </trkpt>
      <trkpt lat="45.7234" lon="4.81727">
        <ele>163.510571</ele>
        <time>2021-09-14T05:53:27.000Z</time>
      </trkpt>
      <trkpt lat="45.72286" lon="4.81739">
        <ele>162.764216</ele>
        <time>2021-09-14T05:53:35.000Z</time>
      </trkpt>
      <trkpt lat="45.72279" lon="4.8174">
        <ele>162.726496</ele>
        <time>2021-09-14T05:53:36.000Z</time>
      </trkpt>
      <trkpt lat="45.72221" lon="4.81754">
        <ele>162.383831</ele>
        <time>2021-09-14T05:53:45.000Z</time>
      </trkpt>
      <trkpt lat="45.72215" lon="4.81755">
        <ele>162.344898</ele>
        <time>2021-09-14T05:53:46.000Z</time>
      </trkpt>
      <trkpt lat="45.72175" lon="4.81764">
        <ele>162.111361</ele>
        <time>2021-09-14T05:53:52.000Z</time>
      </trkpt>
      <trkpt lat="45.72123" lon="4.81776">
        <ele>161.809773</ele>
        <time>2021-09-14T05:54:00.000Z</time>
      </trkpt>
      <trkpt lat="45.72073" lon="4.81787">
        <ele>161.55345</ele>
        <time>2021-09-14T05:54:08.000Z</time>
      </trkpt>
      <trkpt lat="45.72021" lon="4.81799">
        <ele>161.287977</ele>
        <time>2021-09-14T05:54:16.000Z</time>
      </trkpt>
      <trkpt lat="45.71988" lon="4.81811">
        <ele>161.113328</ele>
        <time>2021-09-14T05:54:21.000Z</time>
      </trkpt>
      <trkpt lat="45.71934" lon="4.81822">
        <ele>160.955809</ele>
        <time>2021-09-14T05:54:29.000Z</time>
      </trkpt>
      <trkpt lat="45.71914" lon="4.81826">
        <ele>160.973541</ele>
        <time>2021-09-14T05:54:32.000Z</time>
      </trkpt>
      <trkpt lat="45.71904" lon="4.81828">
        <ele>160.983151</ele>
        <time>2021-09-14T05:54:34.000Z</time>
      </trkpt>
      <trkpt lat="45.71897" lon="4.81829">
        <ele>160.989086</ele>
        <time>2021-09-14T05:54:36.000Z</time>
      </trkpt>
      <trkpt lat="45.71896" lon="4.8183">
        <ele>160.990458</ele>
        <time>2021-09-14T05:54:37.000Z</time>
      </trkpt>
      <trkpt lat="45.71894" lon="4.81826">
        <ele>160.99295</ele>
        <time>2021-09-14T05:54:39.000Z</time>
      </trkpt>
      <trkpt lat="45.71892" lon="4.81831">
        <ele>160.995965</ele>
        <time>2021-09-14T05:54:42.000Z</time>
      </trkpt>
      <trkpt lat="45.71881" lon="4.81834">
        <ele>161.006131</ele>
        <time>2021-09-14T05:54:46.000Z</time>
      </trkpt>
      <trkpt lat="45.71852" lon="4.8184">
        <ele>161.032558</ele>
        <time>2021-09-14T05:54:52.000Z</time>
      </trkpt>
      <trkpt lat="45.71842" lon="4.81845">
        <ele>161.042897</ele>
        <time>2021-09-14T05:54:54.000Z</time>
      </trkpt>
      <trkpt lat="45.71825" lon="4.81849">
        <ele>161.058578</ele>
        <time>2021-09-14T05:54:57.000Z</time>
      </trkpt>
      <trkpt lat="45.71787" lon="4.81858">
        <ele>161.093349</ele>
        <time>2021-09-14T05:55:04.000Z</time>
      </trkpt>
      <trkpt lat="45.71782" lon="4.81859">
        <ele>161.097841</ele>
        <time>2021-09-14T05:55:05.000Z</time>
      </trkpt>
      <trkpt lat="45.71776" lon="4.8186">
        <ele>161.102023</ele>
        <time>2021-09-14T05:55:06.000Z</time>
      </trkpt>
      <trkpt lat="45.71759" lon="4.81864">
        <ele>161.113044</ele>
        <time>2021-09-14T05:55:09.000Z</time>
      </trkpt>
      <trkpt lat="45.71714" lon="4.81874">
        <ele>161.140811</ele>
        <time>2021-09-14T05:55:16.000Z</time>
      </trkpt>
      <trkpt lat="45.717" lon="4.81878">
        <ele>161.149127</ele>
        <time>2021-09-14T05:55:18.000Z</time>
      </trkpt>
      <trkpt lat="45.71687" lon="4.81881">
        <ele>161.157632</ele>
        <time>2021-09-14T05:55:20.000Z</time>
      </trkpt>
      <trkpt lat="45.7168" lon="4.81883">
        <ele>161.161908</ele>
        <time>2021-09-14T05:55:21.000Z</time>
      </trkpt>
      <trkpt lat="45.7164" lon="4.81892">
        <ele>161.186641</ele>
        <time>2021-09-14T05:55:27.000Z</time>
      </trkpt>
      <trkpt lat="45.71601" lon="4.81901">
        <ele>161.211512</ele>
        <time>2021-09-14T05:55:33.000Z</time>
      </trkpt>
      <trkpt lat="45.71567" lon="4.81908">
        <ele>161.261442</ele>
        <time>2021-09-14T05:55:38.000Z</time>
      </trkpt>
      <trkpt lat="45.7152" lon="4.81918">
        <ele>161.33105</ele>
        <time>2021-09-14T05:55:45.000Z</time>
      </trkpt>
      <trkpt lat="45.7149" lon="4.81925">
        <ele>161.374599</ele>
        <time>2021-09-14T05:55:50.000Z</time>
      </trkpt>
      <trkpt lat="45.71445" lon="4.81934">
        <ele>161.441989</ele>
        <time>2021-09-14T05:55:58.000Z</time>
      </trkpt>
      <trkpt lat="45.71434" lon="4.81937">
        <ele>161.45755</ele>
        <time>2021-09-14T05:56:00.000Z</time>
      </trkpt>
      <trkpt lat="45.71427" lon="4.81938">
        <ele>161.468948</ele>
        <time>2021-09-14T05:56:02.000Z</time>
      </trkpt>
      <trkpt lat="45.71421" lon="4.81939">
        <ele>161.494566</ele>
        <time>2021-09-14T05:56:05.000Z</time>
      </trkpt>
      <trkpt lat="45.71421" lon="4.81939">
        <ele>161.494566</ele>
        <time>2021-09-14T05:56:07.000Z</time>
      </trkpt>
      <trkpt lat="45.71418" lon="4.8194">
        <ele>161.516162</ele>
        <time>2021-09-14T05:56:12.000Z</time>
      </trkpt>
      <trkpt lat="45.71415" lon="4.81941">
        <ele>161.539321</ele>
        <time>2021-09-14T05:56:13.000Z</time>
      </trkpt>
      <trkpt lat="45.71407" lon="4.81942">
        <ele>161.600037</ele>
        <time>2021-09-14T05:56:15.000Z</time>
      </trkpt>
      <trkpt lat="45.71398" lon="4.81944">
        <ele>161.676795</ele>
        <time>2021-09-14T05:56:17.000Z</time>
      </trkpt>
      <trkpt lat="45.71382" lon="4.81948">
        <ele>161.8016</ele>
        <time>2021-09-14T05:56:20.000Z</time>
      </trkpt>
      <trkpt lat="45.71366" lon="4.81952">
        <ele>161.928516</ele>
        <time>2021-09-14T05:56:23.000Z</time>
      </trkpt>
      <trkpt lat="45.7133" lon="4.8196">
        <ele>162.216463</ele>
        <time>2021-09-14T05:56:29.000Z</time>
      </trkpt>
      <trkpt lat="45.71287" lon="4.8197">
        <ele>162.568252</ele>
        <time>2021-09-14T05:56:36.000Z</time>
      </trkpt>
      <trkpt lat="45.71227" lon="4.81983">
        <ele>163.0068</ele>
        <time>2021-09-14T05:56:45.000Z</time>
      </trkpt>
      <trkpt lat="45.71173" lon="4.81993">
        <ele>163.317405</ele>
        <time>2021-09-14T05:56:53.000Z</time>
      </trkpt>
      <trkpt lat="45.71167" lon="4.81993">
        <ele>163.353781</ele>
        <time>2021-09-14T05:56:54.000Z</time>
      </trkpt>
      <trkpt lat="45.71148" lon="4.81996">
        <ele>163.461563</ele>
        <time>2021-09-14T05:56:57.000Z</time>
      </trkpt>
      <trkpt lat="45.71136" lon="4.81999">
        <ele>163.534504</ele>
        <time>2021-09-14T05:56:59.000Z</time>
      </trkpt>
      <trkpt lat="45.71084" lon="4.82011">
        <ele>163.837283</ele>
        <time>2021-09-14T05:57:07.000Z</time>
      </trkpt>
      <trkpt lat="45.71035" lon="4.82027">
        <ele>164.416139</ele>
        <time>2021-09-14T05:57:15.000Z</time>
      </trkpt>
      <trkpt lat="45.71001" lon="4.82046">
        <ele>164.941363</ele>
        <time>2021-09-14T05:57:21.000Z</time>
      </trkpt>
      <trkpt lat="45.70996" lon="4.82049">
        <ele>165.026809</ele>
        <time>2021-09-14T05:57:22.000Z</time>
      </trkpt>
      <trkpt lat="45.70977" lon="4.82063">
        <ele>165.33288</ele>
        <time>2021-09-14T05:57:26.000Z</time>
      </trkpt>
      <trkpt lat="45.70947" lon="4.82084">
        <ele>165.824222</ele>
        <time>2021-09-14T05:57:33.000Z</time>
      </trkpt>
      <trkpt lat="45.70943" lon="4.82087">
        <ele>165.887444</ele>
        <time>2021-09-14T05:57:34.000Z</time>
      </trkpt>
      <trkpt lat="45.70939" lon="4.8209">
        <ele>165.950666</ele>
        <time>2021-09-14T05:57:35.000Z</time>
      </trkpt>
      <trkpt lat="45.70926" lon="4.821">
        <ele>166.169096</ele>
        <time>2021-09-14T05:57:39.000Z</time>
      </trkpt>
      <trkpt lat="45.70902" lon="4.82116">
        <ele>166.542369</ele>
        <time>2021-09-14T05:57:47.000Z</time>
      </trkpt>
      <trkpt lat="45.70878" lon="4.82129">
        <ele>166.761589</ele>
        <time>2021-09-14T05:57:55.000Z</time>
      </trkpt>
      <trkpt lat="45.70856" lon="4.82135">
        <ele>166.954877</ele>
        <time>2021-09-14T05:58:01.000Z</time>
      </trkpt>
      <trkpt lat="45.70824" lon="4.82141">
        <ele>167.233629</ele>
        <time>2021-09-14T05:58:08.000Z</time>
      </trkpt>
      <trkpt lat="45.70808" lon="4.82143">
        <ele>167.372956</ele>
        <time>2021-09-14T05:58:11.000Z</time>
      </trkpt>
      <trkpt lat="45.7079" lon="4.82141">
        <ele>167.527719</ele>
        <time>2021-09-14T05:58:14.000Z</time>
      </trkpt>
      <trkpt lat="45.70762" lon="4.82136">
        <ele>167.769128</ele>
        <time>2021-09-14T05:58:19.000Z</time>
      </trkpt>
      <trkpt lat="45.70755" lon="4.82134">
        <ele>167.828536</ele>
        <time>2021-09-14T05:58:21.000Z</time>
      </trkpt>
      <trkpt lat="45.70753" lon="4.82133">
        <ele>167.84786</ele>
        <time>2021-09-14T05:58:22.000Z</time>
      </trkpt>
      <trkpt lat="45.70751" lon="4.82133">
        <ele>167.860943</ele>
        <time>2021-09-14T05:58:25.000Z</time>
      </trkpt>
      <trkpt lat="45.70747" lon="4.82131">
        <ele>167.896826</ele>
        <time>2021-09-14T05:58:37.000Z</time>
      </trkpt>
      <trkpt lat="45.70733" lon="4.82127">
        <ele>168.02237</ele>
        <time>2021-09-14T05:58:41.000Z</time>
      </trkpt>
      <trkpt lat="45.70729" lon="4.82125">
        <ele>168.062276</ele>
        <time>2021-09-14T05:58:42.000Z</time>
      </trkpt>
      <trkpt lat="45.70714" lon="4.8212">
        <ele>168.128135</ele>
        <time>2021-09-14T05:58:45.000Z</time>
      </trkpt>
      <trkpt lat="45.70686" lon="4.82112">
        <ele>168.231582</ele>
        <time>2021-09-14T05:58:50.000Z</time>
      </trkpt>
      <trkpt lat="45.70642" lon="4.82102">
        <ele>168.393791</ele>
        <time>2021-09-14T05:58:57.000Z</time>
      </trkpt>
      <trkpt lat="45.70596" lon="4.82089">
        <ele>168.563621</ele>
        <time>2021-09-14T05:59:05.000Z</time>
      </trkpt>
      <trkpt lat="45.70569" lon="4.82082">
        <ele>168.663873</ele>
        <time>2021-09-14T05:59:11.000Z</time>
      </trkpt>
      <trkpt lat="45.70542" lon="4.82073">
        <ele>168.817201</ele>
        <time>2021-09-14T05:59:19.000Z</time>
      </trkpt>
      <trkpt lat="45.70534" lon="4.82071">
        <ele>168.894243</ele>
        <time>2021-09-14T05:59:21.000Z</time>
      </trkpt>
      <trkpt lat="45.7052" lon="4.82069">
        <ele>169.029231</ele>
        <time>2021-09-14T05:59:24.000Z</time>
      </trkpt>
      <trkpt lat="45.70487" lon="4.82064">
        <ele>169.356858</ele>
        <time>2021-09-14T05:59:30.000Z</time>
      </trkpt>
      <trkpt lat="45.70451" lon="4.82064">
        <ele>169.708137</ele>
        <time>2021-09-14T05:59:36.000Z</time>
      </trkpt>
      <trkpt lat="45.70398" lon="4.82068">
        <ele>170.230749</ele>
        <time>2021-09-14T05:59:45.000Z</time>
      </trkpt>
      <trkpt lat="45.70392" lon="4.82069">
        <ele>170.286945</ele>
        <time>2021-09-14T05:59:46.000Z</time>
      </trkpt>
      <trkpt lat="45.70367" lon="4.82075">
        <ele>170.532117</ele>
        <time>2021-09-14T05:59:51.000Z</time>
      </trkpt>
      <trkpt lat="45.70349" lon="4.82082">
        <ele>170.6753</ele>
        <time>2021-09-14T05:59:56.000Z</time>
      </trkpt>
      <trkpt lat="45.70346" lon="4.82083">
        <ele>170.69415</ele>
        <time>2021-09-14T06:00:00.000Z</time>
      </trkpt>
      <trkpt lat="45.70342" lon="4.82084">
        <ele>170.724974</ele>
        <time>2021-09-14T06:00:05.000Z</time>
      </trkpt>
      <trkpt lat="45.70342" lon="4.82084">
        <ele>170.724974</ele>
        <time>2021-09-14T06:00:06.000Z</time>
      </trkpt>
      <trkpt lat="45.70317" lon="4.82094">
        <ele>170.922052</ele>
        <time>2021-09-14T06:00:11.000Z</time>
      </trkpt>
      <trkpt lat="45.70279" lon="4.82113">
        <ele>171.232213</ele>
        <time>2021-09-14T06:00:18.000Z</time>
      </trkpt>
      <trkpt lat="45.70231" lon="4.82146">
        <ele>171.635173</ele>
        <time>2021-09-14T06:00:26.000Z</time>
      </trkpt>
      <trkpt lat="45.70182" lon="4.8218">
        <ele>171.88065</ele>
        <time>2021-09-14T06:00:34.000Z</time>
      </trkpt>
      <trkpt lat="45.70176" lon="4.82184">
        <ele>171.884751</ele>
        <time>2021-09-14T06:00:35.000Z</time>
      </trkpt>
      <trkpt lat="45.70136" lon="4.82213">
        <ele>171.911597</ele>
        <time>2021-09-14T06:00:42.000Z</time>
      </trkpt>
      <trkpt lat="45.70124" lon="4.82221">
        <ele>171.919297</ele>
        <time>2021-09-14T06:00:44.000Z</time>
      </trkpt>
      <trkpt lat="45.70102" lon="4.82237">
        <ele>171.933964</ele>
        <time>2021-09-14T06:00:48.000Z</time>
      </trkpt>
      <trkpt lat="45.70068" lon="4.82261">
        <ele>171.956816</ele>
        <time>2021-09-14T06:00:55.000Z</time>
      </trkpt>
      <trkpt lat="45.70058" lon="4.82268">
        <ele>171.963014</ele>
        <time>2021-09-14T06:00:57.000Z</time>
      </trkpt>
      <trkpt lat="45.70043" lon="4.82278">
        <ele>171.972811</ele>
        <time>2021-09-14T06:01:00.000Z</time>
      </trkpt>
      <trkpt lat="45.69997" lon="4.82309">
        <ele>171.627338</ele>
        <time>2021-09-14T06:01:09.000Z</time>
      </trkpt>
      <trkpt lat="45.69949" lon="4.82342">
        <ele>171.266121</ele>
        <time>2021-09-14T06:01:18.000Z</time>
      </trkpt>
      <trkpt lat="45.69905" lon="4.82373">
        <ele>170.928332</ele>
        <time>2021-09-14T06:01:26.000Z</time>
      </trkpt>
      <trkpt lat="45.69854" lon="4.82408">
        <ele>170.475768</ele>
        <time>2021-09-14T06:01:35.000Z</time>
      </trkpt>
      <trkpt lat="45.69805" lon="4.82443">
        <ele>169.983731</ele>
        <time>2021-09-14T06:01:44.000Z</time>
      </trkpt>
      <trkpt lat="45.69756" lon="4.82479">
        <ele>169.485768</ele>
        <time>2021-09-14T06:01:53.000Z</time>
      </trkpt>
      <trkpt lat="45.69712" lon="4.8251">
        <ele>169.053177</ele>
        <time>2021-09-14T06:02:01.000Z</time>
      </trkpt>
      <trkpt lat="45.69665" lon="4.82543">
        <ele>168.676959</ele>
        <time>2021-09-14T06:02:09.000Z</time>
      </trkpt>
      <trkpt lat="45.69613" lon="4.8258">
        <ele>168.252236</ele>
        <time>2021-09-14T06:02:18.000Z</time>
      </trkpt>
      <trkpt lat="45.69561" lon="4.82614">
        <ele>167.836674</ele>
        <time>2021-09-14T06:02:27.000Z</time>
      </trkpt>
      <trkpt lat="45.69555" lon="4.82617">
        <ele>167.804291</ele>
        <time>2021-09-14T06:02:28.000Z</time>
      </trkpt>
      <trkpt lat="45.6954" lon="4.82619">
        <ele>167.814063</ele>
        <time>2021-09-14T06:02:30.000Z</time>
      </trkpt>
      <trkpt lat="45.69528" lon="4.82604">
        <ele>167.823978</ele>
        <time>2021-09-14T06:02:33.000Z</time>
      </trkpt>
      <trkpt lat="45.69523" lon="4.82602">
        <ele>167.827178</ele>
        <time>2021-09-14T06:02:34.000Z</time>
      </trkpt>
      <trkpt lat="45.69518" lon="4.82601">
        <ele>167.830982</ele>
        <time>2021-09-14T06:02:35.000Z</time>
      </trkpt>
      <trkpt lat="45.69513" lon="4.82602">
        <ele>167.8341</ele>
        <time>2021-09-14T06:02:37.000Z</time>
      </trkpt>
      <trkpt lat="45.69507" lon="4.82605">
        <ele>167.837885</ele>
        <time>2021-09-14T06:02:41.000Z</time>
      </trkpt>
      <trkpt lat="45.69493" lon="4.82629">
        <ele>167.851744</ele>
        <time>2021-09-14T06:02:43.000Z</time>
      </trkpt>
      <trkpt lat="45.69492" lon="4.82643">
        <ele>167.857905</ele>
        <time>2021-09-14T06:02:44.000Z</time>
      </trkpt>
      <trkpt lat="45.69485" lon="4.82662">
        <ele>167.866997</ele>
        <time>2021-09-14T06:02:46.000Z</time>
      </trkpt>
      <trkpt lat="45.69479" lon="4.82668">
        <ele>167.871842</ele>
        <time>2021-09-14T06:02:48.000Z</time>
      </trkpt>
      <trkpt lat="45.69475" lon="4.82673">
        <ele>167.874914</ele>
        <time>2021-09-14T06:02:49.000Z</time>
      </trkpt>
      <trkpt lat="45.69464" lon="4.82687">
        <ele>167.884664</ele>
        <time>2021-09-14T06:02:52.000Z</time>
      </trkpt>
      <trkpt lat="45.69435" lon="4.82721">
        <ele>167.907907</ele>
        <time>2021-09-14T06:03:00.000Z</time>
      </trkpt>
      <trkpt lat="45.69399" lon="4.82747">
        <ele>167.887612</ele>
        <time>2021-09-14T06:03:09.000Z</time>
      </trkpt>
      <trkpt lat="45.6937" lon="4.82768">
        <ele>167.852767</ele>
        <time>2021-09-14T06:03:16.000Z</time>
      </trkpt>
      <trkpt lat="45.69353" lon="4.82782">
        <ele>167.8316</ele>
        <time>2021-09-14T06:03:20.000Z</time>
      </trkpt>
      <trkpt lat="45.69349" lon="4.82787">
        <ele>167.826146</ele>
        <time>2021-09-14T06:03:21.000Z</time>
      </trkpt>
      <trkpt lat="45.69344" lon="4.828">
        <ele>167.814953</ele>
        <time>2021-09-14T06:03:23.000Z</time>
      </trkpt>
      <trkpt lat="45.69337" lon="4.82806">
        <ele>167.805702</ele>
        <time>2021-09-14T06:03:25.000Z</time>
      </trkpt>
      <trkpt lat="45.6933" lon="4.82811">
        <ele>167.797681</ele>
        <time>2021-09-14T06:03:27.000Z</time>
      </trkpt>
      <trkpt lat="45.69322" lon="4.82811">
        <ele>167.788698</ele>
        <time>2021-09-14T06:03:29.000Z</time>
      </trkpt>
      <trkpt lat="45.69308" lon="4.82804">
        <ele>167.77298</ele>
        <time>2021-09-14T06:03:32.000Z</time>
      </trkpt>
      <trkpt lat="45.693" lon="4.82794">
        <ele>167.761537</ele>
        <time>2021-09-14T06:03:34.000Z</time>
      </trkpt>
      <trkpt lat="45.69292" lon="4.82783">
        <ele>167.748854</ele>
        <time>2021-09-14T06:03:36.000Z</time>
      </trkpt>
      <trkpt lat="45.69286" lon="4.82781">
        <ele>167.742361</ele>
        <time>2021-09-14T06:03:37.000Z</time>
      </trkpt>
      <trkpt lat="45.69247" lon="4.82772">
        <ele>167.810419</ele>
        <time>2021-09-14T06:03:43.000Z</time>
      </trkpt>
      <trkpt lat="45.692" lon="4.8276">
        <ele>168.015734</ele>
        <time>2021-09-14T06:03:50.000Z</time>
      </trkpt>
      <trkpt lat="45.69155" lon="4.82744">
        <ele>168.215248</ele>
        <time>2021-09-14T06:03:57.000Z</time>
      </trkpt>
      <trkpt lat="45.69111" lon="4.82729">
        <ele>168.407735</ele>
        <time>2021-09-14T06:04:04.000Z</time>
      </trkpt>
      <trkpt lat="45.69058" lon="4.82713">
        <ele>168.604817</ele>
        <time>2021-09-14T06:04:13.000Z</time>
      </trkpt>
      <trkpt lat="45.69047" lon="4.82716">
        <ele>168.643123</ele>
        <time>2021-09-14T06:04:15.000Z</time>
      </trkpt>
      <trkpt lat="45.69043" lon="4.82721">
        <ele>168.660864</ele>
        <time>2021-09-14T06:04:16.000Z</time>
      </trkpt>
      <trkpt lat="45.69025" lon="4.82744">
        <ele>168.73744</ele>
        <time>2021-09-14T06:04:21.000Z</time>
      </trkpt>
      <trkpt lat="45.69019" lon="4.82745">
        <ele>168.755692</ele>
        <time>2021-09-14T06:04:22.000Z</time>
      </trkpt>
      <trkpt lat="45.69015" lon="4.82745">
        <ele>168.76995</ele>
        <time>2021-09-14T06:04:23.000Z</time>
      </trkpt>
      <trkpt lat="45.69006" lon="4.82742">
        <ele>168.799148</ele>
        <time>2021-09-14T06:04:25.000Z</time>
      </trkpt>
      <trkpt lat="45.69002" lon="4.8273">
        <ele>168.830562</ele>
        <time>2021-09-14T06:04:27.000Z</time>
      </trkpt>
      <trkpt lat="45.68997" lon="4.82717">
        <ele>168.863673</ele>
        <time>2021-09-14T06:04:29.000Z</time>
      </trkpt>
      <trkpt lat="45.68993" lon="4.82711">
        <ele>168.880932</ele>
        <time>2021-09-14T06:04:30.000Z</time>
      </trkpt>
      <trkpt lat="45.68984" lon="4.82703">
        <ele>168.917651</ele>
        <time>2021-09-14T06:04:32.000Z</time>
      </trkpt>
      <trkpt lat="45.68949" lon="4.82685">
        <ele>169.036046</ele>
        <time>2021-09-14T06:04:38.000Z</time>
      </trkpt>
      <trkpt lat="45.68943" lon="4.82683">
        <ele>169.055177</ele>
        <time>2021-09-14T06:04:39.000Z</time>
      </trkpt>
      <trkpt lat="45.68906" lon="4.82679">
        <ele>169.005069</ele>
        <time>2021-09-14T06:04:45.000Z</time>
      </trkpt>
      <trkpt lat="45.68868" lon="4.82679">
        <ele>168.919493</ele>
        <time>2021-09-14T06:04:51.000Z</time>
      </trkpt>
      <trkpt lat="45.68863" lon="4.82682">
        <ele>168.906867</ele>
        <time>2021-09-14T06:04:52.000Z</time>
      </trkpt>
      <trkpt lat="45.68858" lon="4.82685">
        <ele>168.894318</ele>
        <time>2021-09-14T06:04:53.000Z</time>
      </trkpt>
      <trkpt lat="45.68851" lon="4.82696">
        <ele>168.871739</ele>
        <time>2021-09-14T06:04:55.000Z</time>
      </trkpt>
      <trkpt lat="45.68842" lon="4.82696">
        <ele>168.851326</ele>
        <time>2021-09-14T06:04:57.000Z</time>
      </trkpt>
      <trkpt lat="45.68838" lon="4.82695">
        <ele>168.840403</ele>
        <time>2021-09-14T06:04:58.000Z</time>
      </trkpt>
      <trkpt lat="45.68834" lon="4.82691">
        <ele>168.829221</ele>
        <time>2021-09-14T06:04:59.000Z</time>
      </trkpt>
      <trkpt lat="45.68827" lon="4.8268">
        <ele>168.806045</ele>
        <time>2021-09-14T06:05:01.000Z</time>
      </trkpt>
      <trkpt lat="45.68805" lon="4.82675">
        <ele>168.754973</ele>
        <time>2021-09-14T06:05:05.000Z</time>
      </trkpt>
      <trkpt lat="45.68769" lon="4.82675">
        <ele>168.67215</ele>
        <time>2021-09-14T06:05:11.000Z</time>
      </trkpt>
      <trkpt lat="45.68728" lon="4.82676">
        <ele>168.183531</ele>
        <time>2021-09-14T06:05:17.000Z</time>
      </trkpt>
      <trkpt lat="45.68685" lon="4.82683">
        <ele>167.626748</ele>
        <time>2021-09-14T06:05:23.000Z</time>
      </trkpt>
      <trkpt lat="45.68631" lon="4.82692">
        <ele>166.92035</ele>
        <time>2021-09-14T06:05:31.000Z</time>
      </trkpt>
      <trkpt lat="45.68605" lon="4.82697">
        <ele>166.583495</ele>
        <time>2021-09-14T06:05:35.000Z</time>
      </trkpt>
      <trkpt lat="45.68595" lon="4.82705">
        <ele>166.442143</ele>
        <time>2021-09-14T06:05:37.000Z</time>
      </trkpt>
      <trkpt lat="45.68581" lon="4.82709">
        <ele>166.297984</ele>
        <time>2021-09-14T06:05:40.000Z</time>
      </trkpt>
      <trkpt lat="45.68577" lon="4.82711">
        <ele>166.260161</ele>
        <time>2021-09-14T06:05:41.000Z</time>
      </trkpt>
      <trkpt lat="45.68567" lon="4.82711">
        <ele>166.180584</ele>
        <time>2021-09-14T06:05:43.000Z</time>
      </trkpt>
      <trkpt lat="45.68557" lon="4.82712">
        <ele>166.102749</ele>
        <time>2021-09-14T06:05:45.000Z</time>
      </trkpt>
      <trkpt lat="45.6853" lon="4.82726">
        <ele>165.873169</ele>
        <time>2021-09-14T06:05:50.000Z</time>
      </trkpt>
      <trkpt lat="45.68514" lon="4.82736">
        <ele>165.735284</ele>
        <time>2021-09-14T06:05:53.000Z</time>
      </trkpt>
      <trkpt lat="45.68505" lon="4.82748">
        <ele>165.637416</ele>
        <time>2021-09-14T06:05:55.000Z</time>
      </trkpt>
      <trkpt lat="45.685" lon="4.82755">
        <ele>165.58222</ele>
        <time>2021-09-14T06:05:56.000Z</time>
      </trkpt>
      <trkpt lat="45.68489" lon="4.82762">
        <ele>165.488786</ele>
        <time>2021-09-14T06:05:58.000Z</time>
      </trkpt>
      <trkpt lat="45.68481" lon="4.82769">
        <ele>165.410903</ele>
        <time>2021-09-14T06:06:00.000Z</time>
      </trkpt>
      <trkpt lat="45.68477" lon="4.82775">
        <ele>165.365969</ele>
        <time>2021-09-14T06:06:01.000Z</time>
      </trkpt>
      <trkpt lat="45.68469" lon="4.8278">
        <ele>165.29664</ele>
        <time>2021-09-14T06:06:03.000Z</time>
      </trkpt>
      <trkpt lat="45.68465" lon="4.82779">
        <ele>165.267067</ele>
        <time>2021-09-14T06:06:04.000Z</time>
      </trkpt>
      <trkpt lat="45.68452" lon="4.8278">
        <ele>165.164493</ele>
        <time>2021-09-14T06:06:07.000Z</time>
      </trkpt>
      <trkpt lat="45.68449" lon="4.82776">
        <ele>165.131114</ele>
        <time>2021-09-14T06:06:08.000Z</time>
      </trkpt>
      <trkpt lat="45.68445" lon="4.82768">
        <ele>165.072439</ele>
        <time>2021-09-14T06:06:11.000Z</time>
      </trkpt>
      <trkpt lat="45.68445" lon="4.82766">
        <ele>165.064631</ele>
        <time>2021-09-14T06:06:12.000Z</time>
      </trkpt>
      <trkpt lat="45.68446" lon="4.82759">
        <ele>165.025396</ele>
        <time>2021-09-14T06:06:16.000Z</time>
      </trkpt>
      <trkpt lat="45.68446" lon="4.82755">
        <ele>165.003202</ele>
        <time>2021-09-14T06:06:17.000Z</time>
      </trkpt>
      <trkpt lat="45.68441" lon="4.82749">
        <ele>164.953022</ele>
        <time>2021-09-14T06:06:19.000Z</time>
      </trkpt>
      <trkpt lat="45.68429" lon="4.82758">
        <ele>164.893825</ele>
        <time>2021-09-14T06:06:22.000Z</time>
      </trkpt>
      <trkpt lat="45.68398" lon="4.82773">
        <ele>164.791242</ele>
        <time>2021-09-14T06:06:28.000Z</time>
      </trkpt>
      <trkpt lat="45.68353" lon="4.82797">
        <ele>164.640809</ele>
        <time>2021-09-14T06:06:36.000Z</time>
      </trkpt>
      <trkpt lat="45.68303" lon="4.82825">
        <ele>164.470263</ele>
        <time>2021-09-14T06:06:45.000Z</time>
      </trkpt>
      <trkpt lat="45.68259" lon="4.82854">
        <ele>164.224183</ele>
        <time>2021-09-14T06:06:53.000Z</time>
      </trkpt>
      <trkpt lat="45.68231" lon="4.82872">
        <ele>163.915383</ele>
        <time>2021-09-14T06:06:58.000Z</time>
      </trkpt>
      <trkpt lat="45.68226" lon="4.82876">
        <ele>163.852646</ele>
        <time>2021-09-14T06:07:00.000Z</time>
      </trkpt>
      <trkpt lat="45.68209" lon="4.82886">
        <ele>163.672389</ele>
        <time>2021-09-14T06:07:02.000Z</time>
      </trkpt>
      <trkpt lat="45.68171" lon="4.82912">
        <ele>163.240556</ele>
        <time>2021-09-14T06:07:09.000Z</time>
      </trkpt>
      <trkpt lat="45.68143" lon="4.8293">
        <ele>162.929609</ele>
        <time>2021-09-14T06:07:14.000Z</time>
      </trkpt>
      <trkpt lat="45.68095" lon="4.82966">
        <ele>162.368095</ele>
        <time>2021-09-14T06:07:23.000Z</time>
      </trkpt>
      <trkpt lat="45.68046" lon="4.83004">
        <ele>161.743144</ele>
        <time>2021-09-14T06:07:32.000Z</time>
      </trkpt>
      <trkpt lat="45.68041" lon="4.83009">
        <ele>161.675855</ele>
        <time>2021-09-14T06:07:33.000Z</time>
      </trkpt>
      <trkpt lat="45.67998" lon="4.83045">
        <ele>161.128202</ele>
        <time>2021-09-14T06:07:41.000Z</time>
      </trkpt>
      <trkpt lat="45.67961" lon="4.83077">
        <ele>160.645141</ele>
        <time>2021-09-14T06:07:48.000Z</time>
      </trkpt>
      <trkpt lat="45.67921" lon="4.83108">
        <ele>160.59684</ele>
        <time>2021-09-14T06:07:55.000Z</time>
      </trkpt>
      <trkpt lat="45.6788" lon="4.83129">
        <ele>160.667714</ele>
        <time>2021-09-14T06:08:02.000Z</time>
      </trkpt>
      <trkpt lat="45.67838" lon="4.8314">
        <ele>160.73611</ele>
        <time>2021-09-14T06:08:09.000Z</time>
      </trkpt>
      <trkpt lat="45.67795" lon="4.83142">
        <ele>160.804953</ele>
        <time>2021-09-14T06:08:17.000Z</time>
      </trkpt>
      <trkpt lat="45.67757" lon="4.83137">
        <ele>160.993841</ele>
        <time>2021-09-14T06:08:25.000Z</time>
      </trkpt>
      <trkpt lat="45.67712" lon="4.83123">
        <ele>161.310821</ele>
        <time>2021-09-14T06:08:34.000Z</time>
      </trkpt>
      <trkpt lat="45.67666" lon="4.83112">
        <ele>161.637246</ele>
        <time>2021-09-14T06:08:42.000Z</time>
      </trkpt>
      <trkpt lat="45.6761" lon="4.831">
        <ele>162.031616</ele>
        <time>2021-09-14T06:08:51.000Z</time>
      </trkpt>
      <trkpt lat="45.67605" lon="4.83098">
        <ele>162.07333</ele>
        <time>2021-09-14T06:08:52.000Z</time>
      </trkpt>
      <trkpt lat="45.6756" lon="4.83089">
        <ele>162.44884</ele>
        <time>2021-09-14T06:09:00.000Z</time>
      </trkpt>
      <trkpt lat="45.67525" lon="4.83083">
        <ele>162.750526</ele>
        <time>2021-09-14T06:09:08.000Z</time>
      </trkpt>
      <trkpt lat="45.67495" lon="4.83078">
        <ele>163.002586</ele>
        <time>2021-09-14T06:09:16.000Z</time>
      </trkpt>
      <trkpt lat="45.67463" lon="4.83073">
        <ele>163.276647</ele>
        <time>2021-09-14T06:09:26.000Z</time>
      </trkpt>
      <trkpt lat="45.67442" lon="4.83069">
        <ele>163.452216</ele>
        <time>2021-09-14T06:09:33.000Z</time>
      </trkpt>
      <trkpt lat="45.67418" lon="4.83056">
        <ele>163.774102</ele>
        <time>2021-09-14T06:09:41.000Z</time>
      </trkpt>
      <trkpt lat="45.67393" lon="4.83041">
        <ele>164.3958</ele>
        <time>2021-09-14T06:09:49.000Z</time>
      </trkpt>
      <trkpt lat="45.67365" lon="4.83024">
        <ele>165.068166</ele>
        <time>2021-09-14T06:09:57.000Z</time>
      </trkpt>
      <trkpt lat="45.67343" lon="4.83011">
        <ele>165.601547</ele>
        <time>2021-09-14T06:10:03.000Z</time>
      </trkpt>
      <trkpt lat="45.67332" lon="4.83005">
        <ele>165.873578</ele>
        <time>2021-09-14T06:10:06.000Z</time>
      </trkpt>
      <trkpt lat="45.67317" lon="4.82996">
        <ele>166.223246</ele>
        <time>2021-09-14T06:10:10.000Z</time>
      </trkpt>
      <trkpt lat="45.67287" lon="4.82978">
        <ele>166.948951</ele>
        <time>2021-09-14T06:10:18.000Z</time>
      </trkpt>
      <trkpt lat="45.67253" lon="4.82956">
        <ele>167.793727</ele>
        <time>2021-09-14T06:10:26.000Z</time>
      </trkpt>
      <trkpt lat="45.67228" lon="4.82938">
        <ele>168.383673</ele>
        <time>2021-09-14T06:10:31.000Z</time>
      </trkpt>
      <trkpt lat="45.67222" lon="4.82935">
        <ele>168.505729</ele>
        <time>2021-09-14T06:10:32.000Z</time>
      </trkpt>
      <trkpt lat="45.67186" lon="4.8291">
        <ele>169.35377</ele>
        <time>2021-09-14T06:10:39.000Z</time>
      </trkpt>
      <trkpt lat="45.67151" lon="4.8289">
        <ele>170.162412</ele>
        <time>2021-09-14T06:10:46.000Z</time>
      </trkpt>
      <trkpt lat="45.67113" lon="4.82876">
        <ele>170.985384</ele>
        <time>2021-09-14T06:10:54.000Z</time>
      </trkpt>
      <trkpt lat="45.67079" lon="4.82865">
        <ele>171.644001</ele>
        <time>2021-09-14T06:11:02.000Z</time>
      </trkpt>
      <trkpt lat="45.67032" lon="4.82859">
        <ele>172.350569</ele>
        <time>2021-09-14T06:11:12.000Z</time>
      </trkpt>
      <trkpt lat="45.66982" lon="4.82853">
        <ele>173.102832</ele>
        <time>2021-09-14T06:11:22.000Z</time>
      </trkpt>
      <trkpt lat="45.66939" lon="4.82846">
        <ele>173.761998</ele>
        <time>2021-09-14T06:11:30.000Z</time>
      </trkpt>
      <trkpt lat="45.66895" lon="4.8284">
        <ele>174.225866</ele>
        <time>2021-09-14T06:11:37.000Z</time>
      </trkpt>
      <trkpt lat="45.6684" lon="4.82841">
        <ele>174.47157</ele>
        <time>2021-09-14T06:11:45.000Z</time>
      </trkpt>
      <trkpt lat="45.66785" lon="4.82842">
        <ele>174.712391</ele>
        <time>2021-09-14T06:11:53.000Z</time>
      </trkpt>
      <trkpt lat="45.66747" lon="4.82829">
        <ele>174.886043</ele>
        <time>2021-09-14T06:11:59.000Z</time>
      </trkpt>
      <trkpt lat="45.66712" lon="4.82814">
        <ele>175.239113</ele>
        <time>2021-09-14T06:12:05.000Z</time>
      </trkpt>
      <trkpt lat="45.66676" lon="4.82791">
        <ele>175.729253</ele>
        <time>2021-09-14T06:12:12.000Z</time>
      </trkpt>
      <trkpt lat="45.66662" lon="4.82779">
        <ele>175.928809</ele>
        <time>2021-09-14T06:12:15.000Z</time>
      </trkpt>
      <trkpt lat="45.66649" lon="4.82767">
        <ele>176.113908</ele>
        <time>2021-09-14T06:12:18.000Z</time>
      </trkpt>
      <trkpt lat="45.66629" lon="4.82747">
        <ele>176.426689</ele>
        <time>2021-09-14T06:12:23.000Z</time>
      </trkpt>
      <trkpt lat="45.66599" lon="4.82717">
        <ele>176.881507</ele>
        <time>2021-09-14T06:12:30.000Z</time>
      </trkpt>
      <trkpt lat="45.66575" lon="4.82693">
        <ele>177.208253</ele>
        <time>2021-09-14T06:12:35.000Z</time>
      </trkpt>
      <trkpt lat="45.66566" lon="4.82684">
        <ele>177.29691</ele>
        <time>2021-09-14T06:12:37.000Z</time>
      </trkpt>
      <trkpt lat="45.66538" lon="4.82656">
        <ele>177.571867</ele>
        <time>2021-09-14T06:12:43.000Z</time>
      </trkpt>
      <trkpt lat="45.66526" lon="4.82637">
        <ele>177.709498</ele>
        <time>2021-09-14T06:12:46.000Z</time>
      </trkpt>
      <trkpt lat="45.66522" lon="4.82621">
        <ele>177.805828</ele>
        <time>2021-09-14T06:12:48.000Z</time>
      </trkpt>
      <trkpt lat="45.6651" lon="4.82611">
        <ele>177.915533</ele>
        <time>2021-09-14T06:12:50.000Z</time>
      </trkpt>
      <trkpt lat="45.66492" lon="4.8262">
        <ele>178.05968</ele>
        <time>2021-09-14T06:12:53.000Z</time>
      </trkpt>
      <trkpt lat="45.66486" lon="4.8262">
        <ele>178.107062</ele>
        <time>2021-09-14T06:12:54.000Z</time>
      </trkpt>
      <trkpt lat="45.6648" lon="4.8262">
        <ele>178.155227</ele>
        <time>2021-09-14T06:12:55.000Z</time>
      </trkpt>
      <trkpt lat="45.66463" lon="4.82611">
        <ele>178.300665</ele>
        <time>2021-09-14T06:12:58.000Z</time>
      </trkpt>
      <trkpt lat="45.66421" lon="4.82589">
        <ele>178.559475</ele>
        <time>2021-09-14T06:13:05.000Z</time>
      </trkpt>
      <trkpt lat="45.66379" lon="4.82568">
        <ele>178.43715</ele>
        <time>2021-09-14T06:13:12.000Z</time>
      </trkpt>
      <trkpt lat="45.66337" lon="4.82545">
        <ele>178.315971</ele>
        <time>2021-09-14T06:13:19.000Z</time>
      </trkpt>
      <trkpt lat="45.66286" lon="4.82513">
        <ele>178.163944</ele>
        <time>2021-09-14T06:13:27.000Z</time>
      </trkpt>
      <trkpt lat="45.66281" lon="4.82507">
        <ele>178.145474</ele>
        <time>2021-09-14T06:13:28.000Z</time>
      </trkpt>
      <trkpt lat="45.66247" lon="4.82478">
        <ele>178.031329</ele>
        <time>2021-09-14T06:13:34.000Z</time>
      </trkpt>
      <trkpt lat="45.66197" lon="4.82444">
        <ele>177.865432</ele>
        <time>2021-09-14T06:13:43.000Z</time>
      </trkpt>
      <trkpt lat="45.6615" lon="4.82411">
        <ele>177.710148</ele>
        <time>2021-09-14T06:13:51.000Z</time>
      </trkpt>
      <trkpt lat="45.66113" lon="4.82378">
        <ele>177.579524</ele>
        <time>2021-09-14T06:13:58.000Z</time>
      </trkpt>
      <trkpt lat="45.66074" lon="4.82329">
        <ele>177.89847</ele>
        <time>2021-09-14T06:14:07.000Z</time>
      </trkpt>
      <trkpt lat="45.66035" lon="4.82282">
        <ele>178.30789</ele>
        <time>2021-09-14T06:14:16.000Z</time>
      </trkpt>
      <trkpt lat="45.65993" lon="4.8223">
        <ele>178.753401</ele>
        <time>2021-09-14T06:14:26.000Z</time>
      </trkpt>
      <trkpt lat="45.65952" lon="4.82179">
        <ele>179.371779</ele>
        <time>2021-09-14T06:14:36.000Z</time>
      </trkpt>
      <trkpt lat="45.65915" lon="4.82134">
        <ele>180.109636</ele>
        <time>2021-09-14T06:14:45.000Z</time>
      </trkpt>
      <trkpt lat="45.65885" lon="4.82097">
        <ele>180.724135</ele>
        <time>2021-09-14T06:14:53.000Z</time>
      </trkpt>
      <trkpt lat="45.65857" lon="4.82064">
        <ele>181.286105</ele>
        <time>2021-09-14T06:15:01.000Z</time>
      </trkpt>
      <trkpt lat="45.65827" lon="4.82028">
        <ele>181.934399</ele>
        <time>2021-09-14T06:15:10.000Z</time>
      </trkpt>
      <trkpt lat="45.65802" lon="4.81998">
        <ele>182.598439</ele>
        <time>2021-09-14T06:15:18.000Z</time>
      </trkpt>
      <trkpt lat="45.65776" lon="4.81968">
        <ele>183.293674</ele>
        <time>2021-09-14T06:15:26.000Z</time>
      </trkpt>
      <trkpt lat="45.6577" lon="4.8196">
        <ele>183.470347</ele>
        <time>2021-09-14T06:15:28.000Z</time>
      </trkpt>
      <trkpt lat="45.65759" lon="4.81947">
        <ele>183.763585</ele>
        <time>2021-09-14T06:15:31.000Z</time>
      </trkpt>
      <trkpt lat="45.6574" lon="4.81925">
        <ele>184.275716</ele>
        <time>2021-09-14T06:15:36.000Z</time>
      </trkpt>
      <trkpt lat="45.65732" lon="4.81916">
        <ele>184.491175</ele>
        <time>2021-09-14T06:15:38.000Z</time>
      </trkpt>
      <trkpt lat="45.6571" lon="4.81891">
        <ele>185.075127</ele>
        <time>2021-09-14T06:15:44.000Z</time>
      </trkpt>
      <trkpt lat="45.65706" lon="4.81886">
        <ele>185.168971</ele>
        <time>2021-09-14T06:15:45.000Z</time>
      </trkpt>
      <trkpt lat="45.657" lon="4.81879">
        <ele>185.344732</ele>
        <time>2021-09-14T06:15:47.000Z</time>
      </trkpt>
      <trkpt lat="45.6569" lon="4.81868">
        <ele>185.542861</ele>
        <time>2021-09-14T06:15:50.000Z</time>
      </trkpt>
      <trkpt lat="45.65669" lon="4.81844">
        <ele>185.820084</ele>
        <time>2021-09-14T06:15:56.000Z</time>
      </trkpt>
      <trkpt lat="45.65644" lon="4.81818">
        <ele>186.134739</ele>
        <time>2021-09-14T06:16:03.000Z</time>
      </trkpt>
      <trkpt lat="45.65624" lon="4.81798">
        <ele>186.384477</ele>
        <time>2021-09-14T06:16:09.000Z</time>
      </trkpt>
      <trkpt lat="45.65604" lon="4.81775">
        <ele>186.651107</ele>
        <time>2021-09-14T06:16:15.000Z</time>
      </trkpt>
      <trkpt lat="45.65578" lon="4.81738">
        <ele>187.027442</ele>
        <time>2021-09-14T06:16:23.000Z</time>
      </trkpt>
      <trkpt lat="45.65558" lon="4.817">
        <ele>187.32837</ele>
        <time>2021-09-14T06:16:30.000Z</time>
      </trkpt>
      <trkpt lat="45.65555" lon="4.81694">
        <ele>187.308741</ele>
        <time>2021-09-14T06:16:31.000Z</time>
      </trkpt>
      <trkpt lat="45.65543" lon="4.81665">
        <ele>187.21842</ele>
        <time>2021-09-14T06:16:35.000Z</time>
      </trkpt>
      <trkpt lat="45.65529" lon="4.81621">
        <ele>187.088499</ele>
        <time>2021-09-14T06:16:40.000Z</time>
      </trkpt>
      <trkpt lat="45.65516" lon="4.81594">
        <ele>187.00245</ele>
        <time>2021-09-14T06:16:43.000Z</time>
      </trkpt>
      <trkpt lat="45.65505" lon="4.81581">
        <ele>186.944675</ele>
        <time>2021-09-14T06:16:45.000Z</time>
      </trkpt>
      <trkpt lat="45.65492" lon="4.81571">
        <ele>186.887774</ele>
        <time>2021-09-14T06:16:47.000Z</time>
      </trkpt>
      <trkpt lat="45.65485" lon="4.81569">
        <ele>186.860823</ele>
        <time>2021-09-14T06:16:48.000Z</time>
      </trkpt>
      <trkpt lat="45.65471" lon="4.81569">
        <ele>186.808472</ele>
        <time>2021-09-14T06:16:50.000Z</time>
      </trkpt>
      <trkpt lat="45.65458" lon="4.81571">
        <ele>186.755924</ele>
        <time>2021-09-14T06:16:52.000Z</time>
      </trkpt>
      <trkpt lat="45.65427" lon="4.81573">
        <ele>186.655785</ele>
        <time>2021-09-14T06:16:57.000Z</time>
      </trkpt>
      <trkpt lat="45.65422" lon="4.81573">
        <ele>186.675195</ele>
        <time>2021-09-14T06:16:58.000Z</time>
      </trkpt>
      <trkpt lat="45.65412" lon="4.8157">
        <ele>186.71367</ele>
        <time>2021-09-14T06:17:00.000Z</time>
      </trkpt>
      <trkpt lat="45.654" lon="4.81564">
        <ele>186.763618</ele>
        <time>2021-09-14T06:17:03.000Z</time>
      </trkpt>
      <trkpt lat="45.65378" lon="4.81544">
        <ele>186.865662</ele>
        <time>2021-09-14T06:17:10.000Z</time>
      </trkpt>
      <trkpt lat="45.65357" lon="4.81518">
        <ele>186.974495</ele>
        <time>2021-09-14T06:17:17.000Z</time>
      </trkpt>
      <trkpt lat="45.65333" lon="4.81485">
        <ele>187.104631</ele>
        <time>2021-09-14T06:17:24.000Z</time>
      </trkpt>
      <trkpt lat="45.65298" lon="4.81437">
        <ele>187.289596</ele>
        <time>2021-09-14T06:17:33.000Z</time>
      </trkpt>
      <trkpt lat="45.65271" lon="4.814">
        <ele>187.109091</ele>
        <time>2021-09-14T06:17:40.000Z</time>
      </trkpt>
      <trkpt lat="45.65244" lon="4.81368">
        <ele>186.764537</ele>
        <time>2021-09-14T06:17:46.000Z</time>
      </trkpt>
      <trkpt lat="45.65211" lon="4.81346">
        <ele>186.397679</ele>
        <time>2021-09-14T06:17:52.000Z</time>
      </trkpt>
      <trkpt lat="45.65194" lon="4.81336">
        <ele>186.212833</ele>
        <time>2021-09-14T06:17:56.000Z</time>
      </trkpt>
      <trkpt lat="45.65189" lon="4.81334">
        <ele>186.165672</ele>
        <time>2021-09-14T06:17:58.000Z</time>
      </trkpt>
      <trkpt lat="45.65187" lon="4.81332">
        <ele>186.138666</ele>
        <time>2021-09-14T06:18:00.000Z</time>
      </trkpt>
      <trkpt lat="45.65179" lon="4.81327">
        <ele>186.05106</ele>
        <time>2021-09-14T06:18:03.000Z</time>
      </trkpt>
      <trkpt lat="45.65156" lon="4.81315">
        <ele>185.810364</ele>
        <time>2021-09-14T06:18:08.000Z</time>
      </trkpt>
      <trkpt lat="45.65146" lon="4.8131">
        <ele>185.700619</ele>
        <time>2021-09-14T06:18:10.000Z</time>
      </trkpt>
      <trkpt lat="45.6512" lon="4.81296">
        <ele>185.232497</ele>
        <time>2021-09-14T06:18:15.000Z</time>
      </trkpt>
      <trkpt lat="45.65091" lon="4.81281">
        <ele>184.449289</ele>
        <time>2021-09-14T06:18:21.000Z</time>
      </trkpt>
      <trkpt lat="45.65054" lon="4.8126">
        <ele>183.473344</ele>
        <time>2021-09-14T06:18:28.000Z</time>
      </trkpt>
      <trkpt lat="45.6505" lon="4.81256">
        <ele>183.334638</ele>
        <time>2021-09-14T06:18:29.000Z</time>
      </trkpt>
      <trkpt lat="45.65022" lon="4.81234">
        <ele>182.54253</ele>
        <time>2021-09-14T06:18:35.000Z</time>
      </trkpt>
      <trkpt lat="45.65014" lon="4.81227">
        <ele>182.293905</ele>
        <time>2021-09-14T06:18:39.000Z</time>
      </trkpt>
      <trkpt lat="45.65014" lon="4.81227">
        <ele>182.293905</ele>
        <time>2021-09-14T06:18:44.000Z</time>
      </trkpt>
      <trkpt lat="45.64991" lon="4.8121">
        <ele>181.643184</ele>
        <time>2021-09-14T06:18:47.000Z</time>
      </trkpt>
      <trkpt lat="45.64982" lon="4.81209">
        <ele>181.419112</ele>
        <time>2021-09-14T06:18:51.000Z</time>
      </trkpt>
      <trkpt lat="45.64969" lon="4.81206">
        <ele>181.0945</ele>
        <time>2021-09-14T06:18:55.000Z</time>
      </trkpt>
      <trkpt lat="45.6495" lon="4.81204">
        <ele>180.691868</ele>
        <time>2021-09-14T06:19:01.000Z</time>
      </trkpt>
      <trkpt lat="45.64939" lon="4.81203">
        <ele>180.467953</ele>
        <time>2021-09-14T06:19:05.000Z</time>
      </trkpt>
      <trkpt lat="45.64919" lon="4.81202">
        <ele>180.046799</ele>
        <time>2021-09-14T06:19:10.000Z</time>
      </trkpt>
      <trkpt lat="45.64914" lon="4.81202">
        <ele>179.958511</ele>
        <time>2021-09-14T06:19:11.000Z</time>
      </trkpt>
      <trkpt lat="45.64889" lon="4.81204">
        <ele>179.442433</ele>
        <time>2021-09-14T06:19:17.000Z</time>
      </trkpt>
      <trkpt lat="45.64885" lon="4.81205">
        <ele>179.351909</ele>
        <time>2021-09-14T06:19:18.000Z</time>
      </trkpt>
      <trkpt lat="45.64869" lon="4.81206">
        <ele>179.024994</ele>
        <time>2021-09-14T06:19:22.000Z</time>
      </trkpt>
      <trkpt lat="45.64849" lon="4.81208">
        <ele>178.605509</ele>
        <time>2021-09-14T06:19:28.000Z</time>
      </trkpt>
      <trkpt lat="45.64829" lon="4.81206">
        <ele>178.193961</ele>
        <time>2021-09-14T06:19:34.000Z</time>
      </trkpt>
      <trkpt lat="45.64798" lon="4.81201">
        <ele>177.557512</ele>
        <time>2021-09-14T06:19:41.000Z</time>
      </trkpt>
      <trkpt lat="45.64779" lon="4.81196">
        <ele>177.048855</ele>
        <time>2021-09-14T06:19:46.000Z</time>
      </trkpt>
      <trkpt lat="45.64759" lon="4.81192">
        <ele>176.316425</ele>
        <time>2021-09-14T06:19:52.000Z</time>
      </trkpt>
      <trkpt lat="45.64758" lon="4.81205">
        <ele>176.002958</ele>
        <time>2021-09-14T06:19:54.000Z</time>
      </trkpt>
      <trkpt lat="45.64757" lon="4.8121">
        <ele>175.84349</ele>
        <time>2021-09-14T06:19:55.000Z</time>
      </trkpt>
      <trkpt lat="45.64753" lon="4.81223">
        <ele>175.490929</ele>
        <time>2021-09-14T06:19:57.000Z</time>
      </trkpt>
      <trkpt lat="45.64749" lon="4.81242">
        <ele>174.987343</ele>
        <time>2021-09-14T06:20:00.000Z</time>
      </trkpt>
      <trkpt lat="45.64747" lon="4.81251">
        <ele>174.745164</ele>
        <time>2021-09-14T06:20:04.000Z</time>
      </trkpt>
      <trkpt lat="45.64743" lon="4.81265">
        <ele>174.385482</ele>
        <time>2021-09-14T06:20:08.000Z</time>
      </trkpt>
      <trkpt lat="45.6474" lon="4.81282">
        <ele>173.9308</ele>
        <time>2021-09-14T06:20:11.000Z</time>
      </trkpt>
      <trkpt lat="45.64738" lon="4.81288">
        <ele>173.754517</ele>
        <time>2021-09-14T06:20:12.000Z</time>
      </trkpt>
      <trkpt lat="45.64734" lon="4.81308">
        <ele>173.238653</ele>
        <time>2021-09-14T06:20:15.000Z</time>
      </trkpt>
      <trkpt lat="45.64731" lon="4.81322">
        <ele>172.852424</ele>
        <time>2021-09-14T06:20:17.000Z</time>
      </trkpt>
      <trkpt lat="45.64729" lon="4.8133">
        <ele>172.645944</ele>
        <time>2021-09-14T06:20:18.000Z</time>
      </trkpt>
      <trkpt lat="45.64725" lon="4.81353">
        <ele>172.029959</ele>
        <time>2021-09-14T06:20:22.000Z</time>
      </trkpt>
      <trkpt lat="45.64724" lon="4.81356">
        <ele>171.967289</ele>
        <time>2021-09-14T06:20:25.000Z</time>
      </trkpt>
      <trkpt lat="45.64723" lon="4.81361">
        <ele>171.8386</ele>
        <time>2021-09-14T06:20:31.000Z</time>
      </trkpt>
      <trkpt lat="45.64722" lon="4.81368">
        <ele>171.655526</ele>
        <time>2021-09-14T06:20:33.000Z</time>
      </trkpt>
      <trkpt lat="45.64717" lon="4.81391">
        <ele>171.027328</ele>
        <time>2021-09-14T06:20:38.000Z</time>
      </trkpt>
      <trkpt lat="45.64713" lon="4.81416">
        <ele>170.570433</ele>
        <time>2021-09-14T06:20:42.000Z</time>
      </trkpt>
      <trkpt lat="45.64712" lon="4.81423">
        <ele>170.4712</ele>
        <time>2021-09-14T06:20:43.000Z</time>
      </trkpt>
      <trkpt lat="45.64704" lon="4.8144">
        <ele>170.192652</ele>
        <time>2021-09-14T06:20:46.000Z</time>
      </trkpt>
      <trkpt lat="45.64689" lon="4.81462">
        <ele>169.762082</ele>
        <time>2021-09-14T06:20:51.000Z</time>
      </trkpt>
      <trkpt lat="45.64686" lon="4.81467">
        <ele>169.680919</ele>
        <time>2021-09-14T06:20:52.000Z</time>
      </trkpt>
      <trkpt lat="45.6466" lon="4.81506">
        <ele>168.936952</ele>
        <time>2021-09-14T06:21:01.000Z</time>
      </trkpt>
      <trkpt lat="45.64636" lon="4.81541">
        <ele>168.259329</ele>
        <time>2021-09-14T06:21:09.000Z</time>
      </trkpt>
      <trkpt lat="45.64622" lon="4.81564">
        <ele>167.835991</ele>
        <time>2021-09-14T06:21:14.000Z</time>
      </trkpt>
      <trkpt lat="45.64613" lon="4.81577">
        <ele>167.588788</ele>
        <time>2021-09-14T06:21:17.000Z</time>
      </trkpt>
      <trkpt lat="45.64597" lon="4.81601">
        <ele>167.230581</ele>
        <time>2021-09-14T06:21:23.000Z</time>
      </trkpt>
      <trkpt lat="45.64568" lon="4.81643">
        <ele>167.092819</ele>
        <time>2021-09-14T06:21:33.000Z</time>
      </trkpt>
      <trkpt lat="45.64541" lon="4.81682">
        <ele>166.963205</ele>
        <time>2021-09-14T06:21:41.000Z</time>
      </trkpt>
      <trkpt lat="45.64514" lon="4.8172">
        <ele>166.836509</ele>
        <time>2021-09-14T06:21:48.000Z</time>
      </trkpt>
      <trkpt lat="45.64511" lon="4.81726">
        <ele>166.818931</ele>
        <time>2021-09-14T06:21:49.000Z</time>
      </trkpt>
      <trkpt lat="45.64503" lon="4.81737">
        <ele>166.782637</ele>
        <time>2021-09-14T06:21:51.000Z</time>
      </trkpt>
      <trkpt lat="45.64495" lon="4.81748">
        <ele>166.74537</ele>
        <time>2021-09-14T06:21:53.000Z</time>
      </trkpt>
      <trkpt lat="45.64483" lon="4.81765">
        <ele>166.68858</ele>
        <time>2021-09-14T06:21:57.000Z</time>
      </trkpt>
      <trkpt lat="45.64474" lon="4.8178">
        <ele>166.621132</ele>
        <time>2021-09-14T06:22:02.000Z</time>
      </trkpt>
      <trkpt lat="45.6446" lon="4.81792">
        <ele>166.39882</ele>
        <time>2021-09-14T06:22:06.000Z</time>
      </trkpt>
      <trkpt lat="45.64439" lon="4.81827">
        <ele>165.954448</ele>
        <time>2021-09-14T06:22:12.000Z</time>
      </trkpt>
      <trkpt lat="45.64431" lon="4.8185">
        <ele>165.713726</ele>
        <time>2021-09-14T06:22:15.000Z</time>
      </trkpt>
      <trkpt lat="45.64428" lon="4.81866">
        <ele>165.558351</ele>
        <time>2021-09-14T06:22:17.000Z</time>
      </trkpt>
      <trkpt lat="45.64424" lon="4.81892">
        <ele>165.303422</ele>
        <time>2021-09-14T06:22:20.000Z</time>
      </trkpt>
      <trkpt lat="45.64422" lon="4.81911">
        <ele>165.119648</ele>
        <time>2021-09-14T06:22:22.000Z</time>
      </trkpt>
      <trkpt lat="45.64421" lon="4.81962">
        <ele>164.627985</ele>
        <time>2021-09-14T06:22:27.000Z</time>
      </trkpt>
      <trkpt lat="45.64431" lon="4.82042">
        <ele>164.221828</ele>
        <time>2021-09-14T06:22:35.000Z</time>
      </trkpt>
      <trkpt lat="45.64439" lon="4.82105">
        <ele>164.285519</ele>
        <time>2021-09-14T06:22:42.000Z</time>
      </trkpt>
      <trkpt lat="45.64445" lon="4.82166">
        <ele>164.346186</ele>
        <time>2021-09-14T06:22:49.000Z</time>
      </trkpt>
      <trkpt lat="45.64445" lon="4.82216">
        <ele>164.395321</ele>
        <time>2021-09-14T06:22:55.000Z</time>
      </trkpt>
      <trkpt lat="45.64439" lon="4.82255">
        <ele>164.435086</ele>
        <time>2021-09-14T06:23:01.000Z</time>
      </trkpt>
      <trkpt lat="45.6443" lon="4.82282">
        <ele>164.693378</ele>
        <time>2021-09-14T06:23:07.000Z</time>
      </trkpt>
      <trkpt lat="45.64427" lon="4.82298">
        <ele>164.86604</ele>
        <time>2021-09-14T06:23:12.000Z</time>
      </trkpt>
      <trkpt lat="45.64419" lon="4.82319">
        <ele>165.126827</ele>
        <time>2021-09-14T06:23:18.000Z</time>
      </trkpt>
      <trkpt lat="45.64411" lon="4.82339">
        <ele>165.363063</ele>
        <time>2021-09-14T06:23:23.000Z</time>
      </trkpt>
      <trkpt lat="45.64399" lon="4.8237">
        <ele>165.740136</ele>
        <time>2021-09-14T06:23:30.000Z</time>
      </trkpt>
      <trkpt lat="45.64386" lon="4.82403">
        <ele>166.155406</ele>
        <time>2021-09-14T06:23:37.000Z</time>
      </trkpt>
      <trkpt lat="45.64363" lon="4.82457">
        <ele>166.823119</ele>
        <time>2021-09-14T06:23:47.000Z</time>
      </trkpt>
      <trkpt lat="45.64345" lon="4.82504">
        <ele>167.139312</ele>
        <time>2021-09-14T06:23:55.000Z</time>
      </trkpt>
      <trkpt lat="45.64325" lon="4.8255">
        <ele>167.018781</ele>
        <time>2021-09-14T06:24:03.000Z</time>
      </trkpt>
      <trkpt lat="45.64324" lon="4.82554">
        <ele>167.008145</ele>
        <time>2021-09-14T06:24:04.000Z</time>
      </trkpt>
      <trkpt lat="45.64319" lon="4.82565">
        <ele>166.979514</ele>
        <time>2021-09-14T06:24:09.000Z</time>
      </trkpt>
      <trkpt lat="45.64312" lon="4.82583">
        <ele>166.933467</ele>
        <time>2021-09-14T06:24:16.000Z</time>
      </trkpt>
      <trkpt lat="45.64305" lon="4.826">
        <ele>166.889991</ele>
        <time>2021-09-14T06:24:22.000Z</time>
      </trkpt>
      <trkpt lat="45.64303" lon="4.82604">
        <ele>166.879354</ele>
        <time>2021-09-14T06:24:25.000Z</time>
      </trkpt>
      <trkpt lat="45.64301" lon="4.82609">
        <ele>166.865781</ele>
        <time>2021-09-14T06:24:27.000Z</time>
      </trkpt>
      <trkpt lat="45.64295" lon="4.82616">
        <ele>166.842908</ele>
        <time>2021-09-14T06:24:33.000Z</time>
      </trkpt>
      <trkpt lat="45.64279" lon="4.82618">
        <ele>166.789975</ele>
        <time>2021-09-14T06:24:38.000Z</time>
      </trkpt>
      <trkpt lat="45.64268" lon="4.82606">
        <ele>166.746346</ele>
        <time>2021-09-14T06:24:41.000Z</time>
      </trkpt>
      <trkpt lat="45.64268" lon="4.82601">
        <ele>166.73452</ele>
        <time>2021-09-14T06:24:42.000Z</time>
      </trkpt>
      <trkpt lat="45.64274" lon="4.82579">
        <ele>166.681432</ele>
        <time>2021-09-14T06:24:46.000Z</time>
      </trkpt>
      <trkpt lat="45.64281" lon="4.82559">
        <ele>166.631808</ele>
        <time>2021-09-14T06:24:51.000Z</time>
      </trkpt>
      <trkpt lat="45.64285" lon="4.82547">
        <ele>166.599856</ele>
        <time>2021-09-14T06:24:55.000Z</time>
      </trkpt>
      <trkpt lat="45.64285" lon="4.82541">
        <ele>166.583284</ele>
        <time>2021-09-14T06:24:57.000Z</time>
      </trkpt>
      <trkpt lat="45.64284" lon="4.82532">
        <ele>166.553399</ele>
        <time>2021-09-14T06:25:00.000Z</time>
      </trkpt>
      <trkpt lat="45.64278" lon="4.82518">
        <ele>166.504306</ele>
        <time>2021-09-14T06:25:05.000Z</time>
      </trkpt>
      <trkpt lat="45.64273" lon="4.82513">
        <ele>166.475734</ele>
        <time>2021-09-14T06:25:08.000Z</time>
      </trkpt>
      <trkpt lat="45.64271" lon="4.82511">
        <ele>166.465378</ele>
        <time>2021-09-14T06:25:09.000Z</time>
      </trkpt>
      <trkpt lat="45.64257" lon="4.82497">
        <ele>166.39236</ele>
        <time>2021-09-14T06:25:16.000Z</time>
      </trkpt>
      <trkpt lat="45.64255" lon="4.82495">
        <ele>166.38001</ele>
        <time>2021-09-14T06:25:18.000Z</time>
      </trkpt>
      <trkpt lat="45.64253" lon="4.82493">
        <ele>166.368032</ele>
        <time>2021-09-14T06:25:20.000Z</time>
      </trkpt>
      <trkpt lat="45.64245" lon="4.82486">
        <ele>166.329752</ele>
        <time>2021-09-14T06:25:24.000Z</time>
      </trkpt>
      <trkpt lat="45.64227" lon="4.82469">
        <ele>166.232654</ele>
        <time>2021-09-14T06:25:30.000Z</time>
      </trkpt>
      <trkpt lat="45.64223" lon="4.82466">
        <ele>166.214583</ele>
        <time>2021-09-14T06:25:31.000Z</time>
      </trkpt>
      <trkpt lat="45.64205" lon="4.8245">
        <ele>166.120323</ele>
        <time>2021-09-14T06:25:36.000Z</time>
      </trkpt>
      <trkpt lat="45.64181" lon="4.82428">
        <ele>165.996015</ele>
        <time>2021-09-14T06:25:43.000Z</time>
      </trkpt>
      <trkpt lat="45.64168" lon="4.82417">
        <ele>165.929499</ele>
        <time>2021-09-14T06:25:47.000Z</time>
      </trkpt>
      <trkpt lat="45.64161" lon="4.82411">
        <ele>165.894427</ele>
        <time>2021-09-14T06:25:49.000Z</time>
      </trkpt>
      <trkpt lat="45.64146" lon="4.82397">
        <ele>165.818943</ele>
        <time>2021-09-14T06:25:54.000Z</time>
      </trkpt>
      <trkpt lat="45.64125" lon="4.82378">
        <ele>165.801339</ele>
        <time>2021-09-14T06:26:01.000Z</time>
      </trkpt>
      <trkpt lat="45.64108" lon="4.82364">
        <ele>165.788052</ele>
        <time>2021-09-14T06:26:06.000Z</time>
      </trkpt>
      <trkpt lat="45.64105" lon="4.82361">
        <ele>165.785242</ele>
        <time>2021-09-14T06:26:07.000Z</time>
      </trkpt>
      <trkpt lat="45.64084" lon="4.82344">
        <ele>165.768435</ele>
        <time>2021-09-14T06:26:13.000Z</time>
      </trkpt>
      <trkpt lat="45.6408" lon="4.82341">
        <ele>165.765541</ele>
        <time>2021-09-14T06:26:14.000Z</time>
      </trkpt>
      <trkpt lat="45.64064" lon="4.82328">
        <ele>165.75311</ele>
        <time>2021-09-14T06:26:18.000Z</time>
      </trkpt>
      <trkpt lat="45.64061" lon="4.82325">
        <ele>165.750156</ele>
        <time>2021-09-14T06:26:19.000Z</time>
      </trkpt>
      <trkpt lat="45.64057" lon="4.82322">
        <ele>165.747201</ele>
        <time>2021-09-14T06:26:20.000Z</time>
      </trkpt>
      <trkpt lat="45.64045" lon="4.82313">
        <ele>165.737893</ele>
        <time>2021-09-14T06:26:23.000Z</time>
      </trkpt>
      <trkpt lat="45.64002" lon="4.82277">
        <ele>165.702975</ele>
        <time>2021-09-14T06:26:33.000Z</time>
      </trkpt>
      <trkpt lat="45.6397" lon="4.82251">
        <ele>165.700089</ele>
        <time>2021-09-14T06:26:40.000Z</time>
      </trkpt>
      <trkpt lat="45.63962" lon="4.82244">
        <ele>165.702283</ele>
        <time>2021-09-14T06:26:42.000Z</time>
      </trkpt>
      <trkpt lat="45.6394" lon="4.82226">
        <ele>165.707884</ele>
        <time>2021-09-14T06:26:47.000Z</time>
      </trkpt>
      <trkpt lat="45.63928" lon="4.82216">
        <ele>165.710919</ele>
        <time>2021-09-14T06:26:50.000Z</time>
      </trkpt>
      <trkpt lat="45.63921" lon="4.8221">
        <ele>165.712706</ele>
        <time>2021-09-14T06:26:52.000Z</time>
      </trkpt>
      <trkpt lat="45.63898" lon="4.82176">
        <ele>165.719968</ele>
        <time>2021-09-14T06:26:59.000Z</time>
      </trkpt>
      <trkpt lat="45.63892" lon="4.82177">
        <ele>165.721215</ele>
        <time>2021-09-14T06:27:01.000Z</time>
      </trkpt>
      <trkpt lat="45.63891" lon="4.82178">
        <ele>165.721392</ele>
        <time>2021-09-14T06:27:04.000Z</time>
      </trkpt>
      <trkpt lat="45.6389" lon="4.82177">
        <ele>165.721793</ele>
        <time>2021-09-14T06:27:05.000Z</time>
      </trkpt>
      <trkpt lat="45.6388" lon="4.82169">
        <ele>165.724249</ele>
        <time>2021-09-14T06:27:10.000Z</time>
      </trkpt>
      <trkpt lat="45.63873" lon="4.82163">
        <ele>165.725988</ele>
        <time>2021-09-14T06:27:12.000Z</time>
      </trkpt>
      <trkpt lat="45.63858" lon="4.8215">
        <ele>165.729826</ele>
        <time>2021-09-14T06:27:16.000Z</time>
      </trkpt>
      <trkpt lat="45.63821" lon="4.82118">
        <ele>165.682251</ele>
        <time>2021-09-14T06:27:25.000Z</time>
      </trkpt>
      <trkpt lat="45.63785" lon="4.82089">
        <ele>165.589951</ele>
        <time>2021-09-14T06:27:33.000Z</time>
      </trkpt>
      <trkpt lat="45.63747" lon="4.82058">
        <ele>165.4921</ele>
        <time>2021-09-14T06:27:41.000Z</time>
      </trkpt>
      <trkpt lat="45.63709" lon="4.82027">
        <ele>165.393232</ele>
        <time>2021-09-14T06:27:49.000Z</time>
      </trkpt>
      <trkpt lat="45.63683" lon="4.82005">
        <ele>165.304695</ele>
        <time>2021-09-14T06:27:55.000Z</time>
      </trkpt>
      <trkpt lat="45.63676" lon="4.81997">
        <ele>165.199105</ele>
        <time>2021-09-14T06:27:57.000Z</time>
      </trkpt>
      <trkpt lat="45.6367" lon="4.81988">
        <ele>165.087847</ele>
        <time>2021-09-14T06:27:59.000Z</time>
      </trkpt>
      <trkpt lat="45.63667" lon="4.81983">
        <ele>165.03865</ele>
        <time>2021-09-14T06:28:00.000Z</time>
      </trkpt>
      <trkpt lat="45.63659" lon="4.81975">
        <ele>164.924259</ele>
        <time>2021-09-14T06:28:02.000Z</time>
      </trkpt>
      <trkpt lat="45.63655" lon="4.81971">
        <ele>164.856797</ele>
        <time>2021-09-14T06:28:03.000Z</time>
      </trkpt>
      <trkpt lat="45.63641" lon="4.81959">
        <ele>164.659757</ele>
        <time>2021-09-14T06:28:06.000Z</time>
      </trkpt>
      <trkpt lat="45.63626" lon="4.81947">
        <ele>164.459245</ele>
        <time>2021-09-14T06:28:09.000Z</time>
      </trkpt>
      <trkpt lat="45.63617" lon="4.8194">
        <ele>164.335301</ele>
        <time>2021-09-14T06:28:11.000Z</time>
      </trkpt>
      <trkpt lat="45.63607" lon="4.81932">
        <ele>164.196536</ele>
        <time>2021-09-14T06:28:14.000Z</time>
      </trkpt>
      <trkpt lat="45.63599" lon="4.81926">
        <ele>164.087283</ele>
        <time>2021-09-14T06:28:16.000Z</time>
      </trkpt>
      <trkpt lat="45.6359" lon="4.81919">
        <ele>163.966102</ele>
        <time>2021-09-14T06:28:18.000Z</time>
      </trkpt>
      <trkpt lat="45.63567" lon="4.81901">
        <ele>163.651039</ele>
        <time>2021-09-14T06:28:23.000Z</time>
      </trkpt>
      <trkpt lat="45.63562" lon="4.81896">
        <ele>163.5815</ele>
        <time>2021-09-14T06:28:24.000Z</time>
      </trkpt>
      <trkpt lat="45.63537" lon="4.81881">
        <ele>163.251216</ele>
        <time>2021-09-14T06:28:29.000Z</time>
      </trkpt>
      <trkpt lat="45.63532" lon="4.8188">
        <ele>163.18998</ele>
        <time>2021-09-14T06:28:30.000Z</time>
      </trkpt>
      <trkpt lat="45.63518" lon="4.81876">
        <ele>163.036581</ele>
        <time>2021-09-14T06:28:33.000Z</time>
      </trkpt>
      <trkpt lat="45.63512" lon="4.81871">
        <ele>162.952568</ele>
        <time>2021-09-14T06:28:35.000Z</time>
      </trkpt>
      <trkpt lat="45.63505" lon="4.81867">
        <ele>162.872209</ele>
        <time>2021-09-14T06:28:37.000Z</time>
      </trkpt>
      <trkpt lat="45.635" lon="4.81863">
        <ele>162.81568</ele>
        <time>2021-09-14T06:28:38.000Z</time>
      </trkpt>
      <trkpt lat="45.63492" lon="4.81856">
        <ele>162.705461</ele>
        <time>2021-09-14T06:28:40.000Z</time>
      </trkpt>
      <trkpt lat="45.63488" lon="4.81852">
        <ele>162.654111</ele>
        <time>2021-09-14T06:28:41.000Z</time>
      </trkpt>
      <trkpt lat="45.63476" lon="4.81839">
        <ele>162.483409</ele>
        <time>2021-09-14T06:28:44.000Z</time>
      </trkpt>
      <trkpt lat="45.63464" lon="4.81824">
        <ele>162.313268</ele>
        <time>2021-09-14T06:28:47.000Z</time>
      </trkpt>
      <trkpt lat="45.63459" lon="4.8182">
        <ele>162.246508</ele>
        <time>2021-09-14T06:28:48.000Z</time>
      </trkpt>
      <trkpt lat="45.63454" lon="4.81816">
        <ele>162.180075</ele>
        <time>2021-09-14T06:28:49.000Z</time>
      </trkpt>
      <trkpt lat="45.63439" lon="4.81808">
        <ele>162.003891</ele>
        <time>2021-09-14T06:28:52.000Z</time>
      </trkpt>
      <trkpt lat="45.63435" lon="4.81805">
        <ele>161.956074</ele>
        <time>2021-09-14T06:28:53.000Z</time>
      </trkpt>
      <trkpt lat="45.63423" lon="4.81797">
        <ele>161.808234</ele>
        <time>2021-09-14T06:28:56.000Z</time>
      </trkpt>
      <trkpt lat="45.63399" lon="4.81779">
        <ele>161.510306</ele>
        <time>2021-09-14T06:29:01.000Z</time>
      </trkpt>
      <trkpt lat="45.63395" lon="4.81776">
        <ele>161.457789</ele>
        <time>2021-09-14T06:29:02.000Z</time>
      </trkpt>
      <trkpt lat="45.63376" lon="4.81764">
        <ele>161.229641</ele>
        <time>2021-09-14T06:29:06.000Z</time>
      </trkpt>
      <trkpt lat="45.63355" lon="4.81751">
        <ele>161.116156</ele>
        <time>2021-09-14T06:29:11.000Z</time>
      </trkpt>
      <trkpt lat="45.63343" lon="4.81743">
        <ele>161.066945</ele>
        <time>2021-09-14T06:29:14.000Z</time>
      </trkpt>
      <trkpt lat="45.63339" lon="4.8174">
        <ele>161.049876</ele>
        <time>2021-09-14T06:29:15.000Z</time>
      </trkpt>
      <trkpt lat="45.63334" lon="4.81738">
        <ele>161.030713</ele>
        <time>2021-09-14T06:29:16.000Z</time>
      </trkpt>
      <trkpt lat="45.63318" lon="4.81731">
        <ele>160.968949</ele>
        <time>2021-09-14T06:29:19.000Z</time>
      </trkpt>
      <trkpt lat="45.63295" lon="4.81713">
        <ele>160.872711</ele>
        <time>2021-09-14T06:29:24.000Z</time>
      </trkpt>
      <trkpt lat="45.63275" lon="4.81696">
        <ele>160.787471</ele>
        <time>2021-09-14T06:29:29.000Z</time>
      </trkpt>
      <trkpt lat="45.63256" lon="4.81683">
        <ele>160.708549</ele>
        <time>2021-09-14T06:29:33.000Z</time>
      </trkpt>
      <trkpt lat="45.63251" lon="4.8168">
        <ele>160.689553</ele>
        <time>2021-09-14T06:29:34.000Z</time>
      </trkpt>
      <trkpt lat="45.63236" lon="4.81678">
        <ele>160.632912</ele>
        <time>2021-09-14T06:29:38.000Z</time>
      </trkpt>
      <trkpt lat="45.6323" lon="4.81678">
        <ele>160.612627</ele>
        <time>2021-09-14T06:29:41.000Z</time>
      </trkpt>
      <trkpt lat="45.63228" lon="4.81678">
        <ele>160.605255</ele>
        <time>2021-09-14T06:29:43.000Z</time>
      </trkpt>
      <trkpt lat="45.63213" lon="4.81674">
        <ele>160.549028</ele>
        <time>2021-09-14T06:29:48.000Z</time>
      </trkpt>
      <trkpt lat="45.63196" lon="4.81665">
        <ele>160.528752</ele>
        <time>2021-09-14T06:29:53.000Z</time>
      </trkpt>
      <trkpt lat="45.63186" lon="4.81658">
        <ele>160.537987</ele>
        <time>2021-09-14T06:29:57.000Z</time>
      </trkpt>
      <trkpt lat="45.63183" lon="4.81656">
        <ele>160.540614</ele>
        <time>2021-09-14T06:29:59.000Z</time>
      </trkpt>
      <trkpt lat="45.63179" lon="4.81654">
        <ele>160.544518</ele>
        <time>2021-09-14T06:30:01.000Z</time>
      </trkpt>
      <trkpt lat="45.63174" lon="4.81651">
        <ele>160.548673</ele>
        <time>2021-09-14T06:30:03.000Z</time>
      </trkpt>
      <trkpt lat="45.63172" lon="4.81643">
        <ele>160.5537</ele>
        <time>2021-09-14T06:30:05.000Z</time>
      </trkpt>
      <trkpt lat="45.63159" lon="4.81633">
        <ele>160.56638</ele>
        <time>2021-09-14T06:30:09.000Z</time>
      </trkpt>
      <trkpt lat="45.63132" lon="4.81617">
        <ele>160.590374</ele>
        <time>2021-09-14T06:30:16.000Z</time>
      </trkpt>
      <trkpt lat="45.631" lon="4.81598">
        <ele>160.619436</ele>
        <time>2021-09-14T06:30:23.000Z</time>
      </trkpt>
      <trkpt lat="45.63095" lon="4.81595">
        <ele>160.623921</ele>
        <time>2021-09-14T06:30:24.000Z</time>
      </trkpt>
      <trkpt lat="45.63059" lon="4.81574">
        <ele>160.655841</ele>
        <time>2021-09-14T06:30:31.000Z</time>
      </trkpt>
      <trkpt lat="45.63044" lon="4.81565">
        <ele>160.669416</ele>
        <time>2021-09-14T06:30:34.000Z</time>
      </trkpt>
      <trkpt lat="45.63028" lon="4.81561">
        <ele>160.664005</ele>
        <time>2021-09-14T06:30:37.000Z</time>
      </trkpt>
      <trkpt lat="45.63019" lon="4.81555">
        <ele>160.660837</ele>
        <time>2021-09-14T06:30:39.000Z</time>
      </trkpt>
      <trkpt lat="45.63006" lon="4.81547">
        <ele>160.655817</ele>
        <time>2021-09-14T06:30:42.000Z</time>
      </trkpt>
      <trkpt lat="45.63001" lon="4.81545">
        <ele>160.654141</ele>
        <time>2021-09-14T06:30:43.000Z</time>
      </trkpt>
      <trkpt lat="45.62962" lon="4.81525">
        <ele>160.640204</ele>
        <time>2021-09-14T06:30:51.000Z</time>
      </trkpt>
      <trkpt lat="45.62957" lon="4.81523">
        <ele>160.638449</ele>
        <time>2021-09-14T06:30:52.000Z</time>
      </trkpt>
      <trkpt lat="45.62938" lon="4.81513">
        <ele>160.631484</ele>
        <time>2021-09-14T06:30:56.000Z</time>
      </trkpt>
      <trkpt lat="45.62934" lon="4.81502">
        <ele>160.628595</ele>
        <time>2021-09-14T06:30:57.000Z</time>
      </trkpt>
      <trkpt lat="45.62928" lon="4.81508">
        <ele>160.626002</ele>
        <time>2021-09-14T06:30:58.000Z</time>
      </trkpt>
      <trkpt lat="45.62914" lon="4.815">
        <ele>160.620863</ele>
        <time>2021-09-14T06:31:01.000Z</time>
      </trkpt>
      <trkpt lat="45.62909" lon="4.81498">
        <ele>160.6191</ele>
        <time>2021-09-14T06:31:02.000Z</time>
      </trkpt>
      <trkpt lat="45.6288" lon="4.81475">
        <ele>160.622894</ele>
        <time>2021-09-14T06:31:08.000Z</time>
      </trkpt>
      <trkpt lat="45.62854" lon="4.81461">
        <ele>160.782414</ele>
        <time>2021-09-14T06:31:13.000Z</time>
      </trkpt>
      <trkpt lat="45.6281" lon="4.81439">
        <ele>161.042752</ele>
        <time>2021-09-14T06:31:21.000Z</time>
      </trkpt>
      <trkpt lat="45.62774" lon="4.8142">
        <ele>161.260304</ele>
        <time>2021-09-14T06:31:28.000Z</time>
      </trkpt>
      <trkpt lat="45.62764" lon="4.81415">
        <ele>161.322083</ele>
        <time>2021-09-14T06:31:30.000Z</time>
      </trkpt>
      <trkpt lat="45.6275" lon="4.81408">
        <ele>161.406724</ele>
        <time>2021-09-14T06:31:33.000Z</time>
      </trkpt>
      <trkpt lat="45.62737" lon="4.81401">
        <ele>161.487222</ele>
        <time>2021-09-14T06:31:36.000Z</time>
      </trkpt>
      <trkpt lat="45.62725" lon="4.81401">
        <ele>161.553139</ele>
        <time>2021-09-14T06:31:38.000Z</time>
      </trkpt>
      <trkpt lat="45.62721" lon="4.81398">
        <ele>161.579986</ele>
        <time>2021-09-14T06:31:39.000Z</time>
      </trkpt>
      <trkpt lat="45.62709" lon="4.81384">
        <ele>161.656293</ele>
        <time>2021-09-14T06:31:43.000Z</time>
      </trkpt>
      <trkpt lat="45.62696" lon="4.81378">
        <ele>161.708066</ele>
        <time>2021-09-14T06:31:47.000Z</time>
      </trkpt>
      <trkpt lat="45.62686" lon="4.81371">
        <ele>161.748178</ele>
        <time>2021-09-14T06:31:50.000Z</time>
      </trkpt>
      <trkpt lat="45.62682" lon="4.81367">
        <ele>161.767161</ele>
        <time>2021-09-14T06:31:51.000Z</time>
      </trkpt>
      <trkpt lat="45.62672" lon="4.8136">
        <ele>161.808125</ele>
        <time>2021-09-14T06:31:53.000Z</time>
      </trkpt>
      <trkpt lat="45.62659" lon="4.81355">
        <ele>161.860155</ele>
        <time>2021-09-14T06:31:56.000Z</time>
      </trkpt>
      <trkpt lat="45.62642" lon="4.81344">
        <ele>161.929156</ele>
        <time>2021-09-14T06:32:01.000Z</time>
      </trkpt>
      <trkpt lat="45.62627" lon="4.81334">
        <ele>161.990227</ele>
        <time>2021-09-14T06:32:04.000Z</time>
      </trkpt>
      <trkpt lat="45.62616" lon="4.81333">
        <ele>162.03347</ele>
        <time>2021-09-14T06:32:06.000Z</time>
      </trkpt>
      <trkpt lat="45.62602" lon="4.8133">
        <ele>162.087015</ele>
        <time>2021-09-14T06:32:10.000Z</time>
      </trkpt>
      <trkpt lat="45.62586" lon="4.81319">
        <ele>162.152148</ele>
        <time>2021-09-14T06:32:14.000Z</time>
      </trkpt>
      <trkpt lat="45.62581" lon="4.81316">
        <ele>162.17435</ele>
        <time>2021-09-14T06:32:15.000Z</time>
      </trkpt>
      <trkpt lat="45.62565" lon="4.81311">
        <ele>162.234416</ele>
        <time>2021-09-14T06:32:18.000Z</time>
      </trkpt>
      <trkpt lat="45.62557" lon="4.81309">
        <ele>162.263086</ele>
        <time>2021-09-14T06:32:20.000Z</time>
      </trkpt>
      <trkpt lat="45.62537" lon="4.81297">
        <ele>162.216032</ele>
        <time>2021-09-14T06:32:25.000Z</time>
      </trkpt>
      <trkpt lat="45.62517" lon="4.81293">
        <ele>162.058511</ele>
        <time>2021-09-14T06:32:29.000Z</time>
      </trkpt>
      <trkpt lat="45.62498" lon="4.8128">
        <ele>161.888106</ele>
        <time>2021-09-14T06:32:33.000Z</time>
      </trkpt>
      <trkpt lat="45.62492" lon="4.81277">
        <ele>161.843942</ele>
        <time>2021-09-14T06:32:34.000Z</time>
      </trkpt>
      <trkpt lat="45.62457" lon="4.81265">
        <ele>161.562883</ele>
        <time>2021-09-14T06:32:40.000Z</time>
      </trkpt>
      <trkpt lat="45.62447" lon="4.81262">
        <ele>161.47877</ele>
        <time>2021-09-14T06:32:42.000Z</time>
      </trkpt>
      <trkpt lat="45.62436" lon="4.81258">
        <ele>161.389977</ele>
        <time>2021-09-14T06:32:44.000Z</time>
      </trkpt>
      <trkpt lat="45.62399" lon="4.81241">
        <ele>161.082289</ele>
        <time>2021-09-14T06:32:51.000Z</time>
      </trkpt>
      <trkpt lat="45.62386" lon="4.81235">
        <ele>160.974426</ele>
        <time>2021-09-14T06:32:55.000Z</time>
      </trkpt>
      <trkpt lat="45.62362" lon="4.81225">
        <ele>160.788993</ele>
        <time>2021-09-14T06:33:01.000Z</time>
      </trkpt>
      <trkpt lat="45.62349" lon="4.81219">
        <ele>160.685217</ele>
        <time>2021-09-14T06:33:04.000Z</time>
      </trkpt>
      <trkpt lat="45.6234" lon="4.81215">
        <ele>160.61819</ele>
        <time>2021-09-14T06:33:06.000Z</time>
      </trkpt>
      <trkpt lat="45.62336" lon="4.81214">
        <ele>160.590005</ele>
        <time>2021-09-14T06:33:07.000Z</time>
      </trkpt>
      <trkpt lat="45.62314" lon="4.81205">
        <ele>160.423136</ele>
        <time>2021-09-14T06:33:12.000Z</time>
      </trkpt>
      <trkpt lat="45.6231" lon="4.81205">
        <ele>160.391018</ele>
        <time>2021-09-14T06:33:13.000Z</time>
      </trkpt>
      <trkpt lat="45.62299" lon="4.81203">
        <ele>160.311612</ele>
        <time>2021-09-14T06:33:16.000Z</time>
      </trkpt>
      <trkpt lat="45.62278" lon="4.81192">
        <ele>160.149871</ele>
        <time>2021-09-14T06:33:21.000Z</time>
      </trkpt>
      <trkpt lat="45.62269" lon="4.81187">
        <ele>160.076405</ele>
        <time>2021-09-14T06:33:23.000Z</time>
      </trkpt>
      <trkpt lat="45.62253" lon="4.81182">
        <ele>159.962904</ele>
        <time>2021-09-14T06:33:26.000Z</time>
      </trkpt>
      <trkpt lat="45.62244" lon="4.81179">
        <ele>159.88972</ele>
        <time>2021-09-14T06:33:28.000Z</time>
      </trkpt>
      <trkpt lat="45.62235" lon="4.81176">
        <ele>159.826232</ele>
        <time>2021-09-14T06:33:30.000Z</time>
      </trkpt>
      <trkpt lat="45.62227" lon="4.81173">
        <ele>159.769132</ele>
        <time>2021-09-14T06:33:32.000Z</time>
      </trkpt>
      <trkpt lat="45.62213" lon="4.81166">
        <ele>159.658923</ele>
        <time>2021-09-14T06:33:35.000Z</time>
      </trkpt>
      <trkpt lat="45.62176" lon="4.81149">
        <ele>159.340384</ele>
        <time>2021-09-14T06:33:42.000Z</time>
      </trkpt>
      <trkpt lat="45.62171" lon="4.81148">
        <ele>159.296184</ele>
        <time>2021-09-14T06:33:43.000Z</time>
      </trkpt>
      <trkpt lat="45.62162" lon="4.81146">
        <ele>159.216454</ele>
        <time>2021-09-14T06:33:45.000Z</time>
      </trkpt>
      <trkpt lat="45.62158" lon="4.81144">
        <ele>159.176431</ele>
        <time>2021-09-14T06:33:46.000Z</time>
      </trkpt>
      <trkpt lat="45.62143" lon="4.81135">
        <ele>159.038111</ele>
        <time>2021-09-14T06:33:49.000Z</time>
      </trkpt>
      <trkpt lat="45.62137" lon="4.81134">
        <ele>158.989077</ele>
        <time>2021-09-14T06:33:50.000Z</time>
      </trkpt>
      <trkpt lat="45.62132" lon="4.81132">
        <ele>158.941601</ele>
        <time>2021-09-14T06:33:51.000Z</time>
      </trkpt>
      <trkpt lat="45.62109" lon="4.81125">
        <ele>158.746068</ele>
        <time>2021-09-14T06:33:55.000Z</time>
      </trkpt>
      <trkpt lat="45.62094" lon="4.81119">
        <ele>158.610513</ele>
        <time>2021-09-14T06:33:58.000Z</time>
      </trkpt>
      <trkpt lat="45.62085" lon="4.81114">
        <ele>158.52218</ele>
        <time>2021-09-14T06:34:00.000Z</time>
      </trkpt>
      <trkpt lat="45.6208" lon="4.81112">
        <ele>158.4767</ele>
        <time>2021-09-14T06:34:01.000Z</time>
      </trkpt>
      <trkpt lat="45.6207" lon="4.81107">
        <ele>158.388566</ele>
        <time>2021-09-14T06:34:03.000Z</time>
      </trkpt>
      <trkpt lat="45.62065" lon="4.81105">
        <ele>158.344904</ele>
        <time>2021-09-14T06:34:04.000Z</time>
      </trkpt>
      <trkpt lat="45.62033" lon="4.8109">
        <ele>158.056571</ele>
        <time>2021-09-14T06:34:10.000Z</time>
      </trkpt>
      <trkpt lat="45.62023" lon="4.81087">
        <ele>157.952661</ele>
        <time>2021-09-14T06:34:12.000Z</time>
      </trkpt>
      <trkpt lat="45.62015" lon="4.81084">
        <ele>157.869742</ele>
        <time>2021-09-14T06:34:14.000Z</time>
      </trkpt>
      <trkpt lat="45.61999" lon="4.81078">
        <ele>157.703554</ele>
        <time>2021-09-14T06:34:18.000Z</time>
      </trkpt>
      <trkpt lat="45.6199" lon="4.81075">
        <ele>157.614446</ele>
        <time>2021-09-14T06:34:20.000Z</time>
      </trkpt>
      <trkpt lat="45.6198" lon="4.81071">
        <ele>157.5066</ele>
        <time>2021-09-14T06:34:22.000Z</time>
      </trkpt>
      <trkpt lat="45.61952" lon="4.81061">
        <ele>157.218069</ele>
        <time>2021-09-14T06:34:27.000Z</time>
      </trkpt>
      <trkpt lat="45.61935" lon="4.81053">
        <ele>157.039648</ele>
        <time>2021-09-14T06:34:30.000Z</time>
      </trkpt>
      <trkpt lat="45.61924" lon="4.81047">
        <ele>156.919727</ele>
        <time>2021-09-14T06:34:32.000Z</time>
      </trkpt>
      <trkpt lat="45.61889" lon="4.81032">
        <ele>156.55399</ele>
        <time>2021-09-14T06:34:38.000Z</time>
      </trkpt>
      <trkpt lat="45.61884" lon="4.8103">
        <ele>156.506255</ele>
        <time>2021-09-14T06:34:39.000Z</time>
      </trkpt>
      <trkpt lat="45.61878" lon="4.81028">
        <ele>156.444996</ele>
        <time>2021-09-14T06:34:41.000Z</time>
      </trkpt>
      <trkpt lat="45.61865" lon="4.81023">
        <ele>156.311073</ele>
        <time>2021-09-14T06:34:45.000Z</time>
      </trkpt>
      <trkpt lat="45.61848" lon="4.81013">
        <ele>156.177669</ele>
        <time>2021-09-14T06:34:49.000Z</time>
      </trkpt>
      <trkpt lat="45.61844" lon="4.81011">
        <ele>156.15363</ele>
        <time>2021-09-14T06:34:50.000Z</time>
      </trkpt>
      <trkpt lat="45.6183" lon="4.81005">
        <ele>156.083318</ele>
        <time>2021-09-14T06:34:53.000Z</time>
      </trkpt>
      <trkpt lat="45.61797" lon="4.80997">
        <ele>155.923297</ele>
        <time>2021-09-14T06:35:00.000Z</time>
      </trkpt>
      <trkpt lat="45.61792" lon="4.80996">
        <ele>155.900328</ele>
        <time>2021-09-14T06:35:01.000Z</time>
      </trkpt>
      <trkpt lat="45.61773" lon="4.80985">
        <ele>155.798469</ele>
        <time>2021-09-14T06:35:05.000Z</time>
      </trkpt>
      <trkpt lat="45.61762" lon="4.80981">
        <ele>155.74376</ele>
        <time>2021-09-14T06:35:07.000Z</time>
      </trkpt>
      <trkpt lat="45.61746" lon="4.80976">
        <ele>155.667325</ele>
        <time>2021-09-14T06:35:10.000Z</time>
      </trkpt>
      <trkpt lat="45.61741" lon="4.80973">
        <ele>155.640909</ele>
        <time>2021-09-14T06:35:11.000Z</time>
      </trkpt>
      <trkpt lat="45.61731" lon="4.80968">
        <ele>155.587865</ele>
        <time>2021-09-14T06:35:13.000Z</time>
      </trkpt>
      <trkpt lat="45.6172" lon="4.80963">
        <ele>155.53323</ele>
        <time>2021-09-14T06:35:15.000Z</time>
      </trkpt>
      <trkpt lat="45.61691" lon="4.8095">
        <ele>155.386202</ele>
        <time>2021-09-14T06:35:20.000Z</time>
      </trkpt>
      <trkpt lat="45.61685" lon="4.80948">
        <ele>155.357746</ele>
        <time>2021-09-14T06:35:21.000Z</time>
      </trkpt>
      <trkpt lat="45.61654" lon="4.80936">
        <ele>155.390756</ele>
        <time>2021-09-14T06:35:27.000Z</time>
      </trkpt>
      <trkpt lat="45.61638" lon="4.80927">
        <ele>155.408728</ele>
        <time>2021-09-14T06:35:30.000Z</time>
      </trkpt>
      <trkpt lat="45.61632" lon="4.80924">
        <ele>155.415002</ele>
        <time>2021-09-14T06:35:31.000Z</time>
      </trkpt>
      <trkpt lat="45.61621" lon="4.80919">
        <ele>155.428031</ele>
        <time>2021-09-14T06:35:33.000Z</time>
      </trkpt>
      <trkpt lat="45.61605" lon="4.80912">
        <ele>155.445254</ele>
        <time>2021-09-14T06:35:36.000Z</time>
      </trkpt>
      <trkpt lat="45.61578" lon="4.80899">
        <ele>155.475386</ele>
        <time>2021-09-14T06:35:41.000Z</time>
      </trkpt>
      <trkpt lat="45.61556" lon="4.80887">
        <ele>155.500359</ele>
        <time>2021-09-14T06:35:45.000Z</time>
      </trkpt>
      <trkpt lat="45.61546" lon="4.80886">
        <ele>155.510301</ele>
        <time>2021-09-14T06:35:47.000Z</time>
      </trkpt>
      <trkpt lat="45.61536" lon="4.80888">
        <ele>155.520804</ele>
        <time>2021-09-14T06:35:51.000Z</time>
      </trkpt>
      <trkpt lat="45.61532" lon="4.8089">
        <ele>155.526037</ele>
        <time>2021-09-14T06:35:54.000Z</time>
      </trkpt>
      <trkpt lat="45.61528" lon="4.80892">
        <ele>155.530402</ele>
        <time>2021-09-14T06:35:56.000Z</time>
      </trkpt>
      <trkpt lat="45.61526" lon="4.80894">
        <ele>155.532944</ele>
        <time>2021-09-14T06:35:57.000Z</time>
      </trkpt>
      <trkpt lat="45.61517" lon="4.80895">
        <ele>155.542151</ele>
        <time>2021-09-14T06:36:00.000Z</time>
      </trkpt>
      <trkpt lat="45.61496" lon="4.80885">
        <ele>156.032179</ele>
        <time>2021-09-14T06:36:06.000Z</time>
      </trkpt>
      <trkpt lat="45.61475" lon="4.80876">
        <ele>156.639115</ele>
        <time>2021-09-14T06:36:12.000Z</time>
      </trkpt>
      <trkpt lat="45.61452" lon="4.80868">
        <ele>157.2885</ele>
        <time>2021-09-14T06:36:19.000Z</time>
      </trkpt>
      <trkpt lat="45.61435" lon="4.80861">
        <ele>157.774348</ele>
        <time>2021-09-14T06:36:25.000Z</time>
      </trkpt>
      <trkpt lat="45.61417" lon="4.80854">
        <ele>158.265458</ele>
        <time>2021-09-14T06:36:32.000Z</time>
      </trkpt>
      <trkpt lat="45.61406" lon="4.8085">
        <ele>158.577434</ele>
        <time>2021-09-14T06:36:38.000Z</time>
      </trkpt>
      <trkpt lat="45.61394" lon="4.80855">
        <ele>158.922288</ele>
        <time>2021-09-14T06:36:44.000Z</time>
      </trkpt>
      <trkpt lat="45.61387" lon="4.80873">
        <ele>159.309909</ele>
        <time>2021-09-14T06:36:50.000Z</time>
      </trkpt>
      <trkpt lat="45.61378" lon="4.80898">
        <ele>159.84637</ele>
        <time>2021-09-14T06:36:57.000Z</time>
      </trkpt>
      <trkpt lat="45.61364" lon="4.80933">
        <ele>160.518403</ele>
        <time>2021-09-14T06:37:05.000Z</time>
      </trkpt>
      <trkpt lat="45.61357" lon="4.80941">
        <ele>160.614871</ele>
        <time>2021-09-14T06:37:07.000Z</time>
      </trkpt>
      <trkpt lat="45.61347" lon="4.80947">
        <ele>160.726074</ele>
        <time>2021-09-14T06:37:09.000Z</time>
      </trkpt>
      <trkpt lat="45.61337" lon="4.80948">
        <ele>160.835317</ele>
        <time>2021-09-14T06:37:11.000Z</time>
      </trkpt>
      <trkpt lat="45.61332" lon="4.80946">
        <ele>160.892552</ele>
        <time>2021-09-14T06:37:12.000Z</time>
      </trkpt>
      <trkpt lat="45.61327" lon="4.80943">
        <ele>160.948568</ele>
        <time>2021-09-14T06:37:13.000Z</time>
      </trkpt>
      <trkpt lat="45.61318" lon="4.80935">
        <ele>161.062338</ele>
        <time>2021-09-14T06:37:15.000Z</time>
      </trkpt>
      <trkpt lat="45.61314" lon="4.80929">
        <ele>161.118902</ele>
        <time>2021-09-14T06:37:16.000Z</time>
      </trkpt>
      <trkpt lat="45.61276" lon="4.80873">
        <ele>161.70882</ele>
        <time>2021-09-14T06:37:26.000Z</time>
      </trkpt>
      <trkpt lat="45.61259" lon="4.80852">
        <ele>161.945274</ele>
        <time>2021-09-14T06:37:30.000Z</time>
      </trkpt>
      <trkpt lat="45.6125" lon="4.80846">
        <ele>162.052476</ele>
        <time>2021-09-14T06:37:32.000Z</time>
      </trkpt>
      <trkpt lat="45.61246" lon="4.80845">
        <ele>162.094737</ele>
        <time>2021-09-14T06:37:33.000Z</time>
      </trkpt>
      <trkpt lat="45.61238" lon="4.80845">
        <ele>162.187807</ele>
        <time>2021-09-14T06:37:35.000Z</time>
      </trkpt>
      <trkpt lat="45.61225" lon="4.80852">
        <ele>162.329157</ele>
        <time>2021-09-14T06:37:38.000Z</time>
      </trkpt>
      <trkpt lat="45.61212" lon="4.80857">
        <ele>162.960549</ele>
        <time>2021-09-14T06:37:40.000Z</time>
      </trkpt>
      <trkpt lat="45.6121" lon="4.80854">
        <ele>163.176087</ele>
        <time>2021-09-14T06:37:41.000Z</time>
      </trkpt>
      <trkpt lat="45.61201" lon="4.80843">
        <ele>163.905962</ele>
        <time>2021-09-14T06:37:45.000Z</time>
      </trkpt>
      <trkpt lat="45.61197" lon="4.80838">
        <ele>164.230976</ele>
        <time>2021-09-14T06:37:50.000Z</time>
      </trkpt>
      <trkpt lat="45.61195" lon="4.8084">
        <ele>164.396331</ele>
        <time>2021-09-14T06:37:51.000Z</time>
      </trkpt>
      <trkpt lat="45.61187" lon="4.80855">
        <ele>165.153652</ele>
        <time>2021-09-14T06:37:56.000Z</time>
      </trkpt>
      <trkpt lat="45.61177" lon="4.80863">
        <ele>165.859212</ele>
        <time>2021-09-14T06:38:03.000Z</time>
      </trkpt>
      <trkpt lat="45.61169" lon="4.80871">
        <ele>166.448918</ele>
        <time>2021-09-14T06:38:10.000Z</time>
      </trkpt>
      <trkpt lat="45.61167" lon="4.80868">
        <ele>166.662953</ele>
        <time>2021-09-14T06:38:14.000Z</time>
      </trkpt>
      <trkpt lat="45.61157" lon="4.80858">
        <ele>167.369665</ele>
        <time>2021-09-14T06:38:21.000Z</time>
      </trkpt>
      <trkpt lat="45.6115" lon="4.80848">
        <ele>167.987325</ele>
        <time>2021-09-14T06:38:27.000Z</time>
      </trkpt>
      <trkpt lat="45.61143" lon="4.80844">
        <ele>168.43954</ele>
        <time>2021-09-14T06:38:32.000Z</time>
      </trkpt>
      <trkpt lat="45.61143" lon="4.80846">
        <ele>168.539076</ele>
        <time>2021-09-14T06:38:33.000Z</time>
      </trkpt>
      <trkpt lat="45.61144" lon="4.80855">
        <ele>168.918321</ele>
        <time>2021-09-14T06:38:37.000Z</time>
      </trkpt>
      <trkpt lat="45.61154" lon="4.80869">
        <ele>169.776151</ele>
        <time>2021-09-14T06:38:45.000Z</time>
      </trkpt>
      <trkpt lat="45.61157" lon="4.80874">
        <ele>170.071759</ele>
        <time>2021-09-14T06:38:48.000Z</time>
      </trkpt>
      <trkpt lat="45.61159" lon="4.80878">
        <ele>170.251354</ele>
        <time>2021-09-14T06:38:51.000Z</time>
      </trkpt>
      <trkpt lat="45.61164" lon="4.80893">
        <ele>170.967473</ele>
        <time>2021-09-14T06:38:58.000Z</time>
      </trkpt>
      <trkpt lat="45.61163" lon="4.80905">
        <ele>171.515816</ele>
        <time>2021-09-14T06:39:04.000Z</time>
      </trkpt>
      <trkpt lat="45.61158" lon="4.8092">
        <ele>172.210256</ele>
        <time>2021-09-14T06:39:12.000Z</time>
      </trkpt>
      <trkpt lat="45.61153" lon="4.80933">
        <ele>172.847833</ele>
        <time>2021-09-14T06:39:19.000Z</time>
      </trkpt>
      <trkpt lat="45.61149" lon="4.80953">
        <ele>173.830296</ele>
        <time>2021-09-14T06:39:29.000Z</time>
      </trkpt>
      <trkpt lat="45.61155" lon="4.80968">
        <ele>174.696333</ele>
        <time>2021-09-14T06:39:36.000Z</time>
      </trkpt>
      <trkpt lat="45.61163" lon="4.80984">
        <ele>175.741785</ele>
        <time>2021-09-14T06:39:44.000Z</time>
      </trkpt>
      <trkpt lat="45.61162" lon="4.80994">
        <ele>176.267387</ele>
        <time>2021-09-14T06:39:47.000Z</time>
      </trkpt>
      <trkpt lat="45.61161" lon="4.80995">
        <ele>176.359968</ele>
        <time>2021-09-14T06:39:48.000Z</time>
      </trkpt>
      <trkpt lat="45.6116" lon="4.80996">
        <ele>176.443493</ele>
        <time>2021-09-14T06:39:51.000Z</time>
      </trkpt>
      <trkpt lat="45.61156" lon="4.81004">
        <ele>176.976798</ele>
        <time>2021-09-14T06:41:35.000Z</time>
      </trkpt>
      <trkpt lat="45.61156" lon="4.81006">
        <ele>177.080917</ele>
        <time>2021-09-14T06:41:36.000Z</time>
      </trkpt>
      <trkpt lat="45.6115" lon="4.81007">
        <ele>177.48019</ele>
        <time>2021-09-14T06:41:37.000Z</time>
      </trkpt>
      <trkpt lat="45.61143" lon="4.81007">
        <ele>178.014448</ele>
        <time>2021-09-14T06:41:41.000Z</time>
      </trkpt>
      <trkpt lat="45.61136" lon="4.81008">
        <ele>178.51839</ele>
        <time>2021-09-14T06:41:46.000Z</time>
      </trkpt>
      <trkpt lat="45.61122" lon="4.81006">
        <ele>179.639668</ele>
        <time>2021-09-14T06:41:52.000Z</time>
      </trkpt>
      <trkpt lat="45.61107" lon="4.80999">
        <ele>180.809078</ele>
        <time>2021-09-14T06:41:59.000Z</time>
      </trkpt>
      <trkpt lat="45.611" lon="4.80994">
        <ele>181.412373</ele>
        <time>2021-09-14T06:42:04.000Z</time>
      </trkpt>
      <trkpt lat="45.6109" lon="4.80983">
        <ele>182.335302</ele>
        <time>2021-09-14T06:42:11.000Z</time>
      </trkpt>
      <trkpt lat="45.61088" lon="4.8098">
        <ele>182.549429</ele>
        <time>2021-09-14T06:42:13.000Z</time>
      </trkpt>
      <trkpt lat="45.61082" lon="4.80974">
        <ele>183.102999</ele>
        <time>2021-09-14T06:42:17.000Z</time>
      </trkpt>
      <trkpt lat="45.61074" lon="4.80953">
        <ele>184.329357</ele>
        <time>2021-09-14T06:42:24.000Z</time>
      </trkpt>
      <trkpt lat="45.61072" lon="4.80948">
        <ele>184.657278</ele>
        <time>2021-09-14T06:42:25.000Z</time>
      </trkpt>
      <trkpt lat="45.61063" lon="4.8093">
        <ele>185.779664</ele>
        <time>2021-09-14T06:42:28.000Z</time>
      </trkpt>
      <trkpt lat="45.61046" lon="4.80894">
        <ele>186.888162</ele>
        <time>2021-09-14T06:42:34.000Z</time>
      </trkpt>
      <trkpt lat="45.61032" lon="4.80865">
        <ele>186.920084</ele>
        <time>2021-09-14T06:42:39.000Z</time>
      </trkpt>
      <trkpt lat="45.6103" lon="4.8086">
        <ele>186.926198</ele>
        <time>2021-09-14T06:42:40.000Z</time>
      </trkpt>
      <trkpt lat="45.61013" lon="4.80826">
        <ele>186.963929</ele>
        <time>2021-09-14T06:42:46.000Z</time>
      </trkpt>
      <trkpt lat="45.6101" lon="4.80822">
        <ele>186.970029</ele>
        <time>2021-09-14T06:42:47.000Z</time>
      </trkpt>
      <trkpt lat="45.61003" lon="4.80813">
        <ele>186.981786</ele>
        <time>2021-09-14T06:42:49.000Z</time>
      </trkpt>
      <trkpt lat="45.6099" lon="4.80796">
        <ele>187.005043</ele>
        <time>2021-09-14T06:42:53.000Z</time>
      </trkpt>
      <trkpt lat="45.60984" lon="4.80788">
        <ele>187.016322</ele>
        <time>2021-09-14T06:42:55.000Z</time>
      </trkpt>
      <trkpt lat="45.60968" lon="4.80767">
        <ele>187.044697</ele>
        <time>2021-09-14T06:43:00.000Z</time>
      </trkpt>
      <trkpt lat="45.60955" lon="4.8075">
        <ele>187.067511</ele>
        <time>2021-09-14T06:43:04.000Z</time>
      </trkpt>
      <trkpt lat="45.60949" lon="4.80741">
        <ele>187.079544</ele>
        <time>2021-09-14T06:43:06.000Z</time>
      </trkpt>
      <trkpt lat="45.60932" lon="4.80706">
        <ele>187.236412</ele>
        <time>2021-09-14T06:43:12.000Z</time>
      </trkpt>
      <trkpt lat="45.60919" lon="4.80682">
        <ele>187.489912</ele>
        <time>2021-09-14T06:43:16.000Z</time>
      </trkpt>
      <trkpt lat="45.60913" lon="4.8067">
        <ele>187.612307</ele>
        <time>2021-09-14T06:43:18.000Z</time>
      </trkpt>
      <trkpt lat="45.60907" lon="4.80658">
        <ele>187.732726</ele>
        <time>2021-09-14T06:43:21.000Z</time>
      </trkpt>
      <trkpt lat="45.60901" lon="4.80641">
        <ele>187.890981</ele>
        <time>2021-09-14T06:43:26.000Z</time>
      </trkpt>
      <trkpt lat="45.60889" lon="4.80632">
        <ele>188.04964</ele>
        <time>2021-09-14T06:43:32.000Z</time>
      </trkpt>
      <trkpt lat="45.60884" lon="4.80628">
        <ele>188.11603</ele>
        <time>2021-09-14T06:43:36.000Z</time>
      </trkpt>
      <trkpt lat="45.60877" lon="4.80623">
        <ele>188.217901</ele>
        <time>2021-09-14T06:43:41.000Z</time>
      </trkpt>
      <trkpt lat="45.60863" lon="4.80605">
        <ele>188.429386</ele>
        <time>2021-09-14T06:43:49.000Z</time>
      </trkpt>
      <trkpt lat="45.60856" lon="4.80584">
        <ele>188.627895</ele>
        <time>2021-09-14T06:43:54.000Z</time>
      </trkpt>
      <trkpt lat="45.60849" lon="4.80565">
        <ele>188.803754</ele>
        <time>2021-09-14T06:43:58.000Z</time>
      </trkpt>
      <trkpt lat="45.60837" lon="4.80532">
        <ele>189.110007</ele>
        <time>2021-09-14T06:44:04.000Z</time>
      </trkpt>
      <trkpt lat="45.60825" lon="4.80511">
        <ele>189.221214</ele>
        <time>2021-09-14T06:44:09.000Z</time>
      </trkpt>
      <trkpt lat="45.60809" lon="4.80484">
        <ele>189.212125</ele>
        <time>2021-09-14T06:44:18.000Z</time>
      </trkpt>
      <trkpt lat="45.60799" lon="4.80467">
        <ele>189.206418</ele>
        <time>2021-09-14T06:44:23.000Z</time>
      </trkpt>
      <trkpt lat="45.60789" lon="4.80451">
        <ele>189.200908</ele>
        <time>2021-09-14T06:44:27.000Z</time>
      </trkpt>
      <trkpt lat="45.60772" lon="4.80425">
        <ele>189.191559</ele>
        <time>2021-09-14T06:44:34.000Z</time>
      </trkpt>
      <trkpt lat="45.60761" lon="4.80409">
        <ele>189.18578</ele>
        <time>2021-09-14T06:44:38.000Z</time>
      </trkpt>
      <trkpt lat="45.6075" lon="4.80397">
        <ele>189.180809</ele>
        <time>2021-09-14T06:44:43.000Z</time>
      </trkpt>
      <trkpt lat="45.60742" lon="4.80386">
        <ele>189.176755</ele>
        <time>2021-09-14T06:44:48.000Z</time>
      </trkpt>
      <trkpt lat="45.60732" lon="4.8037">
        <ele>189.17139</ele>
        <time>2021-09-14T06:44:54.000Z</time>
      </trkpt>
      <trkpt lat="45.60724" lon="4.80359">
        <ele>189.167288</ele>
        <time>2021-09-14T06:44:57.000Z</time>
      </trkpt>
      <trkpt lat="45.60721" lon="4.80355">
        <ele>189.165722</ele>
        <time>2021-09-14T06:44:58.000Z</time>
      </trkpt>
      <trkpt lat="45.60706" lon="4.80337">
        <ele>189.158561</ele>
        <time>2021-09-14T06:45:03.000Z</time>
      </trkpt>
      <trkpt lat="45.60697" lon="4.80327">
        <ele>189.252662</ele>
        <time>2021-09-14T06:45:07.000Z</time>
      </trkpt>
      <trkpt lat="45.6069" lon="4.80319">
        <ele>189.321446</ele>
        <time>2021-09-14T06:45:12.000Z</time>
      </trkpt>
      <trkpt lat="45.60681" lon="4.8031">
        <ele>189.406784</ele>
        <time>2021-09-14T06:45:18.000Z</time>
      </trkpt>
      <trkpt lat="45.60666" lon="4.80294">
        <ele>189.551987</ele>
        <time>2021-09-14T06:45:26.000Z</time>
      </trkpt>
      <trkpt lat="45.60657" lon="4.80283">
        <ele>189.64529</ele>
        <time>2021-09-14T06:45:32.000Z</time>
      </trkpt>
      <trkpt lat="45.60648" lon="4.80274">
        <ele>189.729673</ele>
        <time>2021-09-14T06:45:37.000Z</time>
      </trkpt>
      <trkpt lat="45.60639" lon="4.80264">
        <ele>189.817874</ele>
        <time>2021-09-14T06:45:42.000Z</time>
      </trkpt>
      <trkpt lat="45.6063" lon="4.80255">
        <ele>189.903212</ele>
        <time>2021-09-14T06:45:47.000Z</time>
      </trkpt>
      <trkpt lat="45.60616" lon="4.80239">
        <ele>190.04269</ele>
        <time>2021-09-14T06:45:53.000Z</time>
      </trkpt>
      <trkpt lat="45.60599" lon="4.80222">
        <ele>190.205401</ele>
        <time>2021-09-14T06:45:59.000Z</time>
      </trkpt>
      <trkpt lat="45.60584" lon="4.80205">
        <ele>190.358518</ele>
        <time>2021-09-14T06:46:04.000Z</time>
      </trkpt>
      <trkpt lat="45.60572" lon="4.80188">
        <ele>190.487686</ele>
        <time>2021-09-14T06:46:10.000Z</time>
      </trkpt>
      <trkpt lat="45.60565" lon="4.80181">
        <ele>190.554535</ele>
        <time>2021-09-14T06:46:14.000Z</time>
      </trkpt>
      <trkpt lat="45.60558" lon="4.80173">
        <ele>190.363016</ele>
        <time>2021-09-14T06:46:19.000Z</time>
      </trkpt>
      <trkpt lat="45.60547" lon="4.80162">
        <ele>189.993736</ele>
        <time>2021-09-14T06:46:26.000Z</time>
      </trkpt>
      <trkpt lat="45.60537" lon="4.8015">
        <ele>189.669518</ele>
        <time>2021-09-14T06:46:32.000Z</time>
      </trkpt>
      <trkpt lat="45.60531" lon="4.80139">
        <ele>189.403041</ele>
        <time>2021-09-14T06:46:38.000Z</time>
      </trkpt>
      <trkpt lat="45.60521" lon="4.80123">
        <ele>189.013227</ele>
        <time>2021-09-14T06:46:43.000Z</time>
      </trkpt>
      <trkpt lat="45.60513" lon="4.8011">
        <ele>188.693227</ele>
        <time>2021-09-14T06:46:47.000Z</time>
      </trkpt>
      <trkpt lat="45.60508" lon="4.80103">
        <ele>188.513609</ele>
        <time>2021-09-14T06:46:50.000Z</time>
      </trkpt>
      <trkpt lat="45.60499" lon="4.80089">
        <ele>188.157136</ele>
        <time>2021-09-14T06:46:56.000Z</time>
      </trkpt>
      <trkpt lat="45.6049" lon="4.80073">
        <ele>187.76732</ele>
        <time>2021-09-14T06:47:02.000Z</time>
      </trkpt>
      <trkpt lat="45.60478" lon="4.80055">
        <ele>187.319472</ele>
        <time>2021-09-14T06:47:08.000Z</time>
      </trkpt>
      <trkpt lat="45.60463" lon="4.8003">
        <ele>186.71319</ele>
        <time>2021-09-14T06:47:15.000Z</time>
      </trkpt>
      <trkpt lat="45.60455" lon="4.80018">
        <ele>186.408481</ele>
        <time>2021-09-14T06:47:20.000Z</time>
      </trkpt>
      <trkpt lat="45.6045" lon="4.8001">
        <ele>186.209394</ele>
        <time>2021-09-14T06:47:24.000Z</time>
      </trkpt>
      <trkpt lat="45.60446" lon="4.79999">
        <ele>185.990619</ele>
        <time>2021-09-14T06:47:30.000Z</time>
      </trkpt>
      <trkpt lat="45.60445" lon="4.79997">
        <ele>185.946475</ele>
        <time>2021-09-14T06:47:31.000Z</time>
      </trkpt>
      <trkpt lat="45.60443" lon="4.79992">
        <ele>185.833676</ele>
        <time>2021-09-14T06:47:34.000Z</time>
      </trkpt>
      <trkpt lat="45.60433" lon="4.79979">
        <ele>185.224465</ele>
        <time>2021-09-14T06:47:40.000Z</time>
      </trkpt>
      <trkpt lat="45.60429" lon="4.79974">
        <ele>184.980347</ele>
        <time>2021-09-14T06:47:42.000Z</time>
      </trkpt>
      <trkpt lat="45.60425" lon="4.79969">
        <ele>184.701241</ele>
        <time>2021-09-14T06:47:44.000Z</time>
      </trkpt>
      <trkpt lat="45.60413" lon="4.79954">
        <ele>183.971851</ele>
        <time>2021-09-14T06:47:49.000Z</time>
      </trkpt>
      <trkpt lat="45.60392" lon="4.79933">
        <ele>182.804453</ele>
        <time>2021-09-14T06:47:56.000Z</time>
      </trkpt>
      <trkpt lat="45.60377" lon="4.7992">
        <ele>181.990822</ele>
        <time>2021-09-14T06:48:02.000Z</time>
      </trkpt>
      <trkpt lat="45.60361" lon="4.79906">
        <ele>181.131704</ele>
        <time>2021-09-14T06:48:08.000Z</time>
      </trkpt>
      <trkpt lat="45.60339" lon="4.7989">
        <ele>180.00747</ele>
        <time>2021-09-14T06:48:16.000Z</time>
      </trkpt>
      <trkpt lat="45.60325" lon="4.7988">
        <ele>179.264479</ele>
        <time>2021-09-14T06:48:21.000Z</time>
      </trkpt>
      <trkpt lat="45.60307" lon="4.79868">
        <ele>178.355089</ele>
        <time>2021-09-14T06:48:27.000Z</time>
      </trkpt>
      <trkpt lat="45.60294" lon="4.79868">
        <ele>177.742324</ele>
        <time>2021-09-14T06:48:32.000Z</time>
      </trkpt>
      <trkpt lat="45.60287" lon="4.7987">
        <ele>177.548836</ele>
        <time>2021-09-14T06:48:36.000Z</time>
      </trkpt>
      <trkpt lat="45.60285" lon="4.79871">
        <ele>177.55886</ele>
        <time>2021-09-14T06:48:37.000Z</time>
      </trkpt>
      <trkpt lat="45.60278" lon="4.79872">
        <ele>177.592126</ele>
        <time>2021-09-14T06:48:40.000Z</time>
      </trkpt>
      <trkpt lat="45.60276" lon="4.79873">
        <ele>177.60273</ele>
        <time>2021-09-14T06:48:41.000Z</time>
      </trkpt>
      <trkpt lat="45.60268" lon="4.79875">
        <ele>177.64551</ele>
        <time>2021-09-14T06:48:45.000Z</time>
      </trkpt>
      <trkpt lat="45.60267" lon="4.79875">
        <ele>177.653302</ele>
        <time>2021-09-14T06:48:46.000Z</time>
      </trkpt>
      <trkpt lat="45.60265" lon="4.79875">
        <ele>177.663686</ele>
        <time>2021-09-14T06:48:47.000Z</time>
      </trkpt>
      <trkpt lat="45.60258" lon="4.79876">
        <ele>177.69743</ele>
        <time>2021-09-14T06:48:50.000Z</time>
      </trkpt>
      <trkpt lat="45.60247" lon="4.79876">
        <ele>177.755035</ele>
        <time>2021-09-14T06:48:55.000Z</time>
      </trkpt>
      <trkpt lat="45.60233" lon="4.7987">
        <ele>177.833777</ele>
        <time>2021-09-14T06:49:01.000Z</time>
      </trkpt>
      <trkpt lat="45.60221" lon="4.79852">
        <ele>177.921386</ele>
        <time>2021-09-14T06:49:07.000Z</time>
      </trkpt>
      <trkpt lat="45.60209" lon="4.79831">
        <ele>178.019446</ele>
        <time>2021-09-14T06:49:13.000Z</time>
      </trkpt>
      <trkpt lat="45.60195" lon="4.79815">
        <ele>178.114084</ele>
        <time>2021-09-14T06:49:19.000Z</time>
      </trkpt>
      <trkpt lat="45.60182" lon="4.79806">
        <ele>178.186285</ele>
        <time>2021-09-14T06:49:24.000Z</time>
      </trkpt>
      <trkpt lat="45.60166" lon="4.79793">
        <ele>178.282266</ele>
        <time>2021-09-14T06:49:30.000Z</time>
      </trkpt>
      <trkpt lat="45.60147" lon="4.7978">
        <ele>178.393149</ele>
        <time>2021-09-14T06:49:36.000Z</time>
      </trkpt>
      <trkpt lat="45.60123" lon="4.79764">
        <ele>178.509459</ele>
        <time>2021-09-14T06:49:42.000Z</time>
      </trkpt>
      <trkpt lat="45.60106" lon="4.79755">
        <ele>178.568576</ele>
        <time>2021-09-14T06:49:47.000Z</time>
      </trkpt>
      <trkpt lat="45.60103" lon="4.79754">
        <ele>178.576632</ele>
        <time>2021-09-14T06:49:48.000Z</time>
      </trkpt>
      <trkpt lat="45.60098" lon="4.79752">
        <ele>178.594617</ele>
        <time>2021-09-14T06:49:50.000Z</time>
      </trkpt>
      <trkpt lat="45.60086" lon="4.79747">
        <ele>178.638077</ele>
        <time>2021-09-14T06:49:54.000Z</time>
      </trkpt>
      <trkpt lat="45.60079" lon="4.79727">
        <ele>178.688918</ele>
        <time>2021-09-14T06:49:58.000Z</time>
      </trkpt>
      <trkpt lat="45.60073" lon="4.79718">
        <ele>178.718001</ele>
        <time>2021-09-14T06:50:00.000Z</time>
      </trkpt>
      <trkpt lat="45.60061" lon="4.79704">
        <ele>178.768869</ele>
        <time>2021-09-14T06:50:04.000Z</time>
      </trkpt>
      <trkpt lat="45.6006" lon="4.79704">
        <ele>178.773174</ele>
        <time>2021-09-14T06:50:07.000Z</time>
      </trkpt>
      <trkpt lat="45.60055" lon="4.79694">
        <ele>178.801758</ele>
        <time>2021-09-14T06:53:10.000Z</time>
      </trkpt>
      <trkpt lat="45.6005" lon="4.79691">
        <ele>178.81786</ele>
        <time>2021-09-14T06:53:12.000Z</time>
      </trkpt>
      <trkpt lat="45.60038" lon="4.79685">
        <ele>178.862288</ele>
        <time>2021-09-14T06:53:16.000Z</time>
      </trkpt>
      <trkpt lat="45.60014" lon="4.79664">
        <ele>178.952804</ele>
        <time>2021-09-14T06:53:21.000Z</time>
      </trkpt>
      <trkpt lat="45.59978" lon="4.79634">
        <ele>178.965926</ele>
        <time>2021-09-14T06:53:27.000Z</time>
      </trkpt>
      <trkpt lat="45.59947" lon="4.79607">
        <ele>178.520235</ele>
        <time>2021-09-14T06:53:32.000Z</time>
      </trkpt>
      <trkpt lat="45.59941" lon="4.79602">
        <ele>178.438704</ele>
        <time>2021-09-14T06:53:33.000Z</time>
      </trkpt>
      <trkpt lat="45.59909" lon="4.79575">
        <ele>177.991971</ele>
        <time>2021-09-14T06:53:39.000Z</time>
      </trkpt>
      <trkpt lat="45.5989" lon="4.79559">
        <ele>177.728053</ele>
        <time>2021-09-14T06:53:43.000Z</time>
      </trkpt>
      <trkpt lat="45.59882" lon="4.79552">
        <ele>177.608486</ele>
        <time>2021-09-14T06:53:45.000Z</time>
      </trkpt>
      <trkpt lat="45.59846" lon="4.79522">
        <ele>177.107948</ele>
        <time>2021-09-14T06:53:54.000Z</time>
      </trkpt>
      <trkpt lat="45.59824" lon="4.79504">
        <ele>176.798597</ele>
        <time>2021-09-14T06:54:01.000Z</time>
      </trkpt>
      <trkpt lat="45.59807" lon="4.79492">
        <ele>176.578525</ele>
        <time>2021-09-14T06:54:07.000Z</time>
      </trkpt>
      <trkpt lat="45.59802" lon="4.79488">
        <ele>176.50783</ele>
        <time>2021-09-14T06:54:09.000Z</time>
      </trkpt>
      <trkpt lat="45.598" lon="4.79487">
        <ele>176.489354</ele>
        <time>2021-09-14T06:54:10.000Z</time>
      </trkpt>
      <trkpt lat="45.59806" lon="4.79466">
        <ele>176.306509</ele>
        <time>2021-09-14T06:54:12.000Z</time>
      </trkpt>
      <trkpt lat="45.59811" lon="4.79455">
        <ele>176.192716</ele>
        <time>2021-09-14T06:54:14.000Z</time>
      </trkpt>
      <trkpt lat="45.59825" lon="4.7942">
        <ele>175.860291</ele>
        <time>2021-09-14T06:54:20.000Z</time>
      </trkpt>
      <trkpt lat="45.59826" lon="4.79415">
        <ele>175.813835</ele>
        <time>2021-09-14T06:54:21.000Z</time>
      </trkpt>
      <trkpt lat="45.59831" lon="4.79401">
        <ele>175.686789</ele>
        <time>2021-09-14T06:54:24.000Z</time>
      </trkpt>
      <trkpt lat="45.5983" lon="4.794">
        <ele>175.677102</ele>
        <time>2021-09-14T06:54:25.000Z</time>
      </trkpt>
      <trkpt lat="45.59824" lon="4.79392">
        <ele>175.576908</ele>
        <time>2021-09-14T06:54:29.000Z</time>
      </trkpt>
      <trkpt lat="45.59817" lon="4.79385">
        <ele>175.482195</ele>
        <time>2021-09-14T06:54:31.000Z</time>
      </trkpt>
      <trkpt lat="45.59806" lon="4.79369">
        <ele>175.295021</ele>
        <time>2021-09-14T06:54:34.000Z</time>
      </trkpt>
      <trkpt lat="45.59798" lon="4.79357">
        <ele>175.157905</ele>
        <time>2021-09-14T06:54:36.000Z</time>
      </trkpt>
      <trkpt lat="45.59782" lon="4.79332">
        <ele>174.871816</ele>
        <time>2021-09-14T06:54:40.000Z</time>
      </trkpt>
      <trkpt lat="45.59778" lon="4.79326">
        <ele>174.80839</ele>
        <time>2021-09-14T06:54:41.000Z</time>
      </trkpt>
      <trkpt lat="45.59767" lon="4.79319">
        <ele>174.742205</ele>
        <time>2021-09-14T06:54:43.000Z</time>
      </trkpt>
      <trkpt lat="45.59762" lon="4.79315">
        <ele>174.725739</ele>
        <time>2021-09-14T06:54:44.000Z</time>
      </trkpt>
      <trkpt lat="45.5974" lon="4.79301">
        <ele>174.658996</ele>
        <time>2021-09-14T06:54:48.000Z</time>
      </trkpt>
      <trkpt lat="45.59729" lon="4.79295">
        <ele>174.625503</ele>
        <time>2021-09-14T06:54:50.000Z</time>
      </trkpt>
      <trkpt lat="45.59712" lon="4.79291">
        <ele>174.576749</ele>
        <time>2021-09-14T06:54:53.000Z</time>
      </trkpt>
      <trkpt lat="45.59695" lon="4.79288">
        <ele>174.528915</ele>
        <time>2021-09-14T06:54:56.000Z</time>
      </trkpt>
      <trkpt lat="45.59657" lon="4.79279">
        <ele>174.420866</ele>
        <time>2021-09-14T06:55:03.000Z</time>
      </trkpt>
      <trkpt lat="45.59626" lon="4.79271">
        <ele>174.332716</ele>
        <time>2021-09-14T06:55:09.000Z</time>
      </trkpt>
      <trkpt lat="45.59595" lon="4.79263">
        <ele>174.156688</ele>
        <time>2021-09-14T06:55:16.000Z</time>
      </trkpt>
      <trkpt lat="45.59584" lon="4.7926">
        <ele>173.95901</ele>
        <time>2021-09-14T06:55:20.000Z</time>
      </trkpt>
      <trkpt lat="45.59578" lon="4.79258">
        <ele>173.83592</ele>
        <time>2021-09-14T06:55:22.000Z</time>
      </trkpt>
      <trkpt lat="45.59569" lon="4.79255">
        <ele>173.674405</ele>
        <time>2021-09-14T06:55:24.000Z</time>
      </trkpt>
      <trkpt lat="45.59536" lon="4.79245">
        <ele>173.072296</ele>
        <time>2021-09-14T06:55:30.000Z</time>
      </trkpt>
      <trkpt lat="45.59493" lon="4.79232">
        <ele>172.292354</ele>
        <time>2021-09-14T06:55:37.000Z</time>
      </trkpt>
      <trkpt lat="45.59488" lon="4.79229">
        <ele>172.190098</ele>
        <time>2021-09-14T06:55:38.000Z</time>
      </trkpt>
      <trkpt lat="45.59477" lon="4.79222">
        <ele>171.973502</ele>
        <time>2021-09-14T06:55:40.000Z</time>
      </trkpt>
      <trkpt lat="45.59457" lon="4.79199">
        <ele>171.513775</ele>
        <time>2021-09-14T06:55:44.000Z</time>
      </trkpt>
      <trkpt lat="45.59438" lon="4.79175">
        <ele>171.064561</ele>
        <time>2021-09-14T06:55:49.000Z</time>
      </trkpt>
      <trkpt lat="45.59428" lon="4.79159">
        <ele>170.561752</ele>
        <time>2021-09-14T06:55:54.000Z</time>
      </trkpt>
      <trkpt lat="45.59417" lon="4.79142">
        <ele>169.997604</ele>
        <time>2021-09-14T06:55:59.000Z</time>
      </trkpt>
      <trkpt lat="45.59408" lon="4.79116">
        <ele>169.300901</ele>
        <time>2021-09-14T06:56:05.000Z</time>
      </trkpt>
      <trkpt lat="45.59404" lon="4.79099">
        <ele>168.857383</ele>
        <time>2021-09-14T06:56:10.000Z</time>
      </trkpt>
      <trkpt lat="45.59404" lon="4.79094">
        <ele>168.733528</ele>
        <time>2021-09-14T06:56:15.000Z</time>
      </trkpt>
      <trkpt lat="45.59404" lon="4.79091">
        <ele>168.663454</ele>
        <time>2021-09-14T06:56:19.000Z</time>
      </trkpt>
      <trkpt lat="45.59404" lon="4.79085">
        <ele>168.518485</ele>
        <time>2021-09-14T06:56:21.000Z</time>
      </trkpt>
      <trkpt lat="45.59404" lon="4.79081">
        <ele>168.419474</ele>
        <time>2021-09-14T06:56:25.000Z</time>
      </trkpt>
      <trkpt lat="45.59404" lon="4.79078">
        <ele>168.351811</ele>
        <time>2021-09-14T06:56:32.000Z</time>
      </trkpt>
      <trkpt lat="45.59404" lon="4.7907">
        <ele>168.16328</ele>
        <time>2021-09-14T06:56:34.000Z</time>
      </trkpt>
      <trkpt lat="45.59405" lon="4.7904">
        <ele>167.448075</ele>
        <time>2021-09-14T06:56:41.000Z</time>
      </trkpt>
      <trkpt lat="45.59402" lon="4.79026">
        <ele>167.088104</ele>
        <time>2021-09-14T06:56:45.000Z</time>
      </trkpt>
      <trkpt lat="45.59403" lon="4.7901">
        <ele>166.701344</ele>
        <time>2021-09-14T06:56:48.000Z</time>
      </trkpt>
      <trkpt lat="45.59404" lon="4.79004">
        <ele>166.550722</ele>
        <time>2021-09-14T06:56:49.000Z</time>
      </trkpt>
      <trkpt lat="45.59404" lon="4.78998">
        <ele>166.39249</ele>
        <time>2021-09-14T06:56:50.000Z</time>
      </trkpt>
      <trkpt lat="45.59407" lon="4.78966">
        <ele>165.618971</ele>
        <time>2021-09-14T06:56:55.000Z</time>
      </trkpt>
      <trkpt lat="45.59408" lon="4.78959">
        <ele>165.461154</ele>
        <time>2021-09-14T06:56:56.000Z</time>
      </trkpt>
      <trkpt lat="45.5941" lon="4.78933">
        <ele>164.827531</ele>
        <time>2021-09-14T06:57:00.000Z</time>
      </trkpt>
      <trkpt lat="45.59411" lon="4.78927">
        <ele>164.808342</ele>
        <time>2021-09-14T06:57:01.000Z</time>
      </trkpt>
      <trkpt lat="45.59413" lon="4.78913">
        <ele>164.763142</ele>
        <time>2021-09-14T06:57:04.000Z</time>
      </trkpt>
      <trkpt lat="45.59415" lon="4.78898">
        <ele>164.715784</ele>
        <time>2021-09-14T06:57:09.000Z</time>
      </trkpt>
      <trkpt lat="45.59411" lon="4.7889">
        <ele>164.684634</ele>
        <time>2021-09-14T06:57:13.000Z</time>
      </trkpt>
      <trkpt lat="45.59394" lon="4.78869">
        <ele>164.586183</ele>
        <time>2021-09-14T06:57:20.000Z</time>
      </trkpt>
      <trkpt lat="45.59383" lon="4.78847">
        <ele>164.501997</ele>
        <time>2021-09-14T06:57:25.000Z</time>
      </trkpt>
      <trkpt lat="45.59368" lon="4.78817">
        <ele>164.385883</ele>
        <time>2021-09-14T06:57:31.000Z</time>
      </trkpt>
      <trkpt lat="45.59352" lon="4.78786">
        <ele>164.263337</ele>
        <time>2021-09-14T06:57:37.000Z</time>
      </trkpt>
      <trkpt lat="45.59335" lon="4.78752">
        <ele>164.133068</ele>
        <time>2021-09-14T06:57:43.000Z</time>
      </trkpt>
      <trkpt lat="45.5933" lon="4.78741">
        <ele>164.089303</ele>
        <time>2021-09-14T06:57:45.000Z</time>
      </trkpt>
      <trkpt lat="45.59323" lon="4.78729">
        <ele>164.041931</ele>
        <time>2021-09-14T06:57:47.000Z</time>
      </trkpt>
      <trkpt lat="45.59305" lon="4.78693">
        <ele>163.936668</ele>
        <time>2021-09-14T06:57:53.000Z</time>
      </trkpt>
      <trkpt lat="45.59296" lon="4.78675">
        <ele>163.887412</ele>
        <time>2021-09-14T06:57:56.000Z</time>
      </trkpt>
      <trkpt lat="45.59291" lon="4.78664">
        <ele>163.856788</ele>
        <time>2021-09-14T06:57:58.000Z</time>
      </trkpt>
      <trkpt lat="45.5928" lon="4.78644">
        <ele>163.799785</ele>
        <time>2021-09-14T06:58:02.000Z</time>
      </trkpt>
      <trkpt lat="45.59275" lon="4.78633">
        <ele>163.771375</ele>
        <time>2021-09-14T06:58:04.000Z</time>
      </trkpt>
      <trkpt lat="45.59259" lon="4.78603">
        <ele>163.686666</ele>
        <time>2021-09-14T06:58:10.000Z</time>
      </trkpt>
      <trkpt lat="45.59257" lon="4.78599">
        <ele>163.673554</ele>
        <time>2021-09-14T06:58:11.000Z</time>
      </trkpt>
      <trkpt lat="45.59246" lon="4.7858">
        <ele>163.619551</ele>
        <time>2021-09-14T06:58:15.000Z</time>
      </trkpt>
      <trkpt lat="45.59227" lon="4.78542">
        <ele>163.514414</ele>
        <time>2021-09-14T06:58:23.000Z</time>
      </trkpt>
      <trkpt lat="45.59218" lon="4.78513">
        <ele>163.443959</ele>
        <time>2021-09-14T06:58:28.000Z</time>
      </trkpt>
      <trkpt lat="45.59214" lon="4.78501">
        <ele>163.384048</ele>
        <time>2021-09-14T06:58:30.000Z</time>
      </trkpt>
      <trkpt lat="45.5921" lon="4.78488">
        <ele>163.323841</ele>
        <time>2021-09-14T06:58:32.000Z</time>
      </trkpt>
      <trkpt lat="45.59195" lon="4.78446">
        <ele>163.125637</ele>
        <time>2021-09-14T06:58:38.000Z</time>
      </trkpt>
      <trkpt lat="45.59189" lon="4.78434">
        <ele>163.061128</ele>
        <time>2021-09-14T06:58:40.000Z</time>
      </trkpt>
      <trkpt lat="45.59171" lon="4.78389">
        <ele>162.841763</ele>
        <time>2021-09-14T06:58:47.000Z</time>
      </trkpt>
      <trkpt lat="45.59146" lon="4.78319">
        <ele>162.508851</ele>
        <time>2021-09-14T06:58:57.000Z</time>
      </trkpt>
      <trkpt lat="45.59134" lon="4.78288">
        <ele>162.360125</ele>
        <time>2021-09-14T06:59:02.000Z</time>
      </trkpt>
      <trkpt lat="45.59129" lon="4.78275">
        <ele>162.344899</ele>
        <time>2021-09-14T06:59:06.000Z</time>
      </trkpt>
      <trkpt lat="45.59121" lon="4.78253">
        <ele>162.332645</ele>
        <time>2021-09-14T06:59:13.000Z</time>
      </trkpt>
      <trkpt lat="45.59116" lon="4.7824">
        <ele>162.324873</ele>
        <time>2021-09-14T06:59:16.000Z</time>
      </trkpt>
      <trkpt lat="45.59111" lon="4.78229">
        <ele>162.318729</ele>
        <time>2021-09-14T06:59:18.000Z</time>
      </trkpt>
      <trkpt lat="45.59096" lon="4.78192">
        <ele>162.297727</ele>
        <time>2021-09-14T06:59:24.000Z</time>
      </trkpt>
      <trkpt lat="45.59073" lon="4.78149">
        <ele>162.271329</ele>
        <time>2021-09-14T06:59:31.000Z</time>
      </trkpt>
      <trkpt lat="45.59048" lon="4.78107">
        <ele>162.244001</ele>
        <time>2021-09-14T06:59:38.000Z</time>
      </trkpt>
      <trkpt lat="45.59044" lon="4.78101">
        <ele>162.240153</ele>
        <time>2021-09-14T06:59:39.000Z</time>
      </trkpt>
      <trkpt lat="45.5903" lon="4.78078">
        <ele>162.22513</ele>
        <time>2021-09-14T06:59:43.000Z</time>
      </trkpt>
      <trkpt lat="45.59008" lon="4.78041">
        <ele>162.38565</ele>
        <time>2021-09-14T06:59:50.000Z</time>
      </trkpt>
      <trkpt lat="45.58999" lon="4.78026">
        <ele>162.453685</ele>
        <time>2021-09-14T06:59:53.000Z</time>
      </trkpt>
      <trkpt lat="45.58993" lon="4.78016">
        <ele>162.497652</ele>
        <time>2021-09-14T06:59:55.000Z</time>
      </trkpt>
      <trkpt lat="45.5897" lon="4.77979">
        <ele>162.663855</ele>
        <time>2021-09-14T07:00:03.000Z</time>
      </trkpt>
      <trkpt lat="45.58952" lon="4.77949">
        <ele>162.795379</ele>
        <time>2021-09-14T07:00:09.000Z</time>
      </trkpt>
      <trkpt lat="45.58949" lon="4.77945">
        <ele>162.815917</ele>
        <time>2021-09-14T07:00:10.000Z</time>
      </trkpt>
      <trkpt lat="45.58931" lon="4.77918">
        <ele>162.93963</ele>
        <time>2021-09-14T07:00:16.000Z</time>
      </trkpt>
      <trkpt lat="45.58928" lon="4.77914">
        <ele>162.960014</ele>
        <time>2021-09-14T07:00:17.000Z</time>
      </trkpt>
      <trkpt lat="45.58925" lon="4.7791">
        <ele>162.981142</ele>
        <time>2021-09-14T07:00:18.000Z</time>
      </trkpt>
      <trkpt lat="45.58908" lon="4.77899">
        <ele>163.071002</ele>
        <time>2021-09-14T07:00:22.000Z</time>
      </trkpt>
      <trkpt lat="45.58875" lon="4.77879">
        <ele>162.843057</ele>
        <time>2021-09-14T07:00:29.000Z</time>
      </trkpt>
      <trkpt lat="45.58853" lon="4.77873">
        <ele>162.676179</ele>
        <time>2021-09-14T07:00:35.000Z</time>
      </trkpt>
      <trkpt lat="45.58822" lon="4.77868">
        <ele>162.440203</ele>
        <time>2021-09-14T07:00:42.000Z</time>
      </trkpt>
      <trkpt lat="45.5879" lon="4.77863">
        <ele>162.195221</ele>
        <time>2021-09-14T07:00:49.000Z</time>
      </trkpt>
      <trkpt lat="45.58746" lon="4.77858">
        <ele>161.868759</ele>
        <time>2021-09-14T07:00:58.000Z</time>
      </trkpt>
      <trkpt lat="45.58732" lon="4.77857">
        <ele>161.757658</ele>
        <time>2021-09-14T07:01:01.000Z</time>
      </trkpt>
      <trkpt lat="45.58719" lon="4.77856">
        <ele>161.691865</ele>
        <time>2021-09-14T07:01:04.000Z</time>
      </trkpt>
      <trkpt lat="45.58707" lon="4.77855">
        <ele>161.637356</ele>
        <time>2021-09-14T07:01:07.000Z</time>
      </trkpt>
      <trkpt lat="45.58698" lon="4.77854">
        <ele>161.597004</ele>
        <time>2021-09-14T07:01:09.000Z</time>
      </trkpt>
      <trkpt lat="45.58689" lon="4.77853">
        <ele>161.555345</ele>
        <time>2021-09-14T07:01:11.000Z</time>
      </trkpt>
      <trkpt lat="45.58675" lon="4.77852">
        <ele>161.494615</ele>
        <time>2021-09-14T07:01:14.000Z</time>
      </trkpt>
      <trkpt lat="45.58665" lon="4.77851">
        <ele>161.452055</ele>
        <time>2021-09-14T07:01:16.000Z</time>
      </trkpt>
      <trkpt lat="45.58651" lon="4.77851">
        <ele>161.386989</ele>
        <time>2021-09-14T07:01:19.000Z</time>
      </trkpt>
      <trkpt lat="45.5862" lon="4.77856">
        <ele>161.249553</ele>
        <time>2021-09-14T07:01:25.000Z</time>
      </trkpt>
      <trkpt lat="45.58577" lon="4.77862">
        <ele>161.06142</ele>
        <time>2021-09-14T07:01:33.000Z</time>
      </trkpt>
      <trkpt lat="45.58544" lon="4.77867">
        <ele>160.924971</ele>
        <time>2021-09-14T07:01:40.000Z</time>
      </trkpt>
      <trkpt lat="45.58511" lon="4.77881">
        <ele>160.857886</ele>
        <time>2021-09-14T07:01:47.000Z</time>
      </trkpt>
      <trkpt lat="45.58472" lon="4.77897">
        <ele>160.77886</ele>
        <time>2021-09-14T07:01:55.000Z</time>
      </trkpt>
      <trkpt lat="45.58439" lon="4.77913">
        <ele>160.711788</ele>
        <time>2021-09-14T07:02:02.000Z</time>
      </trkpt>
      <trkpt lat="45.584" lon="4.77939">
        <ele>160.628517</ele>
        <time>2021-09-14T07:02:10.000Z</time>
      </trkpt>
      <trkpt lat="45.5839" lon="4.77945">
        <ele>160.607144</ele>
        <time>2021-09-14T07:02:12.000Z</time>
      </trkpt>
      <trkpt lat="45.5837" lon="4.77959">
        <ele>160.619712</ele>
        <time>2021-09-14T07:02:16.000Z</time>
      </trkpt>
      <trkpt lat="45.58334" lon="4.77983">
        <ele>160.73992</ele>
        <time>2021-09-14T07:02:23.000Z</time>
      </trkpt>
      <trkpt lat="45.58305" lon="4.78012">
        <ele>160.847722</ele>
        <time>2021-09-14T07:02:29.000Z</time>
      </trkpt>
      <trkpt lat="45.58282" lon="4.78035">
        <ele>160.934759</ele>
        <time>2021-09-14T07:02:34.000Z</time>
      </trkpt>
      <trkpt lat="45.58273" lon="4.78045">
        <ele>160.9697</ele>
        <time>2021-09-14T07:02:36.000Z</time>
      </trkpt>
      <trkpt lat="45.58258" lon="4.78059">
        <ele>161.022436</ele>
        <time>2021-09-14T07:02:39.000Z</time>
      </trkpt>
      <trkpt lat="45.58249" lon="4.78066">
        <ele>161.053484</ele>
        <time>2021-09-14T07:02:41.000Z</time>
      </trkpt>
      <trkpt lat="45.5823" lon="4.78075">
        <ele>161.115015</ele>
        <time>2021-09-14T07:02:46.000Z</time>
      </trkpt>
      <trkpt lat="45.58226" lon="4.78077">
        <ele>161.128723</ele>
        <time>2021-09-14T07:02:47.000Z</time>
      </trkpt>
      <trkpt lat="45.5822" lon="4.78085">
        <ele>161.21883</ele>
        <time>2021-09-14T07:02:49.000Z</time>
      </trkpt>
      <trkpt lat="45.58217" lon="4.78089">
        <ele>161.26791</ele>
        <time>2021-09-14T07:02:50.000Z</time>
      </trkpt>
      <trkpt lat="45.58215" lon="4.78102">
        <ele>161.392599</ele>
        <time>2021-09-14T07:02:52.000Z</time>
      </trkpt>
      <trkpt lat="45.58213" lon="4.78118">
        <ele>161.54113</ele>
        <time>2021-09-14T07:02:55.000Z</time>
      </trkpt>
      <trkpt lat="45.58215" lon="4.78119">
        <ele>161.56442</ele>
        <time>2021-09-14T07:02:56.000Z</time>
      </trkpt>
      <trkpt lat="45.58224" lon="4.78129">
        <ele>161.710728</ele>
        <time>2021-09-14T07:03:00.000Z</time>
      </trkpt>
      <trkpt lat="45.58241" lon="4.78145">
        <ele>161.988263</ele>
        <time>2021-09-14T07:03:06.000Z</time>
      </trkpt>
      <trkpt lat="45.58258" lon="4.78156">
        <ele>162.234617</ele>
        <time>2021-09-14T07:03:11.000Z</time>
      </trkpt>
      <trkpt lat="45.58275" lon="4.78171">
        <ele>162.503474</ele>
        <time>2021-09-14T07:03:18.000Z</time>
      </trkpt>
      <trkpt lat="45.58278" lon="4.78172">
        <ele>162.539213</ele>
        <time>2021-09-14T07:03:20.000Z</time>
      </trkpt>
      <trkpt lat="45.58286" lon="4.78159">
        <ele>162.705171</ele>
        <time>2021-09-14T07:03:38.000Z</time>
      </trkpt>
      <trkpt lat="45.58276" lon="4.78159">
        <ele>162.845002</ele>
        <time>2021-09-14T07:03:40.000Z</time>
      </trkpt>
      <trkpt lat="45.58267" lon="4.78146">
        <ele>163.015337</ele>
        <time>2021-09-14T07:03:45.000Z</time>
      </trkpt>
      <trkpt lat="45.58248" lon="4.78119">
        <ele>163.367201</ele>
        <time>2021-09-14T07:03:53.000Z</time>
      </trkpt>
      <trkpt lat="45.58237" lon="4.78103">
        <ele>163.573603</ele>
        <time>2021-09-14T07:03:58.000Z</time>
      </trkpt>
      <trkpt lat="45.58219" lon="4.78078">
        <ele>163.835178</ele>
        <time>2021-09-14T07:04:05.000Z</time>
      </trkpt>
      <trkpt lat="45.58199" lon="4.78049">
        <ele>164.146112</ele>
        <time>2021-09-14T07:04:13.000Z</time>
      </trkpt>
      <trkpt lat="45.58185" lon="4.7803">
        <ele>164.358508</ele>
        <time>2021-09-14T07:04:19.000Z</time>
      </trkpt>
      <trkpt lat="45.58171" lon="4.7801">
        <ele>164.565718</ele>
        <time>2021-09-14T07:04:24.000Z</time>
      </trkpt>
      <trkpt lat="45.58153" lon="4.77985">
        <ele>164.837132</ele>
        <time>2021-09-14T07:04:30.000Z</time>
      </trkpt>
      <trkpt lat="45.58129" lon="4.77952">
        <ele>165.196425</ele>
        <time>2021-09-14T07:04:37.000Z</time>
      </trkpt>
      <trkpt lat="45.58125" lon="4.77947">
        <ele>165.252321</ele>
        <time>2021-09-14T07:04:38.000Z</time>
      </trkpt>
      <trkpt lat="45.58111" lon="4.77927">
        <ele>165.46395</ele>
        <time>2021-09-14T07:04:42.000Z</time>
      </trkpt>
      <trkpt lat="45.58091" lon="4.77898">
        <ele>165.241022</ele>
        <time>2021-09-14T07:04:48.000Z</time>
      </trkpt>
      <trkpt lat="45.58089" lon="4.77895">
        <ele>165.2132</ele>
        <time>2021-09-14T07:04:52.000Z</time>
      </trkpt>
      <trkpt lat="45.58087" lon="4.77892">
        <ele>165.193246</ele>
        <time>2021-09-14T07:04:57.000Z</time>
      </trkpt>
      <trkpt lat="45.58084" lon="4.77889">
        <ele>165.164076</ele>
        <time>2021-09-14T07:04:59.000Z</time>
      </trkpt>
      <trkpt lat="45.58081" lon="4.77885">
        <ele>165.134135</ele>
        <time>2021-09-14T07:05:03.000Z</time>
      </trkpt>
      <trkpt lat="45.58069" lon="4.77871">
        <ele>165.008163</ele>
        <time>2021-09-14T07:05:10.000Z</time>
      </trkpt>
      <trkpt lat="45.58067" lon="4.77873">
        <ele>164.985819</ele>
        <time>2021-09-14T07:05:12.000Z</time>
      </trkpt>
      <trkpt lat="45.58064" lon="4.77877">
        <ele>164.954413</ele>
        <time>2021-09-14T07:05:17.000Z</time>
      </trkpt>
      <trkpt lat="45.58067" lon="4.77885">
        <ele>164.902865</ele>
        <time>2021-09-14T07:06:28.000Z</time>
      </trkpt>
      <trkpt lat="45.58063" lon="4.7788">
        <ele>164.86084</ele>
        <time>2021-09-14T07:06:30.000Z</time>
      </trkpt>
      <trkpt lat="45.58062" lon="4.77879">
        <ele>164.851426</ele>
        <time>2021-09-14T07:06:31.000Z</time>
      </trkpt>
      <trkpt lat="45.58059" lon="4.77884">
        <ele>164.807226</ele>
        <time>2021-09-14T07:06:33.000Z</time>
      </trkpt>
      <trkpt lat="45.58045" lon="4.77905">
        <ele>164.646018</ele>
        <time>2021-09-14T07:06:38.000Z</time>
      </trkpt>
      <trkpt lat="45.58032" lon="4.77927">
        <ele>164.487865</ele>
        <time>2021-09-14T07:06:42.000Z</time>
      </trkpt>
      <trkpt lat="45.58027" lon="4.7794">
        <ele>164.403353</ele>
        <time>2021-09-14T07:06:44.000Z</time>
      </trkpt>
      <trkpt lat="45.58009" lon="4.77992">
        <ele>164.085197</ele>
        <time>2021-09-14T07:06:51.000Z</time>
      </trkpt>
      <trkpt lat="45.57989" lon="4.78053">
        <ele>164.151805</ele>
        <time>2021-09-14T07:06:59.000Z</time>
      </trkpt>
      <trkpt lat="45.57971" lon="4.78106">
        <ele>164.267574</ele>
        <time>2021-09-14T07:07:06.000Z</time>
      </trkpt>
      <trkpt lat="45.57969" lon="4.78113">
        <ele>164.284428</ele>
        <time>2021-09-14T07:07:07.000Z</time>
      </trkpt>
      <trkpt lat="45.57945" lon="4.78182">
        <ele>164.435215</ele>
        <time>2021-09-14T07:07:16.000Z</time>
      </trkpt>
      <trkpt lat="45.5792" lon="4.78259">
        <ele>164.66305</ele>
        <time>2021-09-14T07:07:26.000Z</time>
      </trkpt>
      <trkpt lat="45.57902" lon="4.78313">
        <ele>164.904843</ele>
        <time>2021-09-14T07:07:33.000Z</time>
      </trkpt>
      <trkpt lat="45.57879" lon="4.7838">
        <ele>165.205187</ele>
        <time>2021-09-14T07:07:42.000Z</time>
      </trkpt>
      <trkpt lat="45.5786" lon="4.78438">
        <ele>165.461305</ele>
        <time>2021-09-14T07:07:50.000Z</time>
      </trkpt>
      <trkpt lat="45.5785" lon="4.78473">
        <ele>165.613736</ele>
        <time>2021-09-14T07:07:55.000Z</time>
      </trkpt>
      <trkpt lat="45.57846" lon="4.78487">
        <ele>165.672923</ele>
        <time>2021-09-14T07:07:57.000Z</time>
      </trkpt>
      <trkpt lat="45.5783" lon="4.78537">
        <ele>165.880074</ele>
        <time>2021-09-14T07:08:04.000Z</time>
      </trkpt>
      <trkpt lat="45.57812" lon="4.78595">
        <ele>166.123576</ele>
        <time>2021-09-14T07:08:12.000Z</time>
      </trkpt>
      <trkpt lat="45.57795" lon="4.78645">
        <ele>166.338726</ele>
        <time>2021-09-14T07:08:19.000Z</time>
      </trkpt>
      <trkpt lat="45.57775" lon="4.78696">
        <ele>166.561902</ele>
        <time>2021-09-14T07:08:26.000Z</time>
      </trkpt>
      <trkpt lat="45.57748" lon="4.7875">
        <ele>166.758208</ele>
        <time>2021-09-14T07:08:34.000Z</time>
      </trkpt>
      <trkpt lat="45.57719" lon="4.78794">
        <ele>166.931888</ele>
        <time>2021-09-14T07:08:41.000Z</time>
      </trkpt>
      <trkpt lat="45.57692" lon="4.78836">
        <ele>167.097695</ele>
        <time>2021-09-14T07:08:48.000Z</time>
      </trkpt>
      <trkpt lat="45.57688" lon="4.78841">
        <ele>167.121401</ele>
        <time>2021-09-14T07:08:49.000Z</time>
      </trkpt>
      <trkpt lat="45.57671" lon="4.78866">
        <ele>167.22188</ele>
        <time>2021-09-14T07:08:53.000Z</time>
      </trkpt>
      <trkpt lat="45.57637" lon="4.78916">
        <ele>167.445859</ele>
        <time>2021-09-14T07:09:01.000Z</time>
      </trkpt>
      <trkpt lat="45.57621" lon="4.78939">
        <ele>167.557123</ele>
        <time>2021-09-14T07:09:05.000Z</time>
      </trkpt>
      <trkpt lat="45.57608" lon="4.78955">
        <ele>167.639295</ele>
        <time>2021-09-14T07:09:08.000Z</time>
      </trkpt>
      <trkpt lat="45.57576" lon="4.78996">
        <ele>167.849443</ele>
        <time>2021-09-14T07:09:16.000Z</time>
      </trkpt>
      <trkpt lat="45.57551" lon="4.79028">
        <ele>168.014836</ele>
        <time>2021-09-14T07:09:23.000Z</time>
      </trkpt>
      <trkpt lat="45.5754" lon="4.79041">
        <ele>168.084246</ele>
        <time>2021-09-14T07:09:26.000Z</time>
      </trkpt>
      <trkpt lat="45.57529" lon="4.79055">
        <ele>168.15425</ele>
        <time>2021-09-14T07:09:29.000Z</time>
      </trkpt>
      <trkpt lat="45.57507" lon="4.79084">
        <ele>168.338509</ele>
        <time>2021-09-14T07:09:35.000Z</time>
      </trkpt>
      <trkpt lat="45.57485" lon="4.79111">
        <ele>168.5277</ele>
        <time>2021-09-14T07:09:41.000Z</time>
      </trkpt>
      <trkpt lat="45.57471" lon="4.79129">
        <ele>168.652194</ele>
        <time>2021-09-14T07:09:45.000Z</time>
      </trkpt>
      <trkpt lat="45.5746" lon="4.79143">
        <ele>168.745791</ele>
        <time>2021-09-14T07:09:48.000Z</time>
      </trkpt>
      <trkpt lat="45.57432" lon="4.79178">
        <ele>168.991314</ele>
        <time>2021-09-14T07:09:56.000Z</time>
      </trkpt>
      <trkpt lat="45.57405" lon="4.7921">
        <ele>169.217329</ele>
        <time>2021-09-14T07:10:03.000Z</time>
      </trkpt>
      <trkpt lat="45.57373" lon="4.79248">
        <ele>169.527464</ele>
        <time>2021-09-14T07:10:11.000Z</time>
      </trkpt>
      <trkpt lat="45.57357" lon="4.79266">
        <ele>169.701831</ele>
        <time>2021-09-14T07:10:15.000Z</time>
      </trkpt>
      <trkpt lat="45.57345" lon="4.79281">
        <ele>169.836848</ele>
        <time>2021-09-14T07:10:18.000Z</time>
      </trkpt>
      <trkpt lat="45.57318" lon="4.79313">
        <ele>170.13753</ele>
        <time>2021-09-14T07:10:25.000Z</time>
      </trkpt>
      <trkpt lat="45.57315" lon="4.79317">
        <ele>170.178306</ele>
        <time>2021-09-14T07:10:26.000Z</time>
      </trkpt>
      <trkpt lat="45.57296" lon="4.7934">
        <ele>170.385511</ele>
        <time>2021-09-14T07:10:31.000Z</time>
      </trkpt>
      <trkpt lat="45.57285" lon="4.79352">
        <ele>170.504438</ele>
        <time>2021-09-14T07:10:34.000Z</time>
      </trkpt>
      <trkpt lat="45.57271" lon="4.79367">
        <ele>170.657838</ele>
        <time>2021-09-14T07:10:38.000Z</time>
      </trkpt>
      <trkpt lat="45.57257" lon="4.79382">
        <ele>170.804626</ele>
        <time>2021-09-14T07:10:43.000Z</time>
      </trkpt>
      <trkpt lat="45.57244" lon="4.79398">
        <ele>170.968708</ele>
        <time>2021-09-14T07:10:49.000Z</time>
      </trkpt>
      <trkpt lat="45.57225" lon="4.79418">
        <ele>171.254668</ele>
        <time>2021-09-14T07:10:57.000Z</time>
      </trkpt>
      <trkpt lat="45.57221" lon="4.79423">
        <ele>171.323801</ele>
        <time>2021-09-14T07:10:59.000Z</time>
      </trkpt>
      <trkpt lat="45.57214" lon="4.79425">
        <ele>171.401392</ele>
        <time>2021-09-14T07:11:01.000Z</time>
      </trkpt>
      <trkpt lat="45.57205" lon="4.7941">
        <ele>171.575087</ele>
        <time>2021-09-14T07:11:06.000Z</time>
      </trkpt>
      <trkpt lat="45.57197" lon="4.79386">
        <ele>171.791682</ele>
        <time>2021-09-14T07:11:13.000Z</time>
      </trkpt>
      <trkpt lat="45.57192" lon="4.79366">
        <ele>171.974169</ele>
        <time>2021-09-14T07:11:20.000Z</time>
      </trkpt>
      <trkpt lat="45.57183" lon="4.79356">
        <ele>172.107112</ele>
        <time>2021-09-14T07:11:26.000Z</time>
      </trkpt>
      <trkpt lat="45.57169" lon="4.79343">
        <ele>172.312224</ele>
        <time>2021-09-14T07:11:33.000Z</time>
      </trkpt>
      <trkpt lat="45.57155" lon="4.79342">
        <ele>172.476371</ele>
        <time>2021-09-14T07:11:37.000Z</time>
      </trkpt>
      <trkpt lat="45.57141" lon="4.79348">
        <ele>172.653886</ele>
        <time>2021-09-14T07:11:41.000Z</time>
      </trkpt>
      <trkpt lat="45.57116" lon="4.7936">
        <ele>172.977596</ele>
        <time>2021-09-14T07:11:48.000Z</time>
      </trkpt>
      <trkpt lat="45.57097" lon="4.79377">
        <ele>173.094672</ele>
        <time>2021-09-14T07:11:53.000Z</time>
      </trkpt>
      <trkpt lat="45.57078" lon="4.79401">
        <ele>173.14175</ele>
        <time>2021-09-14T07:11:58.000Z</time>
      </trkpt>
      <trkpt lat="45.57052" lon="4.79432">
        <ele>173.204036</ele>
        <time>2021-09-14T07:12:04.000Z</time>
      </trkpt>
      <trkpt lat="45.57032" lon="4.79457">
        <ele>173.253439</ele>
        <time>2021-09-14T07:12:09.000Z</time>
      </trkpt>
      <trkpt lat="45.57027" lon="4.79462">
        <ele>173.264054</ele>
        <time>2021-09-14T07:12:10.000Z</time>
      </trkpt>
      <trkpt lat="45.57018" lon="4.79471">
        <ele>173.285424</ele>
        <time>2021-09-14T07:12:12.000Z</time>
      </trkpt>
      <trkpt lat="45.57013" lon="4.79475">
        <ele>173.295769</ele>
        <time>2021-09-14T07:12:13.000Z</time>
      </trkpt>
      <trkpt lat="45.56981" lon="4.795">
        <ele>173.362032</ele>
        <time>2021-09-14T07:12:19.000Z</time>
      </trkpt>
      <trkpt lat="45.56955" lon="4.7952">
        <ele>173.414675</ele>
        <time>2021-09-14T07:12:24.000Z</time>
      </trkpt>
      <trkpt lat="45.56934" lon="4.79534">
        <ele>173.451926</ele>
        <time>2021-09-14T07:12:28.000Z</time>
      </trkpt>
      <trkpt lat="45.56918" lon="4.79543">
        <ele>173.479872</ele>
        <time>2021-09-14T07:12:31.000Z</time>
      </trkpt>
      <trkpt lat="45.56877" lon="4.79566">
        <ele>173.550814</ele>
        <time>2021-09-14T07:12:39.000Z</time>
      </trkpt>
      <trkpt lat="45.5686" lon="4.79578">
        <ele>173.581134</ele>
        <time>2021-09-14T07:12:43.000Z</time>
      </trkpt>
      <trkpt lat="45.56852" lon="4.79583">
        <ele>173.59509</ele>
        <time>2021-09-14T07:12:45.000Z</time>
      </trkpt>
      <trkpt lat="45.56822" lon="4.79606">
        <ele>173.650434</ele>
        <time>2021-09-14T07:12:53.000Z</time>
      </trkpt>
      <trkpt lat="45.5681" lon="4.79615">
        <ele>173.671517</ele>
        <time>2021-09-14T07:12:56.000Z</time>
      </trkpt>
      <trkpt lat="45.56798" lon="4.79624">
        <ele>173.69357</ele>
        <time>2021-09-14T07:12:59.000Z</time>
      </trkpt>
      <trkpt lat="45.5677" lon="4.79642">
        <ele>173.739947</ele>
        <time>2021-09-14T07:13:05.000Z</time>
      </trkpt>
      <trkpt lat="45.56759" lon="4.79648">
        <ele>173.756717</ele>
        <time>2021-09-14T07:13:07.000Z</time>
      </trkpt>
      <trkpt lat="45.56744" lon="4.79656">
        <ele>173.781742</ele>
        <time>2021-09-14T07:13:10.000Z</time>
      </trkpt>
      <trkpt lat="45.56713" lon="4.79671">
        <ele>173.831438</ele>
        <time>2021-09-14T07:13:16.000Z</time>
      </trkpt>
      <trkpt lat="45.56708" lon="4.79674">
        <ele>173.839742</ele>
        <time>2021-09-14T07:13:17.000Z</time>
      </trkpt>
      <trkpt lat="45.56675" lon="4.79702">
        <ele>173.897553</ele>
        <time>2021-09-14T07:13:24.000Z</time>
      </trkpt>
      <trkpt lat="45.56644" lon="4.79728">
        <ele>173.951483</ele>
        <time>2021-09-14T07:13:31.000Z</time>
      </trkpt>
      <trkpt lat="45.56622" lon="4.79745">
        <ele>173.892514</ele>
        <time>2021-09-14T07:13:36.000Z</time>
      </trkpt>
      <trkpt lat="45.5661" lon="4.79757">
        <ele>173.840365</ele>
        <time>2021-09-14T07:13:39.000Z</time>
      </trkpt>
      <trkpt lat="45.56604" lon="4.7977">
        <ele>173.80084</ele>
        <time>2021-09-14T07:13:41.000Z</time>
      </trkpt>
      <trkpt lat="45.566" lon="4.79797">
        <ele>173.730331</ele>
        <time>2021-09-14T07:13:45.000Z</time>
      </trkpt>
      <trkpt lat="45.56588" lon="4.79871">
        <ele>173.537066</ele>
        <time>2021-09-14T07:13:53.000Z</time>
      </trkpt>
      <trkpt lat="45.5658" lon="4.79925">
        <ele>173.398828</ele>
        <time>2021-09-14T07:13:59.000Z</time>
      </trkpt>
      <trkpt lat="45.56582" lon="4.7995">
        <ele>173.334918</ele>
        <time>2021-09-14T07:14:02.000Z</time>
      </trkpt>
      <trkpt lat="45.56579" lon="4.79955">
        <ele>173.316202</ele>
        <time>2021-09-14T07:14:03.000Z</time>
      </trkpt>
      <trkpt lat="45.56548" lon="4.8">
        <ele>172.916541</ele>
        <time>2021-09-14T07:14:10.000Z</time>
      </trkpt>
      <trkpt lat="45.5651" lon="4.80049">
        <ele>172.430603</ele>
        <time>2021-09-14T07:14:17.000Z</time>
      </trkpt>
      <trkpt lat="45.56476" lon="4.80087">
        <ele>172.022374</ele>
        <time>2021-09-14T07:14:23.000Z</time>
      </trkpt>
      <trkpt lat="45.56438" lon="4.80128">
        <ele>171.554858</ele>
        <time>2021-09-14T07:14:30.000Z</time>
      </trkpt>
      <trkpt lat="45.56427" lon="4.8014">
        <ele>171.375506</ele>
        <time>2021-09-14T07:14:32.000Z</time>
      </trkpt>
      <trkpt lat="45.56411" lon="4.80159">
        <ele>171.111774</ele>
        <time>2021-09-14T07:14:35.000Z</time>
      </trkpt>
      <trkpt lat="45.56376" lon="4.80197">
        <ele>170.5369</ele>
        <time>2021-09-14T07:14:42.000Z</time>
      </trkpt>
      <trkpt lat="45.56361" lon="4.80213">
        <ele>170.293057</ele>
        <time>2021-09-14T07:14:45.000Z</time>
      </trkpt>
      <trkpt lat="45.5635" lon="4.80224">
        <ele>170.121367</ele>
        <time>2021-09-14T07:14:47.000Z</time>
      </trkpt>
      <trkpt lat="45.56344" lon="4.80228">
        <ele>170.036628</ele>
        <time>2021-09-14T07:14:48.000Z</time>
      </trkpt>
      <trkpt lat="45.56328" lon="4.8024">
        <ele>169.802112</ele>
        <time>2021-09-14T07:14:51.000Z</time>
      </trkpt>
      <trkpt lat="45.56319" lon="4.80247">
        <ele>169.666047</ele>
        <time>2021-09-14T07:14:53.000Z</time>
      </trkpt>
      <trkpt lat="45.5631" lon="4.80256">
        <ele>169.523313</ele>
        <time>2021-09-14T07:14:55.000Z</time>
      </trkpt>
      <trkpt lat="45.56305" lon="4.80261">
        <ele>169.447997</ele>
        <time>2021-09-14T07:14:56.000Z</time>
      </trkpt>
      <trkpt lat="45.56292" lon="4.80278">
        <ele>169.214383</ele>
        <time>2021-09-14T07:14:59.000Z</time>
      </trkpt>
      <trkpt lat="45.56285" lon="4.80291">
        <ele>169.064941</ele>
        <time>2021-09-14T07:15:01.000Z</time>
      </trkpt>
      <trkpt lat="45.5628" lon="4.80306">
        <ele>168.918377</ele>
        <time>2021-09-14T07:15:03.000Z</time>
      </trkpt>
      <trkpt lat="45.56279" lon="4.80314">
        <ele>168.846476</ele>
        <time>2021-09-14T07:15:04.000Z</time>
      </trkpt>
      <trkpt lat="45.56272" lon="4.80344">
        <ele>168.553658</ele>
        <time>2021-09-14T07:15:08.000Z</time>
      </trkpt>
      <trkpt lat="45.56261" lon="4.80392">
        <ele>168.095608</ele>
        <time>2021-09-14T07:15:14.000Z</time>
      </trkpt>
      <trkpt lat="45.56259" lon="4.804">
        <ele>168.019276</ele>
        <time>2021-09-14T07:15:15.000Z</time>
      </trkpt>
      <trkpt lat="45.56249" lon="4.80421">
        <ele>167.789631</ele>
        <time>2021-09-14T07:15:18.000Z</time>
      </trkpt>
      <trkpt lat="45.56243" lon="4.80435">
        <ele>167.637933</ele>
        <time>2021-09-14T07:15:20.000Z</time>
      </trkpt>
      <trkpt lat="45.5623" lon="4.80441">
        <ele>167.458152</ele>
        <time>2021-09-14T07:15:22.000Z</time>
      </trkpt>
      <trkpt lat="45.56224" lon="4.80439">
        <ele>167.382103</ele>
        <time>2021-09-14T07:15:23.000Z</time>
      </trkpt>
      <trkpt lat="45.56204" lon="4.80433">
        <ele>167.116959</ele>
        <time>2021-09-14T07:15:27.000Z</time>
      </trkpt>
      <trkpt lat="45.56199" lon="4.80434">
        <ele>167.045901</ele>
        <time>2021-09-14T07:15:28.000Z</time>
      </trkpt>
      <trkpt lat="45.56189" lon="4.80436">
        <ele>166.934935</ele>
        <time>2021-09-14T07:15:30.000Z</time>
      </trkpt>
      <trkpt lat="45.56169" lon="4.80449">
        <ele>166.904582</ele>
        <time>2021-09-14T07:15:34.000Z</time>
      </trkpt>
      <trkpt lat="45.56148" lon="4.80465">
        <ele>166.872176</ele>
        <time>2021-09-14T07:15:38.000Z</time>
      </trkpt>
      <trkpt lat="45.56124" lon="4.80483">
        <ele>166.834385</ele>
        <time>2021-09-14T07:15:43.000Z</time>
      </trkpt>
      <trkpt lat="45.56101" lon="4.805">
        <ele>166.79847</ele>
        <time>2021-09-14T07:15:48.000Z</time>
      </trkpt>
      <trkpt lat="45.56097" lon="4.80503">
        <ele>166.791757</ele>
        <time>2021-09-14T07:15:49.000Z</time>
      </trkpt>
      <trkpt lat="45.56082" lon="4.80515">
        <ele>166.768566</ele>
        <time>2021-09-14T07:15:52.000Z</time>
      </trkpt>
      <trkpt lat="45.56072" lon="4.80522">
        <ele>166.753508</ele>
        <time>2021-09-14T07:15:54.000Z</time>
      </trkpt>
      <trkpt lat="45.56063" lon="4.80529">
        <ele>166.739029</ele>
        <time>2021-09-14T07:15:56.000Z</time>
      </trkpt>
      <trkpt lat="45.56051" lon="4.80538">
        <ele>166.719927</ele>
        <time>2021-09-14T07:15:59.000Z</time>
      </trkpt>
      <trkpt lat="45.56035" lon="4.80546">
        <ele>166.697299</ele>
        <time>2021-09-14T07:16:04.000Z</time>
      </trkpt>
      <trkpt lat="45.56025" lon="4.80549">
        <ele>166.711343</ele>
        <time>2021-09-14T07:16:08.000Z</time>
      </trkpt>
      <trkpt lat="45.56017" lon="4.80549">
        <ele>166.752512</ele>
        <time>2021-09-14T07:16:12.000Z</time>
      </trkpt>
      <trkpt lat="45.56005" lon="4.80549">
        <ele>166.810963</ele>
        <time>2021-09-14T07:16:17.000Z</time>
      </trkpt>
      <trkpt lat="45.55991" lon="4.80552">
        <ele>166.881255</ele>
        <time>2021-09-14T07:16:23.000Z</time>
      </trkpt>
      <trkpt lat="45.55982" lon="4.80555">
        <ele>166.930813</ele>
        <time>2021-09-14T07:16:28.000Z</time>
      </trkpt>
      <trkpt lat="45.55975" lon="4.80563">
        <ele>166.976728</ele>
        <time>2021-09-14T07:16:32.000Z</time>
      </trkpt>
      <trkpt lat="45.55973" lon="4.80564">
        <ele>166.986655</ele>
        <time>2021-09-14T07:16:33.000Z</time>
      </trkpt>
      <trkpt lat="45.55972" lon="4.80565">
        <ele>166.990998</ele>
        <time>2021-09-14T07:16:34.000Z</time>
      </trkpt>
      <trkpt lat="45.55978" lon="4.80571">
        <ele>167.026664</ele>
        <time>2021-09-14T07:16:37.000Z</time>
      </trkpt>
      <trkpt lat="45.55991" lon="4.80591">
        <ele>167.123174</ele>
        <time>2021-09-14T07:16:42.000Z</time>
      </trkpt>
      <trkpt lat="45.56" lon="4.80624">
        <ele>167.248873</ele>
        <time>2021-09-14T07:16:47.000Z</time>
      </trkpt>
      <trkpt lat="45.56005" lon="4.80656">
        <ele>167.36579</ele>
        <time>2021-09-14T07:16:51.000Z</time>
      </trkpt>
      <trkpt lat="45.56005" lon="4.80665">
        <ele>167.397463</ele>
        <time>2021-09-14T07:16:52.000Z</time>
      </trkpt>
      <trkpt lat="45.56005" lon="4.80681">
        <ele>167.455113</ele>
        <time>2021-09-14T07:16:54.000Z</time>
      </trkpt>
      <trkpt lat="45.56009" lon="4.80697">
        <ele>167.514776</ele>
        <time>2021-09-14T07:16:56.000Z</time>
      </trkpt>
      <trkpt lat="45.56014" lon="4.80714">
        <ele>167.578497</ele>
        <time>2021-09-14T07:16:58.000Z</time>
      </trkpt>
      <trkpt lat="45.56021" lon="4.8074">
        <ele>167.052112</ele>
        <time>2021-09-14T07:17:01.000Z</time>
      </trkpt>
      <trkpt lat="45.56038" lon="4.808">
        <ele>165.389277</ele>
        <time>2021-09-14T07:17:08.000Z</time>
      </trkpt>
      <trkpt lat="45.56045" lon="4.80824">
        <ele>164.742117</ele>
        <time>2021-09-14T07:17:12.000Z</time>
      </trkpt>
      <trkpt lat="45.56048" lon="4.80834">
        <ele>164.443782</ele>
        <time>2021-09-14T07:17:16.000Z</time>
      </trkpt>
      <trkpt lat="45.56048" lon="4.80836">
        <ele>164.405135</ele>
        <time>2021-09-14T07:17:20.000Z</time>
      </trkpt>
      <trkpt lat="45.56049" lon="4.80838">
        <ele>164.333938</ele>
        <time>2021-09-14T07:17:39.000Z</time>
      </trkpt>
      <trkpt lat="45.56058" lon="4.80861">
        <ele>163.669755</ele>
        <time>2021-09-14T07:17:44.000Z</time>
      </trkpt>
      <trkpt lat="45.56065" lon="4.80879">
        <ele>163.144338</ele>
        <time>2021-09-14T07:17:47.000Z</time>
      </trkpt>
      <trkpt lat="45.56072" lon="4.8089">
        <ele>162.774999</ele>
        <time>2021-09-14T07:17:49.000Z</time>
      </trkpt>
      <trkpt lat="45.56082" lon="4.80907">
        <ele>162.197506</ele>
        <time>2021-09-14T07:17:52.000Z</time>
      </trkpt>
      <trkpt lat="45.56094" lon="4.80925">
        <ele>161.554086</ele>
        <time>2021-09-14T07:17:55.000Z</time>
      </trkpt>
      <trkpt lat="45.56107" lon="4.80952">
        <ele>160.891243</ele>
        <time>2021-09-14T07:17:59.000Z</time>
      </trkpt>
      <trkpt lat="45.56108" lon="4.80967">
        <ele>160.711341</ele>
        <time>2021-09-14T07:18:01.000Z</time>
      </trkpt>
      <trkpt lat="45.56108" lon="4.80975">
        <ele>160.614955</ele>
        <time>2021-09-14T07:18:02.000Z</time>
      </trkpt>
      <trkpt lat="45.56103" lon="4.81034">
        <ele>159.884845</ele>
        <time>2021-09-14T07:18:09.000Z</time>
      </trkpt>
      <trkpt lat="45.56106" lon="4.81063">
        <ele>159.532667</ele>
        <time>2021-09-14T07:18:12.000Z</time>
      </trkpt>
      <trkpt lat="45.56109" lon="4.81071">
        <ele>159.420079</ele>
        <time>2021-09-14T07:18:13.000Z</time>
      </trkpt>
      <trkpt lat="45.56116" lon="4.81093">
        <ele>159.122687</ele>
        <time>2021-09-14T07:18:16.000Z</time>
      </trkpt>
      <trkpt lat="45.56119" lon="4.81107">
        <ele>158.944079</ele>
        <time>2021-09-14T07:18:18.000Z</time>
      </trkpt>
      <trkpt lat="45.56127" lon="4.81141">
        <ele>158.513315</ele>
        <time>2021-09-14T07:18:23.000Z</time>
      </trkpt>
      <trkpt lat="45.56129" lon="4.8115">
        <ele>158.392705</ele>
        <time>2021-09-14T07:18:26.000Z</time>
      </trkpt>
      <trkpt lat="45.56131" lon="4.81152">
        <ele>158.354692</ele>
        <time>2021-09-14T07:18:27.000Z</time>
      </trkpt>
      <trkpt lat="45.56136" lon="4.81166">
        <ele>158.155846</ele>
        <time>2021-09-14T07:18:32.000Z</time>
      </trkpt>
      <trkpt lat="45.5614" lon="4.81189">
        <ele>157.865349</ele>
        <time>2021-09-14T07:18:37.000Z</time>
      </trkpt>
      <trkpt lat="45.56139" lon="4.81195">
        <ele>157.795672</ele>
        <time>2021-09-14T07:18:38.000Z</time>
      </trkpt>
      <trkpt lat="45.56136" lon="4.81205">
        <ele>157.638066</ele>
        <time>2021-09-14T07:18:40.000Z</time>
      </trkpt>
      <trkpt lat="45.56132" lon="4.81208">
        <ele>157.561262</ele>
        <time>2021-09-14T07:18:41.000Z</time>
      </trkpt>
      <trkpt lat="45.5611" lon="4.81226">
        <ele>157.063528</ele>
        <time>2021-09-14T07:18:46.000Z</time>
      </trkpt>
      <trkpt lat="45.56083" lon="4.81249">
        <ele>156.45132</ele>
        <time>2021-09-14T07:18:52.000Z</time>
      </trkpt>
      <trkpt lat="45.56053" lon="4.81269">
        <ele>155.80289</ele>
        <time>2021-09-14T07:18:58.000Z</time>
      </trkpt>
      <trkpt lat="45.56048" lon="4.81272">
        <ele>155.695787</ele>
        <time>2021-09-14T07:18:59.000Z</time>
      </trkpt>
      <trkpt lat="45.56038" lon="4.81279">
        <ele>155.478044</ele>
        <time>2021-09-14T07:19:01.000Z</time>
      </trkpt>
      <trkpt lat="45.56028" lon="4.81285">
        <ele>155.277839</ele>
        <time>2021-09-14T07:19:03.000Z</time>
      </trkpt>
      <trkpt lat="45.56009" lon="4.81298">
        <ele>154.861102</ele>
        <time>2021-09-14T07:19:07.000Z</time>
      </trkpt>
      <trkpt lat="45.55985" lon="4.81314">
        <ele>154.414423</ele>
        <time>2021-09-14T07:19:12.000Z</time>
      </trkpt>
      <trkpt lat="45.5597" lon="4.81324">
        <ele>154.42088</ele>
        <time>2021-09-14T07:19:15.000Z</time>
      </trkpt>
      <trkpt lat="45.55954" lon="4.81334">
        <ele>154.427394</ele>
        <time>2021-09-14T07:19:18.000Z</time>
      </trkpt>
      <trkpt lat="45.55917" lon="4.8136">
        <ele>154.443436</ele>
        <time>2021-09-14T07:19:25.000Z</time>
      </trkpt>
      <trkpt lat="45.55901" lon="4.81371">
        <ele>154.450335</ele>
        <time>2021-09-14T07:19:28.000Z</time>
      </trkpt>
      <trkpt lat="45.55891" lon="4.81378">
        <ele>154.454732</ele>
        <time>2021-09-14T07:19:30.000Z</time>
      </trkpt>
      <trkpt lat="45.55854" lon="4.81401">
        <ele>154.470207</ele>
        <time>2021-09-14T07:19:37.000Z</time>
      </trkpt>
      <trkpt lat="45.55823" lon="4.81419">
        <ele>154.495082</ele>
        <time>2021-09-14T07:19:43.000Z</time>
      </trkpt>
      <trkpt lat="45.55787" lon="4.81443">
        <ele>154.841443</ele>
        <time>2021-09-14T07:19:50.000Z</time>
      </trkpt>
      <trkpt lat="45.55746" lon="4.81471">
        <ele>155.240297</ele>
        <time>2021-09-14T07:19:58.000Z</time>
      </trkpt>
      <trkpt lat="45.55716" lon="4.81491">
        <ele>155.529419</ele>
        <time>2021-09-14T07:20:04.000Z</time>
      </trkpt>
      <trkpt lat="45.55685" lon="4.81512">
        <ele>155.830669</ele>
        <time>2021-09-14T07:20:10.000Z</time>
      </trkpt>
      <trkpt lat="45.55666" lon="4.81528">
        <ele>156.029519</ele>
        <time>2021-09-14T07:20:14.000Z</time>
      </trkpt>
      <trkpt lat="45.55655" lon="4.81536">
        <ele>156.116462</ele>
        <time>2021-09-14T07:20:16.000Z</time>
      </trkpt>
      <trkpt lat="45.5564" lon="4.81547">
        <ele>156.228944</ele>
        <time>2021-09-14T07:20:19.000Z</time>
      </trkpt>
      <trkpt lat="45.5561" lon="4.81569">
        <ele>156.452124</ele>
        <time>2021-09-14T07:20:25.000Z</time>
      </trkpt>
      <trkpt lat="45.55569" lon="4.81601">
        <ele>156.7618</ele>
        <time>2021-09-14T07:20:33.000Z</time>
      </trkpt>
      <trkpt lat="45.55545" lon="4.81624">
        <ele>156.95576</ele>
        <time>2021-09-14T07:20:38.000Z</time>
      </trkpt>
      <trkpt lat="45.55536" lon="4.81634">
        <ele>157.033461</ele>
        <time>2021-09-14T07:20:40.000Z</time>
      </trkpt>
      <trkpt lat="45.55527" lon="4.81645">
        <ele>157.109838</ele>
        <time>2021-09-14T07:20:42.000Z</time>
      </trkpt>
      <trkpt lat="45.55505" lon="4.81671">
        <ele>157.265598</ele>
        <time>2021-09-14T07:20:47.000Z</time>
      </trkpt>
      <trkpt lat="45.55497" lon="4.81683">
        <ele>157.280085</ele>
        <time>2021-09-14T07:20:49.000Z</time>
      </trkpt>
      <trkpt lat="45.55484" lon="4.81701">
        <ele>157.302284</ele>
        <time>2021-09-14T07:20:52.000Z</time>
      </trkpt>
      <trkpt lat="45.55476" lon="4.81713">
        <ele>157.316921</ele>
        <time>2021-09-14T07:20:54.000Z</time>
      </trkpt>
      <trkpt lat="45.55465" lon="4.81731">
        <ele>157.338691</ele>
        <time>2021-09-14T07:20:57.000Z</time>
      </trkpt>
      <trkpt lat="45.55444" lon="4.81772">
        <ele>157.382508</ele>
        <time>2021-09-14T07:21:03.000Z</time>
      </trkpt>
      <trkpt lat="45.55416" lon="4.81826">
        <ele>157.441626</ele>
        <time>2021-09-14T07:21:11.000Z</time>
      </trkpt>
      <trkpt lat="45.55392" lon="4.81872">
        <ele>157.468664</ele>
        <time>2021-09-14T07:21:18.000Z</time>
      </trkpt>
      <trkpt lat="45.55363" lon="4.81925">
        <ele>157.385628</ele>
        <time>2021-09-14T07:21:26.000Z</time>
      </trkpt>
      <trkpt lat="45.55339" lon="4.8196">
        <ele>157.324293</ele>
        <time>2021-09-14T07:21:32.000Z</time>
      </trkpt>
      <trkpt lat="45.55315" lon="4.81991">
        <ele>157.267014</ele>
        <time>2021-09-14T07:21:38.000Z</time>
      </trkpt>
      <trkpt lat="45.55297" lon="4.82009">
        <ele>157.228355</ele>
        <time>2021-09-14T07:21:42.000Z</time>
      </trkpt>
      <trkpt lat="45.5526" lon="4.82045">
        <ele>157.197201</ele>
        <time>2021-09-14T07:21:50.000Z</time>
      </trkpt>
      <trkpt lat="45.55238" lon="4.82066">
        <ele>157.304726</ele>
        <time>2021-09-14T07:21:55.000Z</time>
      </trkpt>
      <trkpt lat="45.5523" lon="4.82076">
        <ele>157.347947</ele>
        <time>2021-09-14T07:21:57.000Z</time>
      </trkpt>
      <trkpt lat="45.55203" lon="4.82111">
        <ele>157.496082</ele>
        <time>2021-09-14T07:22:04.000Z</time>
      </trkpt>
      <trkpt lat="45.55192" lon="4.82125">
        <ele>157.556257</ele>
        <time>2021-09-14T07:22:07.000Z</time>
      </trkpt>
      <trkpt lat="45.55189" lon="4.82129">
        <ele>157.572206</ele>
        <time>2021-09-14T07:22:09.000Z</time>
      </trkpt>
      <trkpt lat="45.5519" lon="4.82135">
        <ele>157.590357</ele>
        <time>2021-09-14T07:22:10.000Z</time>
      </trkpt>
      <trkpt lat="45.55189" lon="4.82146">
        <ele>157.622014</ele>
        <time>2021-09-14T07:22:12.000Z</time>
      </trkpt>
      <trkpt lat="45.55187" lon="4.8215">
        <ele>157.633884</ele>
        <time>2021-09-14T07:22:13.000Z</time>
      </trkpt>
      <trkpt lat="45.55182" lon="4.82159">
        <ele>157.666011</ele>
        <time>2021-09-14T07:22:15.000Z</time>
      </trkpt>
      <trkpt lat="45.55174" lon="4.82174">
        <ele>157.720486</ele>
        <time>2021-09-14T07:22:18.000Z</time>
      </trkpt>
      <trkpt lat="45.55152" lon="4.82213">
        <ele>157.86226</ele>
        <time>2021-09-14T07:22:25.000Z</time>
      </trkpt>
      <trkpt lat="45.5513" lon="4.82254">
        <ele>158.019622</ele>
        <time>2021-09-14T07:22:32.000Z</time>
      </trkpt>
      <trkpt lat="45.5511" lon="4.82298">
        <ele>158.175831</ele>
        <time>2021-09-14T07:22:39.000Z</time>
      </trkpt>
      <trkpt lat="45.55103" lon="4.82308">
        <ele>158.220238</ele>
        <time>2021-09-14T07:22:41.000Z</time>
      </trkpt>
      <trkpt lat="45.55095" lon="4.82318">
        <ele>158.265693</ele>
        <time>2021-09-14T07:22:43.000Z</time>
      </trkpt>
      <trkpt lat="45.55092" lon="4.82323">
        <ele>158.287792</ele>
        <time>2021-09-14T07:22:44.000Z</time>
      </trkpt>
      <trkpt lat="45.55076" lon="4.82344">
        <ele>158.380691</ele>
        <time>2021-09-14T07:22:48.000Z</time>
      </trkpt>
      <trkpt lat="45.55064" lon="4.82359">
        <ele>158.451191</ele>
        <time>2021-09-14T07:22:51.000Z</time>
      </trkpt>
      <trkpt lat="45.55023" lon="4.82402">
        <ele>158.668877</ele>
        <time>2021-09-14T07:23:00.000Z</time>
      </trkpt>
      <trkpt lat="45.54986" lon="4.82436">
        <ele>158.678586</ele>
        <time>2021-09-14T07:23:08.000Z</time>
      </trkpt>
      <trkpt lat="45.54977" lon="4.82444">
        <ele>158.679933</ele>
        <time>2021-09-14T07:23:10.000Z</time>
      </trkpt>
      <trkpt lat="45.54968" lon="4.82452">
        <ele>158.681301</ele>
        <time>2021-09-14T07:23:12.000Z</time>
      </trkpt>
      <trkpt lat="45.54963" lon="4.82456">
        <ele>158.681957</ele>
        <time>2021-09-14T07:23:13.000Z</time>
      </trkpt>
      <trkpt lat="45.54955" lon="4.82464">
        <ele>158.683232</ele>
        <time>2021-09-14T07:23:15.000Z</time>
      </trkpt>
      <trkpt lat="45.54946" lon="4.82471">
        <ele>158.684484</ele>
        <time>2021-09-14T07:23:17.000Z</time>
      </trkpt>
      <trkpt lat="45.54919" lon="4.82495">
        <ele>158.688489</ele>
        <time>2021-09-14T07:23:23.000Z</time>
      </trkpt>
      <trkpt lat="45.54914" lon="4.82499">
        <ele>158.689176</ele>
        <time>2021-09-14T07:23:24.000Z</time>
      </trkpt>
      <trkpt lat="45.54886" lon="4.82524">
        <ele>158.69332</ele>
        <time>2021-09-14T07:23:30.000Z</time>
      </trkpt>
      <trkpt lat="45.54881" lon="4.82528">
        <ele>158.694021</ele>
        <time>2021-09-14T07:23:31.000Z</time>
      </trkpt>
      <trkpt lat="45.54866" lon="4.82541">
        <ele>158.704195</ele>
        <time>2021-09-14T07:23:34.000Z</time>
      </trkpt>
      <trkpt lat="45.54834" lon="4.82569">
        <ele>158.789609</ele>
        <time>2021-09-14T07:23:41.000Z</time>
      </trkpt>
      <trkpt lat="45.5482" lon="4.82581">
        <ele>158.826254</ele>
        <time>2021-09-14T07:23:44.000Z</time>
      </trkpt>
      <trkpt lat="45.54811" lon="4.82589">
        <ele>158.850501</ele>
        <time>2021-09-14T07:23:46.000Z</time>
      </trkpt>
      <trkpt lat="45.54806" lon="4.82593">
        <ele>158.862351</ele>
        <time>2021-09-14T07:23:47.000Z</time>
      </trkpt>
      <trkpt lat="45.54788" lon="4.82608">
        <ele>158.909638</ele>
        <time>2021-09-14T07:23:51.000Z</time>
      </trkpt>
      <trkpt lat="45.54779" lon="4.82617">
        <ele>158.934434</ele>
        <time>2021-09-14T07:23:53.000Z</time>
      </trkpt>
      <trkpt lat="45.54764" lon="4.82629">
        <ele>158.972999</ele>
        <time>2021-09-14T07:23:56.000Z</time>
      </trkpt>
      <trkpt lat="45.54731" lon="4.82659">
        <ele>159.062363</ele>
        <time>2021-09-14T07:24:03.000Z</time>
      </trkpt>
      <trkpt lat="45.54712" lon="4.82679">
        <ele>159.128715</ele>
        <time>2021-09-14T07:24:07.000Z</time>
      </trkpt>
      <trkpt lat="45.54704" lon="4.82691">
        <ele>159.181455</ele>
        <time>2021-09-14T07:24:09.000Z</time>
      </trkpt>
      <trkpt lat="45.54693" lon="4.82709">
        <ele>159.260549</ele>
        <time>2021-09-14T07:24:12.000Z</time>
      </trkpt>
      <trkpt lat="45.54687" lon="4.82724">
        <ele>159.313074</ele>
        <time>2021-09-14T07:24:14.000Z</time>
      </trkpt>
      <trkpt lat="45.54686" lon="4.82731">
        <ele>159.338013</ele>
        <time>2021-09-14T07:24:15.000Z</time>
      </trkpt>
      <trkpt lat="45.54684" lon="4.82738">
        <ele>159.362041</ele>
        <time>2021-09-14T07:24:16.000Z</time>
      </trkpt>
      <trkpt lat="45.54682" lon="4.82754">
        <ele>159.413773</ele>
        <time>2021-09-14T07:24:18.000Z</time>
      </trkpt>
      <trkpt lat="45.54681" lon="4.82763">
        <ele>159.440824</ele>
        <time>2021-09-14T07:24:19.000Z</time>
      </trkpt>
      <trkpt lat="45.54675" lon="4.82836">
        <ele>159.678487</ele>
        <time>2021-09-14T07:24:28.000Z</time>
      </trkpt>
      <trkpt lat="45.54672" lon="4.82893">
        <ele>159.8615</ele>
        <time>2021-09-14T07:24:35.000Z</time>
      </trkpt>
      <trkpt lat="45.5467" lon="4.82909">
        <ele>159.913059</ele>
        <time>2021-09-14T07:24:37.000Z</time>
      </trkpt>
      <trkpt lat="45.54666" lon="4.82923">
        <ele>159.932156</ele>
        <time>2021-09-14T07:24:39.000Z</time>
      </trkpt>
      <trkpt lat="45.54662" lon="4.8293">
        <ele>159.938173</ele>
        <time>2021-09-14T07:24:40.000Z</time>
      </trkpt>
      <trkpt lat="45.54658" lon="4.82935">
        <ele>159.944115</ele>
        <time>2021-09-14T07:24:41.000Z</time>
      </trkpt>
      <trkpt lat="45.54639" lon="4.82962">
        <ele>159.973053</ele>
        <time>2021-09-14T07:24:46.000Z</time>
      </trkpt>
      <trkpt lat="45.54604" lon="4.8301">
        <ele>160.024573</ele>
        <time>2021-09-14T07:24:55.000Z</time>
      </trkpt>
      <trkpt lat="45.54574" lon="4.83054">
        <ele>160.070917</ele>
        <time>2021-09-14T07:25:03.000Z</time>
      </trkpt>
      <trkpt lat="45.54546" lon="4.83095">
        <ele>160.113687</ele>
        <time>2021-09-14T07:25:10.000Z</time>
      </trkpt>
      <trkpt lat="45.54522" lon="4.83131">
        <ele>160.088376</ele>
        <time>2021-09-14T07:25:16.000Z</time>
      </trkpt>
      <trkpt lat="45.54513" lon="4.83143">
        <ele>160.078509</ele>
        <time>2021-09-14T07:25:18.000Z</time>
      </trkpt>
      <trkpt lat="45.54505" lon="4.83156">
        <ele>160.068377</ele>
        <time>2021-09-14T07:25:20.000Z</time>
      </trkpt>
      <trkpt lat="45.54501" lon="4.83163">
        <ele>160.063235</ele>
        <time>2021-09-14T07:25:21.000Z</time>
      </trkpt>
      <trkpt lat="45.54472" lon="4.83208">
        <ele>160.028128</ele>
        <time>2021-09-14T07:25:28.000Z</time>
      </trkpt>
      <trkpt lat="45.54436" lon="4.83265">
        <ele>159.984816</ele>
        <time>2021-09-14T07:25:37.000Z</time>
      </trkpt>
      <trkpt lat="45.54402" lon="4.83321">
        <ele>159.925386</ele>
        <time>2021-09-14T07:25:46.000Z</time>
      </trkpt>
      <trkpt lat="45.54369" lon="4.83378">
        <ele>159.856429</ele>
        <time>2021-09-14T07:25:55.000Z</time>
      </trkpt>
      <trkpt lat="45.54339" lon="4.83438">
        <ele>159.787219</ele>
        <time>2021-09-14T07:26:04.000Z</time>
      </trkpt>
      <trkpt lat="45.54314" lon="4.83492">
        <ele>159.7276</ele>
        <time>2021-09-14T07:26:12.000Z</time>
      </trkpt>
      <trkpt lat="45.54288" lon="4.83552">
        <ele>159.671467</ele>
        <time>2021-09-14T07:26:21.000Z</time>
      </trkpt>
      <trkpt lat="45.5426" lon="4.83618">
        <ele>159.610923</ele>
        <time>2021-09-14T07:26:31.000Z</time>
      </trkpt>
      <trkpt lat="45.54244" lon="4.83657">
        <ele>159.574651</ele>
        <time>2021-09-14T07:26:37.000Z</time>
      </trkpt>
      <trkpt lat="45.54236" lon="4.83677">
        <ele>159.556772</ele>
        <time>2021-09-14T07:26:40.000Z</time>
      </trkpt>
      <trkpt lat="45.54231" lon="4.8369">
        <ele>159.544802</ele>
        <time>2021-09-14T07:26:42.000Z</time>
      </trkpt>
      <trkpt lat="45.5421" lon="4.83752">
        <ele>159.549542</ele>
        <time>2021-09-14T07:26:51.000Z</time>
      </trkpt>
      <trkpt lat="45.54194" lon="4.83801">
        <ele>159.578018</ele>
        <time>2021-09-14T07:26:58.000Z</time>
      </trkpt>
      <trkpt lat="45.54172" lon="4.83865">
        <ele>159.615062</ele>
        <time>2021-09-14T07:27:07.000Z</time>
      </trkpt>
      <trkpt lat="45.54154" lon="4.83932">
        <ele>159.652637</ele>
        <time>2021-09-14T07:27:16.000Z</time>
      </trkpt>
      <trkpt lat="45.54138" lon="4.84002">
        <ele>159.155619</ele>
        <time>2021-09-14T07:27:25.000Z</time>
      </trkpt>
      <trkpt lat="45.54137" lon="4.8401">
        <ele>159.088392</ele>
        <time>2021-09-14T07:27:26.000Z</time>
      </trkpt>
      <trkpt lat="45.54126" lon="4.84058">
        <ele>158.662059</ele>
        <time>2021-09-14T07:27:32.000Z</time>
      </trkpt>
      <trkpt lat="45.54124" lon="4.84066">
        <ele>158.588774</ele>
        <time>2021-09-14T07:27:33.000Z</time>
      </trkpt>
      <trkpt lat="45.54122" lon="4.84074">
        <ele>158.515844</ele>
        <time>2021-09-14T07:27:34.000Z</time>
      </trkpt>
      <trkpt lat="45.54114" lon="4.84115">
        <ele>158.151312</ele>
        <time>2021-09-14T07:27:39.000Z</time>
      </trkpt>
      <trkpt lat="45.54103" lon="4.84165">
        <ele>157.704167</ele>
        <time>2021-09-14T07:27:45.000Z</time>
      </trkpt>
      <trkpt lat="45.54089" lon="4.84231">
        <ele>156.632399</ele>
        <time>2021-09-14T07:27:53.000Z</time>
      </trkpt>
      <trkpt lat="45.54075" lon="4.84295">
        <ele>155.260208</ele>
        <time>2021-09-14T07:28:01.000Z</time>
      </trkpt>
      <trkpt lat="45.54065" lon="4.84343">
        <ele>154.247128</ele>
        <time>2021-09-14T07:28:07.000Z</time>
      </trkpt>
      <trkpt lat="45.54056" lon="4.8439">
        <ele>153.247945</ele>
        <time>2021-09-14T07:28:13.000Z</time>
      </trkpt>
      <trkpt lat="45.54046" lon="4.84463">
        <ele>152.028055</ele>
        <time>2021-09-14T07:28:22.000Z</time>
      </trkpt>
      <trkpt lat="45.54037" lon="4.84525">
        <ele>151.470443</ele>
        <time>2021-09-14T07:28:30.000Z</time>
      </trkpt>
      <trkpt lat="45.54028" lon="4.84587">
        <ele>150.916661</ele>
        <time>2021-09-14T07:28:38.000Z</time>
      </trkpt>
      <trkpt lat="45.54021" lon="4.8465">
        <ele>150.359016</ele>
        <time>2021-09-14T07:28:46.000Z</time>
      </trkpt>
      <trkpt lat="45.54015" lon="4.84704">
        <ele>150.007702</ele>
        <time>2021-09-14T07:28:53.000Z</time>
      </trkpt>
      <trkpt lat="45.54014" lon="4.84712">
        <ele>150.014581</ele>
        <time>2021-09-14T07:28:54.000Z</time>
      </trkpt>
      <trkpt lat="45.54009" lon="4.84765">
        <ele>150.062622</ele>
        <time>2021-09-14T07:29:01.000Z</time>
      </trkpt>
      <trkpt lat="45.54002" lon="4.84827">
        <ele>150.117804</ele>
        <time>2021-09-14T07:29:09.000Z</time>
      </trkpt>
      <trkpt lat="45.53996" lon="4.84881">
        <ele>150.165952</ele>
        <time>2021-09-14T07:29:16.000Z</time>
      </trkpt>
      <trkpt lat="45.53995" lon="4.84888">
        <ele>150.172744</ele>
        <time>2021-09-14T07:29:17.000Z</time>
      </trkpt>
      <trkpt lat="45.5399" lon="4.84936">
        <ele>150.215235</ele>
        <time>2021-09-14T07:29:23.000Z</time>
      </trkpt>
      <trkpt lat="45.53987" lon="4.8496">
        <ele>150.207672</ele>
        <time>2021-09-14T07:29:26.000Z</time>
      </trkpt>
      <trkpt lat="45.53986" lon="4.84975">
        <ele>150.19167</ele>
        <time>2021-09-14T07:29:28.000Z</time>
      </trkpt>
      <trkpt lat="45.53984" lon="4.84991">
        <ele>150.175363</ele>
        <time>2021-09-14T07:29:30.000Z</time>
      </trkpt>
      <trkpt lat="45.53983" lon="4.84999">
        <ele>150.167148</ele>
        <time>2021-09-14T07:29:31.000Z</time>
      </trkpt>
      <trkpt lat="45.53979" lon="4.85038">
        <ele>150.126421</ele>
        <time>2021-09-14T07:29:36.000Z</time>
      </trkpt>
      <trkpt lat="45.53971" lon="4.85108">
        <ele>150.05379</ele>
        <time>2021-09-14T07:29:45.000Z</time>
      </trkpt>
      <trkpt lat="45.53966" lon="4.85154">
        <ele>150.006087</ele>
        <time>2021-09-14T07:29:51.000Z</time>
      </trkpt>
      <trkpt lat="45.53958" lon="4.85224">
        <ele>149.987476</ele>
        <time>2021-09-14T07:30:00.000Z</time>
      </trkpt>
      <trkpt lat="45.53953" lon="4.85264">
        <ele>150.029513</ele>
        <time>2021-09-14T07:30:05.000Z</time>
      </trkpt>
      <trkpt lat="45.5395" lon="4.85288">
        <ele>150.055182</ele>
        <time>2021-09-14T07:30:08.000Z</time>
      </trkpt>
      <trkpt lat="45.53943" lon="4.85343">
        <ele>150.11531</ele>
        <time>2021-09-14T07:30:15.000Z</time>
      </trkpt>
      <trkpt lat="45.53935" lon="4.85399">
        <ele>150.17523</ele>
        <time>2021-09-14T07:30:22.000Z</time>
      </trkpt>
      <trkpt lat="45.53925" lon="4.85453">
        <ele>150.24756</ele>
        <time>2021-09-14T07:30:29.000Z</time>
      </trkpt>
      <trkpt lat="45.53922" lon="4.85466">
        <ele>150.334438</ele>
        <time>2021-09-14T07:30:31.000Z</time>
      </trkpt>
      <trkpt lat="45.53918" lon="4.85477">
        <ele>150.41469</ele>
        <time>2021-09-14T07:30:33.000Z</time>
      </trkpt>
      <trkpt lat="45.53909" lon="4.85483">
        <ele>150.497578</ele>
        <time>2021-09-14T07:30:35.000Z</time>
      </trkpt>
      <trkpt lat="45.53904" lon="4.85481">
        <ele>150.541572</ele>
        <time>2021-09-14T07:30:36.000Z</time>
      </trkpt>
      <trkpt lat="45.53894" lon="4.85479">
        <ele>150.636746</ele>
        <time>2021-09-14T07:30:38.000Z</time>
      </trkpt>
      <trkpt lat="45.53878" lon="4.85475">
        <ele>150.776389</ele>
        <time>2021-09-14T07:30:41.000Z</time>
      </trkpt>
      <trkpt lat="45.53856" lon="4.8547">
        <ele>150.979473</ele>
        <time>2021-09-14T07:30:48.000Z</time>
      </trkpt>
      <trkpt lat="45.53843" lon="4.85467">
        <ele>151.091001</ele>
        <time>2021-09-14T07:30:52.000Z</time>
      </trkpt>
      <trkpt lat="45.53841" lon="4.85467">
        <ele>151.107037</ele>
        <time>2021-09-14T07:30:53.000Z</time>
      </trkpt>
      <trkpt lat="45.53839" lon="4.85484">
        <ele>151.215279</ele>
        <time>2021-09-14T07:30:57.000Z</time>
      </trkpt>
      <trkpt lat="45.53837" lon="4.85496">
        <ele>151.286868</ele>
        <time>2021-09-14T07:30:59.000Z</time>
      </trkpt>
      <trkpt lat="45.53835" lon="4.85516">
        <ele>151.414325</ele>
        <time>2021-09-14T07:31:02.000Z</time>
      </trkpt>
      <trkpt lat="45.5383" lon="4.85528">
        <ele>151.502393</ele>
        <time>2021-09-14T07:31:04.000Z</time>
      </trkpt>
      <trkpt lat="45.53827" lon="4.85536">
        <ele>151.553787</ele>
        <time>2021-09-14T07:31:05.000Z</time>
      </trkpt>
      <trkpt lat="45.53825" lon="4.8555">
        <ele>151.645219</ele>
        <time>2021-09-14T07:31:07.000Z</time>
      </trkpt>
      <trkpt lat="45.53824" lon="4.85566">
        <ele>151.743972</ele>
        <time>2021-09-14T07:31:09.000Z</time>
      </trkpt>
      <trkpt lat="45.53823" lon="4.85573">
        <ele>151.791293</ele>
        <time>2021-09-14T07:31:10.000Z</time>
      </trkpt>
      <trkpt lat="45.53822" lon="4.85581">
        <ele>151.833853</ele>
        <time>2021-09-14T07:31:11.000Z</time>
      </trkpt>
      <trkpt lat="45.53812" lon="4.85594">
        <ele>151.914006</ele>
        <time>2021-09-14T07:31:13.000Z</time>
      </trkpt>
      <trkpt lat="45.53811" lon="4.85601">
        <ele>151.946626</ele>
        <time>2021-09-14T07:31:14.000Z</time>
      </trkpt>
      <trkpt lat="45.53808" lon="4.8562">
        <ele>152.028502</ele>
        <time>2021-09-14T07:31:16.000Z</time>
      </trkpt>
      <trkpt lat="45.53808" lon="4.85623">
        <ele>152.039164</ele>
        <time>2021-09-14T07:31:17.000Z</time>
      </trkpt>
      <trkpt lat="45.53805" lon="4.85643">
        <ele>152.125548</ele>
        <time>2021-09-14T07:31:20.000Z</time>
      </trkpt>
      <trkpt lat="45.53803" lon="4.8566">
        <ele>152.198421</ele>
        <time>2021-09-14T07:31:22.000Z</time>
      </trkpt>
      <trkpt lat="45.53797" lon="4.85699">
        <ele>152.367338</ele>
        <time>2021-09-14T07:31:28.000Z</time>
      </trkpt>
      <trkpt lat="45.53792" lon="4.85733">
        <ele>152.510901</ele>
        <time>2021-09-14T07:31:33.000Z</time>
      </trkpt>
      <trkpt lat="45.5379" lon="4.85746">
        <ele>152.568902</ele>
        <time>2021-09-14T07:31:35.000Z</time>
      </trkpt>
      <trkpt lat="45.53782" lon="4.85796">
        <ele>152.783299</ele>
        <time>2021-09-14T07:31:42.000Z</time>
      </trkpt>
      <trkpt lat="45.53773" lon="4.85855">
        <ele>153.03626</ele>
        <time>2021-09-14T07:31:50.000Z</time>
      </trkpt>
      <trkpt lat="45.53768" lon="4.85891">
        <ele>153.184444</ele>
        <time>2021-09-14T07:31:55.000Z</time>
      </trkpt>
      <trkpt lat="45.53765" lon="4.85912">
        <ele>153.275355</ele>
        <time>2021-09-14T07:31:58.000Z</time>
      </trkpt>
      <trkpt lat="45.53762" lon="4.85933">
        <ele>153.365737</ele>
        <time>2021-09-14T07:32:01.000Z</time>
      </trkpt>
      <trkpt lat="45.53756" lon="4.8597">
        <ele>153.52035</ele>
        <time>2021-09-14T07:32:06.000Z</time>
      </trkpt>
      <trkpt lat="45.53755" lon="4.85977">
        <ele>153.551192</ele>
        <time>2021-09-14T07:32:07.000Z</time>
      </trkpt>
      <trkpt lat="45.53754" lon="4.85984">
        <ele>153.581226</ele>
        <time>2021-09-14T07:32:08.000Z</time>
      </trkpt>
      <trkpt lat="45.53748" lon="4.86022">
        <ele>153.741177</ele>
        <time>2021-09-14T07:32:13.000Z</time>
      </trkpt>
      <trkpt lat="45.53738" lon="4.86081">
        <ele>153.986082</ele>
        <time>2021-09-14T07:32:21.000Z</time>
      </trkpt>
      <trkpt lat="45.53736" lon="4.86089">
        <ele>154.013141</ele>
        <time>2021-09-14T07:32:22.000Z</time>
      </trkpt>
      <trkpt lat="45.53727" lon="4.86126">
        <ele>154.142143</ele>
        <time>2021-09-14T07:32:27.000Z</time>
      </trkpt>
      <trkpt lat="45.5372" lon="4.86155">
        <ele>154.247233</ele>
        <time>2021-09-14T07:32:31.000Z</time>
      </trkpt>
      <trkpt lat="45.53715" lon="4.8617">
        <ele>154.30019</ele>
        <time>2021-09-14T07:32:33.000Z</time>
      </trkpt>
      <trkpt lat="45.53703" lon="4.86204">
        <ele>154.428708</ele>
        <time>2021-09-14T07:32:38.000Z</time>
      </trkpt>
      <trkpt lat="45.53698" lon="4.86217">
        <ele>154.479613</ele>
        <time>2021-09-14T07:32:40.000Z</time>
      </trkpt>
      <trkpt lat="45.5369" lon="4.86237">
        <ele>154.555529</ele>
        <time>2021-09-14T07:32:43.000Z</time>
      </trkpt>
      <trkpt lat="45.53685" lon="4.8625">
        <ele>154.604001</ele>
        <time>2021-09-14T07:32:45.000Z</time>
      </trkpt>
      <trkpt lat="45.5367" lon="4.86291">
        <ele>154.757529</ele>
        <time>2021-09-14T07:32:51.000Z</time>
      </trkpt>
      <trkpt lat="45.53668" lon="4.86298">
        <ele>154.783647</ele>
        <time>2021-09-14T07:32:52.000Z</time>
      </trkpt>
      <trkpt lat="45.53665" lon="4.86305">
        <ele>154.80984</ele>
        <time>2021-09-14T07:32:53.000Z</time>
      </trkpt>
      <trkpt lat="45.53655" lon="4.86332">
        <ele>154.860699</ele>
        <time>2021-09-14T07:32:57.000Z</time>
      </trkpt>
      <trkpt lat="45.53636" lon="4.86393">
        <ele>154.957339</ele>
        <time>2021-09-14T07:33:05.000Z</time>
      </trkpt>
      <trkpt lat="45.53619" lon="4.86454">
        <ele>155.053664</ele>
        <time>2021-09-14T07:33:13.000Z</time>
      </trkpt>
      <trkpt lat="45.53617" lon="4.86462">
        <ele>155.065458</ele>
        <time>2021-09-14T07:33:14.000Z</time>
      </trkpt>
      <trkpt lat="45.53602" lon="4.86515">
        <ele>155.14875</ele>
        <time>2021-09-14T07:33:21.000Z</time>
      </trkpt>
      <trkpt lat="45.53578" lon="4.86573">
        <ele>155.176408</ele>
        <time>2021-09-14T07:33:29.000Z</time>
      </trkpt>
      <trkpt lat="45.53557" lon="4.8662">
        <ele>155.149953</ele>
        <time>2021-09-14T07:33:36.000Z</time>
      </trkpt>
      <trkpt lat="45.53535" lon="4.86674">
        <ele>155.120224</ele>
        <time>2021-09-14T07:33:43.000Z</time>
      </trkpt>
      <trkpt lat="45.53512" lon="4.86727">
        <ele>155.090561</ele>
        <time>2021-09-14T07:33:51.000Z</time>
      </trkpt>
      <trkpt lat="45.53503" lon="4.86747">
        <ele>155.079226</ele>
        <time>2021-09-14T07:33:55.000Z</time>
      </trkpt>
      <trkpt lat="45.53478" lon="4.86789">
        <ele>155.030492</ele>
        <time>2021-09-14T07:34:01.000Z</time>
      </trkpt>
      <trkpt lat="45.53471" lon="4.86801">
        <ele>155.014345</ele>
        <time>2021-09-14T07:34:03.000Z</time>
      </trkpt>
      <trkpt lat="45.5346" lon="4.86818">
        <ele>154.990023</ele>
        <time>2021-09-14T07:34:06.000Z</time>
      </trkpt>
      <trkpt lat="45.53457" lon="4.86823">
        <ele>154.981771</ele>
        <time>2021-09-14T07:34:08.000Z</time>
      </trkpt>
      <trkpt lat="45.53446" lon="4.86841">
        <ele>154.957513</ele>
        <time>2021-09-14T07:34:10.000Z</time>
      </trkpt>
      <trkpt lat="45.53439" lon="4.86852">
        <ele>154.941009</ele>
        <time>2021-09-14T07:34:12.000Z</time>
      </trkpt>
      <trkpt lat="45.53427" lon="4.86869">
        <ele>154.916374</ele>
        <time>2021-09-14T07:34:15.000Z</time>
      </trkpt>
      <trkpt lat="45.534" lon="4.86909">
        <ele>154.858392</ele>
        <time>2021-09-14T07:34:22.000Z</time>
      </trkpt>
      <trkpt lat="45.53374" lon="4.86947">
        <ele>154.802512</ele>
        <time>2021-09-14T07:34:29.000Z</time>
      </trkpt>
      <trkpt lat="45.5337" lon="4.86952">
        <ele>154.789856</ele>
        <time>2021-09-14T07:34:30.000Z</time>
      </trkpt>
      <trkpt lat="45.53362" lon="4.86963">
        <ele>154.761645</ele>
        <time>2021-09-14T07:34:32.000Z</time>
      </trkpt>
      <trkpt lat="45.53339" lon="4.86998">
        <ele>154.678728</ele>
        <time>2021-09-14T07:34:38.000Z</time>
      </trkpt>
      <trkpt lat="45.53316" lon="4.87023">
        <ele>154.606301</ele>
        <time>2021-09-14T07:34:43.000Z</time>
      </trkpt>
      <trkpt lat="45.5331" lon="4.87027">
        <ele>154.591066</ele>
        <time>2021-09-14T07:34:44.000Z</time>
      </trkpt>
      <trkpt lat="45.53285" lon="4.87048">
        <ele>154.518217</ele>
        <time>2021-09-14T07:34:49.000Z</time>
      </trkpt>
      <trkpt lat="45.5327" lon="4.8706">
        <ele>154.474541</ele>
        <time>2021-09-14T07:34:52.000Z</time>
      </trkpt>
      <trkpt lat="45.53256" lon="4.87072">
        <ele>154.4338</ele>
        <time>2021-09-14T07:34:55.000Z</time>
      </trkpt>
      <trkpt lat="45.53228" lon="4.87095">
        <ele>154.354866</ele>
        <time>2021-09-14T07:35:01.000Z</time>
      </trkpt>
      <trkpt lat="45.53195" lon="4.87122">
        <ele>154.370329</ele>
        <time>2021-09-14T07:35:08.000Z</time>
      </trkpt>
      <trkpt lat="45.53158" lon="4.87152">
        <ele>154.387823</ele>
        <time>2021-09-14T07:35:16.000Z</time>
      </trkpt>
      <trkpt lat="45.53117" lon="4.87168">
        <ele>154.405189</ele>
        <time>2021-09-14T07:35:24.000Z</time>
      </trkpt>
      <trkpt lat="45.53112" lon="4.87169">
        <ele>154.407287</ele>
        <time>2021-09-14T07:35:25.000Z</time>
      </trkpt>
      <trkpt lat="45.53075" lon="4.87173">
        <ele>154.422411</ele>
        <time>2021-09-14T07:35:32.000Z</time>
      </trkpt>
      <trkpt lat="45.53059" lon="4.87172">
        <ele>154.438613</ele>
        <time>2021-09-14T07:35:35.000Z</time>
      </trkpt>
      <trkpt lat="45.53049" lon="4.87171">
        <ele>154.532023</ele>
        <time>2021-09-14T07:35:37.000Z</time>
      </trkpt>
      <trkpt lat="45.53019" lon="4.87165">
        <ele>154.810843</ele>
        <time>2021-09-14T07:35:43.000Z</time>
      </trkpt>
      <trkpt lat="45.52994" lon="4.8716">
        <ele>155.052456</ele>
        <time>2021-09-14T07:35:48.000Z</time>
      </trkpt>
      <trkpt lat="45.52983" lon="4.87158">
        <ele>155.147715</ele>
        <time>2021-09-14T07:35:50.000Z</time>
      </trkpt>
      <trkpt lat="45.52973" lon="4.87155">
        <ele>155.24581</ele>
        <time>2021-09-14T07:35:52.000Z</time>
      </trkpt>
      <trkpt lat="45.52968" lon="4.87154">
        <ele>155.294353</ele>
        <time>2021-09-14T07:35:53.000Z</time>
      </trkpt>
      <trkpt lat="45.52935" lon="4.87147">
        <ele>155.597962</ele>
        <time>2021-09-14T07:35:59.000Z</time>
      </trkpt>
      <trkpt lat="45.52912" lon="4.87142">
        <ele>155.811986</ele>
        <time>2021-09-14T07:36:04.000Z</time>
      </trkpt>
      <trkpt lat="45.5288" lon="4.87133">
        <ele>156.112914</ele>
        <time>2021-09-14T07:36:09.000Z</time>
      </trkpt>
      <trkpt lat="45.52875" lon="4.8713">
        <ele>156.158201</ele>
        <time>2021-09-14T07:36:10.000Z</time>
      </trkpt>
      <trkpt lat="45.52845" lon="4.87115">
        <ele>156.419461</ele>
        <time>2021-09-14T07:36:16.000Z</time>
      </trkpt>
      <trkpt lat="45.52825" lon="4.87103">
        <ele>156.598867</ele>
        <time>2021-09-14T07:36:20.000Z</time>
      </trkpt>
      <trkpt lat="45.52811" lon="4.87094">
        <ele>156.729366</ele>
        <time>2021-09-14T07:36:23.000Z</time>
      </trkpt>
      <trkpt lat="45.52806" lon="4.87091">
        <ele>156.77203</ele>
        <time>2021-09-14T07:36:24.000Z</time>
      </trkpt>
      <trkpt lat="45.52787" lon="4.87078">
        <ele>156.947937</ele>
        <time>2021-09-14T07:36:28.000Z</time>
      </trkpt>
      <trkpt lat="45.52777" lon="4.87072">
        <ele>157.040501</ele>
        <time>2021-09-14T07:36:31.000Z</time>
      </trkpt>
      <trkpt lat="45.52756" lon="4.87059">
        <ele>157.223936</ele>
        <time>2021-09-14T07:36:34.000Z</time>
      </trkpt>
      <trkpt lat="45.52718" lon="4.87034">
        <ele>157.576154</ele>
        <time>2021-09-14T07:36:42.000Z</time>
      </trkpt>
      <trkpt lat="45.52685" lon="4.87014">
        <ele>157.902397</ele>
        <time>2021-09-14T07:36:49.000Z</time>
      </trkpt>
      <trkpt lat="45.52664" lon="4.87">
        <ele>158.110796</ele>
        <time>2021-09-14T07:36:54.000Z</time>
      </trkpt>
      <trkpt lat="45.52644" lon="4.86981">
        <ele>158.325547</ele>
        <time>2021-09-14T07:36:59.000Z</time>
      </trkpt>
      <trkpt lat="45.52644" lon="4.86981">
        <ele>158.325547</ele>
        <time>2021-09-14T07:37:00.000Z</time>
      </trkpt>
      <trkpt lat="45.52603" lon="4.86951">
        <ele>158.752029</ele>
        <time>2021-09-14T07:37:08.000Z</time>
      </trkpt>
      <trkpt lat="45.52558" lon="4.86919">
        <ele>159.206312</ele>
        <time>2021-09-14T07:37:18.000Z</time>
      </trkpt>
      <trkpt lat="45.5255" lon="4.86913">
        <ele>159.270067</ele>
        <time>2021-09-14T07:37:20.000Z</time>
      </trkpt>
      <trkpt lat="45.5254" lon="4.86906">
        <ele>159.346659</ele>
        <time>2021-09-14T07:37:22.000Z</time>
      </trkpt>
      <trkpt lat="45.52531" lon="4.86899">
        <ele>159.416629</ele>
        <time>2021-09-14T07:37:24.000Z</time>
      </trkpt>
      <trkpt lat="45.52514" lon="4.86886">
        <ele>159.55368</ele>
        <time>2021-09-14T07:37:28.000Z</time>
      </trkpt>
      <trkpt lat="45.5248" lon="4.8686">
        <ele>159.81661</ele>
        <time>2021-09-14T07:37:36.000Z</time>
      </trkpt>
      <trkpt lat="45.52458" lon="4.86843">
        <ele>159.986782</ele>
        <time>2021-09-14T07:37:42.000Z</time>
      </trkpt>
      <trkpt lat="45.52437" lon="4.86827">
        <ele>160.152927</ele>
        <time>2021-09-14T07:37:48.000Z</time>
      </trkpt>
      <trkpt lat="45.52433" lon="4.86824">
        <ele>160.186135</ele>
        <time>2021-09-14T07:37:49.000Z</time>
      </trkpt>
      <trkpt lat="45.52408" lon="4.86803">
        <ele>160.384909</ele>
        <time>2021-09-14T07:37:55.000Z</time>
      </trkpt>
      <trkpt lat="45.52388" lon="4.86781">
        <ele>160.503917</ele>
        <time>2021-09-14T07:38:00.000Z</time>
      </trkpt>
      <trkpt lat="45.52384" lon="4.86776">
        <ele>160.520559</ele>
        <time>2021-09-14T07:38:01.000Z</time>
      </trkpt>
      <trkpt lat="45.52369" lon="4.86757">
        <ele>160.58499</ele>
        <time>2021-09-14T07:38:05.000Z</time>
      </trkpt>
      <trkpt lat="45.52362" lon="4.86748">
        <ele>160.614351</ele>
        <time>2021-09-14T07:38:07.000Z</time>
      </trkpt>
      <trkpt lat="45.5234" lon="4.86717">
        <ele>160.713231</ele>
        <time>2021-09-14T07:38:14.000Z</time>
      </trkpt>
      <trkpt lat="45.52322" lon="4.86694">
        <ele>160.790915</ele>
        <time>2021-09-14T07:38:19.000Z</time>
      </trkpt>
      <trkpt lat="45.52312" lon="4.8668">
        <ele>160.835075</ele>
        <time>2021-09-14T07:38:22.000Z</time>
      </trkpt>
      <trkpt lat="45.52305" lon="4.86669">
        <ele>160.867044</ele>
        <time>2021-09-14T07:38:24.000Z</time>
      </trkpt>
      <trkpt lat="45.52287" lon="4.86637">
        <ele>160.960903</ele>
        <time>2021-09-14T07:38:30.000Z</time>
      </trkpt>
      <trkpt lat="45.52265" lon="4.86609">
        <ele>160.925916</ele>
        <time>2021-09-14T07:38:36.000Z</time>
      </trkpt>
      <trkpt lat="45.52257" lon="4.866">
        <ele>160.774782</ele>
        <time>2021-09-14T07:38:39.000Z</time>
      </trkpt>
      <trkpt lat="45.52254" lon="4.86595">
        <ele>160.702051</ele>
        <time>2021-09-14T07:38:40.000Z</time>
      </trkpt>
      <trkpt lat="45.5225" lon="4.86591">
        <ele>160.631721</ele>
        <time>2021-09-14T07:38:41.000Z</time>
      </trkpt>
      <trkpt lat="45.52239" lon="4.86579">
        <ele>160.439671</ele>
        <time>2021-09-14T07:38:44.000Z</time>
      </trkpt>
      <trkpt lat="45.5222" lon="4.86557">
        <ele>160.08272</ele>
        <time>2021-09-14T07:38:48.000Z</time>
      </trkpt>
      <trkpt lat="45.52216" lon="4.86552">
        <ele>159.999385</ele>
        <time>2021-09-14T07:38:49.000Z</time>
      </trkpt>
      <trkpt lat="45.52206" lon="4.86542">
        <ele>159.829179</ele>
        <time>2021-09-14T07:38:51.000Z</time>
      </trkpt>
      <trkpt lat="45.52192" lon="4.86526">
        <ele>159.570335</ele>
        <time>2021-09-14T07:38:54.000Z</time>
      </trkpt>
      <trkpt lat="45.5217" lon="4.86501">
        <ele>159.165528</ele>
        <time>2021-09-14T07:39:00.000Z</time>
      </trkpt>
      <trkpt lat="45.52141" lon="4.86468">
        <ele>158.623595</ele>
        <time>2021-09-14T07:39:06.000Z</time>
      </trkpt>
      <trkpt lat="45.52121" lon="4.86446">
        <ele>158.305718</ele>
        <time>2021-09-14T07:39:11.000Z</time>
      </trkpt>
      <trkpt lat="45.52105" lon="4.86427">
        <ele>158.084059</ele>
        <time>2021-09-14T07:39:15.000Z</time>
      </trkpt>
      <trkpt lat="45.52079" lon="4.86398">
        <ele>157.740342</ele>
        <time>2021-09-14T07:39:21.000Z</time>
      </trkpt>
      <trkpt lat="45.5204" lon="4.86354">
        <ele>157.220781</ele>
        <time>2021-09-14T07:39:30.000Z</time>
      </trkpt>
      <trkpt lat="45.52016" lon="4.86327">
        <ele>156.904226</ele>
        <time>2021-09-14T07:39:36.000Z</time>
      </trkpt>
      <trkpt lat="45.51986" lon="4.86293">
        <ele>156.552836</ele>
        <time>2021-09-14T07:39:43.000Z</time>
      </trkpt>
      <trkpt lat="45.51969" lon="4.86275">
        <ele>156.565531</ele>
        <time>2021-09-14T07:39:47.000Z</time>
      </trkpt>
      <trkpt lat="45.51946" lon="4.86249">
        <ele>156.583568</ele>
        <time>2021-09-14T07:39:53.000Z</time>
      </trkpt>
      <trkpt lat="45.5191" lon="4.86211">
        <ele>156.61029</ele>
        <time>2021-09-14T07:40:02.000Z</time>
      </trkpt>
      <trkpt lat="45.5189" lon="4.86189">
        <ele>156.625751</ele>
        <time>2021-09-14T07:40:07.000Z</time>
      </trkpt>
      <trkpt lat="45.51886" lon="4.86185">
        <ele>156.628401</ele>
        <time>2021-09-14T07:40:08.000Z</time>
      </trkpt>
      <trkpt lat="45.51877" lon="4.86175">
        <ele>156.635321</ele>
        <time>2021-09-14T07:40:11.000Z</time>
      </trkpt>
      <trkpt lat="45.51853" lon="4.8615">
        <ele>156.653506</ele>
        <time>2021-09-14T07:40:17.000Z</time>
      </trkpt>
      <trkpt lat="45.51825" lon="4.8612">
        <ele>156.586895</ele>
        <time>2021-09-14T07:40:24.000Z</time>
      </trkpt>
      <trkpt lat="45.5181" lon="4.86104">
        <ele>156.534541</ele>
        <time>2021-09-14T07:40:28.000Z</time>
      </trkpt>
      <trkpt lat="45.51799" lon="4.86092">
        <ele>156.496658</ele>
        <time>2021-09-14T07:40:31.000Z</time>
      </trkpt>
      <trkpt lat="45.51766" lon="4.86055">
        <ele>156.381087</ele>
        <time>2021-09-14T07:40:39.000Z</time>
      </trkpt>
      <trkpt lat="45.51738" lon="4.86019">
        <ele>156.276096</ele>
        <time>2021-09-14T07:40:47.000Z</time>
      </trkpt>
      <trkpt lat="45.51711" lon="4.85986">
        <ele>156.176466</ele>
        <time>2021-09-14T07:40:54.000Z</time>
      </trkpt>
      <trkpt lat="45.51681" lon="4.85948">
        <ele>156.210145</ele>
        <time>2021-09-14T07:41:02.000Z</time>
      </trkpt>
      <trkpt lat="45.5165" lon="4.8591">
        <ele>156.270055</ele>
        <time>2021-09-14T07:41:10.000Z</time>
      </trkpt>
      <trkpt lat="45.51631" lon="4.85886">
        <ele>156.308621</ele>
        <time>2021-09-14T07:41:15.000Z</time>
      </trkpt>
      <trkpt lat="45.51596" lon="4.85842">
        <ele>156.378219</ele>
        <time>2021-09-14T07:41:24.000Z</time>
      </trkpt>
      <trkpt lat="45.51573" lon="4.85814">
        <ele>156.422579</ele>
        <time>2021-09-14T07:41:30.000Z</time>
      </trkpt>
      <trkpt lat="45.51566" lon="4.85805">
        <ele>156.427016</ele>
        <time>2021-09-14T07:41:32.000Z</time>
      </trkpt>
      <trkpt lat="45.5156" lon="4.85797">
        <ele>156.426669</ele>
        <time>2021-09-14T07:41:34.000Z</time>
      </trkpt>
      <trkpt lat="45.51538" lon="4.85769">
        <ele>156.425448</ele>
        <time>2021-09-14T07:41:40.000Z</time>
      </trkpt>
      <trkpt lat="45.51534" lon="4.85764">
        <ele>156.425238</ele>
        <time>2021-09-14T07:41:41.000Z</time>
      </trkpt>
      <trkpt lat="45.51516" lon="4.85742">
        <ele>156.424243</ele>
        <time>2021-09-14T07:41:46.000Z</time>
      </trkpt>
      <trkpt lat="45.51499" lon="4.85721">
        <ele>156.423322</ele>
        <time>2021-09-14T07:41:51.000Z</time>
      </trkpt>
      <trkpt lat="45.51474" lon="4.85688">
        <ele>156.42191</ele>
        <time>2021-09-14T07:41:58.000Z</time>
      </trkpt>
      <trkpt lat="45.51467" lon="4.85678">
        <ele>156.421516</ele>
        <time>2021-09-14T07:42:01.000Z</time>
      </trkpt>
      <trkpt lat="45.51447" lon="4.85651">
        <ele>156.420345</ele>
        <time>2021-09-14T07:42:06.000Z</time>
      </trkpt>
      <trkpt lat="45.51419" lon="4.85606">
        <ele>156.355813</ele>
        <time>2021-09-14T07:42:14.000Z</time>
      </trkpt>
      <trkpt lat="45.51397" lon="4.85565">
        <ele>156.276935</ele>
        <time>2021-09-14T07:42:21.000Z</time>
      </trkpt>
      <trkpt lat="45.51377" lon="4.85516">
        <ele>156.190969</ele>
        <time>2021-09-14T07:42:29.000Z</time>
      </trkpt>
      <trkpt lat="45.51365" lon="4.85487">
        <ele>156.138394</ele>
        <time>2021-09-14T07:42:34.000Z</time>
      </trkpt>
      <trkpt lat="45.5135" lon="4.85452">
        <ele>156.076141</ele>
        <time>2021-09-14T07:42:40.000Z</time>
      </trkpt>
      <trkpt lat="45.51342" lon="4.85434">
        <ele>156.043518</ele>
        <time>2021-09-14T07:42:44.000Z</time>
      </trkpt>
      <trkpt lat="45.51339" lon="4.85427">
        <ele>156.031221</ele>
        <time>2021-09-14T07:42:45.000Z</time>
      </trkpt>
      <trkpt lat="45.51315" lon="4.85377">
        <ele>156.120079</ele>
        <time>2021-09-14T07:42:53.000Z</time>
      </trkpt>
      <trkpt lat="45.51301" lon="4.8535">
        <ele>156.173169</ele>
        <time>2021-09-14T07:42:58.000Z</time>
      </trkpt>
      <trkpt lat="45.51298" lon="4.85344">
        <ele>156.183763</ele>
        <time>2021-09-14T07:42:59.000Z</time>
      </trkpt>
      <trkpt lat="45.51295" lon="4.85339">
        <ele>156.194798</ele>
        <time>2021-09-14T07:43:00.000Z</time>
      </trkpt>
      <trkpt lat="45.51286" lon="4.85329">
        <ele>156.220275</ele>
        <time>2021-09-14T07:43:02.000Z</time>
      </trkpt>
      <trkpt lat="45.5128" lon="4.85327">
        <ele>156.234257</ele>
        <time>2021-09-14T07:43:03.000Z</time>
      </trkpt>
      <trkpt lat="45.51274" lon="4.85327">
        <ele>156.245986</ele>
        <time>2021-09-14T07:43:04.000Z</time>
      </trkpt>
      <trkpt lat="45.51264" lon="4.85332">
        <ele>156.271901</ele>
        <time>2021-09-14T07:43:06.000Z</time>
      </trkpt>
      <trkpt lat="45.51245" lon="4.85345">
        <ele>156.317906</ele>
        <time>2021-09-14T07:43:10.000Z</time>
      </trkpt>
      <trkpt lat="45.51241" lon="4.85347">
        <ele>156.327325</ele>
        <time>2021-09-14T07:43:11.000Z</time>
      </trkpt>
      <trkpt lat="45.51237" lon="4.85345">
        <ele>156.33747</ele>
        <time>2021-09-14T07:43:12.000Z</time>
      </trkpt>
      <trkpt lat="45.51232" lon="4.85338">
        <ele>156.353299</ele>
        <time>2021-09-14T07:43:14.000Z</time>
      </trkpt>
      <trkpt lat="45.51214" lon="4.85312">
        <ele>156.410465</ele>
        <time>2021-09-14T07:43:20.000Z</time>
      </trkpt>
      <trkpt lat="45.51195" lon="4.85296">
        <ele>156.459565</ele>
        <time>2021-09-14T07:43:25.000Z</time>
      </trkpt>
      <trkpt lat="45.51187" lon="4.85287">
        <ele>156.480632</ele>
        <time>2021-09-14T07:43:27.000Z</time>
      </trkpt>
      <trkpt lat="45.5116" lon="4.85252">
        <ele>156.559254</ele>
        <time>2021-09-14T07:43:34.000Z</time>
      </trkpt>
      <trkpt lat="45.51118" lon="4.85196">
        <ele>156.682065</ele>
        <time>2021-09-14T07:43:45.000Z</time>
      </trkpt>
      <trkpt lat="45.51076" lon="4.85141">
        <ele>156.80348</ele>
        <time>2021-09-14T07:43:56.000Z</time>
      </trkpt>
      <trkpt lat="45.51042" lon="4.85096">
        <ele>156.85811</ele>
        <time>2021-09-14T07:44:05.000Z</time>
      </trkpt>
      <trkpt lat="45.51" lon="4.85042">
        <ele>156.915441</ele>
        <time>2021-09-14T07:44:16.000Z</time>
      </trkpt>
      <trkpt lat="45.50966" lon="4.84997">
        <ele>156.96205</ele>
        <time>2021-09-14T07:44:25.000Z</time>
      </trkpt>
      <trkpt lat="45.50926" lon="4.84943">
        <ele>156.979444</ele>
        <time>2021-09-14T07:44:36.000Z</time>
      </trkpt>
      <trkpt lat="45.50893" lon="4.84899">
        <ele>156.930373</ele>
        <time>2021-09-14T07:44:45.000Z</time>
      </trkpt>
      <trkpt lat="45.50858" lon="4.84852">
        <ele>156.878817</ele>
        <time>2021-09-14T07:44:54.000Z</time>
      </trkpt>
      <trkpt lat="45.50821" lon="4.84801">
        <ele>156.822944</ele>
        <time>2021-09-14T07:45:04.000Z</time>
      </trkpt>
      <trkpt lat="45.50793" lon="4.84762">
        <ele>156.773014</ele>
        <time>2021-09-14T07:45:12.000Z</time>
      </trkpt>
      <trkpt lat="45.50757" lon="4.84713">
        <ele>156.701073</ele>
        <time>2021-09-14T07:45:22.000Z</time>
      </trkpt>
      <trkpt lat="45.50732" lon="4.84678">
        <ele>156.649812</ele>
        <time>2021-09-14T07:45:29.000Z</time>
      </trkpt>
      <trkpt lat="45.50695" lon="4.84628">
        <ele>156.576337</ele>
        <time>2021-09-14T07:45:39.000Z</time>
      </trkpt>
      <trkpt lat="45.50667" lon="4.84589">
        <ele>156.540858</ele>
        <time>2021-09-14T07:45:47.000Z</time>
      </trkpt>
      <trkpt lat="45.50634" lon="4.84544">
        <ele>156.53013</ele>
        <time>2021-09-14T07:45:56.000Z</time>
      </trkpt>
      <trkpt lat="45.50597" lon="4.84494">
        <ele>156.518253</ele>
        <time>2021-09-14T07:46:06.000Z</time>
      </trkpt>
      <trkpt lat="45.50564" lon="4.84451">
        <ele>156.507769</ele>
        <time>2021-09-14T07:46:15.000Z</time>
      </trkpt>
      <trkpt lat="45.50536" lon="4.84414">
        <ele>156.525296</ele>
        <time>2021-09-14T07:46:23.000Z</time>
      </trkpt>
      <trkpt lat="45.50513" lon="4.84384">
        <ele>156.567701</ele>
        <time>2021-09-14T07:46:30.000Z</time>
      </trkpt>
      <trkpt lat="45.50479" lon="4.84343">
        <ele>156.628511</ele>
        <time>2021-09-14T07:46:40.000Z</time>
      </trkpt>
      <trkpt lat="45.50446" lon="4.84305">
        <ele>156.685832</ele>
        <time>2021-09-14T07:46:49.000Z</time>
      </trkpt>
      <trkpt lat="45.50406" lon="4.84257">
        <ele>156.735285</ele>
        <time>2021-09-14T07:47:00.000Z</time>
      </trkpt>
      <trkpt lat="45.50373" lon="4.84219">
        <ele>156.665379</ele>
        <time>2021-09-14T07:47:09.000Z</time>
      </trkpt>
      <trkpt lat="45.50348" lon="4.84189">
        <ele>156.611082</ele>
        <time>2021-09-14T07:47:16.000Z</time>
      </trkpt>
      <trkpt lat="45.50331" lon="4.84169">
        <ele>156.575024</ele>
        <time>2021-09-14T07:47:21.000Z</time>
      </trkpt>
      <trkpt lat="45.5032" lon="4.84157">
        <ele>156.55275</ele>
        <time>2021-09-14T07:47:24.000Z</time>
      </trkpt>
      <trkpt lat="45.50289" lon="4.84119">
        <ele>156.484723</ele>
        <time>2021-09-14T07:47:33.000Z</time>
      </trkpt>
      <trkpt lat="45.50252" lon="4.84072">
        <ele>156.38443</ele>
        <time>2021-09-14T07:47:43.000Z</time>
      </trkpt>
      <trkpt lat="45.50221" lon="4.84026">
        <ele>156.278931</ele>
        <time>2021-09-14T07:47:52.000Z</time>
      </trkpt>
      <trkpt lat="45.50191" lon="4.83978">
        <ele>156.172414</ele>
        <time>2021-09-14T07:48:01.000Z</time>
      </trkpt>
      <trkpt lat="45.50161" lon="4.83919">
        <ele>156.053546</ele>
        <time>2021-09-14T07:48:11.000Z</time>
      </trkpt>
      <trkpt lat="45.50154" lon="4.83903">
        <ele>156.013464</ele>
        <time>2021-09-14T07:48:15.000Z</time>
      </trkpt>
      <trkpt lat="45.50151" lon="4.83885">
        <ele>155.951002</ele>
        <time>2021-09-14T07:48:18.000Z</time>
      </trkpt>
      <trkpt lat="45.50152" lon="4.83879">
        <ele>155.929387</ele>
        <time>2021-09-14T07:48:19.000Z</time>
      </trkpt>
      <trkpt lat="45.50156" lon="4.83866">
        <ele>155.882449</ele>
        <time>2021-09-14T07:48:21.000Z</time>
      </trkpt>
      <trkpt lat="45.50165" lon="4.83859">
        <ele>155.832287</ele>
        <time>2021-09-14T07:48:23.000Z</time>
      </trkpt>
      <trkpt lat="45.50178" lon="4.83863">
        <ele>155.769465</ele>
        <time>2021-09-14T07:48:25.000Z</time>
      </trkpt>
      <trkpt lat="45.50183" lon="4.83841">
        <ele>155.689719</ele>
        <time>2021-09-14T07:48:27.000Z</time>
      </trkpt>
      <trkpt lat="45.50185" lon="4.83825">
        <ele>155.633965</ele>
        <time>2021-09-14T07:48:29.000Z</time>
      </trkpt>
      <trkpt lat="45.50183" lon="4.83809">
        <ele>155.581657</ele>
        <time>2021-09-14T07:48:31.000Z</time>
      </trkpt>
      <trkpt lat="45.50174" lon="4.83788">
        <ele>155.495416</ele>
        <time>2021-09-14T07:48:34.000Z</time>
      </trkpt>
      <trkpt lat="45.50152" lon="4.83741">
        <ele>155.305574</ele>
        <time>2021-09-14T07:48:40.000Z</time>
      </trkpt>
      <trkpt lat="45.50133" lon="4.83672">
        <ele>155.055671</ele>
        <time>2021-09-14T07:48:48.000Z</time>
      </trkpt>
      <trkpt lat="45.50113" lon="4.83594">
        <ele>154.783427</ele>
        <time>2021-09-14T07:48:57.000Z</time>
      </trkpt>
      <trkpt lat="45.50093" lon="4.8352">
        <ele>154.525993</ele>
        <time>2021-09-14T07:49:06.000Z</time>
      </trkpt>
      <trkpt lat="45.50077" lon="4.83457">
        <ele>154.317428</ele>
        <time>2021-09-14T07:49:14.000Z</time>
      </trkpt>
      <trkpt lat="45.50065" lon="4.83411">
        <ele>154.298355</ele>
        <time>2021-09-14T07:49:20.000Z</time>
      </trkpt>
      <trkpt lat="45.50061" lon="4.83396">
        <ele>154.292292</ele>
        <time>2021-09-14T07:49:22.000Z</time>
      </trkpt>
      <trkpt lat="45.50058" lon="4.83382">
        <ele>154.286285</ele>
        <time>2021-09-14T07:49:24.000Z</time>
      </trkpt>
      <trkpt lat="45.50048" lon="4.83343">
        <ele>154.270198</ele>
        <time>2021-09-14T07:49:29.000Z</time>
      </trkpt>
      <trkpt lat="45.50035" lon="4.8329">
        <ele>154.248306</ele>
        <time>2021-09-14T07:49:36.000Z</time>
      </trkpt>
      <trkpt lat="45.50021" lon="4.83236">
        <ele>154.225656</ele>
        <time>2021-09-14T07:49:43.000Z</time>
      </trkpt>
      <trkpt lat="45.49999" lon="4.83177">
        <ele>154.103653</ele>
        <time>2021-09-14T07:49:51.000Z</time>
      </trkpt>
      <trkpt lat="45.49977" lon="4.83121">
        <ele>153.953997</ele>
        <time>2021-09-14T07:49:59.000Z</time>
      </trkpt>
      <trkpt lat="45.49945" lon="4.83055">
        <ele>153.767294</ele>
        <time>2021-09-14T07:50:09.000Z</time>
      </trkpt>
      <trkpt lat="45.49921" lon="4.83014">
        <ele>153.642204</ele>
        <time>2021-09-14T07:50:17.000Z</time>
      </trkpt>
      <trkpt lat="45.49889" lon="4.82961">
        <ele>153.615966</ele>
        <time>2021-09-14T07:50:27.000Z</time>
      </trkpt>
      <trkpt lat="45.49857" lon="4.82907">
        <ele>153.610197</ele>
        <time>2021-09-14T07:50:37.000Z</time>
      </trkpt>
      <trkpt lat="45.49824" lon="4.82852">
        <ele>153.604294</ele>
        <time>2021-09-14T07:50:47.000Z</time>
      </trkpt>
      <trkpt lat="45.49793" lon="4.82802">
        <ele>153.609074</ele>
        <time>2021-09-14T07:50:56.000Z</time>
      </trkpt>
      <trkpt lat="45.49762" lon="4.82751">
        <ele>153.652003</ele>
        <time>2021-09-14T07:51:05.000Z</time>
      </trkpt>
      <trkpt lat="45.49729" lon="4.82695">
        <ele>153.6996</ele>
        <time>2021-09-14T07:51:15.000Z</time>
      </trkpt>
      <trkpt lat="45.49702" lon="4.82652">
        <ele>153.736746</ele>
        <time>2021-09-14T07:51:23.000Z</time>
      </trkpt>
      <trkpt lat="45.49673" lon="4.82603">
        <ele>153.844317</ele>
        <time>2021-09-14T07:51:32.000Z</time>
      </trkpt>
      <trkpt lat="45.49667" lon="4.82592">
        <ele>153.899299</ele>
        <time>2021-09-14T07:51:34.000Z</time>
      </trkpt>
      <trkpt lat="45.49669" lon="4.82576">
        <ele>153.962712</ele>
        <time>2021-09-14T07:51:36.000Z</time>
      </trkpt>
      <trkpt lat="45.49672" lon="4.82574">
        <ele>153.982449</ele>
        <time>2021-09-14T07:51:37.000Z</time>
      </trkpt>
      <trkpt lat="45.49686" lon="4.82558">
        <ele>154.078686</ele>
        <time>2021-09-14T07:51:41.000Z</time>
      </trkpt>
      <trkpt lat="45.49689" lon="4.82555">
        <ele>154.103538</ele>
        <time>2021-09-14T07:51:42.000Z</time>
      </trkpt>
      <trkpt lat="45.49726" lon="4.82513">
        <ele>154.369446</ele>
        <time>2021-09-14T07:51:52.000Z</time>
      </trkpt>
      <trkpt lat="45.49748" lon="4.82488">
        <ele>154.524302</ele>
        <time>2021-09-14T07:51:58.000Z</time>
      </trkpt>
      <trkpt lat="45.49757" lon="4.82478">
        <ele>154.589744</ele>
        <time>2021-09-14T07:52:01.000Z</time>
      </trkpt>
      <trkpt lat="45.49765" lon="4.82469">
        <ele>154.642662</ele>
        <time>2021-09-14T07:52:04.000Z</time>
      </trkpt>
      <trkpt lat="45.49764" lon="4.82468">
        <ele>154.651334</ele>
        <time>2021-09-14T07:52:05.000Z</time>
      </trkpt>
      <trkpt lat="45.49752" lon="4.82445">
        <ele>154.763845</ele>
        <time>2021-09-14T07:52:10.000Z</time>
      </trkpt>
      <trkpt lat="45.49746" lon="4.82434">
        <ele>154.789562</ele>
        <time>2021-09-14T07:52:12.000Z</time>
      </trkpt>
      <trkpt lat="45.49732" lon="4.82408">
        <ele>154.843569</ele>
        <time>2021-09-14T07:52:17.000Z</time>
      </trkpt>
      <trkpt lat="45.49708" lon="4.82363">
        <ele>154.933001</ele>
        <time>2021-09-14T07:52:25.000Z</time>
      </trkpt>
      <trkpt lat="45.49689" lon="4.82327">
        <ele>155.006103</ele>
        <time>2021-09-14T07:52:32.000Z</time>
      </trkpt>
      <trkpt lat="45.49668" lon="4.82296">
        <ele>155.076091</ele>
        <time>2021-09-14T07:52:38.000Z</time>
      </trkpt>
      <trkpt lat="45.49639" lon="4.82253">
        <ele>155.171725</ele>
        <time>2021-09-14T07:52:45.000Z</time>
      </trkpt>
      <trkpt lat="45.49635" lon="4.82247">
        <ele>155.184108</ele>
        <time>2021-09-14T07:52:46.000Z</time>
      </trkpt>
      <trkpt lat="45.49615" lon="4.82218">
        <ele>155.077096</ele>
        <time>2021-09-14T07:52:51.000Z</time>
      </trkpt>
      <trkpt lat="45.49587" lon="4.8218">
        <ele>154.930396</ele>
        <time>2021-09-14T07:52:58.000Z</time>
      </trkpt>
      <trkpt lat="45.49554" lon="4.82136">
        <ele>154.759313</ele>
        <time>2021-09-14T07:53:06.000Z</time>
      </trkpt>
      <trkpt lat="45.49521" lon="4.82097">
        <ele>154.59834</ele>
        <time>2021-09-14T07:53:14.000Z</time>
      </trkpt>
      <trkpt lat="45.49487" lon="4.82061">
        <ele>154.448243</ele>
        <time>2021-09-14T07:53:22.000Z</time>
      </trkpt>
      <trkpt lat="45.49448" lon="4.82019">
        <ele>154.295014</ele>
        <time>2021-09-14T07:53:31.000Z</time>
      </trkpt>
      <trkpt lat="45.49409" lon="4.8198">
        <ele>154.146804</ele>
        <time>2021-09-14T07:53:40.000Z</time>
      </trkpt>
      <trkpt lat="45.49405" lon="4.81976">
        <ele>154.132264</ele>
        <time>2021-09-14T07:53:41.000Z</time>
      </trkpt>
      <trkpt lat="45.49394" lon="4.81964">
        <ele>154.088515</ele>
        <time>2021-09-14T07:53:44.000Z</time>
      </trkpt>
      <trkpt lat="45.49376" lon="4.81947">
        <ele>154.020146</ele>
        <time>2021-09-14T07:53:48.000Z</time>
      </trkpt>
      <trkpt lat="45.49368" lon="4.81939">
        <ele>153.989407</ele>
        <time>2021-09-14T07:53:50.000Z</time>
      </trkpt>
      <trkpt lat="45.49339" lon="4.8191">
        <ele>153.845705</ele>
        <time>2021-09-14T07:53:57.000Z</time>
      </trkpt>
      <trkpt lat="45.49335" lon="4.81906">
        <ele>153.821126</ele>
        <time>2021-09-14T07:53:58.000Z</time>
      </trkpt>
      <trkpt lat="45.49325" lon="4.81903">
        <ele>153.768809</ele>
        <time>2021-09-14T07:54:00.000Z</time>
      </trkpt>
      <trkpt lat="45.4931" lon="4.81923">
        <ele>153.672593</ele>
        <time>2021-09-14T07:54:04.000Z</time>
      </trkpt>
      <trkpt lat="45.49299" lon="4.81939">
        <ele>153.592494</ele>
        <time>2021-09-14T07:54:07.000Z</time>
      </trkpt>
      <trkpt lat="45.49291" lon="4.81948">
        <ele>153.543211</ele>
        <time>2021-09-14T07:54:09.000Z</time>
      </trkpt>
      <trkpt lat="45.49284" lon="4.81948">
        <ele>153.510498</ele>
        <time>2021-09-14T07:54:11.000Z</time>
      </trkpt>
      <trkpt lat="45.49275" lon="4.8194">
        <ele>153.458977</ele>
        <time>2021-09-14T07:54:12.000Z</time>
      </trkpt>
      <trkpt lat="45.49266" lon="4.81932">
        <ele>153.408049</ele>
        <time>2021-09-14T07:54:14.000Z</time>
      </trkpt>
      <trkpt lat="45.49249" lon="4.81918">
        <ele>153.31118</ele>
        <time>2021-09-14T07:54:18.000Z</time>
      </trkpt>
      <trkpt lat="45.49223" lon="4.81895">
        <ele>153.161612</ele>
        <time>2021-09-14T07:54:24.000Z</time>
      </trkpt>
      <trkpt lat="45.49192" lon="4.81865">
        <ele>153.045334</ele>
        <time>2021-09-14T07:54:31.000Z</time>
      </trkpt>
      <trkpt lat="45.49178" lon="4.81855">
        <ele>153.027671</ele>
        <time>2021-09-14T07:54:34.000Z</time>
      </trkpt>
      <trkpt lat="45.49163" lon="4.81846">
        <ele>153.009319</ele>
        <time>2021-09-14T07:54:37.000Z</time>
      </trkpt>
      <trkpt lat="45.49128" lon="4.81829">
        <ele>152.966987</ele>
        <time>2021-09-14T07:54:44.000Z</time>
      </trkpt>
      <trkpt lat="45.49109" lon="4.81818">
        <ele>152.943234</ele>
        <time>2021-09-14T07:54:48.000Z</time>
      </trkpt>
      <trkpt lat="45.491" lon="4.81812">
        <ele>152.931813</ele>
        <time>2021-09-14T07:54:50.000Z</time>
      </trkpt>
      <trkpt lat="45.49062" lon="4.81787">
        <ele>152.885169</ele>
        <time>2021-09-14T07:54:58.000Z</time>
      </trkpt>
      <trkpt lat="45.49031" lon="4.81758">
        <ele>152.92097</ele>
        <time>2021-09-14T07:55:05.000Z</time>
      </trkpt>
      <trkpt lat="45.49005" lon="4.81737">
        <ele>153.037079</ele>
        <time>2021-09-14T07:55:11.000Z</time>
      </trkpt>
      <trkpt lat="45.48977" lon="4.81713">
        <ele>153.162589</ele>
        <time>2021-09-14T07:55:18.000Z</time>
      </trkpt>
      <trkpt lat="45.48962" lon="4.81698">
        <ele>153.233156</ele>
        <time>2021-09-14T07:55:22.000Z</time>
      </trkpt>
      <trkpt lat="45.4895" lon="4.81686">
        <ele>153.290772</ele>
        <time>2021-09-14T07:55:25.000Z</time>
      </trkpt>
      <trkpt lat="45.48911" lon="4.81648">
        <ele>153.475778</ele>
        <time>2021-09-14T07:55:34.000Z</time>
      </trkpt>
      <trkpt lat="45.48875" lon="4.81615">
        <ele>153.590086</ele>
        <time>2021-09-14T07:55:42.000Z</time>
      </trkpt>
      <trkpt lat="45.48843" lon="4.81585">
        <ele>153.648767</ele>
        <time>2021-09-14T07:55:49.000Z</time>
      </trkpt>
      <trkpt lat="45.48826" lon="4.81569">
        <ele>153.680198</ele>
        <time>2021-09-14T07:55:53.000Z</time>
      </trkpt>
      <trkpt lat="45.48798" lon="4.81543">
        <ele>153.730766</ele>
        <time>2021-09-14T07:55:59.000Z</time>
      </trkpt>
      <trkpt lat="45.48775" lon="4.81523">
        <ele>153.772894</ele>
        <time>2021-09-14T07:56:04.000Z</time>
      </trkpt>
      <trkpt lat="45.48766" lon="4.81516">
        <ele>153.78877</ele>
        <time>2021-09-14T07:56:06.000Z</time>
      </trkpt>
      <trkpt lat="45.48729" lon="4.81497">
        <ele>153.811322</ele>
        <time>2021-09-14T07:56:13.000Z</time>
      </trkpt>
      <trkpt lat="45.48723" lon="4.81494">
        <ele>153.798661</ele>
        <time>2021-09-14T07:56:14.000Z</time>
      </trkpt>
      <trkpt lat="45.48709" lon="4.81479">
        <ele>153.760513</ele>
        <time>2021-09-14T07:56:17.000Z</time>
      </trkpt>
      <trkpt lat="45.48704" lon="4.81474">
        <ele>153.748081</ele>
        <time>2021-09-14T07:56:18.000Z</time>
      </trkpt>
      <trkpt lat="45.48692" lon="4.81455">
        <ele>153.709806</ele>
        <time>2021-09-14T07:56:21.000Z</time>
      </trkpt>
      <trkpt lat="45.48669" lon="4.81407">
        <ele>153.622462</ele>
        <time>2021-09-14T07:56:28.000Z</time>
      </trkpt>
      <trkpt lat="45.48647" lon="4.81361">
        <ele>153.539752</ele>
        <time>2021-09-14T07:56:35.000Z</time>
      </trkpt>
      <trkpt lat="45.48625" lon="4.81316">
        <ele>153.458019</ele>
        <time>2021-09-14T07:56:42.000Z</time>
      </trkpt>
      <trkpt lat="45.48603" lon="4.81271">
        <ele>153.432703</ele>
        <time>2021-09-14T07:56:49.000Z</time>
      </trkpt>
      <trkpt lat="45.48597" lon="4.81259">
        <ele>153.42701</ele>
        <time>2021-09-14T07:56:51.000Z</time>
      </trkpt>
      <trkpt lat="45.48594" lon="4.81253">
        <ele>153.424343</ele>
        <time>2021-09-14T07:56:53.000Z</time>
      </trkpt>
      <trkpt lat="45.48603" lon="4.81229">
        <ele>153.414308</ele>
        <time>2021-09-14T07:56:55.000Z</time>
      </trkpt>
      <trkpt lat="45.48608" lon="4.81224">
        <ele>153.411202</ele>
        <time>2021-09-14T07:56:56.000Z</time>
      </trkpt>
      <trkpt lat="45.4864" lon="4.81195">
        <ele>153.391442</ele>
        <time>2021-09-14T07:57:03.000Z</time>
      </trkpt>
      <trkpt lat="45.48655" lon="4.81181">
        <ele>153.382105</ele>
        <time>2021-09-14T07:57:05.000Z</time>
      </trkpt>
      <trkpt lat="45.48674" lon="4.81163">
        <ele>153.370236</ele>
        <time>2021-09-14T07:57:09.000Z</time>
      </trkpt>
      <trkpt lat="45.48683" lon="4.81155">
        <ele>153.364642</ele>
        <time>2021-09-14T07:57:11.000Z</time>
      </trkpt>
      <trkpt lat="45.48684" lon="4.81146">
        <ele>153.361306</ele>
        <time>2021-09-14T07:57:12.000Z</time>
      </trkpt>
      <trkpt lat="45.48681" lon="4.81141">
        <ele>153.359119</ele>
        <time>2021-09-14T07:57:13.000Z</time>
      </trkpt>
      <trkpt lat="45.48678" lon="4.81135">
        <ele>153.357191</ele>
        <time>2021-09-14T07:57:15.000Z</time>
      </trkpt>
      <trkpt lat="45.48658" lon="4.81093">
        <ele>153.396711</ele>
        <time>2021-09-14T07:57:21.000Z</time>
      </trkpt>
      <trkpt lat="45.48637" lon="4.81047">
        <ele>153.438579</ele>
        <time>2021-09-14T07:57:28.000Z</time>
      </trkpt>
      <trkpt lat="45.48634" lon="4.81041">
        <ele>153.444809</ele>
        <time>2021-09-14T07:57:29.000Z</time>
      </trkpt>
      <trkpt lat="45.48634" lon="4.81015">
        <ele>153.4643</ele>
        <time>2021-09-14T07:57:32.000Z</time>
      </trkpt>
      <trkpt lat="45.48634" lon="4.80977">
        <ele>153.493688</ele>
        <time>2021-09-14T07:57:37.000Z</time>
      </trkpt>
      <trkpt lat="45.48634" lon="4.8097">
        <ele>153.499064</ele>
        <time>2021-09-14T07:57:38.000Z</time>
      </trkpt>
      <trkpt lat="45.48635" lon="4.80957">
        <ele>153.508989</ele>
        <time>2021-09-14T07:57:40.000Z</time>
      </trkpt>
      <trkpt lat="45.48637" lon="4.80939">
        <ele>153.523276</ele>
        <time>2021-09-14T07:57:43.000Z</time>
      </trkpt>
      <trkpt lat="45.48639" lon="4.80918">
        <ele>153.538946</ele>
        <time>2021-09-14T07:57:46.000Z</time>
      </trkpt>
      <trkpt lat="45.48641" lon="4.80904">
        <ele>153.55042</ele>
        <time>2021-09-14T07:57:48.000Z</time>
      </trkpt>
      <trkpt lat="45.48642" lon="4.80896">
        <ele>153.548732</ele>
        <time>2021-09-14T07:57:49.000Z</time>
      </trkpt>
      <trkpt lat="45.48644" lon="4.80872">
        <ele>153.514488</ele>
        <time>2021-09-14T07:57:52.000Z</time>
      </trkpt>
      <trkpt lat="45.4865" lon="4.80817">
        <ele>153.436757</ele>
        <time>2021-09-14T07:57:59.000Z</time>
      </trkpt>
      <trkpt lat="45.48655" lon="4.80771">
        <ele>153.371012</ele>
        <time>2021-09-14T07:58:05.000Z</time>
      </trkpt>
      <trkpt lat="45.48656" lon="4.80755">
        <ele>153.348136</ele>
        <time>2021-09-14T07:58:07.000Z</time>
      </trkpt>
      <trkpt lat="45.48653" lon="4.80732">
        <ele>153.314715</ele>
        <time>2021-09-14T07:58:10.000Z</time>
      </trkpt>
      <trkpt lat="45.48643" lon="4.80685">
        <ele>153.245549</ele>
        <time>2021-09-14T07:58:16.000Z</time>
      </trkpt>
      <trkpt lat="45.48631" lon="4.80634">
        <ele>153.160341</ele>
        <time>2021-09-14T07:58:22.000Z</time>
      </trkpt>
      <trkpt lat="45.48615" lon="4.80585">
        <ele>153.050749</ele>
        <time>2021-09-14T07:58:28.000Z</time>
      </trkpt>
      <trkpt lat="45.48606" lon="4.8056">
        <ele>152.995953</ele>
        <time>2021-09-14T07:58:31.000Z</time>
      </trkpt>
      <trkpt lat="45.48598" lon="4.80536">
        <ele>152.941212</ele>
        <time>2021-09-14T07:58:34.000Z</time>
      </trkpt>
      <trkpt lat="45.48574" lon="4.80472">
        <ele>152.795988</ele>
        <time>2021-09-14T07:58:42.000Z</time>
      </trkpt>
      <trkpt lat="45.48554" lon="4.80419">
        <ele>152.67493</ele>
        <time>2021-09-14T07:58:49.000Z</time>
      </trkpt>
      <trkpt lat="45.48532" lon="4.8036">
        <ele>152.528995</ele>
        <time>2021-09-14T07:58:57.000Z</time>
      </trkpt>
      <trkpt lat="45.48514" lon="4.80312">
        <ele>152.412617</ele>
        <time>2021-09-14T07:59:04.000Z</time>
      </trkpt>
      <trkpt lat="45.48497" lon="4.80257">
        <ele>152.281135</ele>
        <time>2021-09-14T07:59:12.000Z</time>
      </trkpt>
      <trkpt lat="45.48482" lon="4.80207">
        <ele>152.163059</ele>
        <time>2021-09-14T07:59:19.000Z</time>
      </trkpt>
      <trkpt lat="45.4848" lon="4.802">
        <ele>152.147497</ele>
        <time>2021-09-14T07:59:20.000Z</time>
      </trkpt>
      <trkpt lat="45.48472" lon="4.80173">
        <ele>152.112368</ele>
        <time>2021-09-14T07:59:24.000Z</time>
      </trkpt>
      <trkpt lat="45.48463" lon="4.80143">
        <ele>152.096695</ele>
        <time>2021-09-14T07:59:29.000Z</time>
      </trkpt>
      <trkpt lat="45.48461" lon="4.80136">
        <ele>152.093529</ele>
        <time>2021-09-14T07:59:30.000Z</time>
      </trkpt>
      <trkpt lat="45.48448" lon="4.80102">
        <ele>152.075474</ele>
        <time>2021-09-14T07:59:35.000Z</time>
      </trkpt>
      <trkpt lat="45.48432" lon="4.8006">
        <ele>152.052867</ele>
        <time>2021-09-14T07:59:41.000Z</time>
      </trkpt>
      <trkpt lat="45.48401" lon="4.8">
        <ele>152.018078</ele>
        <time>2021-09-14T07:59:50.000Z</time>
      </trkpt>
      <trkpt lat="45.48367" lon="4.79933">
        <ele>151.988637</ele>
        <time>2021-09-14T08:00:00.000Z</time>
      </trkpt>
      <trkpt lat="45.48342" lon="4.79887">
        <ele>151.973828</ele>
        <time>2021-09-14T08:00:07.000Z</time>
      </trkpt>
      <trkpt lat="45.48332" lon="4.79866">
        <ele>151.967489</ele>
        <time>2021-09-14T08:00:10.000Z</time>
      </trkpt>
      <trkpt lat="45.48329" lon="4.79849">
        <ele>151.962915</ele>
        <time>2021-09-14T08:00:12.000Z</time>
      </trkpt>
      <trkpt lat="45.48328" lon="4.79832">
        <ele>151.958476</ele>
        <time>2021-09-14T08:00:14.000Z</time>
      </trkpt>
      <trkpt lat="45.48329" lon="4.79815">
        <ele>151.954037</ele>
        <time>2021-09-14T08:00:16.000Z</time>
      </trkpt>
      <trkpt lat="45.48336" lon="4.79738">
        <ele>151.935325</ele>
        <time>2021-09-14T08:00:25.000Z</time>
      </trkpt>
      <trkpt lat="45.48337" lon="4.79729">
        <ele>151.948845</ele>
        <time>2021-09-14T08:00:26.000Z</time>
      </trkpt>
      <trkpt lat="45.48344" lon="4.79656">
        <ele>152.066582</ele>
        <time>2021-09-14T08:00:35.000Z</time>
      </trkpt>
      <trkpt lat="45.48354" lon="4.79593">
        <ele>152.169447</ele>
        <time>2021-09-14T08:00:43.000Z</time>
      </trkpt>
      <trkpt lat="45.4837" lon="4.79527">
        <ele>152.281214</ele>
        <time>2021-09-14T08:00:52.000Z</time>
      </trkpt>
      <trkpt lat="45.48378" lon="4.79478">
        <ele>152.378678</ele>
        <time>2021-09-14T08:00:59.000Z</time>
      </trkpt>
      <trkpt lat="45.48378" lon="4.79464">
        <ele>152.421601</ele>
        <time>2021-09-14T08:01:01.000Z</time>
      </trkpt>
      <trkpt lat="45.48375" lon="4.7945">
        <ele>152.467596</ele>
        <time>2021-09-14T08:01:03.000Z</time>
      </trkpt>
      <trkpt lat="45.48369" lon="4.79422">
        <ele>152.560782</ele>
        <time>2021-09-14T08:01:07.000Z</time>
      </trkpt>
      <trkpt lat="45.48366" lon="4.79406">
        <ele>152.611403</ele>
        <time>2021-09-14T08:01:09.000Z</time>
      </trkpt>
      <trkpt lat="45.48358" lon="4.79369">
        <ele>152.735403</ele>
        <time>2021-09-14T08:01:14.000Z</time>
      </trkpt>
      <trkpt lat="45.48346" lon="4.7931">
        <ele>152.925282</ele>
        <time>2021-09-14T08:01:22.000Z</time>
      </trkpt>
      <trkpt lat="45.48334" lon="4.79255">
        <ele>153.107146</ele>
        <time>2021-09-14T08:01:30.000Z</time>
      </trkpt>
      <trkpt lat="45.48326" lon="4.79214">
        <ele>153.211065</ele>
        <time>2021-09-14T08:01:36.000Z</time>
      </trkpt>
      <trkpt lat="45.48321" lon="4.79161">
        <ele>153.323972</ele>
        <time>2021-09-14T08:01:43.000Z</time>
      </trkpt>
      <trkpt lat="45.48313" lon="4.79081">
        <ele>153.496544</ele>
        <time>2021-09-14T08:01:53.000Z</time>
      </trkpt>
      <trkpt lat="45.48307" lon="4.7902">
        <ele>153.628592</ele>
        <time>2021-09-14T08:02:01.000Z</time>
      </trkpt>
      <trkpt lat="45.48302" lon="4.7896">
        <ele>153.624888</ele>
        <time>2021-09-14T08:02:09.000Z</time>
      </trkpt>
      <trkpt lat="45.48292" lon="4.78916">
        <ele>153.516603</ele>
        <time>2021-09-14T08:02:15.000Z</time>
      </trkpt>
      <trkpt lat="45.48281" lon="4.78875">
        <ele>153.413903</ele>
        <time>2021-09-14T08:02:21.000Z</time>
      </trkpt>
      <trkpt lat="45.48269" lon="4.7887">
        <ele>153.3716</ele>
        <time>2021-09-14T08:02:23.000Z</time>
      </trkpt>
      <trkpt lat="45.48264" lon="4.78869">
        <ele>153.353067</ele>
        <time>2021-09-14T08:02:24.000Z</time>
      </trkpt>
      <trkpt lat="45.48258" lon="4.78869">
        <ele>153.334175</ele>
        <time>2021-09-14T08:02:25.000Z</time>
      </trkpt>
      <trkpt lat="45.48231" lon="4.78864">
        <ele>153.241793</ele>
        <time>2021-09-14T08:02:30.000Z</time>
      </trkpt>
      <trkpt lat="45.48211" lon="4.78862">
        <ele>153.174134</ele>
        <time>2021-09-14T08:02:34.000Z</time>
      </trkpt>
      <trkpt lat="45.48154" lon="4.78855">
        <ele>152.903929</ele>
        <time>2021-09-14T08:02:40.000Z</time>
      </trkpt>
      <trkpt lat="45.48138" lon="4.78852">
        <ele>152.814514</ele>
        <time>2021-09-14T08:02:42.000Z</time>
      </trkpt>
      <trkpt lat="45.48089" lon="4.78838">
        <ele>152.522891</ele>
        <time>2021-09-14T08:02:49.000Z</time>
      </trkpt>
      <trkpt lat="45.48064" lon="4.78831">
        <ele>152.374412</ele>
        <time>2021-09-14T08:02:53.000Z</time>
      </trkpt>
      <trkpt lat="45.48058" lon="4.7883">
        <ele>152.344407</ele>
        <time>2021-09-14T08:02:54.000Z</time>
      </trkpt>
      <trkpt lat="45.48058" lon="4.78819">
        <ele>152.301465</ele>
        <time>2021-09-14T08:02:55.000Z</time>
      </trkpt>
      <trkpt lat="45.4806" lon="4.78811">
        <ele>152.267806</ele>
        <time>2021-09-14T08:02:56.000Z</time>
      </trkpt>
      <trkpt lat="45.48072" lon="4.78756">
        <ele>152.046899</ele>
        <time>2021-09-14T08:03:03.000Z</time>
      </trkpt>
      <trkpt lat="45.48077" lon="4.787">
        <ele>151.976143</ele>
        <time>2021-09-14T08:03:10.000Z</time>
      </trkpt>
      <trkpt lat="45.4807" lon="4.78661">
        <ele>151.926658</ele>
        <time>2021-09-14T08:03:15.000Z</time>
      </trkpt>
      <trkpt lat="45.48068" lon="4.78653">
        <ele>151.916279</ele>
        <time>2021-09-14T08:03:16.000Z</time>
      </trkpt>
      <trkpt lat="45.48061" lon="4.78623">
        <ele>151.877405</ele>
        <time>2021-09-14T08:03:20.000Z</time>
      </trkpt>
      <trkpt lat="45.48057" lon="4.7861">
        <ele>151.859785</ele>
        <time>2021-09-14T08:03:22.000Z</time>
      </trkpt>
      <trkpt lat="45.48055" lon="4.78603">
        <ele>151.850319</ele>
        <time>2021-09-14T08:03:23.000Z</time>
      </trkpt>
      <trkpt lat="45.48046" lon="4.78578">
        <ele>151.815302</ele>
        <time>2021-09-14T08:03:26.000Z</time>
      </trkpt>
      <trkpt lat="45.48043" lon="4.78569">
        <ele>151.803667</ele>
        <time>2021-09-14T08:03:27.000Z</time>
      </trkpt>
      <trkpt lat="45.48036" lon="4.78555">
        <ele>151.78133</ele>
        <time>2021-09-14T08:03:29.000Z</time>
      </trkpt>
      <trkpt lat="45.48031" lon="4.78549">
        <ele>151.770258</ele>
        <time>2021-09-14T08:03:30.000Z</time>
      </trkpt>
      <trkpt lat="45.48006" lon="4.7851">
        <ele>151.673825</ele>
        <time>2021-09-14T08:03:36.000Z</time>
      </trkpt>
      <trkpt lat="45.47967" lon="4.78452">
        <ele>151.474985</ele>
        <time>2021-09-14T08:03:45.000Z</time>
      </trkpt>
      <trkpt lat="45.47963" lon="4.78446">
        <ele>151.451795</ele>
        <time>2021-09-14T08:03:46.000Z</time>
      </trkpt>
      <trkpt lat="45.47946" lon="4.78429">
        <ele>151.379231</ele>
        <time>2021-09-14T08:03:50.000Z</time>
      </trkpt>
      <trkpt lat="45.47944" lon="4.7842">
        <ele>151.356233</ele>
        <time>2021-09-14T08:03:52.000Z</time>
      </trkpt>
      <trkpt lat="45.47956" lon="4.78398">
        <ele>151.285603</ele>
        <time>2021-09-14T08:03:57.000Z</time>
      </trkpt>
      <trkpt lat="45.47957" lon="4.78396">
        <ele>151.279664</ele>
        <time>2021-09-14T08:03:58.000Z</time>
      </trkpt>
      <trkpt lat="45.47957" lon="4.78396">
        <ele>151.279664</ele>
        <time>2021-09-14T08:04:00.000Z</time>
      </trkpt>
      <trkpt lat="45.47957" lon="4.78381">
        <ele>151.24286</ele>
        <time>2021-09-14T08:04:02.000Z</time>
      </trkpt>
      <trkpt lat="45.47958" lon="4.78375">
        <ele>151.228345</ele>
        <time>2021-09-14T08:04:03.000Z</time>
      </trkpt>
      <trkpt lat="45.47957" lon="4.78362">
        <ele>151.196094</ele>
        <time>2021-09-14T08:04:05.000Z</time>
      </trkpt>
      <trkpt lat="45.47956" lon="4.78356">
        <ele>151.179705</ele>
        <time>2021-09-14T08:04:07.000Z</time>
      </trkpt>
      <trkpt lat="45.47955" lon="4.78345">
        <ele>151.151715</ele>
        <time>2021-09-14T08:04:08.000Z</time>
      </trkpt>
      <trkpt lat="45.4794" lon="4.78316">
        <ele>151.230219</ele>
        <time>2021-09-14T08:04:12.000Z</time>
      </trkpt>
      <trkpt lat="45.47936" lon="4.7831">
        <ele>151.312544</ele>
        <time>2021-09-14T08:04:13.000Z</time>
      </trkpt>
      <trkpt lat="45.47928" lon="4.78301">
        <ele>151.464606</ele>
        <time>2021-09-14T08:04:15.000Z</time>
      </trkpt>
      <trkpt lat="45.47914" lon="4.78289">
        <ele>151.72216</ele>
        <time>2021-09-14T08:04:18.000Z</time>
      </trkpt>
      <trkpt lat="45.47908" lon="4.78287">
        <ele>151.808468</ele>
        <time>2021-09-14T08:04:19.000Z</time>
      </trkpt>
      <trkpt lat="45.47903" lon="4.78285">
        <ele>151.893579</ele>
        <time>2021-09-14T08:04:20.000Z</time>
      </trkpt>
      <trkpt lat="45.47887" lon="4.78278">
        <ele>152.139356</ele>
        <time>2021-09-14T08:04:23.000Z</time>
      </trkpt>
      <trkpt lat="45.47883" lon="4.78274">
        <ele>152.216743</ele>
        <time>2021-09-14T08:04:24.000Z</time>
      </trkpt>
      <trkpt lat="45.47874" lon="4.78264">
        <ele>152.391314</ele>
        <time>2021-09-14T08:04:26.000Z</time>
      </trkpt>
      <trkpt lat="45.47866" lon="4.78256">
        <ele>152.539888</ele>
        <time>2021-09-14T08:04:28.000Z</time>
      </trkpt>
      <trkpt lat="45.47854" lon="4.78244">
        <ele>152.760889</ele>
        <time>2021-09-14T08:04:31.000Z</time>
      </trkpt>
      <trkpt lat="45.47849" lon="4.7824">
        <ele>152.854294</ele>
        <time>2021-09-14T08:04:32.000Z</time>
      </trkpt>
      <trkpt lat="45.47842" lon="4.78236">
        <ele>152.959594</ele>
        <time>2021-09-14T08:04:33.000Z</time>
      </trkpt>
      <trkpt lat="45.47821" lon="4.78231">
        <ele>153.280701</ele>
        <time>2021-09-14T08:04:36.000Z</time>
      </trkpt>
      <trkpt lat="45.47815" lon="4.7823">
        <ele>153.382013</ele>
        <time>2021-09-14T08:04:37.000Z</time>
      </trkpt>
      <trkpt lat="45.47802" lon="4.78227">
        <ele>153.584637</ele>
        <time>2021-09-14T08:04:39.000Z</time>
      </trkpt>
      <trkpt lat="45.47795" lon="4.78226">
        <ele>153.69212</ele>
        <time>2021-09-14T08:04:40.000Z</time>
      </trkpt>
      <trkpt lat="45.47763" lon="4.78213">
        <ele>153.911359</ele>
        <time>2021-09-14T08:04:45.000Z</time>
      </trkpt>
      <trkpt lat="45.47727" lon="4.78197">
        <ele>154.045716</ele>
        <time>2021-09-14T08:04:51.000Z</time>
      </trkpt>
      <trkpt lat="45.47678" lon="4.78187">
        <ele>154.219044</ele>
        <time>2021-09-14T08:04:59.000Z</time>
      </trkpt>
      <trkpt lat="45.47673" lon="4.78183">
        <ele>154.23934</ele>
        <time>2021-09-14T08:05:00.000Z</time>
      </trkpt>
      <trkpt lat="45.47666" lon="4.7817">
        <ele>154.277798</ele>
        <time>2021-09-14T08:05:02.000Z</time>
      </trkpt>
      <trkpt lat="45.47668" lon="4.78144">
        <ele>154.342779</ele>
        <time>2021-09-14T08:05:05.000Z</time>
      </trkpt>
      <trkpt lat="45.47668" lon="4.78104">
        <ele>154.441842</ele>
        <time>2021-09-14T08:05:10.000Z</time>
      </trkpt>
      <trkpt lat="45.47665" lon="4.78097">
        <ele>154.457697</ele>
        <time>2021-09-14T08:05:11.000Z</time>
      </trkpt>
      <trkpt lat="45.4766" lon="4.78094">
        <ele>154.437528</ele>
        <time>2021-09-14T08:05:12.000Z</time>
      </trkpt>
      <trkpt lat="45.47649" lon="4.78085">
        <ele>154.390971</ele>
        <time>2021-09-14T08:05:14.000Z</time>
      </trkpt>
      <trkpt lat="45.47634" lon="4.78073">
        <ele>154.331538</ele>
        <time>2021-09-14T08:05:17.000Z</time>
      </trkpt>
      <trkpt lat="45.4762" lon="4.78063">
        <ele>154.272385</ele>
        <time>2021-09-14T08:05:20.000Z</time>
      </trkpt>
      <trkpt lat="45.47614" lon="4.78058">
        <ele>154.24755</ele>
        <time>2021-09-14T08:05:21.000Z</time>
      </trkpt>
      <trkpt lat="45.47582" lon="4.78034">
        <ele>154.116083</ele>
        <time>2021-09-14T08:05:27.000Z</time>
      </trkpt>
      <trkpt lat="45.47564" lon="4.78026">
        <ele>154.047518</ele>
        <time>2021-09-14T08:05:31.000Z</time>
      </trkpt>
      <trkpt lat="45.47559" lon="4.78024">
        <ele>154.032078</ele>
        <time>2021-09-14T08:05:33.000Z</time>
      </trkpt>
      <trkpt lat="45.47544" lon="4.78015">
        <ele>153.973133</ele>
        <time>2021-09-14T08:05:38.000Z</time>
      </trkpt>
      <trkpt lat="45.47536" lon="4.78008">
        <ele>153.938136</ele>
        <time>2021-09-14T08:05:41.000Z</time>
      </trkpt>
      <trkpt lat="45.47522" lon="4.77998">
        <ele>153.882214</ele>
        <time>2021-09-14T08:05:45.000Z</time>
      </trkpt>
      <trkpt lat="45.47505" lon="4.77985">
        <ele>153.812022</ele>
        <time>2021-09-14T08:05:49.000Z</time>
      </trkpt>
      <trkpt lat="45.47487" lon="4.77971">
        <ele>153.970157</ele>
        <time>2021-09-14T08:05:53.000Z</time>
      </trkpt>
      <trkpt lat="45.47471" lon="4.77959">
        <ele>154.118983</ele>
        <time>2021-09-14T08:05:56.000Z</time>
      </trkpt>
      <trkpt lat="45.4746" lon="4.77951">
        <ele>154.221677</ele>
        <time>2021-09-14T08:05:59.000Z</time>
      </trkpt>
      <trkpt lat="45.47453" lon="4.77946">
        <ele>154.286158</ele>
        <time>2021-09-14T08:06:01.000Z</time>
      </trkpt>
      <trkpt lat="45.47443" lon="4.77939">
        <ele>154.378683</ele>
        <time>2021-09-14T08:06:03.000Z</time>
      </trkpt>
      <trkpt lat="45.4743" lon="4.7793">
        <ele>154.496981</ele>
        <time>2021-09-14T08:06:07.000Z</time>
      </trkpt>
      <trkpt lat="45.47413" lon="4.77921">
        <ele>154.647361</ele>
        <time>2021-09-14T08:06:12.000Z</time>
      </trkpt>
      <trkpt lat="45.47398" lon="4.77913">
        <ele>154.777365</ele>
        <time>2021-09-14T08:06:16.000Z</time>
      </trkpt>
      <trkpt lat="45.47385" lon="4.77906">
        <ele>154.889505</ele>
        <time>2021-09-14T08:06:19.000Z</time>
      </trkpt>
      <trkpt lat="45.47366" lon="4.77895">
        <ele>155.063962</ele>
        <time>2021-09-14T08:06:24.000Z</time>
      </trkpt>
      <trkpt lat="45.47358" lon="4.77891">
        <ele>155.130104</ele>
        <time>2021-09-14T08:06:26.000Z</time>
      </trkpt>
      <trkpt lat="45.47353" lon="4.77889">
        <ele>155.170846</ele>
        <time>2021-09-14T08:06:27.000Z</time>
      </trkpt>
      <trkpt lat="45.47339" lon="4.77882">
        <ele>155.304037</ele>
        <time>2021-09-14T08:06:32.000Z</time>
      </trkpt>
      <trkpt lat="45.47334" lon="4.7788">
        <ele>155.363747</ele>
        <time>2021-09-14T08:06:33.000Z</time>
      </trkpt>
      <trkpt lat="45.47318" lon="4.77872">
        <ele>155.57734</ele>
        <time>2021-09-14T08:06:36.000Z</time>
      </trkpt>
      <trkpt lat="45.47302" lon="4.77865">
        <ele>155.787062</ele>
        <time>2021-09-14T08:06:39.000Z</time>
      </trkpt>
      <trkpt lat="45.47292" lon="4.7786">
        <ele>155.916897</ele>
        <time>2021-09-14T08:06:41.000Z</time>
      </trkpt>
      <trkpt lat="45.47288" lon="4.77858">
        <ele>155.978082</ele>
        <time>2021-09-14T08:06:42.000Z</time>
      </trkpt>
      <trkpt lat="45.47275" lon="4.7785">
        <ele>156.158067</ele>
        <time>2021-09-14T08:06:45.000Z</time>
      </trkpt>
      <trkpt lat="45.47269" lon="4.77845">
        <ele>156.241625</ele>
        <time>2021-09-14T08:06:47.000Z</time>
      </trkpt>
      <trkpt lat="45.47264" lon="4.77842">
        <ele>156.305847</ele>
        <time>2021-09-14T08:06:48.000Z</time>
      </trkpt>
      <trkpt lat="45.47262" lon="4.77841">
        <ele>156.335466</ele>
        <time>2021-09-14T08:06:49.000Z</time>
      </trkpt>
      <trkpt lat="45.47257" lon="4.77836">
        <ele>156.414851</ele>
        <time>2021-09-14T08:06:51.000Z</time>
      </trkpt>
      <trkpt lat="45.47245" lon="4.77828">
        <ele>156.576672</ele>
        <time>2021-09-14T08:06:55.000Z</time>
      </trkpt>
      <trkpt lat="45.4723" lon="4.77817">
        <ele>156.790907</ele>
        <time>2021-09-14T08:07:00.000Z</time>
      </trkpt>
      <trkpt lat="45.47218" lon="4.77808">
        <ele>156.959954</ele>
        <time>2021-09-14T08:07:04.000Z</time>
      </trkpt>
      <trkpt lat="45.47204" lon="4.77798">
        <ele>157.162079</ele>
        <time>2021-09-14T08:07:09.000Z</time>
      </trkpt>
      <trkpt lat="45.47195" lon="4.77791">
        <ele>157.285531</ele>
        <time>2021-09-14T08:07:13.000Z</time>
      </trkpt>
      <trkpt lat="45.47189" lon="4.77787">
        <ele>157.370214</ele>
        <time>2021-09-14T08:07:15.000Z</time>
      </trkpt>
      <trkpt lat="45.47185" lon="4.77783">
        <ele>157.435553</ele>
        <time>2021-09-14T08:07:17.000Z</time>
      </trkpt>
      <trkpt lat="45.47178" lon="4.77779">
        <ele>157.525541</ele>
        <time>2021-09-14T08:07:21.000Z</time>
      </trkpt>
      <trkpt lat="45.4716" lon="4.77768">
        <ele>157.497305</ele>
        <time>2021-09-14T08:07:26.000Z</time>
      </trkpt>
      <trkpt lat="45.47151" lon="4.77764">
        <ele>157.464672</ele>
        <time>2021-09-14T08:07:28.000Z</time>
      </trkpt>
      <trkpt lat="45.47144" lon="4.7776">
        <ele>157.438566</ele>
        <time>2021-09-14T08:07:30.000Z</time>
      </trkpt>
      <trkpt lat="45.47136" lon="4.77754">
        <ele>157.408584</ele>
        <time>2021-09-14T08:07:31.000Z</time>
      </trkpt>
      <trkpt lat="45.4711" lon="4.77765">
        <ele>157.313827</ele>
        <time>2021-09-14T08:07:36.000Z</time>
      </trkpt>
      <trkpt lat="45.47091" lon="4.77778">
        <ele>157.240275</ele>
        <time>2021-09-14T08:07:40.000Z</time>
      </trkpt>
      <trkpt lat="45.47089" lon="4.77779">
        <ele>157.232605</ele>
        <time>2021-09-14T08:07:41.000Z</time>
      </trkpt>
      <trkpt lat="45.47085" lon="4.77777">
        <ele>157.220936</ele>
        <time>2021-09-14T08:07:43.000Z</time>
      </trkpt>
      <trkpt lat="45.47079" lon="4.77764">
        <ele>157.182944</ele>
        <time>2021-09-14T08:07:48.000Z</time>
      </trkpt>
      <trkpt lat="45.47075" lon="4.77756">
        <ele>157.157678</ele>
        <time>2021-09-14T08:07:51.000Z</time>
      </trkpt>
      <trkpt lat="45.47073" lon="4.77753">
        <ele>157.149921</ele>
        <time>2021-09-14T08:07:53.000Z</time>
      </trkpt>
      <trkpt lat="45.4706" lon="4.77755">
        <ele>157.104278</ele>
        <time>2021-09-14T08:07:56.000Z</time>
      </trkpt>
      <trkpt lat="45.47053" lon="4.77764">
        <ele>157.069787</ele>
        <time>2021-09-14T08:07:58.000Z</time>
      </trkpt>
      <trkpt lat="45.47048" lon="4.77769">
        <ele>157.049989</ele>
        <time>2021-09-14T08:07:59.000Z</time>
      </trkpt>
      <trkpt lat="45.47044" lon="4.77775">
        <ele>157.02977</ele>
        <time>2021-09-14T08:08:00.000Z</time>
      </trkpt>
      <trkpt lat="45.47026" lon="4.77795">
        <ele>156.951999</ele>
        <time>2021-09-14T08:08:04.000Z</time>
      </trkpt>
      <trkpt lat="45.47023" lon="4.778">
        <ele>156.935041</ele>
        <time>2021-09-14T08:08:06.000Z</time>
      </trkpt>
      <trkpt lat="45.47015" lon="4.77809">
        <ele>156.75615</ele>
        <time>2021-09-14T08:08:07.000Z</time>
      </trkpt>
      <trkpt lat="45.47011" lon="4.77814">
        <ele>156.661482</ele>
        <time>2021-09-14T08:08:08.000Z</time>
      </trkpt>
      <trkpt lat="45.47003" lon="4.77824">
        <ele>156.475981</ele>
        <time>2021-09-14T08:08:10.000Z</time>
      </trkpt>
      <trkpt lat="45.46981" lon="4.77857">
        <ele>155.908609</ele>
        <time>2021-09-14T08:08:16.000Z</time>
      </trkpt>
      <trkpt lat="45.46973" lon="4.77859">
        <ele>155.769121</ele>
        <time>2021-09-14T08:08:17.000Z</time>
      </trkpt>
      <trkpt lat="45.46963" lon="4.77861">
        <ele>155.574567</ele>
        <time>2021-09-14T08:08:19.000Z</time>
      </trkpt>
      <trkpt lat="45.46928" lon="4.77867">
        <ele>154.955104</ele>
        <time>2021-09-14T08:08:25.000Z</time>
      </trkpt>
      <trkpt lat="45.46869" lon="4.77877">
        <ele>153.908828</ele>
        <time>2021-09-14T08:08:34.000Z</time>
      </trkpt>
      <trkpt lat="45.46863" lon="4.77878">
        <ele>153.798197</ele>
        <time>2021-09-14T08:08:35.000Z</time>
      </trkpt>
      <trkpt lat="45.46827" lon="4.77884">
        <ele>153.457707</ele>
        <time>2021-09-14T08:08:41.000Z</time>
      </trkpt>
      <trkpt lat="45.46785" lon="4.77891">
        <ele>153.104999</ele>
        <time>2021-09-14T08:08:48.000Z</time>
      </trkpt>
      <trkpt lat="45.46758" lon="4.77896">
        <ele>152.868168</ele>
        <time>2021-09-14T08:08:53.000Z</time>
      </trkpt>
      <trkpt lat="45.46747" lon="4.77894">
        <ele>152.778168</ele>
        <time>2021-09-14T08:08:56.000Z</time>
      </trkpt>
      <trkpt lat="45.46744" lon="4.77892">
        <ele>152.748851</ele>
        <time>2021-09-14T08:08:57.000Z</time>
      </trkpt>
      <trkpt lat="45.4673" lon="4.7788">
        <ele>152.606404</ele>
        <time>2021-09-14T08:09:01.000Z</time>
      </trkpt>
      <trkpt lat="45.4672" lon="4.77872">
        <ele>152.509257</ele>
        <time>2021-09-14T08:09:03.000Z</time>
      </trkpt>
      <trkpt lat="45.46711" lon="4.77865">
        <ele>152.425446</ele>
        <time>2021-09-14T08:09:05.000Z</time>
      </trkpt>
      <trkpt lat="45.46699" lon="4.77847">
        <ele>152.277434</ele>
        <time>2021-09-14T08:09:09.000Z</time>
      </trkpt>
      <trkpt lat="45.46685" lon="4.77826">
        <ele>152.164813</ele>
        <time>2021-09-14T08:09:13.000Z</time>
      </trkpt>
      <trkpt lat="45.46653" lon="4.77777">
        <ele>151.989016</ele>
        <time>2021-09-14T08:09:20.000Z</time>
      </trkpt>
      <trkpt lat="45.46619" lon="4.77736">
        <ele>151.822733</ele>
        <time>2021-09-14T08:09:28.000Z</time>
      </trkpt>
      <trkpt lat="45.46606" lon="4.7772">
        <ele>151.761244</ele>
        <time>2021-09-14T08:09:31.000Z</time>
      </trkpt>
      <trkpt lat="45.46595" lon="4.77716">
        <ele>151.719194</ele>
        <time>2021-09-14T08:09:33.000Z</time>
      </trkpt>
      <trkpt lat="45.46591" lon="4.77722">
        <ele>151.699968</ele>
        <time>2021-09-14T08:09:35.000Z</time>
      </trkpt>
      <trkpt lat="45.46588" lon="4.77727">
        <ele>151.679476</ele>
        <time>2021-09-14T08:09:36.000Z</time>
      </trkpt>
      <trkpt lat="45.46576" lon="4.77745">
        <ele>151.617744</ele>
        <time>2021-09-14T08:09:38.000Z</time>
      </trkpt>
      <trkpt lat="45.46561" lon="4.77767">
        <ele>151.537974</ele>
        <time>2021-09-14T08:09:42.000Z</time>
      </trkpt>
      <trkpt lat="45.46529" lon="4.77815">
        <ele>151.363092</ele>
        <time>2021-09-14T08:09:51.000Z</time>
      </trkpt>
      <trkpt lat="45.46507" lon="4.77848">
        <ele>151.247684</ele>
        <time>2021-09-14T08:09:58.000Z</time>
      </trkpt>
      <trkpt lat="45.465" lon="4.77858">
        <ele>151.211675</ele>
        <time>2021-09-14T08:09:59.000Z</time>
      </trkpt>
      <trkpt lat="45.46497" lon="4.77863">
        <ele>151.193637</ele>
        <time>2021-09-14T08:10:00.000Z</time>
      </trkpt>
      <trkpt lat="45.46493" lon="4.77875">
        <ele>151.157343</ele>
        <time>2021-09-14T08:10:02.000Z</time>
      </trkpt>
      <trkpt lat="45.46492" lon="4.77883">
        <ele>151.13738</ele>
        <time>2021-09-14T08:10:03.000Z</time>
      </trkpt>
      <trkpt lat="45.46487" lon="4.77925">
        <ele>151.026783</ele>
        <time>2021-09-14T08:10:09.000Z</time>
      </trkpt>
      <trkpt lat="45.46485" lon="4.77937">
        <ele>150.994702</ele>
        <time>2021-09-14T08:10:11.000Z</time>
      </trkpt>
      <trkpt lat="45.4648" lon="4.7794">
        <ele>150.973392</ele>
        <time>2021-09-14T08:10:12.000Z</time>
      </trkpt>
      <trkpt lat="45.46471" lon="4.77941">
        <ele>150.941178</ele>
        <time>2021-09-14T08:10:14.000Z</time>
      </trkpt>
      <trkpt lat="45.46461" lon="4.77942">
        <ele>150.904137</ele>
        <time>2021-09-14T08:10:16.000Z</time>
      </trkpt>
      <trkpt lat="45.46451" lon="4.77941">
        <ele>150.872286</ele>
        <time>2021-09-14T08:10:18.000Z</time>
      </trkpt>
      <trkpt lat="45.46413" lon="4.77925">
        <ele>150.791003</ele>
        <time>2021-09-14T08:10:25.000Z</time>
      </trkpt>
      <trkpt lat="45.46382" lon="4.77919">
        <ele>150.726154</ele>
        <time>2021-09-14T08:10:31.000Z</time>
      </trkpt>
      <trkpt lat="45.46351" lon="4.77901">
        <ele>150.656188</ele>
        <time>2021-09-14T08:10:37.000Z</time>
      </trkpt>
      <trkpt lat="45.46299" lon="4.77872">
        <ele>150.539917</ele>
        <time>2021-09-14T08:10:47.000Z</time>
      </trkpt>
      <trkpt lat="45.46267" lon="4.77847">
        <ele>150.44794</ele>
        <time>2021-09-14T08:10:54.000Z</time>
      </trkpt>
      <trkpt lat="45.46236" lon="4.77817">
        <ele>150.341241</ele>
        <time>2021-09-14T08:11:01.000Z</time>
      </trkpt>
      <trkpt lat="45.46198" lon="4.77779">
        <ele>150.210942</ele>
        <time>2021-09-14T08:11:09.000Z</time>
      </trkpt>
      <trkpt lat="45.46161" lon="4.77744">
        <ele>150.084867</ele>
        <time>2021-09-14T08:11:17.000Z</time>
      </trkpt>
      <trkpt lat="45.46133" lon="4.77718">
        <ele>149.995077</ele>
        <time>2021-09-14T08:11:23.000Z</time>
      </trkpt>
      <trkpt lat="45.46089" lon="4.77687">
        <ele>149.930431</ele>
        <time>2021-09-14T08:11:32.000Z</time>
      </trkpt>
      <trkpt lat="45.4606" lon="4.77666">
        <ele>149.887917</ele>
        <time>2021-09-14T08:11:38.000Z</time>
      </trkpt>
      <trkpt lat="45.46051" lon="4.77658">
        <ele>149.874143</ele>
        <time>2021-09-14T08:11:40.000Z</time>
      </trkpt>
      <trkpt lat="45.46048" lon="4.7765">
        <ele>149.865557</ele>
        <time>2021-09-14T08:11:41.000Z</time>
      </trkpt>
      <trkpt lat="45.46046" lon="4.77642">
        <ele>149.858217</ele>
        <time>2021-09-14T08:11:42.000Z</time>
      </trkpt>
      <trkpt lat="45.46041" lon="4.77617">
        <ele>149.834854</ele>
        <time>2021-09-14T08:11:45.000Z</time>
      </trkpt>
      <trkpt lat="45.46036" lon="4.77563">
        <ele>149.784595</ele>
        <time>2021-09-14T08:11:52.000Z</time>
      </trkpt>
      <trkpt lat="45.46032" lon="4.77519">
        <ele>149.71545</ele>
        <time>2021-09-14T08:11:58.000Z</time>
      </trkpt>
      <trkpt lat="45.46029" lon="4.77505">
        <ele>149.680498</ele>
        <time>2021-09-14T08:12:00.000Z</time>
      </trkpt>
      <trkpt lat="45.46013" lon="4.77447">
        <ele>149.537776</ele>
        <time>2021-09-14T08:12:08.000Z</time>
      </trkpt>
      <trkpt lat="45.46" lon="4.77413">
        <ele>149.451181</ele>
        <time>2021-09-14T08:12:13.000Z</time>
      </trkpt>
      <trkpt lat="45.4599" lon="4.77387">
        <ele>149.381706</ele>
        <time>2021-09-14T08:12:17.000Z</time>
      </trkpt>
      <trkpt lat="45.45984" lon="4.77374">
        <ele>149.346969</ele>
        <time>2021-09-14T08:12:19.000Z</time>
      </trkpt>
      <trkpt lat="45.45966" lon="4.77323">
        <ele>149.216739</ele>
        <time>2021-09-14T08:12:26.000Z</time>
      </trkpt>
      <trkpt lat="45.45964" lon="4.77315">
        <ele>149.197732</ele>
        <time>2021-09-14T08:12:27.000Z</time>
      </trkpt>
      <trkpt lat="45.4596" lon="4.77301">
        <ele>149.17267</ele>
        <time>2021-09-14T08:12:29.000Z</time>
      </trkpt>
      <trkpt lat="45.45951" lon="4.77298">
        <ele>149.16352</ele>
        <time>2021-09-14T08:12:30.000Z</time>
      </trkpt>
      <trkpt lat="45.45949" lon="4.77291">
        <ele>149.15843</ele>
        <time>2021-09-14T08:12:31.000Z</time>
      </trkpt>
      <trkpt lat="45.45943" lon="4.7727">
        <ele>149.142471</ele>
        <time>2021-09-14T08:12:34.000Z</time>
      </trkpt>
      <trkpt lat="45.45934" lon="4.77234">
        <ele>149.116003</ele>
        <time>2021-09-14T08:12:39.000Z</time>
      </trkpt>
      <trkpt lat="45.45931" lon="4.77228">
        <ele>149.111019</ele>
        <time>2021-09-14T08:12:41.000Z</time>
      </trkpt>
      <trkpt lat="45.45921" lon="4.77212">
        <ele>149.096472</ele>
        <time>2021-09-14T08:12:43.000Z</time>
      </trkpt>
      <trkpt lat="45.45916" lon="4.77209">
        <ele>149.091244</ele>
        <time>2021-09-14T08:12:44.000Z</time>
      </trkpt>
      <trkpt lat="45.45884" lon="4.77185">
        <ele>149.055542</ele>
        <time>2021-09-14T08:12:51.000Z</time>
      </trkpt>
      <trkpt lat="45.45839" lon="4.77151">
        <ele>149.004897</ele>
        <time>2021-09-14T08:13:01.000Z</time>
      </trkpt>
      <trkpt lat="45.458" lon="4.77114">
        <ele>148.81514</ele>
        <time>2021-09-14T08:13:11.000Z</time>
      </trkpt>
      <trkpt lat="45.45794" lon="4.77104">
        <ele>148.773585</ele>
        <time>2021-09-14T08:13:13.000Z</time>
      </trkpt>
      <trkpt lat="45.45788" lon="4.77093">
        <ele>148.73002</ele>
        <time>2021-09-14T08:13:15.000Z</time>
      </trkpt>
      <trkpt lat="45.45781" lon="4.77083">
        <ele>148.686695</ele>
        <time>2021-09-14T08:13:17.000Z</time>
      </trkpt>
      <trkpt lat="45.45779" lon="4.77068">
        <ele>148.639253</ele>
        <time>2021-09-14T08:13:19.000Z</time>
      </trkpt>
      <trkpt lat="45.4578" lon="4.7706">
        <ele>148.615773</ele>
        <time>2021-09-14T08:13:20.000Z</time>
      </trkpt>
      <trkpt lat="45.45783" lon="4.76996">
        <ele>148.414296</ele>
        <time>2021-09-14T08:13:28.000Z</time>
      </trkpt>
      <trkpt lat="45.45784" lon="4.76963">
        <ele>148.311377</ele>
        <time>2021-09-14T08:13:33.000Z</time>
      </trkpt>
      <trkpt lat="45.45784" lon="4.76952">
        <ele>148.276727</ele>
        <time>2021-09-14T08:13:35.000Z</time>
      </trkpt>
      <trkpt lat="45.45788" lon="4.76947">
        <ele>148.254672</ele>
        <time>2021-09-14T08:13:36.000Z</time>
      </trkpt>
      <trkpt lat="45.45791" lon="4.76946">
        <ele>148.241898</ele>
        <time>2021-09-14T08:13:38.000Z</time>
      </trkpt>
      <trkpt lat="45.45791" lon="4.76942">
        <ele>148.228475</ele>
        <time>2021-09-14T08:13:39.000Z</time>
      </trkpt>
      <trkpt lat="45.45798" lon="4.76934">
        <ele>148.186434</ele>
        <time>2021-09-14T08:13:40.000Z</time>
      </trkpt>
      <trkpt lat="45.45796" lon="4.76922">
        <ele>148.128715</ele>
        <time>2021-09-14T08:13:42.000Z</time>
      </trkpt>
      <trkpt lat="45.45793" lon="4.76909">
        <ele>148.069991</ele>
        <time>2021-09-14T08:13:44.000Z</time>
      </trkpt>
      <trkpt lat="45.45791" lon="4.76891">
        <ele>147.9914</ele>
        <time>2021-09-14T08:13:47.000Z</time>
      </trkpt>
      <trkpt lat="45.45786" lon="4.7686">
        <ele>147.848024</ele>
        <time>2021-09-14T08:13:51.000Z</time>
      </trkpt>
      <trkpt lat="45.45785" lon="4.76853">
        <ele>147.815041</ele>
        <time>2021-09-14T08:13:52.000Z</time>
      </trkpt>
      <trkpt lat="45.45783" lon="4.76839">
        <ele>147.755529</ele>
        <time>2021-09-14T08:13:55.000Z</time>
      </trkpt>
      <trkpt lat="45.45781" lon="4.76824">
        <ele>147.6875</ele>
        <time>2021-09-14T08:13:59.000Z</time>
      </trkpt>
      <trkpt lat="45.45781" lon="4.76807">
        <ele>147.609009</ele>
        <time>2021-09-14T08:14:02.000Z</time>
      </trkpt>
      <trkpt lat="45.45783" lon="4.76794">
        <ele>147.554159</ele>
        <time>2021-09-14T08:14:04.000Z</time>
      </trkpt>
      <trkpt lat="45.45784" lon="4.76788">
        <ele>147.526517</ele>
        <time>2021-09-14T08:14:05.000Z</time>
      </trkpt>
      <trkpt lat="45.45789" lon="4.76758">
        <ele>147.386742</ele>
        <time>2021-09-14T08:14:10.000Z</time>
      </trkpt>
      <trkpt lat="45.45796" lon="4.76721">
        <ele>147.217659</ele>
        <time>2021-09-14T08:14:16.000Z</time>
      </trkpt>
      <trkpt lat="45.45801" lon="4.76694">
        <ele>147.094018</ele>
        <time>2021-09-14T08:14:21.000Z</time>
      </trkpt>
      <trkpt lat="45.45805" lon="4.76664">
        <ele>147.029461</ele>
        <time>2021-09-14T08:14:26.000Z</time>
      </trkpt>
      <trkpt lat="45.45806" lon="4.76659">
        <ele>147.021359</ele>
        <time>2021-09-14T08:14:27.000Z</time>
      </trkpt>
      <trkpt lat="45.45812" lon="4.76618">
        <ele>146.962763</ele>
        <time>2021-09-14T08:14:34.000Z</time>
      </trkpt>
      <trkpt lat="45.45812" lon="4.76612">
        <ele>146.953509</ele>
        <time>2021-09-14T08:14:35.000Z</time>
      </trkpt>
      <trkpt lat="45.45821" lon="4.76566">
        <ele>146.887275</ele>
        <time>2021-09-14T08:14:42.000Z</time>
      </trkpt>
      <trkpt lat="45.45826" lon="4.76536">
        <ele>146.843563</ele>
        <time>2021-09-14T08:14:47.000Z</time>
      </trkpt>
      <trkpt lat="45.45827" lon="4.76524">
        <ele>146.825865</ele>
        <time>2021-09-14T08:14:49.000Z</time>
      </trkpt>
      <trkpt lat="45.45828" lon="4.76512">
        <ele>146.808616</ele>
        <time>2021-09-14T08:14:51.000Z</time>
      </trkpt>
      <trkpt lat="45.45828" lon="4.765">
        <ele>146.790997</ele>
        <time>2021-09-14T08:14:53.000Z</time>
      </trkpt>
      <trkpt lat="45.45825" lon="4.76465">
        <ele>146.742045</ele>
        <time>2021-09-14T08:14:59.000Z</time>
      </trkpt>
      <trkpt lat="45.45824" lon="4.76459">
        <ele>146.733454</ele>
        <time>2021-09-14T08:15:00.000Z</time>
      </trkpt>
      <trkpt lat="45.45822" lon="4.76431">
        <ele>146.698701</ele>
        <time>2021-09-14T08:15:04.000Z</time>
      </trkpt>
      <trkpt lat="45.45819" lon="4.76403">
        <ele>146.699411</ele>
        <time>2021-09-14T08:15:08.000Z</time>
      </trkpt>
      <trkpt lat="45.45818" lon="4.76396">
        <ele>146.699587</ele>
        <time>2021-09-14T08:15:10.000Z</time>
      </trkpt>
      <trkpt lat="45.45815" lon="4.76361">
        <ele>146.700483</ele>
        <time>2021-09-14T08:15:14.000Z</time>
      </trkpt>
      <trkpt lat="45.45814" lon="4.76353">
        <ele>146.700692</ele>
        <time>2021-09-14T08:15:15.000Z</time>
      </trkpt>
      <trkpt lat="45.45808" lon="4.76301">
        <ele>146.702015</ele>
        <time>2021-09-14T08:15:22.000Z</time>
      </trkpt>
      <trkpt lat="45.45803" lon="4.76263">
        <ele>146.703009</ele>
        <time>2021-09-14T08:15:27.000Z</time>
      </trkpt>
      <trkpt lat="45.45802" lon="4.76255">
        <ele>146.703209</ele>
        <time>2021-09-14T08:15:28.000Z</time>
      </trkpt>
      <trkpt lat="45.45793" lon="4.76192">
        <ele>146.704813</ele>
        <time>2021-09-14T08:15:36.000Z</time>
      </trkpt>
      <trkpt lat="45.45792" lon="4.76185">
        <ele>146.705013</ele>
        <time>2021-09-14T08:15:37.000Z</time>
      </trkpt>
      <trkpt lat="45.45792" lon="4.76163">
        <ele>146.735641</ele>
        <time>2021-09-14T08:15:40.000Z</time>
      </trkpt>
      <trkpt lat="45.45793" lon="4.76159">
        <ele>146.743641</ele>
        <time>2021-09-14T08:15:41.000Z</time>
      </trkpt>
      <trkpt lat="45.458" lon="4.76154">
        <ele>146.761501</ele>
        <time>2021-09-14T08:15:43.000Z</time>
      </trkpt>
      <trkpt lat="45.45811" lon="4.76146">
        <ele>146.791131</ele>
        <time>2021-09-14T08:15:47.000Z</time>
      </trkpt>
      <trkpt lat="45.45817" lon="4.76161">
        <ele>146.819659</ele>
        <time>2021-09-14T08:15:51.000Z</time>
      </trkpt>
      <trkpt lat="45.45819" lon="4.76164">
        <ele>146.826233</ele>
        <time>2021-09-14T08:15:52.000Z</time>
      </trkpt>
      <trkpt lat="45.45824" lon="4.7616">
        <ele>146.839733</ele>
        <time>2021-09-14T08:15:54.000Z</time>
      </trkpt>
      <trkpt lat="45.45832" lon="4.76148">
        <ele>146.86814</ele>
        <time>2021-09-14T08:15:56.000Z</time>
      </trkpt>
      <trkpt lat="45.45845" lon="4.76129">
        <ele>146.909658</ele>
        <time>2021-09-14T08:16:00.000Z</time>
      </trkpt>
      <trkpt lat="45.4587" lon="4.76093">
        <ele>146.993295</ele>
        <time>2021-09-14T08:16:08.000Z</time>
      </trkpt>
      <trkpt lat="45.45872" lon="4.7609">
        <ele>147.000048</ele>
        <time>2021-09-14T08:16:09.000Z</time>
      </trkpt>
      <trkpt lat="45.45874" lon="4.76075">
        <ele>147.024001</ele>
        <time>2021-09-14T08:16:11.000Z</time>
      </trkpt>
      <trkpt lat="45.45866" lon="4.76058">
        <ele>147.058084</ele>
        <time>2021-09-14T08:16:15.000Z</time>
      </trkpt>
      <trkpt lat="45.45849" lon="4.76019">
        <ele>147.139593</ele>
        <time>2021-09-14T08:16:22.000Z</time>
      </trkpt>
      <trkpt lat="45.45845" lon="4.76008">
        <ele>147.182004</ele>
        <time>2021-09-14T08:16:24.000Z</time>
      </trkpt>
      <trkpt lat="45.4584" lon="4.75997">
        <ele>147.222828</ele>
        <time>2021-09-14T08:16:27.000Z</time>
      </trkpt>
      <trkpt lat="45.45837" lon="4.75988">
        <ele>147.258047</ele>
        <time>2021-09-14T08:16:28.000Z</time>
      </trkpt>
      <trkpt lat="45.45833" lon="4.75979">
        <ele>147.290603</ele>
        <time>2021-09-14T08:16:30.000Z</time>
      </trkpt>
      <trkpt lat="45.45825" lon="4.75981">
        <ele>147.330527</ele>
        <time>2021-09-14T08:16:31.000Z</time>
      </trkpt>
      <trkpt lat="45.4582" lon="4.75982">
        <ele>147.353748</ele>
        <time>2021-09-14T08:16:32.000Z</time>
      </trkpt>
      <trkpt lat="45.4581" lon="4.75983">
        <ele>147.399758</ele>
        <time>2021-09-14T08:16:34.000Z</time>
      </trkpt>
      <trkpt lat="45.45783" lon="4.75986">
        <ele>147.522031</ele>
        <time>2021-09-14T08:16:39.000Z</time>
      </trkpt>
      <trkpt lat="45.45763" lon="4.75989">
        <ele>147.619068</ele>
        <time>2021-09-14T08:16:43.000Z</time>
      </trkpt>
      <trkpt lat="45.45759" lon="4.75985">
        <ele>147.641494</ele>
        <time>2021-09-14T08:16:44.000Z</time>
      </trkpt>
      <trkpt lat="45.45754" lon="4.7598">
        <ele>147.666555</ele>
        <time>2021-09-14T08:16:45.000Z</time>
      </trkpt>
      <trkpt lat="45.45742" lon="4.75962">
        <ele>147.749335</ele>
        <time>2021-09-14T08:16:48.000Z</time>
      </trkpt>
      <trkpt lat="45.45732" lon="4.75947">
        <ele>147.815877</ele>
        <time>2021-09-14T08:16:51.000Z</time>
      </trkpt>
      <trkpt lat="45.45725" lon="4.75942">
        <ele>147.851589</ele>
        <time>2021-09-14T08:16:52.000Z</time>
      </trkpt>
      <trkpt lat="45.45721" lon="4.75943">
        <ele>147.870575</ele>
        <time>2021-09-14T08:16:53.000Z</time>
      </trkpt>
      <trkpt lat="45.45713" lon="4.75938">
        <ele>147.910871</ele>
        <time>2021-09-14T08:16:55.000Z</time>
      </trkpt>
      <trkpt lat="45.45709" lon="4.75919">
        <ele>147.957481</ele>
        <time>2021-09-14T08:16:58.000Z</time>
      </trkpt>
      <trkpt lat="45.45708" lon="4.75912">
        <ele>147.959359</ele>
        <time>2021-09-14T08:16:59.000Z</time>
      </trkpt>
      <trkpt lat="45.457" lon="4.75871">
        <ele>147.971006</ele>
        <time>2021-09-14T08:17:04.000Z</time>
      </trkpt>
      <trkpt lat="45.45694" lon="4.75839">
        <ele>147.980359</ele>
        <time>2021-09-14T08:17:08.000Z</time>
      </trkpt>
      <trkpt lat="45.45692" lon="4.7583">
        <ele>147.98277</ele>
        <time>2021-09-14T08:17:09.000Z</time>
      </trkpt>
      <trkpt lat="45.4568" lon="4.75768">
        <ele>148.000452</ele>
        <time>2021-09-14T08:17:17.000Z</time>
      </trkpt>
      <trkpt lat="45.45676" lon="4.75754">
        <ele>148.004457</ele>
        <time>2021-09-14T08:17:19.000Z</time>
      </trkpt>
      <trkpt lat="45.45668" lon="4.75734">
        <ele>148.010731</ele>
        <time>2021-09-14T08:17:22.000Z</time>
      </trkpt>
      <trkpt lat="45.45663" lon="4.75721">
        <ele>148.01498</ele>
        <time>2021-09-14T08:17:24.000Z</time>
      </trkpt>
      <trkpt lat="45.45655" lon="4.757">
        <ele>148.021369</ele>
        <time>2021-09-14T08:17:27.000Z</time>
      </trkpt>
      <trkpt lat="45.45642" lon="4.75663">
        <ele>148.034262</ele>
        <time>2021-09-14T08:17:33.000Z</time>
      </trkpt>
      <trkpt lat="45.4564" lon="4.75658">
        <ele>148.036317</ele>
        <time>2021-09-14T08:17:34.000Z</time>
      </trkpt>
      <trkpt lat="45.45632" lon="4.75636">
        <ele>148.044263</ele>
        <time>2021-09-14T08:17:38.000Z</time>
      </trkpt>
      <trkpt lat="45.45628" lon="4.75624">
        <ele>148.048771</ele>
        <time>2021-09-14T08:17:40.000Z</time>
      </trkpt>
      <trkpt lat="45.45621" lon="4.75604">
        <ele>148.056196</ele>
        <time>2021-09-14T08:17:43.000Z</time>
      </trkpt>
      <trkpt lat="45.45605" lon="4.75563">
        <ele>148.071965</ele>
        <time>2021-09-14T08:17:49.000Z</time>
      </trkpt>
      <trkpt lat="45.45586" lon="4.75525">
        <ele>148.08704</ele>
        <time>2021-09-14T08:17:55.000Z</time>
      </trkpt>
      <trkpt lat="45.45583" lon="4.7552">
        <ele>148.089544</ele>
        <time>2021-09-14T08:17:56.000Z</time>
      </trkpt>
      <trkpt lat="45.45576" lon="4.7551">
        <ele>148.094369</ele>
        <time>2021-09-14T08:17:58.000Z</time>
      </trkpt>
      <trkpt lat="45.45572" lon="4.75504">
        <ele>148.096849</ele>
        <time>2021-09-14T08:17:59.000Z</time>
      </trkpt>
      <trkpt lat="45.45551" lon="4.7548">
        <ele>148.109396</ele>
        <time>2021-09-14T08:18:04.000Z</time>
      </trkpt>
      <trkpt lat="45.45523" lon="4.75455">
        <ele>148.129737</ele>
        <time>2021-09-14T08:18:10.000Z</time>
      </trkpt>
      <trkpt lat="45.45499" lon="4.75437">
        <ele>148.147048</ele>
        <time>2021-09-14T08:18:15.000Z</time>
      </trkpt>
      <trkpt lat="45.45488" lon="4.75433">
        <ele>148.154069</ele>
        <time>2021-09-14T08:18:17.000Z</time>
      </trkpt>
      <trkpt lat="45.45444" lon="4.75422">
        <ele>148.181777</ele>
        <time>2021-09-14T08:18:25.000Z</time>
      </trkpt>
      <trkpt lat="45.45407" lon="4.75417">
        <ele>148.20532</ele>
        <time>2021-09-14T08:18:32.000Z</time>
      </trkpt>
      <trkpt lat="45.45397" lon="4.75416">
        <ele>148.211367</ele>
        <time>2021-09-14T08:18:34.000Z</time>
      </trkpt>
      <trkpt lat="45.45358" lon="4.75412">
        <ele>148.293157</ele>
        <time>2021-09-14T08:18:42.000Z</time>
      </trkpt>
      <trkpt lat="45.45325" lon="4.75411">
        <ele>148.413787</ele>
        <time>2021-09-14T08:18:48.000Z</time>
      </trkpt>
      <trkpt lat="45.45292" lon="4.75408">
        <ele>148.535356</ele>
        <time>2021-09-14T08:18:54.000Z</time>
      </trkpt>
      <trkpt lat="45.4526" lon="4.75404">
        <ele>148.651643</ele>
        <time>2021-09-14T08:19:00.000Z</time>
      </trkpt>
      <trkpt lat="45.45219" lon="4.754">
        <ele>148.801781</ele>
        <time>2021-09-14T08:19:08.000Z</time>
      </trkpt>
      <trkpt lat="45.45177" lon="4.75395">
        <ele>148.901405</ele>
        <time>2021-09-14T08:19:16.000Z</time>
      </trkpt>
      <trkpt lat="45.45135" lon="4.75391">
        <ele>148.942438</ele>
        <time>2021-09-14T08:19:24.000Z</time>
      </trkpt>
      <trkpt lat="45.45089" lon="4.75386">
        <ele>148.98845</ele>
        <time>2021-09-14T08:19:33.000Z</time>
      </trkpt>
      <trkpt lat="45.45046" lon="4.7538">
        <ele>149.029891</ele>
        <time>2021-09-14T08:19:41.000Z</time>
      </trkpt>
      <trkpt lat="45.45009" lon="4.75376">
        <ele>149.059964</ele>
        <time>2021-09-14T08:19:48.000Z</time>
      </trkpt>
      <trkpt lat="45.44971" lon="4.75373">
        <ele>149.069848</ele>
        <time>2021-09-14T08:19:55.000Z</time>
      </trkpt>
      <trkpt lat="45.44938" lon="4.75371">
        <ele>149.078485</ele>
        <time>2021-09-14T08:20:01.000Z</time>
      </trkpt>
      <trkpt lat="45.44882" lon="4.7537">
        <ele>149.093311</ele>
        <time>2021-09-14T08:20:11.000Z</time>
      </trkpt>
      <trkpt lat="45.44859" lon="4.75371">
        <ele>149.099191</ele>
        <time>2021-09-14T08:20:15.000Z</time>
      </trkpt>
      <trkpt lat="45.44848" lon="4.75371">
        <ele>149.102183</ele>
        <time>2021-09-14T08:20:17.000Z</time>
      </trkpt>
      <trkpt lat="45.44803" lon="4.75378">
        <ele>149.071331</ele>
        <time>2021-09-14T08:20:25.000Z</time>
      </trkpt>
      <trkpt lat="45.44763" lon="4.75387">
        <ele>149.034335</ele>
        <time>2021-09-14T08:20:32.000Z</time>
      </trkpt>
      <trkpt lat="45.44712" lon="4.75403">
        <ele>148.986093</ele>
        <time>2021-09-14T08:20:41.000Z</time>
      </trkpt>
      <trkpt lat="45.44662" lon="4.75423">
        <ele>148.938485</ele>
        <time>2021-09-14T08:20:50.000Z</time>
      </trkpt>
      <trkpt lat="45.44606" lon="4.75446">
        <ele>148.950242</ele>
        <time>2021-09-14T08:21:00.000Z</time>
      </trkpt>
      <trkpt lat="45.44561" lon="4.75464">
        <ele>148.959636</ele>
        <time>2021-09-14T08:21:08.000Z</time>
      </trkpt>
      <trkpt lat="45.44517" lon="4.75482">
        <ele>148.968698</ele>
        <time>2021-09-14T08:21:16.000Z</time>
      </trkpt>
      <trkpt lat="45.44473" lon="4.75494">
        <ele>148.903248</ele>
        <time>2021-09-14T08:21:24.000Z</time>
      </trkpt>
      <trkpt lat="45.44433" lon="4.75492">
        <ele>148.723663</ele>
        <time>2021-09-14T08:21:31.000Z</time>
      </trkpt>
      <trkpt lat="45.44428" lon="4.75491">
        <ele>148.699203</ele>
        <time>2021-09-14T08:21:32.000Z</time>
      </trkpt>
      <trkpt lat="45.44399" lon="4.75498">
        <ele>148.572858</ele>
        <time>2021-09-14T08:21:37.000Z</time>
      </trkpt>
      <trkpt lat="45.44388" lon="4.755">
        <ele>148.522843</ele>
        <time>2021-09-14T08:21:39.000Z</time>
      </trkpt>
      <trkpt lat="45.44378" lon="4.75507">
        <ele>148.471759</ele>
        <time>2021-09-14T08:21:41.000Z</time>
      </trkpt>
      <trkpt lat="45.44373" lon="4.75511">
        <ele>148.445513</ele>
        <time>2021-09-14T08:21:42.000Z</time>
      </trkpt>
      <trkpt lat="45.44342" lon="4.75535">
        <ele>148.290977</ele>
        <time>2021-09-14T08:21:48.000Z</time>
      </trkpt>
      <trkpt lat="45.44305" lon="4.75555">
        <ele>148.14813</ele>
        <time>2021-09-14T08:21:55.000Z</time>
      </trkpt>
      <trkpt lat="45.44267" lon="4.7557">
        <ele>148.065479</ele>
        <time>2021-09-14T08:22:02.000Z</time>
      </trkpt>
      <trkpt lat="45.44261" lon="4.75569">
        <ele>148.05427</ele>
        <time>2021-09-14T08:22:03.000Z</time>
      </trkpt>
      <trkpt lat="45.44256" lon="4.75567">
        <ele>148.042861</ele>
        <time>2021-09-14T08:22:04.000Z</time>
      </trkpt>
      <trkpt lat="45.44234" lon="4.75559">
        <ele>147.995893</ele>
        <time>2021-09-14T08:22:08.000Z</time>
      </trkpt>
      <trkpt lat="45.44204" lon="4.75535">
        <ele>147.925816</ele>
        <time>2021-09-14T08:22:14.000Z</time>
      </trkpt>
      <trkpt lat="45.44199" lon="4.75532">
        <ele>147.914623</ele>
        <time>2021-09-14T08:22:15.000Z</time>
      </trkpt>
      <trkpt lat="45.44181" lon="4.75528">
        <ele>147.878027</ele>
        <time>2021-09-14T08:22:18.000Z</time>
      </trkpt>
      <trkpt lat="45.44175" lon="4.75528">
        <ele>147.866332</ele>
        <time>2021-09-14T08:22:19.000Z</time>
      </trkpt>
      <trkpt lat="45.44153" lon="4.75531">
        <ele>147.81998</ele>
        <time>2021-09-14T08:22:23.000Z</time>
      </trkpt>
      <trkpt lat="45.44142" lon="4.75537">
        <ele>147.817123</ele>
        <time>2021-09-14T08:22:25.000Z</time>
      </trkpt>
      <trkpt lat="45.44137" lon="4.75541">
        <ele>147.829272</ele>
        <time>2021-09-14T08:22:26.000Z</time>
      </trkpt>
      <trkpt lat="45.44129" lon="4.75551">
        <ele>147.85156</ele>
        <time>2021-09-14T08:22:28.000Z</time>
      </trkpt>
      <trkpt lat="45.44126" lon="4.75558">
        <ele>147.863849</ele>
        <time>2021-09-14T08:22:29.000Z</time>
      </trkpt>
      <trkpt lat="45.44116" lon="4.75578">
        <ele>147.90012</ele>
        <time>2021-09-14T08:22:32.000Z</time>
      </trkpt>
      <trkpt lat="45.44109" lon="4.75592">
        <ele>147.924341</ele>
        <time>2021-09-14T08:22:34.000Z</time>
      </trkpt>
      <trkpt lat="45.44102" lon="4.75605">
        <ele>147.948084</ele>
        <time>2021-09-14T08:22:36.000Z</time>
      </trkpt>
      <trkpt lat="45.44094" lon="4.75615">
        <ele>147.971073</ele>
        <time>2021-09-14T08:22:38.000Z</time>
      </trkpt>
      <trkpt lat="45.44081" lon="4.7563">
        <ele>148.004461</ele>
        <time>2021-09-14T08:22:41.000Z</time>
      </trkpt>
      <trkpt lat="45.44072" lon="4.7564">
        <ele>148.028277</ele>
        <time>2021-09-14T08:22:43.000Z</time>
      </trkpt>
      <trkpt lat="45.44064" lon="4.7565">
        <ele>148.052001</ele>
        <time>2021-09-14T08:22:45.000Z</time>
      </trkpt>
      <trkpt lat="45.44055" lon="4.75658">
        <ele>148.07272</ele>
        <time>2021-09-14T08:22:47.000Z</time>
      </trkpt>
      <trkpt lat="45.44033" lon="4.75668">
        <ele>148.120372</ele>
        <time>2021-09-14T08:22:51.000Z</time>
      </trkpt>
      <trkpt lat="45.44028" lon="4.75671">
        <ele>148.132455</ele>
        <time>2021-09-14T08:22:52.000Z</time>
      </trkpt>
      <trkpt lat="45.44017" lon="4.75676">
        <ele>148.156136</ele>
        <time>2021-09-14T08:22:54.000Z</time>
      </trkpt>
      <trkpt lat="45.44006" lon="4.75678">
        <ele>148.179996</ele>
        <time>2021-09-14T08:22:56.000Z</time>
      </trkpt>
      <trkpt lat="45.44" lon="4.75677">
        <ele>148.187529</ele>
        <time>2021-09-14T08:22:57.000Z</time>
      </trkpt>
      <trkpt lat="45.43966" lon="4.7567">
        <ele>148.229989</ele>
        <time>2021-09-14T08:23:03.000Z</time>
      </trkpt>
      <trkpt lat="45.4396" lon="4.75669">
        <ele>148.237275</ele>
        <time>2021-09-14T08:23:04.000Z</time>
      </trkpt>
      <trkpt lat="45.43943" lon="4.75664">
        <ele>148.258349</ele>
        <time>2021-09-14T08:23:07.000Z</time>
      </trkpt>
      <trkpt lat="45.43927" lon="4.75656">
        <ele>148.27978</ele>
        <time>2021-09-14T08:23:10.000Z</time>
      </trkpt>
      <trkpt lat="45.439" lon="4.75642">
        <ele>148.315382</ele>
        <time>2021-09-14T08:23:15.000Z</time>
      </trkpt>
      <trkpt lat="45.43889" lon="4.75639">
        <ele>148.329957</ele>
        <time>2021-09-14T08:23:17.000Z</time>
      </trkpt>
      <trkpt lat="45.43861" lon="4.7564">
        <ele>148.363923</ele>
        <time>2021-09-14T08:23:22.000Z</time>
      </trkpt>
      <trkpt lat="45.43845" lon="4.75641">
        <ele>148.384702</ele>
        <time>2021-09-14T08:23:25.000Z</time>
      </trkpt>
      <trkpt lat="45.43833" lon="4.75642">
        <ele>148.399011</ele>
        <time>2021-09-14T08:23:27.000Z</time>
      </trkpt>
      <trkpt lat="45.43799" lon="4.75654">
        <ele>148.075024</ele>
        <time>2021-09-14T08:23:33.000Z</time>
      </trkpt>
      <trkpt lat="45.43783" lon="4.75662">
        <ele>147.893684</ele>
        <time>2021-09-14T08:23:36.000Z</time>
      </trkpt>
      <trkpt lat="45.43778" lon="4.75665">
        <ele>147.83523</ele>
        <time>2021-09-14T08:23:37.000Z</time>
      </trkpt>
      <trkpt lat="45.43756" lon="4.75677">
        <ele>147.589969</ele>
        <time>2021-09-14T08:23:41.000Z</time>
      </trkpt>
      <trkpt lat="45.43751" lon="4.75681">
        <ele>147.530479</ele>
        <time>2021-09-14T08:23:42.000Z</time>
      </trkpt>
      <trkpt lat="45.43735" lon="4.75702">
        <ele>147.297615</ele>
        <time>2021-09-14T08:23:46.000Z</time>
      </trkpt>
      <trkpt lat="45.43731" lon="4.75707">
        <ele>147.240431</ele>
        <time>2021-09-14T08:23:47.000Z</time>
      </trkpt>
      <trkpt lat="45.43716" lon="4.75731">
        <ele>147.003635</ele>
        <time>2021-09-14T08:23:51.000Z</time>
      </trkpt>
      <trkpt lat="45.4371" lon="4.75737">
        <ele>146.926184</ele>
        <time>2021-09-14T08:23:52.000Z</time>
      </trkpt>
      <trkpt lat="45.43679" lon="4.75752">
        <ele>146.575963</ele>
        <time>2021-09-14T08:23:58.000Z</time>
      </trkpt>
      <trkpt lat="45.43673" lon="4.75753">
        <ele>146.515391</ele>
        <time>2021-09-14T08:23:59.000Z</time>
      </trkpt>
      <trkpt lat="45.43636" lon="4.75754">
        <ele>146.292621</ele>
        <time>2021-09-14T08:24:06.000Z</time>
      </trkpt>
      <trkpt lat="45.43601" lon="4.75754">
        <ele>146.083093</ele>
        <time>2021-09-14T08:24:13.000Z</time>
      </trkpt>
      <trkpt lat="45.4357" lon="4.75748">
        <ele>145.901509</ele>
        <time>2021-09-14T08:24:19.000Z</time>
      </trkpt>
      <trkpt lat="45.43528" lon="4.75737">
        <ele>145.650233</ele>
        <time>2021-09-14T08:24:27.000Z</time>
      </trkpt>
      <trkpt lat="45.43481" lon="4.75721">
        <ele>145.513556</ele>
        <time>2021-09-14T08:24:36.000Z</time>
      </trkpt>
      <trkpt lat="45.43451" lon="4.75703">
        <ele>145.686042</ele>
        <time>2021-09-14T08:24:42.000Z</time>
      </trkpt>
      <trkpt lat="45.43446" lon="4.75699">
        <ele>145.714571</ele>
        <time>2021-09-14T08:24:43.000Z</time>
      </trkpt>
      <trkpt lat="45.43429" lon="4.7568">
        <ele>145.831281</ele>
        <time>2021-09-14T08:24:47.000Z</time>
      </trkpt>
      <trkpt lat="45.43407" lon="4.75647">
        <ele>146.000586</ele>
        <time>2021-09-14T08:24:53.000Z</time>
      </trkpt>
      <trkpt lat="45.4339" lon="4.75626">
        <ele>146.118213</ele>
        <time>2021-09-14T08:24:57.000Z</time>
      </trkpt>
      <trkpt lat="45.4338" lon="4.75618">
        <ele>146.181525</ele>
        <time>2021-09-14T08:24:59.000Z</time>
      </trkpt>
      <trkpt lat="45.43342" lon="4.75592">
        <ele>146.409805</ele>
        <time>2021-09-14T08:25:06.000Z</time>
      </trkpt>
      <trkpt lat="45.4331" lon="4.7557">
        <ele>146.721297</ele>
        <time>2021-09-14T08:25:12.000Z</time>
      </trkpt>
      <trkpt lat="45.43273" lon="4.75545">
        <ele>147.078457</ele>
        <time>2021-09-14T08:25:19.000Z</time>
      </trkpt>
      <trkpt lat="45.43247" lon="4.75527">
        <ele>147.335573</ele>
        <time>2021-09-14T08:25:24.000Z</time>
      </trkpt>
      <trkpt lat="45.43232" lon="4.75516">
        <ele>147.483399</ele>
        <time>2021-09-14T08:25:27.000Z</time>
      </trkpt>
      <trkpt lat="45.43226" lon="4.75511">
        <ele>147.537717</ele>
        <time>2021-09-14T08:25:28.000Z</time>
      </trkpt>
      <trkpt lat="45.43213" lon="4.75497">
        <ele>147.682347</ele>
        <time>2021-09-14T08:25:31.000Z</time>
      </trkpt>
      <trkpt lat="45.43209" lon="4.75492">
        <ele>147.732699</ele>
        <time>2021-09-14T08:25:32.000Z</time>
      </trkpt>
      <trkpt lat="45.43194" lon="4.75477">
        <ele>147.888738</ele>
        <time>2021-09-14T08:25:35.000Z</time>
      </trkpt>
      <trkpt lat="45.43185" lon="4.75467">
        <ele>147.987123</ele>
        <time>2021-09-14T08:25:37.000Z</time>
      </trkpt>
      <trkpt lat="45.43151" lon="4.75431">
        <ele>148.264591</ele>
        <time>2021-09-14T08:25:44.000Z</time>
      </trkpt>
      <trkpt lat="45.43121" lon="4.75396">
        <ele>148.524332</ele>
        <time>2021-09-14T08:25:51.000Z</time>
      </trkpt>
      <trkpt lat="45.43114" lon="4.75383">
        <ele>148.599837</ele>
        <time>2021-09-14T08:25:53.000Z</time>
      </trkpt>
      <trkpt lat="45.43087" lon="4.75332">
        <ele>148.893081</ele>
        <time>2021-09-14T08:26:01.000Z</time>
      </trkpt>
      <trkpt lat="45.43084" lon="4.75326">
        <ele>148.930265</ele>
        <time>2021-09-14T08:26:02.000Z</time>
      </trkpt>
      <trkpt lat="45.43067" lon="4.75294">
        <ele>149.114682</ele>
        <time>2021-09-14T08:26:07.000Z</time>
      </trkpt>
      <trkpt lat="45.43044" lon="4.75256">
        <ele>149.34278</ele>
        <time>2021-09-14T08:26:14.000Z</time>
      </trkpt>
      <trkpt lat="45.43041" lon="4.75251">
        <ele>149.371779</ele>
        <time>2021-09-14T08:26:15.000Z</time>
      </trkpt>
      <trkpt lat="45.4303" lon="4.75233">
        <ele>149.481326</ele>
        <time>2021-09-14T08:26:19.000Z</time>
      </trkpt>
      <trkpt lat="45.43027" lon="4.75229">
        <ele>149.508036</ele>
        <time>2021-09-14T08:26:20.000Z</time>
      </trkpt>
      <trkpt lat="45.43018" lon="4.75214">
        <ele>149.594945</ele>
        <time>2021-09-14T08:26:23.000Z</time>
      </trkpt>
      <trkpt lat="45.43004" lon="4.75192">
        <ele>149.728317</ele>
        <time>2021-09-14T08:26:27.000Z</time>
      </trkpt>
      <trkpt lat="45.42998" lon="4.75181">
        <ele>149.792164</ele>
        <time>2021-09-14T08:26:29.000Z</time>
      </trkpt>
      <trkpt lat="45.42982" lon="4.75155">
        <ele>149.94631</ele>
        <time>2021-09-14T08:26:34.000Z</time>
      </trkpt>
      <trkpt lat="45.42979" lon="4.7515">
        <ele>149.977853</ele>
        <time>2021-09-14T08:26:35.000Z</time>
      </trkpt>
      <trkpt lat="45.42967" lon="4.75135">
        <ele>150.077753</ele>
        <time>2021-09-14T08:26:38.000Z</time>
      </trkpt>
      <trkpt lat="45.4296" lon="4.75126">
        <ele>150.139516</ele>
        <time>2021-09-14T08:26:40.000Z</time>
      </trkpt>
      <trkpt lat="45.42932" lon="4.75091">
        <ele>150.359758</ele>
        <time>2021-09-14T08:26:47.000Z</time>
      </trkpt>
      <trkpt lat="45.42896" lon="4.75047">
        <ele>150.562443</ele>
        <time>2021-09-14T08:26:55.000Z</time>
      </trkpt>
      <trkpt lat="45.42873" lon="4.7502">
        <ele>150.689447</ele>
        <time>2021-09-14T08:27:00.000Z</time>
      </trkpt>
      <trkpt lat="45.42864" lon="4.75008">
        <ele>150.741812</ele>
        <time>2021-09-14T08:27:02.000Z</time>
      </trkpt>
      <trkpt lat="45.42828" lon="4.74965">
        <ele>150.944173</ele>
        <time>2021-09-14T08:27:10.000Z</time>
      </trkpt>
      <trkpt lat="45.42793" lon="4.74921">
        <ele>151.099949</ele>
        <time>2021-09-14T08:27:18.000Z</time>
      </trkpt>
      <trkpt lat="45.42766" lon="4.74888">
        <ele>151.132011</ele>
        <time>2021-09-14T08:27:24.000Z</time>
      </trkpt>
      <trkpt lat="45.42721" lon="4.74833">
        <ele>151.186113</ele>
        <time>2021-09-14T08:27:34.000Z</time>
      </trkpt>
      <trkpt lat="45.42689" lon="4.74795">
        <ele>151.223637</ele>
        <time>2021-09-14T08:27:41.000Z</time>
      </trkpt>
      <trkpt lat="45.4265" lon="4.74748">
        <ele>151.214723</ele>
        <time>2021-09-14T08:27:50.000Z</time>
      </trkpt>
      <trkpt lat="45.4261" lon="4.747">
        <ele>151.122873</ele>
        <time>2021-09-14T08:27:59.000Z</time>
      </trkpt>
      <trkpt lat="45.42571" lon="4.74652">
        <ele>151.033161</ele>
        <time>2021-09-14T08:28:08.000Z</time>
      </trkpt>
      <trkpt lat="45.42562" lon="4.74642">
        <ele>151.012562</ele>
        <time>2021-09-14T08:28:10.000Z</time>
      </trkpt>
      <trkpt lat="45.42553" lon="4.74631">
        <ele>150.992524</ele>
        <time>2021-09-14T08:28:12.000Z</time>
      </trkpt>
      <trkpt lat="45.42549" lon="4.74626">
        <ele>150.982399</ele>
        <time>2021-09-14T08:28:13.000Z</time>
      </trkpt>
      <trkpt lat="45.42526" lon="4.74598">
        <ele>150.929631</ele>
        <time>2021-09-14T08:28:18.000Z</time>
      </trkpt>
      <trkpt lat="45.425" lon="4.74566">
        <ele>150.861998</ele>
        <time>2021-09-14T08:28:24.000Z</time>
      </trkpt>
      <trkpt lat="45.42491" lon="4.74555">
        <ele>150.838654</ele>
        <time>2021-09-14T08:28:26.000Z</time>
      </trkpt>
      <trkpt lat="45.42459" lon="4.74517">
        <ele>150.757867</ele>
        <time>2021-09-14T08:28:33.000Z</time>
      </trkpt>
      <trkpt lat="45.42419" lon="4.74468">
        <ele>150.65501</ele>
        <time>2021-09-14T08:28:42.000Z</time>
      </trkpt>
      <trkpt lat="45.42375" lon="4.74414">
        <ele>150.548157</ele>
        <time>2021-09-14T08:28:52.000Z</time>
      </trkpt>
      <trkpt lat="45.42371" lon="4.74408">
        <ele>150.538608</ele>
        <time>2021-09-14T08:28:53.000Z</time>
      </trkpt>
      <trkpt lat="45.42349" lon="4.74382">
        <ele>150.491412</ele>
        <time>2021-09-14T08:28:58.000Z</time>
      </trkpt>
      <trkpt lat="45.42314" lon="4.7434">
        <ele>150.416919</ele>
        <time>2021-09-14T08:29:06.000Z</time>
      </trkpt>
      <trkpt lat="45.42281" lon="4.743">
        <ele>150.345525</ele>
        <time>2021-09-14T08:29:14.000Z</time>
      </trkpt>
      <trkpt lat="45.42246" lon="4.74261">
        <ele>150.294936</ele>
        <time>2021-09-14T08:29:22.000Z</time>
      </trkpt>
      <trkpt lat="45.42213" lon="4.74234">
        <ele>150.315391</ele>
        <time>2021-09-14T08:29:29.000Z</time>
      </trkpt>
      <trkpt lat="45.42185" lon="4.74211">
        <ele>150.332541</ele>
        <time>2021-09-14T08:29:35.000Z</time>
      </trkpt>
      <trkpt lat="45.42168" lon="4.74198">
        <ele>150.343035</ele>
        <time>2021-09-14T08:29:39.000Z</time>
      </trkpt>
      <trkpt lat="45.4216" lon="4.74191">
        <ele>150.348356</ele>
        <time>2021-09-14T08:29:41.000Z</time>
      </trkpt>
      <trkpt lat="45.42123" lon="4.74164">
        <ele>150.370285</ele>
        <time>2021-09-14T08:29:49.000Z</time>
      </trkpt>
      <trkpt lat="45.42091" lon="4.74147">
        <ele>150.373458</ele>
        <time>2021-09-14T08:29:57.000Z</time>
      </trkpt>
      <trkpt lat="45.42063" lon="4.74131">
        <ele>150.303654</ele>
        <time>2021-09-14T08:30:03.000Z</time>
      </trkpt>
      <trkpt lat="45.42059" lon="4.74129">
        <ele>150.291994</ele>
        <time>2021-09-14T08:30:04.000Z</time>
      </trkpt>
      <trkpt lat="45.42016" lon="4.74109">
        <ele>150.186667</ele>
        <time>2021-09-14T08:30:12.000Z</time>
      </trkpt>
      <trkpt lat="45.41979" lon="4.74091">
        <ele>150.094988</ele>
        <time>2021-09-14T08:30:19.000Z</time>
      </trkpt>
      <trkpt lat="45.41943" lon="4.74076">
        <ele>150.006672</ele>
        <time>2021-09-14T08:30:26.000Z</time>
      </trkpt>
      <trkpt lat="45.41899" lon="4.74061">
        <ele>149.909284</ele>
        <time>2021-09-14T08:30:34.000Z</time>
      </trkpt>
      <trkpt lat="45.4185" lon="4.74045">
        <ele>149.809562</ele>
        <time>2021-09-14T08:30:43.000Z</time>
      </trkpt>
      <trkpt lat="45.41807" lon="4.74036">
        <ele>149.72278</ele>
        <time>2021-09-14T08:30:51.000Z</time>
      </trkpt>
      <trkpt lat="45.41765" lon="4.74028">
        <ele>149.63943</ele>
        <time>2021-09-14T08:30:59.000Z</time>
      </trkpt>
      <trkpt lat="45.41724" lon="4.7402">
        <ele>149.511564</ele>
        <time>2021-09-14T08:31:08.000Z</time>
      </trkpt>
      <trkpt lat="45.41679" lon="4.74015">
        <ele>149.339688</ele>
        <time>2021-09-14T08:31:15.000Z</time>
      </trkpt>
      <trkpt lat="45.41635" lon="4.74009">
        <ele>149.175127</ele>
        <time>2021-09-14T08:31:23.000Z</time>
      </trkpt>
      <trkpt lat="45.41619" lon="4.74007">
        <ele>149.112576</ele>
        <time>2021-09-14T08:31:26.000Z</time>
      </trkpt>
      <trkpt lat="45.41608" lon="4.74008">
        <ele>149.071183</ele>
        <time>2021-09-14T08:31:28.000Z</time>
      </trkpt>
      <trkpt lat="45.41597" lon="4.74008">
        <ele>149.030532</ele>
        <time>2021-09-14T08:31:30.000Z</time>
      </trkpt>
      <trkpt lat="45.41575" lon="4.7401">
        <ele>148.946218</ele>
        <time>2021-09-14T08:31:34.000Z</time>
      </trkpt>
      <trkpt lat="45.4152" lon="4.74014">
        <ele>148.811441</ele>
        <time>2021-09-14T08:31:44.000Z</time>
      </trkpt>
      <trkpt lat="45.41515" lon="4.74015">
        <ele>148.798845</ele>
        <time>2021-09-14T08:31:45.000Z</time>
      </trkpt>
      <trkpt lat="45.41493" lon="4.74015">
        <ele>148.749896</ele>
        <time>2021-09-14T08:31:49.000Z</time>
      </trkpt>
      <trkpt lat="45.41484" lon="4.74011">
        <ele>148.727457</ele>
        <time>2021-09-14T08:31:51.000Z</time>
      </trkpt>
      <trkpt lat="45.41478" lon="4.74">
        <ele>148.704517</ele>
        <time>2021-09-14T08:31:53.000Z</time>
      </trkpt>
      <trkpt lat="45.41475" lon="4.73992">
        <ele>148.692056</ele>
        <time>2021-09-14T08:31:54.000Z</time>
      </trkpt>
      <trkpt lat="45.41475" lon="4.73985">
        <ele>148.67966</ele>
        <time>2021-09-14T08:31:55.000Z</time>
      </trkpt>
      <trkpt lat="45.41474" lon="4.73962">
        <ele>148.643072</ele>
        <time>2021-09-14T08:31:58.000Z</time>
      </trkpt>
      <trkpt lat="45.41472" lon="4.7394">
        <ele>148.606984</ele>
        <time>2021-09-14T08:32:01.000Z</time>
      </trkpt>
      <trkpt lat="45.41471" lon="4.73924">
        <ele>148.582332</ele>
        <time>2021-09-14T08:32:03.000Z</time>
      </trkpt>
      <trkpt lat="45.41466" lon="4.73878">
        <ele>148.510374</ele>
        <time>2021-09-14T08:32:09.000Z</time>
      </trkpt>
      <trkpt lat="45.41456" lon="4.73826">
        <ele>148.47889</ele>
        <time>2021-09-14T08:32:16.000Z</time>
      </trkpt>
      <trkpt lat="45.41443" lon="4.73768">
        <ele>148.442985</ele>
        <time>2021-09-14T08:32:24.000Z</time>
      </trkpt>
      <trkpt lat="45.41438" lon="4.73754">
        <ele>148.433755</ele>
        <time>2021-09-14T08:32:26.000Z</time>
      </trkpt>
      <trkpt lat="45.41429" lon="4.73748">
        <ele>148.425514</ele>
        <time>2021-09-14T08:32:28.000Z</time>
      </trkpt>
      <trkpt lat="45.41416" lon="4.73749">
        <ele>148.414496</ele>
        <time>2021-09-14T08:32:31.000Z</time>
      </trkpt>
      <trkpt lat="45.41411" lon="4.73749">
        <ele>148.41049</ele>
        <time>2021-09-14T08:32:32.000Z</time>
      </trkpt>
      <trkpt lat="45.41407" lon="4.73749">
        <ele>148.406641</ele>
        <time>2021-09-14T08:32:33.000Z</time>
      </trkpt>
      <trkpt lat="45.41402" lon="4.73762">
        <ele>148.398557</ele>
        <time>2021-09-14T08:32:35.000Z</time>
      </trkpt>
      <trkpt lat="45.41406" lon="4.73785">
        <ele>148.384642</ele>
        <time>2021-09-14T08:32:38.000Z</time>
      </trkpt>
      <trkpt lat="45.41416" lon="4.7385">
        <ele>148.346542</ele>
        <time>2021-09-14T08:32:47.000Z</time>
      </trkpt>
      <trkpt lat="45.41421" lon="4.73917">
        <ele>148.309412</ele>
        <time>2021-09-14T08:32:54.000Z</time>
      </trkpt>
      <trkpt lat="45.41419" lon="4.73972">
        <ele>148.278919</ele>
        <time>2021-09-14T08:33:01.000Z</time>
      </trkpt>
      <trkpt lat="45.41417" lon="4.73979">
        <ele>148.274635</ele>
        <time>2021-09-14T08:33:02.000Z</time>
      </trkpt>
      <trkpt lat="45.41412" lon="4.74002">
        <ele>148.260954</ele>
        <time>2021-09-14T08:33:05.000Z</time>
      </trkpt>
      <trkpt lat="45.41408" lon="4.74018">
        <ele>148.252156</ele>
        <time>2021-09-14T08:33:07.000Z</time>
      </trkpt>
      <trkpt lat="45.41397" lon="4.74027">
        <ele>148.241968</ele>
        <time>2021-09-14T08:33:09.000Z</time>
      </trkpt>
      <trkpt lat="45.4137" lon="4.74035">
        <ele>148.216868</ele>
        <time>2021-09-14T08:33:14.000Z</time>
      </trkpt>
      <trkpt lat="45.41326" lon="4.74044">
        <ele>148.049917</ele>
        <time>2021-09-14T08:33:22.000Z</time>
      </trkpt>
      <trkpt lat="45.41282" lon="4.74051">
        <ele>147.881606</ele>
        <time>2021-09-14T08:33:30.000Z</time>
      </trkpt>
      <trkpt lat="45.41245" lon="4.74056">
        <ele>147.740695</ele>
        <time>2021-09-14T08:33:37.000Z</time>
      </trkpt>
      <trkpt lat="45.41239" lon="4.74057">
        <ele>147.719725</ele>
        <time>2021-09-14T08:33:38.000Z</time>
      </trkpt>
      <trkpt lat="45.41229" lon="4.74052">
        <ele>147.677966</ele>
        <time>2021-09-14T08:33:40.000Z</time>
      </trkpt>
      <trkpt lat="45.41223" lon="4.74035">
        <ele>147.629543</ele>
        <time>2021-09-14T08:33:42.000Z</time>
      </trkpt>
      <trkpt lat="45.41223" lon="4.74026">
        <ele>147.604937</ele>
        <time>2021-09-14T08:33:43.000Z</time>
      </trkpt>
      <trkpt lat="45.4122" lon="4.74005">
        <ele>147.548684</ele>
        <time>2021-09-14T08:33:45.000Z</time>
      </trkpt>
      <trkpt lat="45.41211" lon="4.73993">
        <ele>147.448948</ele>
        <time>2021-09-14T08:33:47.000Z</time>
      </trkpt>
      <trkpt lat="45.41195" lon="4.73995">
        <ele>147.320743</ele>
        <time>2021-09-14T08:33:49.000Z</time>
      </trkpt>
      <trkpt lat="45.41149" lon="4.74007">
        <ele>146.919206</ele>
        <time>2021-09-14T08:33:56.000Z</time>
      </trkpt>
      <trkpt lat="45.41107" lon="4.74015">
        <ele>146.560143</ele>
        <time>2021-09-14T08:34:03.000Z</time>
      </trkpt>
      <trkpt lat="45.41062" lon="4.74023">
        <ele>146.179549</ele>
        <time>2021-09-14T08:34:11.000Z</time>
      </trkpt>
      <trkpt lat="45.41014" lon="4.74041">
        <ele>145.909674</ele>
        <time>2021-09-14T08:34:20.000Z</time>
      </trkpt>
      <trkpt lat="45.40973" lon="4.74057">
        <ele>145.751329</ele>
        <time>2021-09-14T08:34:28.000Z</time>
      </trkpt>
      <trkpt lat="45.40927" lon="4.74083">
        <ele>145.572451</ele>
        <time>2021-09-14T08:34:37.000Z</time>
      </trkpt>
      <trkpt lat="45.40888" lon="4.74105">
        <ele>145.419662</ele>
        <time>2021-09-14T08:34:45.000Z</time>
      </trkpt>
      <trkpt lat="45.4085" lon="4.74131">
        <ele>145.359663</ele>
        <time>2021-09-14T08:34:53.000Z</time>
      </trkpt>
      <trkpt lat="45.40826" lon="4.74146">
        <ele>145.357041</ele>
        <time>2021-09-14T08:34:58.000Z</time>
      </trkpt>
      <trkpt lat="45.40816" lon="4.74153">
        <ele>145.355987</ele>
        <time>2021-09-14T08:35:00.000Z</time>
      </trkpt>
      <trkpt lat="45.40793" lon="4.74168">
        <ele>145.35346</ele>
        <time>2021-09-14T08:35:04.000Z</time>
      </trkpt>
      <trkpt lat="45.40774" lon="4.74181">
        <ele>145.351309</ele>
        <time>2021-09-14T08:35:08.000Z</time>
      </trkpt>
      <trkpt lat="45.4077" lon="4.74184">
        <ele>145.350856</ele>
        <time>2021-09-14T08:35:09.000Z</time>
      </trkpt>
      <trkpt lat="45.40743" lon="4.74201">
        <ele>145.34795</ele>
        <time>2021-09-14T08:35:15.000Z</time>
      </trkpt>
      <trkpt lat="45.40701" lon="4.7423">
        <ele>145.321497</ele>
        <time>2021-09-14T08:35:24.000Z</time>
      </trkpt>
      <trkpt lat="45.40682" lon="4.74242">
        <ele>145.279762</ele>
        <time>2021-09-14T08:35:28.000Z</time>
      </trkpt>
      <trkpt lat="45.40667" lon="4.74252">
        <ele>145.247066</ele>
        <time>2021-09-14T08:35:31.000Z</time>
      </trkpt>
      <trkpt lat="45.40633" lon="4.74275">
        <ele>145.170149</ele>
        <time>2021-09-14T08:35:38.000Z</time>
      </trkpt>
      <trkpt lat="45.40599" lon="4.74298">
        <ele>145.094566</ele>
        <time>2021-09-14T08:35:45.000Z</time>
      </trkpt>
      <trkpt lat="45.40545" lon="4.74333">
        <ele>144.980672</ele>
        <time>2021-09-14T08:35:56.000Z</time>
      </trkpt>
      <trkpt lat="45.4051" lon="4.74357">
        <ele>144.965516</ele>
        <time>2021-09-14T08:36:03.000Z</time>
      </trkpt>
      <trkpt lat="45.40481" lon="4.74384">
        <ele>144.952161</ele>
        <time>2021-09-14T08:36:09.000Z</time>
      </trkpt>
      <trkpt lat="45.40441" lon="4.74425">
        <ele>144.932917</ele>
        <time>2021-09-14T08:36:18.000Z</time>
      </trkpt>
      <trkpt lat="45.40437" lon="4.7443">
        <ele>144.930803</ele>
        <time>2021-09-14T08:36:19.000Z</time>
      </trkpt>
      <trkpt lat="45.40397" lon="4.74471">
        <ele>144.911312</ele>
        <time>2021-09-14T08:36:28.000Z</time>
      </trkpt>
      <trkpt lat="45.40363" lon="4.74506">
        <ele>144.86432</ele>
        <time>2021-09-14T08:36:36.000Z</time>
      </trkpt>
      <trkpt lat="45.40337" lon="4.74533">
        <ele>144.82875</ele>
        <time>2021-09-14T08:36:42.000Z</time>
      </trkpt>
      <trkpt lat="45.40304" lon="4.74566">
        <ele>144.784231</ele>
        <time>2021-09-14T08:36:50.000Z</time>
      </trkpt>
      <trkpt lat="45.40262" lon="4.74606">
        <ele>144.728485</ele>
        <time>2021-09-14T08:37:00.000Z</time>
      </trkpt>
      <trkpt lat="45.40214" lon="4.74651">
        <ele>144.655459</ele>
        <time>2021-09-14T08:37:11.000Z</time>
      </trkpt>
      <trkpt lat="45.40169" lon="4.74693">
        <ele>144.584767</ele>
        <time>2021-09-14T08:37:21.000Z</time>
      </trkpt>
      <trkpt lat="45.4012" lon="4.74739">
        <ele>144.506844</ele>
        <time>2021-09-14T08:37:32.000Z</time>
      </trkpt>
      <trkpt lat="45.40116" lon="4.74744">
        <ele>144.499674</ele>
        <time>2021-09-14T08:37:33.000Z</time>
      </trkpt>
      <trkpt lat="45.40107" lon="4.74753">
        <ele>144.485338</ele>
        <time>2021-09-14T08:37:35.000Z</time>
      </trkpt>
      <trkpt lat="45.40099" lon="4.74763">
        <ele>144.490205</ele>
        <time>2021-09-14T08:37:37.000Z</time>
      </trkpt>
      <trkpt lat="45.40097" lon="4.74771">
        <ele>144.51945</ele>
        <time>2021-09-14T08:37:38.000Z</time>
      </trkpt>
      <trkpt lat="45.40097" lon="4.74778">
        <ele>144.542838</ele>
        <time>2021-09-14T08:37:39.000Z</time>
      </trkpt>
      <trkpt lat="45.40101" lon="4.74791">
        <ele>144.589709</ele>
        <time>2021-09-14T08:37:41.000Z</time>
      </trkpt>
      <trkpt lat="45.40105" lon="4.74802">
        <ele>144.631884</ele>
        <time>2021-09-14T08:37:43.000Z</time>
      </trkpt>
      <trkpt lat="45.40108" lon="4.74813">
        <ele>144.668927</ele>
        <time>2021-09-14T08:37:45.000Z</time>
      </trkpt>
      <trkpt lat="45.40107" lon="4.74819">
        <ele>144.686692</ele>
        <time>2021-09-14T08:37:46.000Z</time>
      </trkpt>
      <trkpt lat="45.40106" lon="4.74824">
        <ele>144.704133</ele>
        <time>2021-09-14T08:37:47.000Z</time>
      </trkpt>
      <trkpt lat="45.40105" lon="4.74834">
        <ele>144.738368</ele>
        <time>2021-09-14T08:37:49.000Z</time>
      </trkpt>
      <trkpt lat="45.40093" lon="4.74853">
        <ele>144.820944</ele>
        <time>2021-09-14T08:37:55.000Z</time>
      </trkpt>
      <trkpt lat="45.40077" lon="4.74874">
        <ele>144.92415</ele>
        <time>2021-09-14T08:38:03.000Z</time>
      </trkpt>
      <trkpt lat="45.40059" lon="4.74897">
        <ele>145.035806</ele>
        <time>2021-09-14T08:38:10.000Z</time>
      </trkpt>
      <trkpt lat="45.40031" lon="4.74924">
        <ele>145.195561</ele>
        <time>2021-09-14T08:38:18.000Z</time>
      </trkpt>
      <trkpt lat="45.39996" lon="4.74959">
        <ele>145.357931</ele>
        <time>2021-09-14T08:38:27.000Z</time>
      </trkpt>
      <trkpt lat="45.3995" lon="4.75004">
        <ele>145.487703</ele>
        <time>2021-09-14T08:38:38.000Z</time>
      </trkpt>
      <trkpt lat="45.39907" lon="4.75041">
        <ele>145.604717</ele>
        <time>2021-09-14T08:38:48.000Z</time>
      </trkpt>
      <trkpt lat="45.39872" lon="4.75069">
        <ele>145.698427</ele>
        <time>2021-09-14T08:38:56.000Z</time>
      </trkpt>
      <trkpt lat="45.39826" lon="4.75099">
        <ele>145.768908</ele>
        <time>2021-09-14T08:39:06.000Z</time>
      </trkpt>
      <trkpt lat="45.39807" lon="4.75111">
        <ele>145.787981</ele>
        <time>2021-09-14T08:39:10.000Z</time>
      </trkpt>
      <trkpt lat="45.39799" lon="4.7512">
        <ele>145.797669</ele>
        <time>2021-09-14T08:39:12.000Z</time>
      </trkpt>
      <trkpt lat="45.39796" lon="4.75126">
        <ele>145.802318</ele>
        <time>2021-09-14T08:39:13.000Z</time>
      </trkpt>
      <trkpt lat="45.3977" lon="4.7516">
        <ele>145.834847</ele>
        <time>2021-09-14T08:39:20.000Z</time>
      </trkpt>
      <trkpt lat="45.39752" lon="4.75175">
        <ele>145.854029</ele>
        <time>2021-09-14T08:39:24.000Z</time>
      </trkpt>
      <trkpt lat="45.39744" lon="4.75183">
        <ele>145.86362</ele>
        <time>2021-09-14T08:39:26.000Z</time>
      </trkpt>
      <trkpt lat="45.39731" lon="4.75194">
        <ele>145.877004</ele>
        <time>2021-09-14T08:39:29.000Z</time>
      </trkpt>
      <trkpt lat="45.39723" lon="4.752">
        <ele>145.885882</ele>
        <time>2021-09-14T08:39:31.000Z</time>
      </trkpt>
      <trkpt lat="45.39693" lon="4.7521">
        <ele>145.904873</ele>
        <time>2021-09-14T08:39:37.000Z</time>
      </trkpt>
      <trkpt lat="45.39651" lon="4.75218">
        <ele>145.905989</ele>
        <time>2021-09-14T08:39:45.000Z</time>
      </trkpt>
      <trkpt lat="45.39645" lon="4.75219">
        <ele>145.90613</ele>
        <time>2021-09-14T08:39:46.000Z</time>
      </trkpt>
      <trkpt lat="45.39635" lon="4.75225">
        <ele>145.906415</ele>
        <time>2021-09-14T08:39:48.000Z</time>
      </trkpt>
      <trkpt lat="45.39625" lon="4.75231">
        <ele>145.906704</ele>
        <time>2021-09-14T08:39:50.000Z</time>
      </trkpt>
      <trkpt lat="45.39578" lon="4.7526">
        <ele>145.90802</ele>
        <time>2021-09-14T08:39:59.000Z</time>
      </trkpt>
      <trkpt lat="45.39575" lon="4.75266">
        <ele>145.908156</ele>
        <time>2021-09-14T08:40:00.000Z</time>
      </trkpt>
      <trkpt lat="45.39559" lon="4.75288">
        <ele>145.908723</ele>
        <time>2021-09-14T08:40:04.000Z</time>
      </trkpt>
      <trkpt lat="45.39551" lon="4.75299">
        <ele>145.909005</ele>
        <time>2021-09-14T08:40:06.000Z</time>
      </trkpt>
      <trkpt lat="45.39538" lon="4.75311">
        <ele>145.912052</ele>
        <time>2021-09-14T08:40:09.000Z</time>
      </trkpt>
      <trkpt lat="45.39533" lon="4.75315">
        <ele>145.914591</ele>
        <time>2021-09-14T08:40:10.000Z</time>
      </trkpt>
      <trkpt lat="45.39507" lon="4.75329">
        <ele>145.926978</ele>
        <time>2021-09-14T08:40:15.000Z</time>
      </trkpt>
      <trkpt lat="45.39466" lon="4.75344">
        <ele>145.946421</ele>
        <time>2021-09-14T08:40:23.000Z</time>
      </trkpt>
      <trkpt lat="45.39421" lon="4.75358">
        <ele>145.967437</ele>
        <time>2021-09-14T08:40:32.000Z</time>
      </trkpt>
      <trkpt lat="45.39385" lon="4.75368">
        <ele>145.983722</ele>
        <time>2021-09-14T08:40:39.000Z</time>
      </trkpt>
      <trkpt lat="45.39352" lon="4.75382">
        <ele>145.977867</ele>
        <time>2021-09-14T08:40:46.000Z</time>
      </trkpt>
      <trkpt lat="45.39305" lon="4.75407">
        <ele>145.944849</ele>
        <time>2021-09-14T08:40:56.000Z</time>
      </trkpt>
      <trkpt lat="45.39301" lon="4.75411">
        <ele>145.941518</ele>
        <time>2021-09-14T08:40:57.000Z</time>
      </trkpt>
      <trkpt lat="45.39289" lon="4.75424">
        <ele>145.931524</ele>
        <time>2021-09-14T08:41:00.000Z</time>
      </trkpt>
      <trkpt lat="45.39285" lon="4.75427">
        <ele>145.928301</ele>
        <time>2021-09-14T08:41:01.000Z</time>
      </trkpt>
      <trkpt lat="45.39281" lon="4.75431">
        <ele>145.925078</ele>
        <time>2021-09-14T08:41:02.000Z</time>
      </trkpt>
      <trkpt lat="45.39259" lon="4.75449">
        <ele>145.908414</ele>
        <time>2021-09-14T08:41:07.000Z</time>
      </trkpt>
      <trkpt lat="45.39245" lon="4.75457">
        <ele>145.898345</ele>
        <time>2021-09-14T08:41:10.000Z</time>
      </trkpt>
      <trkpt lat="45.39226" lon="4.75466">
        <ele>145.884956</ele>
        <time>2021-09-14T08:41:14.000Z</time>
      </trkpt>
      <trkpt lat="45.39221" lon="4.75468">
        <ele>145.881574</ele>
        <time>2021-09-14T08:41:15.000Z</time>
      </trkpt>
      <trkpt lat="45.39201" lon="4.75471">
        <ele>145.874132</ele>
        <time>2021-09-14T08:41:19.000Z</time>
      </trkpt>
      <trkpt lat="45.39159" lon="4.75471">
        <ele>145.899072</ele>
        <time>2021-09-14T08:41:27.000Z</time>
      </trkpt>
      <trkpt lat="45.39122" lon="4.75482">
        <ele>145.921308</ele>
        <time>2021-09-14T08:41:34.000Z</time>
      </trkpt>
      <trkpt lat="45.39076" lon="4.75499">
        <ele>145.949487</ele>
        <time>2021-09-14T08:41:43.000Z</time>
      </trkpt>
      <trkpt lat="45.39057" lon="4.75509">
        <ele>145.961753</ele>
        <time>2021-09-14T08:41:47.000Z</time>
      </trkpt>
      <trkpt lat="45.39048" lon="4.75514">
        <ele>145.96763</ele>
        <time>2021-09-14T08:41:49.000Z</time>
      </trkpt>
      <trkpt lat="45.39043" lon="4.75517">
        <ele>145.970569</ele>
        <time>2021-09-14T08:41:50.000Z</time>
      </trkpt>
      <trkpt lat="45.39034" lon="4.75526">
        <ele>145.977123</ele>
        <time>2021-09-14T08:41:52.000Z</time>
      </trkpt>
      <trkpt lat="45.3903" lon="4.7553">
        <ele>145.974241</ele>
        <time>2021-09-14T08:41:53.000Z</time>
      </trkpt>
      <trkpt lat="45.39021" lon="4.75539">
        <ele>145.96367</ele>
        <time>2021-09-14T08:41:55.000Z</time>
      </trkpt>
      <trkpt lat="45.3901" lon="4.75543">
        <ele>145.952892</ele>
        <time>2021-09-14T08:41:57.000Z</time>
      </trkpt>
      <trkpt lat="45.3899" lon="4.75548">
        <ele>145.93213</ele>
        <time>2021-09-14T08:42:01.000Z</time>
      </trkpt>
      <trkpt lat="45.38985" lon="4.75549">
        <ele>145.92701</ele>
        <time>2021-09-14T08:42:02.000Z</time>
      </trkpt>
      <trkpt lat="45.38947" lon="4.75547">
        <ele>145.889934</ele>
        <time>2021-09-14T08:42:09.000Z</time>
      </trkpt>
      <trkpt lat="45.38915" lon="4.75552">
        <ele>145.857606</ele>
        <time>2021-09-14T08:42:15.000Z</time>
      </trkpt>
      <trkpt lat="45.38864" lon="4.75564">
        <ele>145.806906</ele>
        <time>2021-09-14T08:42:25.000Z</time>
      </trkpt>
      <trkpt lat="45.38821" lon="4.75574">
        <ele>145.763006</ele>
        <time>2021-09-14T08:42:34.000Z</time>
      </trkpt>
      <trkpt lat="45.38771" lon="4.75582">
        <ele>145.7111</ele>
        <time>2021-09-14T08:42:44.000Z</time>
      </trkpt>
      <trkpt lat="45.38735" lon="4.75587">
        <ele>145.674743</ele>
        <time>2021-09-14T08:42:51.000Z</time>
      </trkpt>
      <trkpt lat="45.38681" lon="4.75596">
        <ele>145.619086</ele>
        <time>2021-09-14T08:43:02.000Z</time>
      </trkpt>
      <trkpt lat="45.3864" lon="4.75597">
        <ele>145.576966</ele>
        <time>2021-09-14T08:43:10.000Z</time>
      </trkpt>
      <trkpt lat="45.38588" lon="4.75586">
        <ele>145.521044</ele>
        <time>2021-09-14T08:43:20.000Z</time>
      </trkpt>
      <trkpt lat="45.3855" lon="4.75576">
        <ele>145.480638</ele>
        <time>2021-09-14T08:43:27.000Z</time>
      </trkpt>
      <trkpt lat="45.385" lon="4.75556">
        <ele>145.426301</ele>
        <time>2021-09-14T08:43:37.000Z</time>
      </trkpt>
      <trkpt lat="45.3846" lon="4.75535">
        <ele>145.392198</ele>
        <time>2021-09-14T08:43:45.000Z</time>
      </trkpt>
      <trkpt lat="45.38425" lon="4.75513">
        <ele>145.361156</ele>
        <time>2021-09-14T08:43:52.000Z</time>
      </trkpt>
      <trkpt lat="45.38379" lon="4.75481">
        <ele>145.319794</ele>
        <time>2021-09-14T08:44:01.000Z</time>
      </trkpt>
      <trkpt lat="45.3834" lon="4.75453">
        <ele>145.284053</ele>
        <time>2021-09-14T08:44:09.000Z</time>
      </trkpt>
      <trkpt lat="45.38304" lon="4.75427">
        <ele>145.4022</ele>
        <time>2021-09-14T08:44:17.000Z</time>
      </trkpt>
      <trkpt lat="45.383" lon="4.75425">
        <ele>145.41667</ele>
        <time>2021-09-14T08:44:18.000Z</time>
      </trkpt>
      <trkpt lat="45.38283" lon="4.7542">
        <ele>145.470328</ele>
        <time>2021-09-14T08:44:22.000Z</time>
      </trkpt>
      <trkpt lat="45.3828" lon="4.75419">
        <ele>145.482464</ele>
        <time>2021-09-14T08:44:23.000Z</time>
      </trkpt>
      <trkpt lat="45.38259" lon="4.75424">
        <ele>145.547242</ele>
        <time>2021-09-14T08:44:29.000Z</time>
      </trkpt>
      <trkpt lat="45.3824" lon="4.75438">
        <ele>145.615464</ele>
        <time>2021-09-14T08:44:35.000Z</time>
      </trkpt>
      <trkpt lat="45.38212" lon="4.75461">
        <ele>145.717375</ele>
        <time>2021-09-14T08:44:43.000Z</time>
      </trkpt>
      <trkpt lat="45.38181" lon="4.75486">
        <ele>145.830542</ele>
        <time>2021-09-14T08:44:51.000Z</time>
      </trkpt>
      <trkpt lat="45.38149" lon="4.75512">
        <ele>145.9556</ele>
        <time>2021-09-14T08:44:59.000Z</time>
      </trkpt>
      <trkpt lat="45.38141" lon="4.7552">
        <ele>145.988763</ele>
        <time>2021-09-14T08:45:01.000Z</time>
      </trkpt>
      <trkpt lat="45.38135" lon="4.7553">
        <ele>146.019854</ele>
        <time>2021-09-14T08:45:03.000Z</time>
      </trkpt>
      <trkpt lat="45.38131" lon="4.75542">
        <ele>146.052495</ele>
        <time>2021-09-14T08:45:05.000Z</time>
      </trkpt>
      <trkpt lat="45.3813" lon="4.75554">
        <ele>146.081672</ele>
        <time>2021-09-14T08:45:07.000Z</time>
      </trkpt>
      <trkpt lat="45.38131" lon="4.75567">
        <ele>146.11278</ele>
        <time>2021-09-14T08:45:09.000Z</time>
      </trkpt>
      <trkpt lat="45.38134" lon="4.7558">
        <ele>146.145599</ele>
        <time>2021-09-14T08:45:11.000Z</time>
      </trkpt>
      <trkpt lat="45.38138" lon="4.756">
        <ele>146.196947</ele>
        <time>2021-09-14T08:45:14.000Z</time>
      </trkpt>
      <trkpt lat="45.38138" lon="4.75614">
        <ele>146.230913</ele>
        <time>2021-09-14T08:45:16.000Z</time>
      </trkpt>
      <trkpt lat="45.38135" lon="4.75625">
        <ele>146.261014</ele>
        <time>2021-09-14T08:45:18.000Z</time>
      </trkpt>
      <trkpt lat="45.38128" lon="4.75629">
        <ele>146.286779</ele>
        <time>2021-09-14T08:45:20.000Z</time>
      </trkpt>
      <trkpt lat="45.38124" lon="4.75627">
        <ele>146.300156</ele>
        <time>2021-09-14T08:45:21.000Z</time>
      </trkpt>
      <trkpt lat="45.3812" lon="4.75624">
        <ele>146.315754</ele>
        <time>2021-09-14T08:45:22.000Z</time>
      </trkpt>
      <trkpt lat="45.38116" lon="4.75613">
        <ele>146.345764</ele>
        <time>2021-09-14T08:45:24.000Z</time>
      </trkpt>
      <trkpt lat="45.38113" lon="4.7559">
        <ele>146.401387</ele>
        <time>2021-09-14T08:45:28.000Z</time>
      </trkpt>
      <trkpt lat="45.3811" lon="4.75588">
        <ele>146.414701</ele>
        <time>2021-09-14T08:45:29.000Z</time>
      </trkpt>
      <trkpt lat="45.38104" lon="4.75593">
        <ele>146.436769</ele>
        <time>2021-09-14T08:45:31.000Z</time>
      </trkpt>
      <trkpt lat="45.38097" lon="4.75618">
        <ele>146.559668</ele>
        <time>2021-09-14T08:45:37.000Z</time>
      </trkpt>
      <trkpt lat="45.38089" lon="4.75646">
        <ele>146.770243</ele>
        <time>2021-09-14T08:45:45.000Z</time>
      </trkpt>
      <trkpt lat="45.38083" lon="4.75669">
        <ele>146.938365</ele>
        <time>2021-09-14T08:45:52.000Z</time>
      </trkpt>
      <trkpt lat="45.38077" lon="4.75696">
        <ele>147.132284</ele>
        <time>2021-09-14T08:45:59.000Z</time>
      </trkpt>
      <trkpt lat="45.38072" lon="4.75723">
        <ele>147.323947</ele>
        <time>2021-09-14T08:46:06.000Z</time>
      </trkpt>
      <trkpt lat="45.38067" lon="4.75752">
        <ele>147.53555</ele>
        <time>2021-09-14T08:46:14.000Z</time>
      </trkpt>
      <trkpt lat="45.38062" lon="4.75779">
        <ele>147.728139</ele>
        <time>2021-09-14T08:46:20.000Z</time>
      </trkpt>
      <trkpt lat="45.38056" lon="4.7581">
        <ele>147.949175</ele>
        <time>2021-09-14T08:46:28.000Z</time>
      </trkpt>
      <trkpt lat="45.38051" lon="4.75835">
        <ele>148.125819</ele>
        <time>2021-09-14T08:46:35.000Z</time>
      </trkpt>
      <trkpt lat="45.38045" lon="4.75865">
        <ele>148.158898</ele>
        <time>2021-09-14T08:46:44.000Z</time>
      </trkpt>
      <trkpt lat="45.38041" lon="4.75889">
        <ele>148.026572</ele>
        <time>2021-09-14T08:46:50.000Z</time>
      </trkpt>
      <trkpt lat="45.38039" lon="4.75917">
        <ele>147.876369</ele>
        <time>2021-09-14T08:46:57.000Z</time>
      </trkpt>
      <trkpt lat="45.38038" lon="4.75939">
        <ele>147.755073</ele>
        <time>2021-09-14T08:47:01.000Z</time>
      </trkpt>
      <trkpt lat="45.38037" lon="4.75946">
        <ele>147.720535</ele>
        <time>2021-09-14T08:47:02.000Z</time>
      </trkpt>
      <trkpt lat="45.38034" lon="4.75952">
        <ele>147.680033</ele>
        <time>2021-09-14T08:47:03.000Z</time>
      </trkpt>
      <trkpt lat="45.38029" lon="4.75965">
        <ele>147.600965</ele>
        <time>2021-09-14T08:47:05.000Z</time>
      </trkpt>
      <trkpt lat="45.38022" lon="4.75976">
        <ele>147.51964</ele>
        <time>2021-09-14T08:47:07.000Z</time>
      </trkpt>
      <trkpt lat="45.38007" lon="4.76001">
        <ele>147.345726</ele>
        <time>2021-09-14T08:47:11.000Z</time>
      </trkpt>
      <trkpt lat="45.38002" lon="4.76006">
        <ele>147.300308</ele>
        <time>2021-09-14T08:47:12.000Z</time>
      </trkpt>
      <trkpt lat="45.37991" lon="4.76015">
        <ele>147.205021</ele>
        <time>2021-09-14T08:47:14.000Z</time>
      </trkpt>
      <trkpt lat="45.37979" lon="4.76022">
        <ele>147.101852</ele>
        <time>2021-09-14T08:47:16.000Z</time>
      </trkpt>
      <trkpt lat="45.37938" lon="4.76046">
        <ele>146.740777</ele>
        <time>2021-09-14T08:47:22.000Z</time>
      </trkpt>
      <trkpt lat="45.37897" lon="4.7607">
        <ele>146.31064</ele>
        <time>2021-09-14T08:47:28.000Z</time>
      </trkpt>
      <trkpt lat="45.37864" lon="4.76089">
        <ele>145.96032</ele>
        <time>2021-09-14T08:47:34.000Z</time>
      </trkpt>
      <trkpt lat="45.37827" lon="4.76111">
        <ele>145.571118</ele>
        <time>2021-09-14T08:47:41.000Z</time>
      </trkpt>
      <trkpt lat="45.37786" lon="4.76135">
        <ele>145.14098</ele>
        <time>2021-09-14T08:47:49.000Z</time>
      </trkpt>
      <trkpt lat="45.3776" lon="4.76151">
        <ele>145.069927</ele>
        <time>2021-09-14T08:47:54.000Z</time>
      </trkpt>
      <trkpt lat="45.3775" lon="4.76157">
        <ele>145.049366</ele>
        <time>2021-09-14T08:47:56.000Z</time>
      </trkpt>
      <trkpt lat="45.37698" lon="4.76187">
        <ele>144.941457</ele>
        <time>2021-09-14T08:48:06.000Z</time>
      </trkpt>
      <trkpt lat="45.37658" lon="4.7621">
        <ele>144.858033</ele>
        <time>2021-09-14T08:48:14.000Z</time>
      </trkpt>
      <trkpt lat="45.37619" lon="4.76233">
        <ele>144.7763</ele>
        <time>2021-09-14T08:48:23.000Z</time>
      </trkpt>
      <trkpt lat="45.37588" lon="4.76255">
        <ele>144.805116</ele>
        <time>2021-09-14T08:48:31.000Z</time>
      </trkpt>
      <trkpt lat="45.37564" lon="4.76272">
        <ele>144.830702</ele>
        <time>2021-09-14T08:48:37.000Z</time>
      </trkpt>
      <trkpt lat="45.37556" lon="4.76278">
        <ele>144.839636</ele>
        <time>2021-09-14T08:48:39.000Z</time>
      </trkpt>
      <trkpt lat="45.37541" lon="4.76289">
        <ele>144.856142</ele>
        <time>2021-09-14T08:48:43.000Z</time>
      </trkpt>
      <trkpt lat="45.37532" lon="4.76295">
        <ele>144.865076</ele>
        <time>2021-09-14T08:48:45.000Z</time>
      </trkpt>
      <trkpt lat="45.37499" lon="4.76319">
        <ele>144.901338</ele>
        <time>2021-09-14T08:48:53.000Z</time>
      </trkpt>
      <trkpt lat="45.37475" lon="4.76336">
        <ele>144.926575</ele>
        <time>2021-09-14T08:48:59.000Z</time>
      </trkpt>
      <trkpt lat="45.37467" lon="4.76342">
        <ele>144.935742</ele>
        <time>2021-09-14T08:49:01.000Z</time>
      </trkpt>
      <trkpt lat="45.37441" lon="4.76361">
        <ele>144.975347</ele>
        <time>2021-09-14T08:49:07.000Z</time>
      </trkpt>
      <trkpt lat="45.37423" lon="4.76374">
        <ele>145.010329</ele>
        <time>2021-09-14T08:49:11.000Z</time>
      </trkpt>
      <trkpt lat="45.37413" lon="4.76381">
        <ele>145.027715</ele>
        <time>2021-09-14T08:49:13.000Z</time>
      </trkpt>
      <trkpt lat="45.3738" lon="4.76407">
        <ele>145.09061</ele>
        <time>2021-09-14T08:49:20.000Z</time>
      </trkpt>
      <trkpt lat="45.37348" lon="4.76433">
        <ele>145.152407</ele>
        <time>2021-09-14T08:49:27.000Z</time>
      </trkpt>
      <trkpt lat="45.37312" lon="4.7646">
        <ele>145.220212</ele>
        <time>2021-09-14T08:49:35.000Z</time>
      </trkpt>
      <trkpt lat="45.37265" lon="4.76497">
        <ele>145.494628</ele>
        <time>2021-09-14T08:49:45.000Z</time>
      </trkpt>
      <trkpt lat="45.37232" lon="4.76525">
        <ele>145.743046</ele>
        <time>2021-09-14T08:49:53.000Z</time>
      </trkpt>
      <trkpt lat="45.37224" lon="4.76532">
        <ele>145.805953</ele>
        <time>2021-09-14T08:49:55.000Z</time>
      </trkpt>
      <trkpt lat="45.37203" lon="4.76551">
        <ele>145.967248</ele>
        <time>2021-09-14T08:50:00.000Z</time>
      </trkpt>
      <trkpt lat="45.37176" lon="4.76577">
        <ele>146.179571</ele>
        <time>2021-09-14T08:50:07.000Z</time>
      </trkpt>
      <trkpt lat="45.3715" lon="4.766">
        <ele>146.373928</ele>
        <time>2021-09-14T08:50:14.000Z</time>
      </trkpt>
      <trkpt lat="45.37126" lon="4.76622">
        <ele>146.430873</ele>
        <time>2021-09-14T08:50:21.000Z</time>
      </trkpt>
      <trkpt lat="45.37093" lon="4.76653">
        <ele>146.465708</ele>
        <time>2021-09-14T08:50:30.000Z</time>
      </trkpt>
      <trkpt lat="45.37049" lon="4.76693">
        <ele>146.510363</ele>
        <time>2021-09-14T08:50:40.000Z</time>
      </trkpt>
      <trkpt lat="45.37009" lon="4.7673">
        <ele>146.552155</ele>
        <time>2021-09-14T08:50:49.000Z</time>
      </trkpt>
      <trkpt lat="45.36963" lon="4.76772">
        <ele>146.344122</ele>
        <time>2021-09-14T08:50:59.000Z</time>
      </trkpt>
      <trkpt lat="45.36958" lon="4.76776">
        <ele>146.310678</ele>
        <time>2021-09-14T08:51:00.000Z</time>
      </trkpt>
      <trkpt lat="45.36913" lon="4.76818">
        <ele>145.988485</ele>
        <time>2021-09-14T08:51:10.000Z</time>
      </trkpt>
      <trkpt lat="45.36904" lon="4.76826">
        <ele>145.922831</ele>
        <time>2021-09-14T08:51:12.000Z</time>
      </trkpt>
      <trkpt lat="45.36886" lon="4.76843">
        <ele>145.79102</ele>
        <time>2021-09-14T08:51:16.000Z</time>
      </trkpt>
      <trkpt lat="45.3685" lon="4.76876">
        <ele>145.535941</ele>
        <time>2021-09-14T08:51:24.000Z</time>
      </trkpt>
      <trkpt lat="45.36804" lon="4.76918">
        <ele>145.285823</ele>
        <time>2021-09-14T08:51:34.000Z</time>
      </trkpt>
      <trkpt lat="45.36764" lon="4.76955">
        <ele>145.077766</ele>
        <time>2021-09-14T08:51:43.000Z</time>
      </trkpt>
      <trkpt lat="45.3672" lon="4.76996">
        <ele>144.84874</ele>
        <time>2021-09-14T08:51:53.000Z</time>
      </trkpt>
      <trkpt lat="45.36676" lon="4.77036">
        <ele>144.642118</ele>
        <time>2021-09-14T08:52:03.000Z</time>
      </trkpt>
      <trkpt lat="45.36636" lon="4.77073">
        <ele>144.487446</ele>
        <time>2021-09-14T08:52:12.000Z</time>
      </trkpt>
      <trkpt lat="45.36599" lon="4.77107">
        <ele>144.343807</ele>
        <time>2021-09-14T08:52:20.000Z</time>
      </trkpt>
      <trkpt lat="45.36557" lon="4.77145">
        <ele>144.183049</ele>
        <time>2021-09-14T08:52:29.000Z</time>
      </trkpt>
      <trkpt lat="45.36511" lon="4.77187">
        <ele>144.217373</ele>
        <time>2021-09-14T08:52:39.000Z</time>
      </trkpt>
      <trkpt lat="45.36507" lon="4.77191">
        <ele>144.232024</ele>
        <time>2021-09-14T08:52:40.000Z</time>
      </trkpt>
      <trkpt lat="45.36469" lon="4.77225">
        <ele>144.353058</ele>
        <time>2021-09-14T08:52:48.000Z</time>
      </trkpt>
      <trkpt lat="45.36422" lon="4.77268">
        <ele>144.504183</ele>
        <time>2021-09-14T08:52:58.000Z</time>
      </trkpt>
      <trkpt lat="45.36418" lon="4.77272">
        <ele>144.518502</ele>
        <time>2021-09-14T08:52:59.000Z</time>
      </trkpt>
      <trkpt lat="45.36383" lon="4.77305">
        <ele>144.597708</ele>
        <time>2021-09-14T08:53:07.000Z</time>
      </trkpt>
      <trkpt lat="45.3634" lon="4.77344">
        <ele>144.524197</ele>
        <time>2021-09-14T08:53:16.000Z</time>
      </trkpt>
      <trkpt lat="45.36293" lon="4.77388">
        <ele>144.442561</ele>
        <time>2021-09-14T08:53:26.000Z</time>
      </trkpt>
      <trkpt lat="45.36256" lon="4.77423">
        <ele>144.377318</ele>
        <time>2021-09-14T08:53:34.000Z</time>
      </trkpt>
      <trkpt lat="45.36208" lon="4.77463">
        <ele>144.19543</ele>
        <time>2021-09-14T08:53:44.000Z</time>
      </trkpt>
      <trkpt lat="45.36193" lon="4.77476">
        <ele>144.122928</ele>
        <time>2021-09-14T08:53:47.000Z</time>
      </trkpt>
      <trkpt lat="45.36153" lon="4.7751">
        <ele>143.924885</ele>
        <time>2021-09-14T08:53:55.000Z</time>
      </trkpt>
      <trkpt lat="45.36114" lon="4.77545">
        <ele>143.72865</ele>
        <time>2021-09-14T08:54:03.000Z</time>
      </trkpt>
      <trkpt lat="45.36067" lon="4.77587">
        <ele>143.553914</ele>
        <time>2021-09-14T08:54:13.000Z</time>
      </trkpt>
      <trkpt lat="45.36025" lon="4.77624">
        <ele>143.486426</ele>
        <time>2021-09-14T08:54:22.000Z</time>
      </trkpt>
      <trkpt lat="45.35993" lon="4.77654">
        <ele>143.432961</ele>
        <time>2021-09-14T08:54:29.000Z</time>
      </trkpt>
      <trkpt lat="45.35962" lon="4.77682">
        <ele>143.383414</ele>
        <time>2021-09-14T08:54:36.000Z</time>
      </trkpt>
      <trkpt lat="45.35927" lon="4.77713">
        <ele>143.340271</ele>
        <time>2021-09-14T08:54:44.000Z</time>
      </trkpt>
      <trkpt lat="45.35887" lon="4.7775">
        <ele>143.365825</ele>
        <time>2021-09-14T08:54:53.000Z</time>
      </trkpt>
      <trkpt lat="45.35851" lon="4.77782">
        <ele>143.388253</ele>
        <time>2021-09-14T08:55:01.000Z</time>
      </trkpt>
      <trkpt lat="45.35814" lon="4.77817">
        <ele>143.411962</ele>
        <time>2021-09-14T08:55:09.000Z</time>
      </trkpt>
      <trkpt lat="45.35767" lon="4.77859">
        <ele>143.387752</ele>
        <time>2021-09-14T08:55:19.000Z</time>
      </trkpt>
      <trkpt lat="45.3573" lon="4.77893">
        <ele>143.274999</ele>
        <time>2021-09-14T08:55:27.000Z</time>
      </trkpt>
      <trkpt lat="45.35692" lon="4.77924">
        <ele>143.164336</ele>
        <time>2021-09-14T08:55:35.000Z</time>
      </trkpt>
      <trkpt lat="45.3566" lon="4.7795">
        <ele>143.072595</ele>
        <time>2021-09-14T08:55:42.000Z</time>
      </trkpt>
      <trkpt lat="45.35615" lon="4.77987">
        <ele>142.961912</ele>
        <time>2021-09-14T08:55:52.000Z</time>
      </trkpt>
      <trkpt lat="45.35577" lon="4.78013">
        <ele>142.916866</ele>
        <time>2021-09-14T08:56:00.000Z</time>
      </trkpt>
      <trkpt lat="45.35534" lon="4.78042">
        <ele>142.86572</ele>
        <time>2021-09-14T08:56:09.000Z</time>
      </trkpt>
      <trkpt lat="45.35495" lon="4.78067">
        <ele>142.820156</ele>
        <time>2021-09-14T08:56:17.000Z</time>
      </trkpt>
      <trkpt lat="45.35455" lon="4.78087">
        <ele>142.780342</ele>
        <time>2021-09-14T08:56:25.000Z</time>
      </trkpt>
      <trkpt lat="45.35411" lon="4.7811">
        <ele>142.758357</ele>
        <time>2021-09-14T08:56:34.000Z</time>
      </trkpt>
      <trkpt lat="45.3537" lon="4.78127">
        <ele>142.7382</ele>
        <time>2021-09-14T08:56:42.000Z</time>
      </trkpt>
      <trkpt lat="45.35347" lon="4.78136">
        <ele>142.726458</ele>
        <time>2021-09-14T08:56:47.000Z</time>
      </trkpt>
      <trkpt lat="45.35342" lon="4.78138">
        <ele>142.724037</ele>
        <time>2021-09-14T08:56:48.000Z</time>
      </trkpt>
      <trkpt lat="45.35332" lon="4.78143">
        <ele>142.719326</ele>
        <time>2021-09-14T08:56:50.000Z</time>
      </trkpt>
      <trkpt lat="45.35321" lon="4.78154">
        <ele>142.712901</ele>
        <time>2021-09-14T08:56:53.000Z</time>
      </trkpt>
      <trkpt lat="45.35313" lon="4.78173">
        <ele>142.705441</ele>
        <time>2021-09-14T08:56:57.000Z</time>
      </trkpt>
      <trkpt lat="45.35299" lon="4.78206">
        <ele>142.747993</ele>
        <time>2021-09-14T08:57:03.000Z</time>
      </trkpt>
      <trkpt lat="45.35295" lon="4.7821">
        <ele>142.76339</ele>
        <time>2021-09-14T08:57:04.000Z</time>
      </trkpt>
      <trkpt lat="45.35291" lon="4.78212">
        <ele>142.777927</ele>
        <time>2021-09-14T08:57:05.000Z</time>
      </trkpt>
      <trkpt lat="45.35282" lon="4.78215">
        <ele>142.808949</ele>
        <time>2021-09-14T08:57:07.000Z</time>
      </trkpt>
      <trkpt lat="45.35277" lon="4.78215">
        <ele>142.825262</ele>
        <time>2021-09-14T08:57:08.000Z</time>
      </trkpt>
      <trkpt lat="45.35272" lon="4.78215">
        <ele>142.840587</ele>
        <time>2021-09-14T08:57:09.000Z</time>
      </trkpt>
      <trkpt lat="45.35264" lon="4.78209">
        <ele>142.870222</ele>
        <time>2021-09-14T08:57:11.000Z</time>
      </trkpt>
      <trkpt lat="45.3526" lon="4.78205">
        <ele>142.886578</ele>
        <time>2021-09-14T08:57:12.000Z</time>
      </trkpt>
      <trkpt lat="45.35239" lon="4.78183">
        <ele>142.971115</ele>
        <time>2021-09-14T08:57:17.000Z</time>
      </trkpt>
      <trkpt lat="45.35234" lon="4.7818">
        <ele>142.988328</ele>
        <time>2021-09-14T08:57:18.000Z</time>
      </trkpt>
      <trkpt lat="45.35229" lon="4.78177">
        <ele>143.004908</ele>
        <time>2021-09-14T08:57:19.000Z</time>
      </trkpt>
      <trkpt lat="45.35219" lon="4.78174">
        <ele>143.040416</ele>
        <time>2021-09-14T08:57:21.000Z</time>
      </trkpt>
      <trkpt lat="45.35198" lon="4.78174">
        <ele>143.108503</ele>
        <time>2021-09-14T08:57:25.000Z</time>
      </trkpt>
      <trkpt lat="45.35187" lon="4.78176">
        <ele>143.143203</ele>
        <time>2021-09-14T08:57:27.000Z</time>
      </trkpt>
      <trkpt lat="45.3514" lon="4.78182">
        <ele>143.294609</ele>
        <time>2021-09-14T08:57:35.000Z</time>
      </trkpt>
      <trkpt lat="45.3509" lon="4.78189">
        <ele>143.435362</ele>
        <time>2021-09-14T08:57:44.000Z</time>
      </trkpt>
      <trkpt lat="45.3504" lon="4.78196">
        <ele>143.57781</ele>
        <time>2021-09-14T08:57:53.000Z</time>
      </trkpt>
      <trkpt lat="45.34989" lon="4.78204">
        <ele>143.722213</ele>
        <time>2021-09-14T08:58:02.000Z</time>
      </trkpt>
      <trkpt lat="45.34932" lon="4.78211">
        <ele>143.822439</ele>
        <time>2021-09-14T08:58:12.000Z</time>
      </trkpt>
      <trkpt lat="45.3488" lon="4.78216">
        <ele>143.872832</ele>
        <time>2021-09-14T08:58:21.000Z</time>
      </trkpt>
      <trkpt lat="45.34852" lon="4.78218">
        <ele>143.900817</ele>
        <time>2021-09-14T08:58:26.000Z</time>
      </trkpt>
      <trkpt lat="45.34835" lon="4.7822">
        <ele>143.91696</ele>
        <time>2021-09-14T08:58:29.000Z</time>
      </trkpt>
      <trkpt lat="45.34786" lon="4.78226">
        <ele>143.965468</ele>
        <time>2021-09-14T08:58:38.000Z</time>
      </trkpt>
      <trkpt lat="45.34729" lon="4.78237">
        <ele>143.942924</ele>
        <time>2021-09-14T08:58:48.000Z</time>
      </trkpt>
      <trkpt lat="45.34724" lon="4.78238">
        <ele>143.940534</ele>
        <time>2021-09-14T08:58:49.000Z</time>
      </trkpt>
      <trkpt lat="45.34668" lon="4.78248">
        <ele>143.917485</ele>
        <time>2021-09-14T08:58:59.000Z</time>
      </trkpt>
      <trkpt lat="45.34617" lon="4.78258">
        <ele>143.896495</ele>
        <time>2021-09-14T08:59:08.000Z</time>
      </trkpt>
      <trkpt lat="45.34578" lon="4.78266">
        <ele>143.906618</ele>
        <time>2021-09-14T08:59:15.000Z</time>
      </trkpt>
      <trkpt lat="45.34533" lon="4.78274">
        <ele>143.928361</ele>
        <time>2021-09-14T08:59:23.000Z</time>
      </trkpt>
      <trkpt lat="45.34478" lon="4.78283">
        <ele>143.954981</ele>
        <time>2021-09-14T08:59:33.000Z</time>
      </trkpt>
      <trkpt lat="45.34423" lon="4.78291">
        <ele>143.962316</ele>
        <time>2021-09-14T08:59:43.000Z</time>
      </trkpt>
      <trkpt lat="45.34379" lon="4.78298">
        <ele>143.822224</ele>
        <time>2021-09-14T08:59:51.000Z</time>
      </trkpt>
      <trkpt lat="45.34336" lon="4.78305">
        <ele>143.683901</ele>
        <time>2021-09-14T08:59:59.000Z</time>
      </trkpt>
      <trkpt lat="45.34311" lon="4.7831">
        <ele>143.602886</ele>
        <time>2021-09-14T09:00:04.000Z</time>
      </trkpt>
      <trkpt lat="45.34274" lon="4.78316">
        <ele>143.486007</ele>
        <time>2021-09-14T09:00:11.000Z</time>
      </trkpt>
      <trkpt lat="45.34232" lon="4.78323">
        <ele>143.345982</ele>
        <time>2021-09-14T09:00:19.000Z</time>
      </trkpt>
      <trkpt lat="45.34184" lon="4.78331">
        <ele>143.180844</ele>
        <time>2021-09-14T09:00:28.000Z</time>
      </trkpt>
      <trkpt lat="45.34141" lon="4.78339">
        <ele>143.033574</ele>
        <time>2021-09-14T09:00:36.000Z</time>
      </trkpt>
      <trkpt lat="45.34119" lon="4.78342">
        <ele>142.957681</ele>
        <time>2021-09-14T09:00:40.000Z</time>
      </trkpt>
      <trkpt lat="45.34103" lon="4.78344">
        <ele>142.901425</ele>
        <time>2021-09-14T09:00:43.000Z</time>
      </trkpt>
      <trkpt lat="45.34071" lon="4.78352">
        <ele>142.792863</ele>
        <time>2021-09-14T09:00:49.000Z</time>
      </trkpt>
      <trkpt lat="45.34063" lon="4.78361">
        <ele>142.832271</ele>
        <time>2021-09-14T09:00:51.000Z</time>
      </trkpt>
      <trkpt lat="45.3406" lon="4.78367">
        <ele>142.851405</ele>
        <time>2021-09-14T09:00:52.000Z</time>
      </trkpt>
      <trkpt lat="45.34058" lon="4.78372">
        <ele>142.868576</ele>
        <time>2021-09-14T09:00:53.000Z</time>
      </trkpt>
      <trkpt lat="45.34054" lon="4.78386">
        <ele>142.909134</ele>
        <time>2021-09-14T09:00:56.000Z</time>
      </trkpt>
      <trkpt lat="45.34051" lon="4.78403">
        <ele>142.9575</ele>
        <time>2021-09-14T09:01:02.000Z</time>
      </trkpt>
      <trkpt lat="45.34048" lon="4.78427">
        <ele>143.024346</ele>
        <time>2021-09-14T09:01:11.000Z</time>
      </trkpt>
      <trkpt lat="45.3404" lon="4.78442">
        <ele>143.074021</ele>
        <time>2021-09-14T09:01:17.000Z</time>
      </trkpt>
      <trkpt lat="45.34024" lon="4.78447">
        <ele>143.137705</ele>
        <time>2021-09-14T09:01:23.000Z</time>
      </trkpt>
      <trkpt lat="45.34012" lon="4.78449">
        <ele>143.185831</ele>
        <time>2021-09-14T09:01:27.000Z</time>
      </trkpt>
      <trkpt lat="45.34009" lon="4.78449">
        <ele>143.195538</ele>
        <time>2021-09-14T09:01:28.000Z</time>
      </trkpt>
      <trkpt lat="45.34001" lon="4.78447">
        <ele>143.228633</ele>
        <time>2021-09-14T09:01:31.000Z</time>
      </trkpt>
      <trkpt lat="45.33992" lon="4.78441">
        <ele>143.267324</ele>
        <time>2021-09-14T09:01:34.000Z</time>
      </trkpt>
      <trkpt lat="45.33989" lon="4.78435">
        <ele>143.285866</ele>
        <time>2021-09-14T09:01:35.000Z</time>
      </trkpt>
      <trkpt lat="45.33983" lon="4.7842">
        <ele>143.332573</ele>
        <time>2021-09-14T09:01:37.000Z</time>
      </trkpt>
      <trkpt lat="45.33981" lon="4.78401">
        <ele>143.385713</ele>
        <time>2021-09-14T09:01:39.000Z</time>
      </trkpt>
      <trkpt lat="45.33977" lon="4.7838">
        <ele>143.443617</ele>
        <time>2021-09-14T09:01:41.000Z</time>
      </trkpt>
      <trkpt lat="45.33974" lon="4.78369">
        <ele>143.474692</ele>
        <time>2021-09-14T09:01:42.000Z</time>
      </trkpt>
      <trkpt lat="45.33966" lon="4.78366">
        <ele>143.447031</ele>
        <time>2021-09-14T09:01:43.000Z</time>
      </trkpt>
      <trkpt lat="45.33958" lon="4.78366">
        <ele>143.382648</ele>
        <time>2021-09-14T09:01:44.000Z</time>
      </trkpt>
      <trkpt lat="45.33916" lon="4.78373">
        <ele>143.031166</ele>
        <time>2021-09-14T09:01:50.000Z</time>
      </trkpt>
      <trkpt lat="45.33856" lon="4.78383">
        <ele>142.535452</ele>
        <time>2021-09-14T09:01:59.000Z</time>
      </trkpt>
      <trkpt lat="45.33808" lon="4.78392">
        <ele>142.133417</ele>
        <time>2021-09-14T09:02:07.000Z</time>
      </trkpt>
      <trkpt lat="45.33759" lon="4.784">
        <ele>141.846903</ele>
        <time>2021-09-14T09:02:15.000Z</time>
      </trkpt>
      <trkpt lat="45.33704" lon="4.78409">
        <ele>141.583548</ele>
        <time>2021-09-14T09:02:24.000Z</time>
      </trkpt>
      <trkpt lat="45.33645" lon="4.78419">
        <ele>141.302986</ele>
        <time>2021-09-14T09:02:34.000Z</time>
      </trkpt>
      <trkpt lat="45.33605" lon="4.78425">
        <ele>141.084927</ele>
        <time>2021-09-14T09:02:41.000Z</time>
      </trkpt>
      <trkpt lat="45.33567" lon="4.78432">
        <ele>140.784124</ele>
        <time>2021-09-14T09:02:48.000Z</time>
      </trkpt>
      <trkpt lat="45.3353" lon="4.78438">
        <ele>140.491215</ele>
        <time>2021-09-14T09:02:55.000Z</time>
      </trkpt>
      <trkpt lat="45.33488" lon="4.78445">
        <ele>140.15388</ele>
        <time>2021-09-14T09:03:03.000Z</time>
      </trkpt>
      <trkpt lat="45.3345" lon="4.78451">
        <ele>139.849098</ele>
        <time>2021-09-14T09:03:10.000Z</time>
      </trkpt>
      <trkpt lat="45.33417" lon="4.78457">
        <ele>139.535658</ele>
        <time>2021-09-14T09:03:16.000Z</time>
      </trkpt>
      <trkpt lat="45.33411" lon="4.78458">
        <ele>139.47446</ele>
        <time>2021-09-14T09:03:17.000Z</time>
      </trkpt>
      <trkpt lat="45.33389" lon="4.78461">
        <ele>139.235946</ele>
        <time>2021-09-14T09:03:21.000Z</time>
      </trkpt>
      <trkpt lat="45.33351" lon="4.78468">
        <ele>138.8255</ele>
        <time>2021-09-14T09:03:28.000Z</time>
      </trkpt>
      <trkpt lat="45.33345" lon="4.78469">
        <ele>138.763242</ele>
        <time>2021-09-14T09:03:29.000Z</time>
      </trkpt>
      <trkpt lat="45.33311" lon="4.78474">
        <ele>138.39898</ele>
        <time>2021-09-14T09:03:35.000Z</time>
      </trkpt>
      <trkpt lat="45.33275" lon="4.7848">
        <ele>138.018646</ele>
        <time>2021-09-14T09:03:41.000Z</time>
      </trkpt>
      <trkpt lat="45.33237" lon="4.78487">
        <ele>137.899495</ele>
        <time>2021-09-14T09:03:48.000Z</time>
      </trkpt>
      <trkpt lat="45.33178" lon="4.78496">
        <ele>138.139384</ele>
        <time>2021-09-14T09:03:58.000Z</time>
      </trkpt>
      <trkpt lat="45.33173" lon="4.78497">
        <ele>138.163753</ele>
        <time>2021-09-14T09:03:59.000Z</time>
      </trkpt>
      <trkpt lat="45.33131" lon="4.78504">
        <ele>138.335965</ele>
        <time>2021-09-14T09:04:06.000Z</time>
      </trkpt>
      <trkpt lat="45.33072" lon="4.78514">
        <ele>138.612194</ele>
        <time>2021-09-14T09:04:16.000Z</time>
      </trkpt>
      <trkpt lat="45.33021" lon="4.78522">
        <ele>139.067559</ele>
        <time>2021-09-14T09:04:25.000Z</time>
      </trkpt>
      <trkpt lat="45.32977" lon="4.78527">
        <ele>139.463753</ele>
        <time>2021-09-14T09:04:34.000Z</time>
      </trkpt>
      <trkpt lat="45.32964" lon="4.78526">
        <ele>139.581076</ele>
        <time>2021-09-14T09:04:37.000Z</time>
      </trkpt>
      <trkpt lat="45.32958" lon="4.78518">
        <ele>139.654999</ele>
        <time>2021-09-14T09:04:39.000Z</time>
      </trkpt>
      <trkpt lat="45.32939" lon="4.78481">
        <ele>139.938016</ele>
        <time>2021-09-14T09:04:45.000Z</time>
      </trkpt>
      <trkpt lat="45.32915" lon="4.7843">
        <ele>140.088299</ele>
        <time>2021-09-14T09:04:53.000Z</time>
      </trkpt>
      <trkpt lat="45.32888" lon="4.78379">
        <ele>139.91162</ele>
        <time>2021-09-14T09:05:01.000Z</time>
      </trkpt>
      <trkpt lat="45.32883" lon="4.78362">
        <ele>139.859646</ele>
        <time>2021-09-14T09:05:03.000Z</time>
      </trkpt>
      <trkpt lat="45.32878" lon="4.78343">
        <ele>139.803579</ele>
        <time>2021-09-14T09:05:05.000Z</time>
      </trkpt>
      <trkpt lat="45.32862" lon="4.78292">
        <ele>139.648778</ele>
        <time>2021-09-14T09:05:11.000Z</time>
      </trkpt>
      <trkpt lat="45.32842" lon="4.78223">
        <ele>139.434864</ele>
        <time>2021-09-14T09:05:20.000Z</time>
      </trkpt>
      <trkpt lat="45.32836" lon="4.78202">
        <ele>139.339358</ele>
        <time>2021-09-14T09:05:23.000Z</time>
      </trkpt>
      <trkpt lat="45.32832" lon="4.78189">
        <ele>139.279997</ele>
        <time>2021-09-14T09:05:25.000Z</time>
      </trkpt>
      <trkpt lat="45.3283" lon="4.78183">
        <ele>139.251017</ele>
        <time>2021-09-14T09:05:26.000Z</time>
      </trkpt>
      <trkpt lat="45.32824" lon="4.78163">
        <ele>139.160497</ele>
        <time>2021-09-14T09:05:30.000Z</time>
      </trkpt>
      <trkpt lat="45.32822" lon="4.78153">
        <ele>139.117272</ele>
        <time>2021-09-14T09:05:31.000Z</time>
      </trkpt>
      <trkpt lat="45.32821" lon="4.78146">
        <ele>139.087076</ele>
        <time>2021-09-14T09:05:32.000Z</time>
      </trkpt>
      <trkpt lat="45.32817" lon="4.78115">
        <ele>138.954381</ele>
        <time>2021-09-14T09:05:36.000Z</time>
      </trkpt>
      <trkpt lat="45.3281" lon="4.78041">
        <ele>138.638736</ele>
        <time>2021-09-14T09:05:45.000Z</time>
      </trkpt>
      <trkpt lat="45.32806" lon="4.77964">
        <ele>138.340146</ele>
        <time>2021-09-14T09:05:54.000Z</time>
      </trkpt>
      <trkpt lat="45.32806" lon="4.77897">
        <ele>138.187355</ele>
        <time>2021-09-14T09:06:02.000Z</time>
      </trkpt>
      <trkpt lat="45.32807" lon="4.77827">
        <ele>138.029131</ele>
        <time>2021-09-14T09:06:10.000Z</time>
      </trkpt>
      <trkpt lat="45.32812" lon="4.77748">
        <ele>137.851306</ele>
        <time>2021-09-14T09:06:19.000Z</time>
      </trkpt>
      <trkpt lat="45.32819" lon="4.77693">
        <ele>137.694533</ele>
        <time>2021-09-14T09:06:26.000Z</time>
      </trkpt>
      <trkpt lat="45.32826" lon="4.7765">
        <ele>137.555469</ele>
        <time>2021-09-14T09:06:32.000Z</time>
      </trkpt>
      <trkpt lat="45.32827" lon="4.77638">
        <ele>137.514553</ele>
        <time>2021-09-14T09:06:34.000Z</time>
      </trkpt>
      <trkpt lat="45.32829" lon="4.77625">
        <ele>137.474578</ele>
        <time>2021-09-14T09:06:36.000Z</time>
      </trkpt>
      <trkpt lat="45.3283" lon="4.77619">
        <ele>137.454493</ele>
        <time>2021-09-14T09:06:37.000Z</time>
      </trkpt>
      <trkpt lat="45.32831" lon="4.77613">
        <ele>137.434192</ele>
        <time>2021-09-14T09:06:38.000Z</time>
      </trkpt>
      <trkpt lat="45.32835" lon="4.77589">
        <ele>137.356028</ele>
        <time>2021-09-14T09:06:42.000Z</time>
      </trkpt>
      <trkpt lat="45.32836" lon="4.77584">
        <ele>137.338017</ele>
        <time>2021-09-14T09:06:43.000Z</time>
      </trkpt>
      <trkpt lat="45.32837" lon="4.77573">
        <ele>137.301274</ele>
        <time>2021-09-14T09:06:45.000Z</time>
      </trkpt>
      <trkpt lat="45.32838" lon="4.77567">
        <ele>137.281813</ele>
        <time>2021-09-14T09:06:46.000Z</time>
      </trkpt>
      <trkpt lat="45.32839" lon="4.77561">
        <ele>137.262453</ele>
        <time>2021-09-14T09:06:47.000Z</time>
      </trkpt>
      <trkpt lat="45.32841" lon="4.77549">
        <ele>137.224455</ele>
        <time>2021-09-14T09:06:49.000Z</time>
      </trkpt>
      <trkpt lat="45.32842" lon="4.77543">
        <ele>137.205409</ele>
        <time>2021-09-14T09:06:50.000Z</time>
      </trkpt>
      <trkpt lat="45.32848" lon="4.77505">
        <ele>137.078013</ele>
        <time>2021-09-14T09:06:57.000Z</time>
      </trkpt>
      <trkpt lat="45.32853" lon="4.77469">
        <ele>136.96145</ele>
        <time>2021-09-14T09:07:04.000Z</time>
      </trkpt>
      <trkpt lat="45.32859" lon="4.77439">
        <ele>136.869886</ele>
        <time>2021-09-14T09:07:10.000Z</time>
      </trkpt>
      <trkpt lat="45.32861" lon="4.77428">
        <ele>136.836705</ele>
        <time>2021-09-14T09:07:12.000Z</time>
      </trkpt>
      <trkpt lat="45.32863" lon="4.77404">
        <ele>136.7652</ele>
        <time>2021-09-14T09:07:16.000Z</time>
      </trkpt>
      <trkpt lat="45.32863" lon="4.77353">
        <ele>136.615122</ele>
        <time>2021-09-14T09:07:24.000Z</time>
      </trkpt>
      <trkpt lat="45.32863" lon="4.77321">
        <ele>136.519121</ele>
        <time>2021-09-14T09:07:29.000Z</time>
      </trkpt>
      <trkpt lat="45.32861" lon="4.77308">
        <ele>136.480484</ele>
        <time>2021-09-14T09:07:31.000Z</time>
      </trkpt>
      <trkpt lat="45.3286" lon="4.77302">
        <ele>136.462557</ele>
        <time>2021-09-14T09:07:32.000Z</time>
      </trkpt>
      <trkpt lat="45.32852" lon="4.77264">
        <ele>136.346638</ele>
        <time>2021-09-14T09:07:38.000Z</time>
      </trkpt>
      <trkpt lat="45.32851" lon="4.77258">
        <ele>136.326557</ele>
        <time>2021-09-14T09:07:39.000Z</time>
      </trkpt>
      <trkpt lat="45.32844" lon="4.77228">
        <ele>136.233139</ele>
        <time>2021-09-14T09:07:44.000Z</time>
      </trkpt>
      <trkpt lat="45.32834" lon="4.77181">
        <ele>136.200574</ele>
        <time>2021-09-14T09:07:53.000Z</time>
      </trkpt>
      <trkpt lat="45.32831" lon="4.77169">
        <ele>136.195549</ele>
        <time>2021-09-14T09:07:56.000Z</time>
      </trkpt>
      <trkpt lat="45.32838" lon="4.77156">
        <ele>136.18937</ele>
        <time>2021-09-14T09:07:58.000Z</time>
      </trkpt>
      <trkpt lat="45.32852" lon="4.77157">
        <ele>136.181767</ele>
        <time>2021-09-14T09:08:02.000Z</time>
      </trkpt>
      <trkpt lat="45.3289" lon="4.77162">
        <ele>136.161328</ele>
        <time>2021-09-14T09:08:11.000Z</time>
      </trkpt>
      <trkpt lat="45.32915" lon="4.77165">
        <ele>136.147848</ele>
        <time>2021-09-14T09:08:17.000Z</time>
      </trkpt>
      <trkpt lat="45.32942" lon="4.77169">
        <ele>136.13318</ele>
        <time>2021-09-14T09:08:23.000Z</time>
      </trkpt>
      <trkpt lat="45.32953" lon="4.7717">
        <ele>136.127573</ele>
        <time>2021-09-14T09:08:25.000Z</time>
      </trkpt>
      <trkpt lat="45.32961" lon="4.77162">
        <ele>136.122189</ele>
        <time>2021-09-14T09:08:27.000Z</time>
      </trkpt>
      <trkpt lat="45.32967" lon="4.77152">
        <ele>136.134425</ele>
        <time>2021-09-14T09:08:29.000Z</time>
      </trkpt>
      <trkpt lat="45.32971" lon="4.77139">
        <ele>136.157096</ele>
        <time>2021-09-14T09:08:31.000Z</time>
      </trkpt>
      <trkpt lat="45.32979" lon="4.77103">
        <ele>136.220986</ele>
        <time>2021-09-14T09:08:37.000Z</time>
      </trkpt>
      <trkpt lat="45.32981" lon="4.77098">
        <ele>136.23026</ele>
        <time>2021-09-14T09:08:38.000Z</time>
      </trkpt>
      <trkpt lat="45.3299" lon="4.77061">
        <ele>136.29629</ele>
        <time>2021-09-14T09:08:45.000Z</time>
      </trkpt>
      <trkpt lat="45.32991" lon="4.77055">
        <ele>136.306041</ele>
        <time>2021-09-14T09:08:46.000Z</time>
      </trkpt>
      <trkpt lat="45.32995" lon="4.77038">
        <ele>136.336321</ele>
        <time>2021-09-14T09:08:49.000Z</time>
      </trkpt>
      <trkpt lat="45.32998" lon="4.77027">
        <ele>136.356963</ele>
        <time>2021-09-14T09:08:51.000Z</time>
      </trkpt>
      <trkpt lat="45.33004" lon="4.76988">
        <ele>136.424153</ele>
        <time>2021-09-14T09:08:58.000Z</time>
      </trkpt>
      <trkpt lat="45.33006" lon="4.76975">
        <ele>136.446622</ele>
        <time>2021-09-14T09:09:01.000Z</time>
      </trkpt>
      <trkpt lat="45.33003" lon="4.76972">
        <ele>136.453733</ele>
        <time>2021-09-14T09:09:02.000Z</time>
      </trkpt>
      <trkpt lat="45.32986" lon="4.76954">
        <ele>136.504383</ele>
        <time>2021-09-14T09:09:08.000Z</time>
      </trkpt>
      <trkpt lat="45.32966" lon="4.76935">
        <ele>136.583976</ele>
        <time>2021-09-14T09:09:15.000Z</time>
      </trkpt>
      <trkpt lat="45.32944" lon="4.76916">
        <ele>136.747174</ele>
        <time>2021-09-14T09:09:22.000Z</time>
      </trkpt>
      <trkpt lat="45.3292" lon="4.76895">
        <ele>136.923087</ele>
        <time>2021-09-14T09:09:29.000Z</time>
      </trkpt>
      <trkpt lat="45.329" lon="4.76877">
        <ele>137.075661</ele>
        <time>2021-09-14T09:09:35.000Z</time>
      </trkpt>
      <trkpt lat="45.32873" lon="4.76854">
        <ele>137.274909</ele>
        <time>2021-09-14T09:09:43.000Z</time>
      </trkpt>
      <trkpt lat="45.32846" lon="4.76837">
        <ele>137.46145</ele>
        <time>2021-09-14T09:09:51.000Z</time>
      </trkpt>
      <trkpt lat="45.32825" lon="4.76825">
        <ele>137.605489</ele>
        <time>2021-09-14T09:09:57.000Z</time>
      </trkpt>
      <trkpt lat="45.32798" lon="4.76808">
        <ele>137.755516</ele>
        <time>2021-09-14T09:10:05.000Z</time>
      </trkpt>
      <trkpt lat="45.32775" lon="4.76784">
        <ele>137.869043</ele>
        <time>2021-09-14T09:10:13.000Z</time>
      </trkpt>
      <trkpt lat="45.32758" lon="4.76758">
        <ele>137.969252</ele>
        <time>2021-09-14T09:10:20.000Z</time>
      </trkpt>
      <trkpt lat="45.32744" lon="4.76737">
        <ele>138.047565</ele>
        <time>2021-09-14T09:10:26.000Z</time>
      </trkpt>
      <trkpt lat="45.32737" lon="4.76727">
        <ele>138.088243</ele>
        <time>2021-09-14T09:10:31.000Z</time>
      </trkpt>
      <trkpt lat="45.32734" lon="4.76723">
        <ele>138.102028</ele>
        <time>2021-09-14T09:10:53.000Z</time>
      </trkpt>
      <trkpt lat="45.32731" lon="4.76718">
        <ele>138.120081</ele>
        <time>2021-09-14T09:10:55.000Z</time>
      </trkpt>
      <trkpt lat="45.32721" lon="4.76724">
        <ele>138.164028</ele>
        <time>2021-09-14T09:10:59.000Z</time>
      </trkpt>
      <trkpt lat="45.32702" lon="4.76733">
        <ele>138.241944</ele>
        <time>2021-09-14T09:11:04.000Z</time>
      </trkpt>
      <trkpt lat="45.32698" lon="4.76735">
        <ele>138.259739</ele>
        <time>2021-09-14T09:11:05.000Z</time>
      </trkpt>
      <trkpt lat="45.32666" lon="4.76749">
        <ele>138.392265</ele>
        <time>2021-09-14T09:11:13.000Z</time>
      </trkpt>
      <trkpt lat="45.32627" lon="4.76765">
        <ele>138.254538</ele>
        <time>2021-09-14T09:11:21.000Z</time>
      </trkpt>
      <trkpt lat="45.32586" lon="4.76776">
        <ele>138.092002</ele>
        <time>2021-09-14T09:11:29.000Z</time>
      </trkpt>
      <trkpt lat="45.32547" lon="4.76786">
        <ele>137.936107</ele>
        <time>2021-09-14T09:11:37.000Z</time>
      </trkpt>
      <trkpt lat="45.32508" lon="4.76796">
        <ele>137.781084</ele>
        <time>2021-09-14T09:11:45.000Z</time>
      </trkpt>
      <trkpt lat="45.32467" lon="4.76802">
        <ele>137.601077</ele>
        <time>2021-09-14T09:11:53.000Z</time>
      </trkpt>
      <trkpt lat="45.32425" lon="4.76803">
        <ele>137.399752</ele>
        <time>2021-09-14T09:12:01.000Z</time>
      </trkpt>
      <trkpt lat="45.32393" lon="4.76801">
        <ele>137.244989</ele>
        <time>2021-09-14T09:12:07.000Z</time>
      </trkpt>
      <trkpt lat="45.3235" lon="4.76798">
        <ele>137.034256</ele>
        <time>2021-09-14T09:12:15.000Z</time>
      </trkpt>
      <trkpt lat="45.32298" lon="4.76791">
        <ele>136.810081</ele>
        <time>2021-09-14T09:12:24.000Z</time>
      </trkpt>
      <trkpt lat="45.32259" lon="4.76784">
        <ele>136.723233</ele>
        <time>2021-09-14T09:12:31.000Z</time>
      </trkpt>
      <trkpt lat="45.32248" lon="4.76781">
        <ele>136.69739</ele>
        <time>2021-09-14T09:12:33.000Z</time>
      </trkpt>
      <trkpt lat="45.32237" lon="4.76781">
        <ele>136.673532</ele>
        <time>2021-09-14T09:12:35.000Z</time>
      </trkpt>
      <trkpt lat="45.32234" lon="4.76781">
        <ele>136.666465</ele>
        <time>2021-09-14T09:12:36.000Z</time>
      </trkpt>
      <trkpt lat="45.32226" lon="4.76776">
        <ele>136.647901</ele>
        <time>2021-09-14T09:12:37.000Z</time>
      </trkpt>
      <trkpt lat="45.32205" lon="4.76768">
        <ele>136.600019</ele>
        <time>2021-09-14T09:12:41.000Z</time>
      </trkpt>
      <trkpt lat="45.322" lon="4.76767">
        <ele>136.588085</ele>
        <time>2021-09-14T09:12:42.000Z</time>
      </trkpt>
      <trkpt lat="45.32156" lon="4.7676">
        <ele>136.49026</ele>
        <time>2021-09-14T09:12:50.000Z</time>
      </trkpt>
      <trkpt lat="45.32116" lon="4.76757">
        <ele>136.41791</ele>
        <time>2021-09-14T09:12:57.000Z</time>
      </trkpt>
      <trkpt lat="45.32066" lon="4.76753">
        <ele>136.364654</ele>
        <time>2021-09-14T09:13:06.000Z</time>
      </trkpt>
      <trkpt lat="45.32038" lon="4.76757">
        <ele>136.33452</ele>
        <time>2021-09-14T09:13:12.000Z</time>
      </trkpt>
      <trkpt lat="45.32013" lon="4.76762">
        <ele>136.307644</ele>
        <time>2021-09-14T09:13:17.000Z</time>
      </trkpt>
      <trkpt lat="45.32004" lon="4.76767">
        <ele>136.29678</ele>
        <time>2021-09-14T09:13:19.000Z</time>
      </trkpt>
      <trkpt lat="45.31993" lon="4.7678">
        <ele>136.281048</ele>
        <time>2021-09-14T09:13:22.000Z</time>
      </trkpt>
      <trkpt lat="45.31985" lon="4.7679">
        <ele>136.270071</ele>
        <time>2021-09-14T09:13:24.000Z</time>
      </trkpt>
      <trkpt lat="45.3196" lon="4.76824">
        <ele>136.198537</ele>
        <time>2021-09-14T09:13:31.000Z</time>
      </trkpt>
      <trkpt lat="45.31953" lon="4.76831">
        <ele>136.147701</ele>
        <time>2021-09-14T09:13:33.000Z</time>
      </trkpt>
      <trkpt lat="45.31945" lon="4.76834">
        <ele>136.097938</ele>
        <time>2021-09-14T09:13:35.000Z</time>
      </trkpt>
      <trkpt lat="45.31936" lon="4.76833">
        <ele>136.042373</ele>
        <time>2021-09-14T09:13:37.000Z</time>
      </trkpt>
      <trkpt lat="45.31936" lon="4.76829">
        <ele>136.025935</ele>
        <time>2021-09-14T09:13:39.000Z</time>
      </trkpt>
      <trkpt lat="45.31935" lon="4.76826">
        <ele>136.012124</ele>
        <time>2021-09-14T09:13:40.000Z</time>
      </trkpt>
      <trkpt lat="45.31936" lon="4.76837">
        <ele>135.965477</ele>
        <time>2021-09-14T09:13:42.000Z</time>
      </trkpt>
      <trkpt lat="45.31924" lon="4.76818">
        <ele>135.861039</ele>
        <time>2021-09-14T09:13:44.000Z</time>
      </trkpt>
      <trkpt lat="45.31919" lon="4.7682">
        <ele>135.828074</ele>
        <time>2021-09-14T09:13:45.000Z</time>
      </trkpt>
      <trkpt lat="45.31907" lon="4.76824">
        <ele>135.752773</ele>
        <time>2021-09-14T09:13:47.000Z</time>
      </trkpt>
      <trkpt lat="45.31894" lon="4.76831">
        <ele>135.67021</ele>
        <time>2021-09-14T09:13:49.000Z</time>
      </trkpt>
      <trkpt lat="45.31886" lon="4.76839">
        <ele>135.60745</ele>
        <time>2021-09-14T09:13:51.000Z</time>
      </trkpt>
      <trkpt lat="45.31878" lon="4.76849">
        <ele>135.543687</ele>
        <time>2021-09-14T09:13:53.000Z</time>
      </trkpt>
      <trkpt lat="45.31863" lon="4.76867">
        <ele>135.42307</ele>
        <time>2021-09-14T09:13:58.000Z</time>
      </trkpt>
      <trkpt lat="45.31836" lon="4.76896">
        <ele>135.218405</ele>
        <time>2021-09-14T09:14:06.000Z</time>
      </trkpt>
      <trkpt lat="45.31833" lon="4.769">
        <ele>135.192291</ele>
        <time>2021-09-14T09:14:07.000Z</time>
      </trkpt>
      <trkpt lat="45.3182" lon="4.76925">
        <ele>135.197787</ele>
        <time>2021-09-14T09:14:12.000Z</time>
      </trkpt>
      <trkpt lat="45.31793" lon="4.76974">
        <ele>135.35734</ele>
        <time>2021-09-14T09:14:21.000Z</time>
      </trkpt>
      <trkpt lat="45.31782" lon="4.76995">
        <ele>135.425223</ele>
        <time>2021-09-14T09:14:25.000Z</time>
      </trkpt>
      <trkpt lat="45.31773" lon="4.77012">
        <ele>135.477594</ele>
        <time>2021-09-14T09:14:28.000Z</time>
      </trkpt>
      <trkpt lat="45.3175" lon="4.77057">
        <ele>135.620294</ele>
        <time>2021-09-14T09:14:36.000Z</time>
      </trkpt>
      <trkpt lat="45.31728" lon="4.77098">
        <ele>135.752959</ele>
        <time>2021-09-14T09:14:43.000Z</time>
      </trkpt>
      <trkpt lat="45.31694" lon="4.77148">
        <ele>135.924752</ele>
        <time>2021-09-14T09:14:52.000Z</time>
      </trkpt>
      <trkpt lat="45.31691" lon="4.77153">
        <ele>135.943429</ele>
        <time>2021-09-14T09:14:53.000Z</time>
      </trkpt>
      <trkpt lat="45.3168" lon="4.77178">
        <ele>136.015848</ele>
        <time>2021-09-14T09:14:57.000Z</time>
      </trkpt>
      <trkpt lat="45.31678" lon="4.77185">
        <ele>136.034095</ele>
        <time>2021-09-14T09:14:58.000Z</time>
      </trkpt>
      <trkpt lat="45.31671" lon="4.77204">
        <ele>136.088014</ele>
        <time>2021-09-14T09:15:01.000Z</time>
      </trkpt>
      <trkpt lat="45.31652" lon="4.77238">
        <ele>136.195625</ele>
        <time>2021-09-14T09:15:07.000Z</time>
      </trkpt>
      <trkpt lat="45.31624" lon="4.77284">
        <ele>136.345532</ele>
        <time>2021-09-14T09:15:15.000Z</time>
      </trkpt>
      <trkpt lat="45.31598" lon="4.77328">
        <ele>136.493934</ele>
        <time>2021-09-14T09:15:23.000Z</time>
      </trkpt>
      <trkpt lat="45.31574" lon="4.77369">
        <ele>136.63187</ele>
        <time>2021-09-14T09:15:31.000Z</time>
      </trkpt>
      <trkpt lat="45.31544" lon="4.7742">
        <ele>136.809437</ele>
        <time>2021-09-14T09:15:41.000Z</time>
      </trkpt>
      <trkpt lat="45.31514" lon="4.77472">
        <ele>136.986322</ele>
        <time>2021-09-14T09:15:51.000Z</time>
      </trkpt>
      <trkpt lat="45.31491" lon="4.77513">
        <ele>137.120401</ele>
        <time>2021-09-14T09:15:59.000Z</time>
      </trkpt>
      <trkpt lat="45.31471" lon="4.77547">
        <ele>137.203609</ele>
        <time>2021-09-14T09:16:06.000Z</time>
      </trkpt>
      <trkpt lat="45.31441" lon="4.776">
        <ele>137.33142</ele>
        <time>2021-09-14T09:16:16.000Z</time>
      </trkpt>
      <trkpt lat="45.31421" lon="4.77635">
        <ele>137.416193</ele>
        <time>2021-09-14T09:16:23.000Z</time>
      </trkpt>
      <trkpt lat="45.31418" lon="4.7764">
        <ele>137.427536</ele>
        <time>2021-09-14T09:16:24.000Z</time>
      </trkpt>
      <trkpt lat="45.31407" lon="4.77675">
        <ele>137.499039</ele>
        <time>2021-09-14T09:16:30.000Z</time>
      </trkpt>
      <trkpt lat="45.31406" lon="4.77681">
        <ele>137.511231</ele>
        <time>2021-09-14T09:16:31.000Z</time>
      </trkpt>
      <trkpt lat="45.31404" lon="4.77687">
        <ele>137.523149</ele>
        <time>2021-09-14T09:16:32.000Z</time>
      </trkpt>
      <trkpt lat="45.31395" lon="4.77718">
        <ele>137.585316</ele>
        <time>2021-09-14T09:16:37.000Z</time>
      </trkpt>
      <trkpt lat="45.31373" lon="4.7778">
        <ele>137.676179</ele>
        <time>2021-09-14T09:16:47.000Z</time>
      </trkpt>
      <trkpt lat="45.31366" lon="4.77807">
        <ele>137.713672</ele>
        <time>2021-09-14T09:16:51.000Z</time>
      </trkpt>
      <trkpt lat="45.31359" lon="4.77817">
        <ele>137.730654</ele>
        <time>2021-09-14T09:16:53.000Z</time>
      </trkpt>
      <trkpt lat="45.31339" lon="4.77841">
        <ele>137.779929</ele>
        <time>2021-09-14T09:16:59.000Z</time>
      </trkpt>
      <trkpt lat="45.31335" lon="4.77844">
        <ele>137.787922</ele>
        <time>2021-09-14T09:17:00.000Z</time>
      </trkpt>
      <trkpt lat="45.31316" lon="4.77859">
        <ele>137.828434</ele>
        <time>2021-09-14T09:17:05.000Z</time>
      </trkpt>
      <trkpt lat="45.31308" lon="4.77866">
        <ele>137.845029</ele>
        <time>2021-09-14T09:17:07.000Z</time>
      </trkpt>
      <trkpt lat="45.313" lon="4.77873">
        <ele>137.861906</ele>
        <time>2021-09-14T09:17:09.000Z</time>
      </trkpt>
      <trkpt lat="45.31297" lon="4.77877">
        <ele>137.870226</ele>
        <time>2021-09-14T09:17:10.000Z</time>
      </trkpt>
      <trkpt lat="45.31295" lon="4.77886">
        <ele>137.881655</ele>
        <time>2021-09-14T09:17:11.000Z</time>
      </trkpt>
      <trkpt lat="45.313" lon="4.77903">
        <ele>137.906181</ele>
        <time>2021-09-14T09:17:14.000Z</time>
      </trkpt>
      <trkpt lat="45.31302" lon="4.77916">
        <ele>137.926771</ele>
        <time>2021-09-14T09:17:16.000Z</time>
      </trkpt>
      <trkpt lat="45.313" lon="4.77922">
        <ele>137.944467</ele>
        <time>2021-09-14T09:17:17.000Z</time>
      </trkpt>
      <trkpt lat="45.31298" lon="4.77928">
        <ele>137.963547</ele>
        <time>2021-09-14T09:17:18.000Z</time>
      </trkpt>
      <trkpt lat="45.31292" lon="4.77941">
        <ele>138.004208</ele>
        <time>2021-09-14T09:17:20.000Z</time>
      </trkpt>
      <trkpt lat="45.31256" lon="4.77985">
        <ele>138.186859</ele>
        <time>2021-09-14T09:17:29.000Z</time>
      </trkpt>
      <trkpt lat="45.31222" lon="4.78034">
        <ele>138.373505</ele>
        <time>2021-09-14T09:17:38.000Z</time>
      </trkpt>
      <trkpt lat="45.31203" lon="4.78073">
        <ele>138.503086</ele>
        <time>2021-09-14T09:17:44.000Z</time>
      </trkpt>
      <trkpt lat="45.31189" lon="4.78122">
        <ele>138.615742</ele>
        <time>2021-09-14T09:17:51.000Z</time>
      </trkpt>
      <trkpt lat="45.31173" lon="4.78172">
        <ele>138.627696</ele>
        <time>2021-09-14T09:17:58.000Z</time>
      </trkpt>
      <trkpt lat="45.3115" lon="4.78233">
        <ele>138.643101</ele>
        <time>2021-09-14T09:18:07.000Z</time>
      </trkpt>
      <trkpt lat="45.31136" lon="4.78278">
        <ele>138.654006</ele>
        <time>2021-09-14T09:18:13.000Z</time>
      </trkpt>
      <trkpt lat="45.31119" lon="4.78336">
        <ele>138.668133</ele>
        <time>2021-09-14T09:18:21.000Z</time>
      </trkpt>
      <trkpt lat="45.31103" lon="4.78389">
        <ele>138.685141</ele>
        <time>2021-09-14T09:18:28.000Z</time>
      </trkpt>
      <trkpt lat="45.311" lon="4.78415">
        <ele>138.693551</ele>
        <time>2021-09-14T09:18:32.000Z</time>
      </trkpt>
      <trkpt lat="45.311" lon="4.78444">
        <ele>138.702514</ele>
        <time>2021-09-14T09:18:38.000Z</time>
      </trkpt>
      <trkpt lat="45.311" lon="4.7845">
        <ele>138.704377</ele>
        <time>2021-09-14T09:18:39.000Z</time>
      </trkpt>
      <trkpt lat="45.31102" lon="4.78464">
        <ele>138.708636</ele>
        <time>2021-09-14T09:18:41.000Z</time>
      </trkpt>
      <trkpt lat="45.31105" lon="4.78479">
        <ele>138.713458</ele>
        <time>2021-09-14T09:18:43.000Z</time>
      </trkpt>
      <trkpt lat="45.31103" lon="4.78485">
        <ele>138.715493</ele>
        <time>2021-09-14T09:18:44.000Z</time>
      </trkpt>
      <trkpt lat="45.31096" lon="4.78495">
        <ele>138.719857</ele>
        <time>2021-09-14T09:18:46.000Z</time>
      </trkpt>
      <trkpt lat="45.31084" lon="4.78511">
        <ele>138.727283</ele>
        <time>2021-09-14T09:18:49.000Z</time>
      </trkpt>
      <trkpt lat="45.31055" lon="4.78548">
        <ele>138.744303</ele>
        <time>2021-09-14T09:18:56.000Z</time>
      </trkpt>
      <trkpt lat="45.31051" lon="4.78553">
        <ele>138.746726</ele>
        <time>2021-09-14T09:18:57.000Z</time>
      </trkpt>
      <trkpt lat="45.31044" lon="4.78566">
        <ele>138.758586</ele>
        <time>2021-09-14T09:18:59.000Z</time>
      </trkpt>
      <trkpt lat="45.31041" lon="4.78572">
        <ele>138.767205</ele>
        <time>2021-09-14T09:19:00.000Z</time>
      </trkpt>
      <trkpt lat="45.31035" lon="4.78595">
        <ele>138.794289</ele>
        <time>2021-09-14T09:19:03.000Z</time>
      </trkpt>
      <trkpt lat="45.31034" lon="4.78603">
        <ele>138.802071</ele>
        <time>2021-09-14T09:19:04.000Z</time>
      </trkpt>
      <trkpt lat="45.31026" lon="4.78605">
        <ele>138.815254</ele>
        <time>2021-09-14T09:19:06.000Z</time>
      </trkpt>
      <trkpt lat="45.31021" lon="4.78601">
        <ele>138.822931</ele>
        <time>2021-09-14T09:19:07.000Z</time>
      </trkpt>
      <trkpt lat="45.31016" lon="4.78598">
        <ele>138.832312</ele>
        <time>2021-09-14T09:19:08.000Z</time>
      </trkpt>
      <trkpt lat="45.31005" lon="4.78609">
        <ele>138.852124</ele>
        <time>2021-09-14T09:19:10.000Z</time>
      </trkpt>
      <trkpt lat="45.30977" lon="4.78651">
        <ele>138.914782</ele>
        <time>2021-09-14T09:19:17.000Z</time>
      </trkpt>
      <trkpt lat="45.30942" lon="4.78703">
        <ele>138.992696</ele>
        <time>2021-09-14T09:19:26.000Z</time>
      </trkpt>
      <trkpt lat="45.30914" lon="4.78743">
        <ele>139.066972</ele>
        <time>2021-09-14T09:19:33.000Z</time>
      </trkpt>
      <trkpt lat="45.30885" lon="4.78784">
        <ele>139.15895</ele>
        <time>2021-09-14T09:19:40.000Z</time>
      </trkpt>
      <trkpt lat="45.30869" lon="4.78817">
        <ele>139.22141</ele>
        <time>2021-09-14T09:19:45.000Z</time>
      </trkpt>
      <trkpt lat="45.30849" lon="4.78866">
        <ele>139.309528</ele>
        <time>2021-09-14T09:19:52.000Z</time>
      </trkpt>
      <trkpt lat="45.30834" lon="4.78896">
        <ele>139.368507</ele>
        <time>2021-09-14T09:19:57.000Z</time>
      </trkpt>
      <trkpt lat="45.3083" lon="4.78902">
        <ele>139.380017</ele>
        <time>2021-09-14T09:19:58.000Z</time>
      </trkpt>
      <trkpt lat="45.30819" lon="4.78917">
        <ele>139.414117</ele>
        <time>2021-09-14T09:20:01.000Z</time>
      </trkpt>
      <trkpt lat="45.30794" lon="4.78951">
        <ele>139.775374</ele>
        <time>2021-09-14T09:20:07.000Z</time>
      </trkpt>
      <trkpt lat="45.30786" lon="4.78963">
        <ele>139.913548</ele>
        <time>2021-09-14T09:20:09.000Z</time>
      </trkpt>
      <trkpt lat="45.30776" lon="4.78981">
        <ele>140.113432</ele>
        <time>2021-09-14T09:20:12.000Z</time>
      </trkpt>
      <trkpt lat="45.30767" lon="4.79">
        <ele>140.308928</ele>
        <time>2021-09-14T09:20:15.000Z</time>
      </trkpt>
      <trkpt lat="45.30761" lon="4.79025">
        <ele>140.535134</ele>
        <time>2021-09-14T09:20:18.000Z</time>
      </trkpt>
      <trkpt lat="45.30751" lon="4.79091">
        <ele>141.116291</ele>
        <time>2021-09-14T09:20:26.000Z</time>
      </trkpt>
      <trkpt lat="45.30746" lon="4.79121">
        <ele>141.373652</ele>
        <time>2021-09-14T09:20:30.000Z</time>
      </trkpt>
      <trkpt lat="45.30738" lon="4.79163">
        <ele>141.659862</ele>
        <time>2021-09-14T09:20:36.000Z</time>
      </trkpt>
      <trkpt lat="45.30734" lon="4.79186">
        <ele>141.720644</ele>
        <time>2021-09-14T09:20:39.000Z</time>
      </trkpt>
      <trkpt lat="45.30733" lon="4.79208">
        <ele>141.779965</ele>
        <time>2021-09-14T09:20:42.000Z</time>
      </trkpt>
      <trkpt lat="45.30733" lon="4.79216">
        <ele>141.800674</ele>
        <time>2021-09-14T09:20:43.000Z</time>
      </trkpt>
      <trkpt lat="45.30738" lon="4.79249">
        <ele>141.889861</ele>
        <time>2021-09-14T09:20:48.000Z</time>
      </trkpt>
      <trkpt lat="45.30738" lon="4.79297">
        <ele>142.015714</ele>
        <time>2021-09-14T09:20:56.000Z</time>
      </trkpt>
      <trkpt lat="45.30737" lon="4.79345">
        <ele>142.143695</ele>
        <time>2021-09-14T09:21:04.000Z</time>
      </trkpt>
      <trkpt lat="45.30737" lon="4.79358">
        <ele>142.178597</ele>
        <time>2021-09-14T09:21:06.000Z</time>
      </trkpt>
      <trkpt lat="45.30741" lon="4.79375">
        <ele>142.224163</ele>
        <time>2021-09-14T09:21:09.000Z</time>
      </trkpt>
      <trkpt lat="45.30745" lon="4.79398">
        <ele>142.288356</ele>
        <time>2021-09-14T09:21:14.000Z</time>
      </trkpt>
      <trkpt lat="45.3075" lon="4.79418">
        <ele>142.407516</ele>
        <time>2021-09-14T09:21:18.000Z</time>
      </trkpt>
      <trkpt lat="45.30751" lon="4.79422">
        <ele>142.434443</ele>
        <time>2021-09-14T09:21:19.000Z</time>
      </trkpt>
      <trkpt lat="45.30741" lon="4.79432">
        <ele>142.539272</ele>
        <time>2021-09-14T09:21:23.000Z</time>
      </trkpt>
      <trkpt lat="45.30729" lon="4.79441">
        <ele>142.655954</ele>
        <time>2021-09-14T09:21:28.000Z</time>
      </trkpt>
      <trkpt lat="45.3071" lon="4.79455">
        <ele>142.843832</ele>
        <time>2021-09-14T09:21:35.000Z</time>
      </trkpt>
      <trkpt lat="45.30689" lon="4.7947">
        <ele>143.048259</ele>
        <time>2021-09-14T09:21:43.000Z</time>
      </trkpt>
      <trkpt lat="45.30662" lon="4.7949">
        <ele>143.313533</ele>
        <time>2021-09-14T09:21:53.000Z</time>
      </trkpt>
      <trkpt lat="45.3064" lon="4.79512">
        <ele>143.546686</ele>
        <time>2021-09-14T09:22:02.000Z</time>
      </trkpt>
      <trkpt lat="45.30628" lon="4.79537">
        <ele>143.729788</ele>
        <time>2021-09-14T09:22:09.000Z</time>
      </trkpt>
      <trkpt lat="45.30621" lon="4.79569">
        <ele>143.999927</ele>
        <time>2021-09-14T09:22:17.000Z</time>
      </trkpt>
      <trkpt lat="45.30622" lon="4.796">
        <ele>144.357824</ele>
        <time>2021-09-14T09:22:24.000Z</time>
      </trkpt>
      <trkpt lat="45.30631" lon="4.79634">
        <ele>144.778711</ele>
        <time>2021-09-14T09:22:31.000Z</time>
      </trkpt>
      <trkpt lat="45.30647" lon="4.79677">
        <ele>145.351477</ele>
        <time>2021-09-14T09:22:39.000Z</time>
      </trkpt>
      <trkpt lat="45.30664" lon="4.79722">
        <ele>145.938625</ele>
        <time>2021-09-14T09:22:47.000Z</time>
      </trkpt>
      <trkpt lat="45.30679" lon="4.79763">
        <ele>146.476972</ele>
        <time>2021-09-14T09:22:54.000Z</time>
      </trkpt>
      <trkpt lat="45.307" lon="4.79818">
        <ele>146.876721</ele>
        <time>2021-09-14T09:23:03.000Z</time>
      </trkpt>
      <trkpt lat="45.30716" lon="4.79862">
        <ele>146.943139</ele>
        <time>2021-09-14T09:23:10.000Z</time>
      </trkpt>
      <trkpt lat="45.30736" lon="4.79917">
        <ele>147.026287</ele>
        <time>2021-09-14T09:23:18.000Z</time>
      </trkpt>
      <trkpt lat="45.30755" lon="4.79967">
        <ele>147.102345</ele>
        <time>2021-09-14T09:23:25.000Z</time>
      </trkpt>
      <trkpt lat="45.30771" lon="4.80015">
        <ele>147.173079</ele>
        <time>2021-09-14T09:23:31.000Z</time>
      </trkpt>
      <trkpt lat="45.30784" lon="4.80074">
        <ele>146.264776</ele>
        <time>2021-09-14T09:23:38.000Z</time>
      </trkpt>
      <trkpt lat="45.30792" lon="4.80128">
        <ele>145.424015</ele>
        <time>2021-09-14T09:23:44.000Z</time>
      </trkpt>
      <trkpt lat="45.30793" lon="4.80143">
        <ele>145.194879</ele>
        <time>2021-09-14T09:23:46.000Z</time>
      </trkpt>
      <trkpt lat="45.30794" lon="4.80158">
        <ele>144.959098</ele>
        <time>2021-09-14T09:23:48.000Z</time>
      </trkpt>
      <trkpt lat="45.30786" lon="4.80172">
        <ele>144.688877</ele>
        <time>2021-09-14T09:23:50.000Z</time>
      </trkpt>
      <trkpt lat="45.30781" lon="4.80176">
        <ele>144.564368</ele>
        <time>2021-09-14T09:23:51.000Z</time>
      </trkpt>
      <trkpt lat="45.30776" lon="4.8018">
        <ele>144.437226</ele>
        <time>2021-09-14T09:23:52.000Z</time>
      </trkpt>
      <trkpt lat="45.30769" lon="4.80185">
        <ele>144.268813</ele>
        <time>2021-09-14T09:23:54.000Z</time>
      </trkpt>
      <trkpt lat="45.30769" lon="4.80181">
        <ele>144.201378</ele>
        <time>2021-09-14T09:23:56.000Z</time>
      </trkpt>
      <trkpt lat="45.30768" lon="4.80175">
        <ele>144.116972</ele>
        <time>2021-09-14T09:24:00.000Z</time>
      </trkpt>
      <trkpt lat="45.30768" lon="4.80165">
        <ele>143.957778</ele>
        <time>2021-09-14T09:24:04.000Z</time>
      </trkpt>
      <trkpt lat="45.30767" lon="4.80152">
        <ele>143.76171</ele>
        <time>2021-09-14T09:24:07.000Z</time>
      </trkpt>
      <trkpt lat="45.30767" lon="4.80149">
        <ele>143.70648</ele>
        <time>2021-09-14T09:24:08.000Z</time>
      </trkpt>
      <trkpt lat="45.30757" lon="4.80151">
        <ele>143.490481</ele>
        <time>2021-09-14T09:24:11.000Z</time>
      </trkpt>
      <trkpt lat="45.30739" lon="4.80163">
        <ele>143.01613</ele>
        <time>2021-09-14T09:24:16.000Z</time>
      </trkpt>
      <trkpt lat="45.30725" lon="4.80173">
        <ele>142.631159</ele>
        <time>2021-09-14T09:24:20.000Z</time>
      </trkpt>
      <trkpt lat="45.30717" lon="4.80178">
        <ele>142.425008</ele>
        <time>2021-09-14T09:24:22.000Z</time>
      </trkpt>
      <trkpt lat="45.30704" lon="4.80188">
        <ele>142.061432</ele>
        <time>2021-09-14T09:24:25.000Z</time>
      </trkpt>
      <trkpt lat="45.30685" lon="4.80201">
        <ele>141.553082</ele>
        <time>2021-09-14T09:24:29.000Z</time>
      </trkpt>
      <trkpt lat="45.30656" lon="4.80223">
        <ele>140.739565</ele>
        <time>2021-09-14T09:24:35.000Z</time>
      </trkpt>
      <trkpt lat="45.30625" lon="4.80246">
        <ele>139.876965</ele>
        <time>2021-09-14T09:24:41.000Z</time>
      </trkpt>
      <trkpt lat="45.3062" lon="4.80249">
        <ele>139.752803</ele>
        <time>2021-09-14T09:24:42.000Z</time>
      </trkpt>
      <trkpt lat="45.30601" lon="4.80263">
        <ele>139.230212</ele>
        <time>2021-09-14T09:24:46.000Z</time>
      </trkpt>
      <trkpt lat="45.30571" lon="4.80286">
        <ele>138.573677</ele>
        <time>2021-09-14T09:24:52.000Z</time>
      </trkpt>
      <trkpt lat="45.30539" lon="4.80309">
        <ele>138.041639</ele>
        <time>2021-09-14T09:24:58.000Z</time>
      </trkpt>
      <trkpt lat="45.30513" lon="4.80328">
        <ele>137.606858</ele>
        <time>2021-09-14T09:25:03.000Z</time>
      </trkpt>
      <trkpt lat="45.30497" lon="4.8034">
        <ele>137.346392</ele>
        <time>2021-09-14T09:25:06.000Z</time>
      </trkpt>
      <trkpt lat="45.30487" lon="4.80347">
        <ele>137.1796</ele>
        <time>2021-09-14T09:25:08.000Z</time>
      </trkpt>
      <trkpt lat="45.30469" lon="4.80361">
        <ele>136.8674</ele>
        <time>2021-09-14T09:25:12.000Z</time>
      </trkpt>
      <trkpt lat="45.30459" lon="4.80368">
        <ele>136.712196</ele>
        <time>2021-09-14T09:25:14.000Z</time>
      </trkpt>
      <trkpt lat="45.30442" lon="4.80379">
        <ele>136.435422</ele>
        <time>2021-09-14T09:25:18.000Z</time>
      </trkpt>
      <trkpt lat="45.30426" lon="4.80388">
        <ele>136.193118</ele>
        <time>2021-09-14T09:25:22.000Z</time>
      </trkpt>
      <trkpt lat="45.30414" lon="4.80393">
        <ele>136.188101</ele>
        <time>2021-09-14T09:25:25.000Z</time>
      </trkpt>
      <trkpt lat="45.30405" lon="4.80396">
        <ele>136.184731</ele>
        <time>2021-09-14T09:25:27.000Z</time>
      </trkpt>
      <trkpt lat="45.30396" lon="4.80397">
        <ele>136.181191</ele>
        <time>2021-09-14T09:25:29.000Z</time>
      </trkpt>
      <trkpt lat="45.30386" lon="4.80396">
        <ele>136.177558</ele>
        <time>2021-09-14T09:25:31.000Z</time>
      </trkpt>
      <trkpt lat="45.30376" lon="4.80395">
        <ele>136.173686</ele>
        <time>2021-09-14T09:25:33.000Z</time>
      </trkpt>
      <trkpt lat="45.30366" lon="4.80391">
        <ele>136.169612</ele>
        <time>2021-09-14T09:25:35.000Z</time>
      </trkpt>
      <trkpt lat="45.3036" lon="4.80389">
        <ele>136.167312</ele>
        <time>2021-09-14T09:25:36.000Z</time>
      </trkpt>
      <trkpt lat="45.30337" lon="4.80368">
        <ele>136.157087</ele>
        <time>2021-09-14T09:25:41.000Z</time>
      </trkpt>
      <trkpt lat="45.30291" lon="4.8033">
        <ele>136.136855</ele>
        <time>2021-09-14T09:25:51.000Z</time>
      </trkpt>
      <trkpt lat="45.30256" lon="4.80312">
        <ele>136.143584</ele>
        <time>2021-09-14T09:25:58.000Z</time>
      </trkpt>
      <trkpt lat="45.3024" lon="4.80307">
        <ele>136.192209</ele>
        <time>2021-09-14T09:26:01.000Z</time>
      </trkpt>
      <trkpt lat="45.3023" lon="4.80305">
        <ele>136.223499</ele>
        <time>2021-09-14T09:26:03.000Z</time>
      </trkpt>
      <trkpt lat="45.30205" lon="4.80303">
        <ele>136.298568</ele>
        <time>2021-09-14T09:26:08.000Z</time>
      </trkpt>
      <trkpt lat="45.30201" lon="4.80304">
        <ele>136.312069</ele>
        <time>2021-09-14T09:26:09.000Z</time>
      </trkpt>
      <trkpt lat="45.30178" lon="4.80312">
        <ele>136.384609</ele>
        <time>2021-09-14T09:26:14.000Z</time>
      </trkpt>
      <trkpt lat="45.30173" lon="4.80314">
        <ele>136.39921</ele>
        <time>2021-09-14T09:26:15.000Z</time>
      </trkpt>
      <trkpt lat="45.30156" lon="4.80328">
        <ele>136.458748</ele>
        <time>2021-09-14T09:26:19.000Z</time>
      </trkpt>
      <trkpt lat="45.30152" lon="4.80332">
        <ele>136.474266</ele>
        <time>2021-09-14T09:26:20.000Z</time>
      </trkpt>
      <trkpt lat="45.30139" lon="4.80345">
        <ele>136.52119</ele>
        <time>2021-09-14T09:26:23.000Z</time>
      </trkpt>
      <trkpt lat="45.3013" lon="4.80353">
        <ele>136.553335</ele>
        <time>2021-09-14T09:26:25.000Z</time>
      </trkpt>
      <trkpt lat="45.30105" lon="4.80378">
        <ele>136.644845</ele>
        <time>2021-09-14T09:26:30.000Z</time>
      </trkpt>
      <trkpt lat="45.30078" lon="4.80407">
        <ele>136.578539</ele>
        <time>2021-09-14T09:26:35.000Z</time>
      </trkpt>
      <trkpt lat="45.30051" lon="4.80434">
        <ele>136.466074</ele>
        <time>2021-09-14T09:26:40.000Z</time>
      </trkpt>
      <trkpt lat="45.3002" lon="4.80466">
        <ele>136.336553</ele>
        <time>2021-09-14T09:26:46.000Z</time>
      </trkpt>
      <trkpt lat="45.29985" lon="4.80502">
        <ele>136.189832</ele>
        <time>2021-09-14T09:26:53.000Z</time>
      </trkpt>
      <trkpt lat="45.29949" lon="4.80538">
        <ele>136.046984</ele>
        <time>2021-09-14T09:27:00.000Z</time>
      </trkpt>
      <trkpt lat="45.29916" lon="4.80573">
        <ele>135.966238</ele>
        <time>2021-09-14T09:27:07.000Z</time>
      </trkpt>
      <trkpt lat="45.29888" lon="4.80603">
        <ele>135.897894</ele>
        <time>2021-09-14T09:27:13.000Z</time>
      </trkpt>
      <trkpt lat="45.2988" lon="4.80612">
        <ele>135.876044</ele>
        <time>2021-09-14T09:27:15.000Z</time>
      </trkpt>
      <trkpt lat="45.29865" lon="4.80627">
        <ele>135.841471</ele>
        <time>2021-09-14T09:27:18.000Z</time>
      </trkpt>
      <trkpt lat="45.29842" lon="4.80654">
        <ele>135.782686</ele>
        <time>2021-09-14T09:27:23.000Z</time>
      </trkpt>
      <trkpt lat="45.29833" lon="4.80663">
        <ele>135.760679</ele>
        <time>2021-09-14T09:27:25.000Z</time>
      </trkpt>
      <trkpt lat="45.2982" lon="4.80676">
        <ele>135.729787</ele>
        <time>2021-09-14T09:27:28.000Z</time>
      </trkpt>
      <trkpt lat="45.29786" lon="4.80713">
        <ele>135.851115</ele>
        <time>2021-09-14T09:27:36.000Z</time>
      </trkpt>
      <trkpt lat="45.29778" lon="4.80722">
        <ele>135.904669</ele>
        <time>2021-09-14T09:27:38.000Z</time>
      </trkpt>
      <trkpt lat="45.2976" lon="4.8074">
        <ele>136.017784</ele>
        <time>2021-09-14T09:27:42.000Z</time>
      </trkpt>
      <trkpt lat="45.29733" lon="4.80768">
        <ele>136.186697</ele>
        <time>2021-09-14T09:27:48.000Z</time>
      </trkpt>
      <trkpt lat="45.29708" lon="4.80792">
        <ele>136.343026</ele>
        <time>2021-09-14T09:27:54.000Z</time>
      </trkpt>
      <trkpt lat="45.29681" lon="4.80817">
        <ele>136.504757</ele>
        <time>2021-09-14T09:28:01.000Z</time>
      </trkpt>
      <trkpt lat="45.29675" lon="4.80823">
        <ele>136.542743</ele>
        <time>2021-09-14T09:28:03.000Z</time>
      </trkpt>
      <trkpt lat="45.29669" lon="4.80836">
        <ele>136.59813</ele>
        <time>2021-09-14T09:28:04.000Z</time>
      </trkpt>
      <trkpt lat="45.29672" lon="4.80843">
        <ele>136.657414</ele>
        <time>2021-09-14T09:28:09.000Z</time>
      </trkpt>
      <trkpt lat="45.2967" lon="4.80828">
        <ele>136.875827</ele>
        <time>2021-09-14T09:28:11.000Z</time>
      </trkpt>
      <trkpt lat="45.29672" lon="4.80842">
        <ele>137.081593</ele>
        <time>2021-09-14T09:29:33.000Z</time>
      </trkpt>
      <trkpt lat="45.29673" lon="4.80844">
        <ele>137.107932</ele>
        <time>2021-09-14T09:29:34.000Z</time>
      </trkpt>
      <trkpt lat="45.29679" lon="4.80856">
        <ele>137.312781</ele>
        <time>2021-09-14T09:29:39.000Z</time>
      </trkpt>
      <trkpt lat="45.29686" lon="4.8087">
        <ele>137.569222</ele>
        <time>2021-09-14T09:29:45.000Z</time>
      </trkpt>
      <trkpt lat="45.29687" lon="4.80872">
        <ele>137.589821</ele>
        <time>2021-09-14T09:29:47.000Z</time>
      </trkpt>
      <trkpt lat="45.29689" lon="4.80875">
        <ele>137.645929</ele>
        <time>2021-09-14T09:29:53.000Z</time>
      </trkpt>
      <trkpt lat="45.29688" lon="4.8088">
        <ele>137.715235</ele>
        <time>2021-09-14T09:29:54.000Z</time>
      </trkpt>
      <trkpt lat="45.29685" lon="4.80882">
        <ele>137.779327</ele>
        <time>2021-09-14T09:29:57.000Z</time>
      </trkpt>
      <trkpt lat="45.2969" lon="4.80877">
        <ele>137.900987</ele>
        <time>2021-09-14T09:29:59.000Z</time>
      </trkpt>
      <trkpt lat="45.2969" lon="4.80877">
        <ele>137.900987</ele>
        <time>2021-09-14T09:30:04.000Z</time>
      </trkpt>
      <trkpt lat="45.2969" lon="4.80877">
        <ele>137.900987</ele>
        <time>2021-09-14T09:30:13.000Z</time>
      </trkpt>
      <trkpt lat="45.29697" lon="4.80917">
        <ele>138.4802</ele>
        <time>2021-09-14T09:30:21.000Z</time>
      </trkpt>
      <trkpt lat="45.29698" lon="4.80927">
        <ele>138.615709</ele>
        <time>2021-09-14T09:30:28.000Z</time>
      </trkpt>
      <trkpt lat="45.29699" lon="4.80935">
        <ele>138.729894</ele>
        <time>2021-09-14T09:30:34.000Z</time>
      </trkpt>
      <trkpt lat="45.29699" lon="4.80937">
        <ele>138.759277</ele>
        <time>2021-09-14T09:30:35.000Z</time>
      </trkpt>
      <trkpt lat="45.29697" lon="4.80947">
        <ele>138.909324</ele>
        <time>2021-09-14T09:30:39.000Z</time>
      </trkpt>
      <trkpt lat="45.29696" lon="4.80953">
        <ele>138.991061</ele>
        <time>2021-09-14T09:30:41.000Z</time>
      </trkpt>
      <trkpt lat="45.29693" lon="4.80952">
        <ele>139.045652</ele>
        <time>2021-09-14T09:30:43.000Z</time>
      </trkpt>
      <trkpt lat="45.29693" lon="4.80948">
        <ele>139.102182</ele>
        <time>2021-09-14T09:30:45.000Z</time>
      </trkpt>
      <trkpt lat="45.29694" lon="4.80947">
        <ele>139.133485</ele>
        <time>2021-09-14T09:30:46.000Z</time>
      </trkpt>
      <trkpt lat="45.29695" lon="4.80945">
        <ele>139.170266</ele>
        <time>2021-09-14T09:30:47.000Z</time>
      </trkpt>
      <trkpt lat="45.29699" lon="4.80931">
        <ele>139.37952</ele>
        <time>2021-09-14T09:30:52.000Z</time>
      </trkpt>
      <trkpt lat="45.29696" lon="4.80915">
        <ele>139.61472</ele>
        <time>2021-09-14T09:30:58.000Z</time>
      </trkpt>
      <trkpt lat="45.29695" lon="4.80911">
        <ele>139.664288</ele>
        <time>2021-09-14T09:30:59.000Z</time>
      </trkpt>
      <trkpt lat="45.29693" lon="4.80901">
        <ele>139.812445</ele>
        <time>2021-09-14T09:31:03.000Z</time>
      </trkpt>
      <trkpt lat="45.2969" lon="4.80877">
        <ele>140.150409</ele>
        <time>2021-09-14T09:31:10.000Z</time>
      </trkpt>
      <trkpt lat="45.29684" lon="4.80883">
        <ele>140.256218</ele>
        <time>2021-09-14T09:31:14.000Z</time>
      </trkpt>
      <trkpt lat="45.29672" lon="4.80895">
        <ele>140.421815</ele>
        <time>2021-09-14T09:31:19.000Z</time>
      </trkpt>
      <trkpt lat="45.29657" lon="4.80908">
        <ele>140.624171</ele>
        <time>2021-09-14T09:31:25.000Z</time>
      </trkpt>
      <trkpt lat="45.29643" lon="4.80921">
        <ele>140.811633</ele>
        <time>2021-09-14T09:31:30.000Z</time>
      </trkpt>
      <trkpt lat="45.29621" lon="4.80942">
        <ele>141.119129</ele>
        <time>2021-09-14T09:31:36.000Z</time>
      </trkpt>
      <trkpt lat="45.29607" lon="4.80955">
        <ele>141.305197</ele>
        <time>2021-09-14T09:31:41.000Z</time>
      </trkpt>
      <trkpt lat="45.29594" lon="4.80967">
        <ele>141.477716</ele>
        <time>2021-09-14T09:31:46.000Z</time>
      </trkpt>
      <trkpt lat="45.29579" lon="4.80983">
        <ele>141.698565</ele>
        <time>2021-09-14T09:31:52.000Z</time>
      </trkpt>
      <trkpt lat="45.29564" lon="4.80998">
        <ele>141.904071</ele>
        <time>2021-09-14T09:31:58.000Z</time>
      </trkpt>
      <trkpt lat="45.29542" lon="4.81019">
        <ele>142.203963</ele>
        <time>2021-09-14T09:32:06.000Z</time>
      </trkpt>
      <trkpt lat="45.29524" lon="4.81037">
        <ele>142.444779</ele>
        <time>2021-09-14T09:32:13.000Z</time>
      </trkpt>
      <trkpt lat="45.29498" lon="4.81059">
        <ele>142.758876</ele>
        <time>2021-09-14T09:32:22.000Z</time>
      </trkpt>
      <trkpt lat="45.29473" lon="4.81079">
        <ele>143.065906</ele>
        <time>2021-09-14T09:32:30.000Z</time>
      </trkpt>
      <trkpt lat="45.29453" lon="4.81096">
        <ele>143.309805</ele>
        <time>2021-09-14T09:32:36.000Z</time>
      </trkpt>
      <trkpt lat="45.29442" lon="4.81104">
        <ele>143.439555</ele>
        <time>2021-09-14T09:32:39.000Z</time>
      </trkpt>
      <trkpt lat="45.29428" lon="4.81116">
        <ele>143.611698</ele>
        <time>2021-09-14T09:32:43.000Z</time>
      </trkpt>
      <trkpt lat="45.29404" lon="4.81135">
        <ele>143.897991</ele>
        <time>2021-09-14T09:32:50.000Z</time>
      </trkpt>
      <trkpt lat="45.29383" lon="4.81151">
        <ele>144.146708</ele>
        <time>2021-09-14T09:32:57.000Z</time>
      </trkpt>
      <trkpt lat="45.2936" lon="4.81161">
        <ele>144.099487</ele>
        <time>2021-09-14T09:33:05.000Z</time>
      </trkpt>
      <trkpt lat="45.29334" lon="4.81171">
        <ele>144.048525</ele>
        <time>2021-09-14T09:33:13.000Z</time>
      </trkpt>
      <trkpt lat="45.29313" lon="4.81177">
        <ele>144.007195</ele>
        <time>2021-09-14T09:33:18.000Z</time>
      </trkpt>
      <trkpt lat="45.29308" lon="4.81179">
        <ele>143.998015</ele>
        <time>2021-09-14T09:33:19.000Z</time>
      </trkpt>
      <trkpt lat="45.29277" lon="4.81188">
        <ele>143.937581</ele>
        <time>2021-09-14T09:33:25.000Z</time>
      </trkpt>
      <trkpt lat="45.29237" lon="4.81201">
        <ele>143.860391</ele>
        <time>2021-09-14T09:33:32.000Z</time>
      </trkpt>
      <trkpt lat="45.29207" lon="4.8121">
        <ele>143.805924</ele>
        <time>2021-09-14T09:33:37.000Z</time>
      </trkpt>
      <trkpt lat="45.29165" lon="4.81223">
        <ele>143.852603</ele>
        <time>2021-09-14T09:33:45.000Z</time>
      </trkpt>
      <trkpt lat="45.29124" lon="4.81236">
        <ele>143.89688</ele>
        <time>2021-09-14T09:33:53.000Z</time>
      </trkpt>
      <trkpt lat="45.29115" lon="4.81239">
        <ele>143.907408</ele>
        <time>2021-09-14T09:33:55.000Z</time>
      </trkpt>
      <trkpt lat="45.29107" lon="4.81241">
        <ele>143.916524</ele>
        <time>2021-09-14T09:33:57.000Z</time>
      </trkpt>
      <trkpt lat="45.29103" lon="4.81242">
        <ele>143.92016</ele>
        <time>2021-09-14T09:33:58.000Z</time>
      </trkpt>
      <trkpt lat="45.29101" lon="4.81243">
        <ele>143.922143</ele>
        <time>2021-09-14T09:34:00.000Z</time>
      </trkpt>
      <trkpt lat="45.29103" lon="4.81266">
        <ele>143.939332</ele>
        <time>2021-09-14T09:34:04.000Z</time>
      </trkpt>
      <trkpt lat="45.29104" lon="4.81268">
        <ele>143.941469</ele>
        <time>2021-09-14T09:34:05.000Z</time>
      </trkpt>
      <trkpt lat="45.29105" lon="4.81276">
        <ele>143.947119</ele>
        <time>2021-09-14T09:34:07.000Z</time>
      </trkpt>
      <trkpt lat="45.29105" lon="4.81278">
        <ele>143.948662</ele>
        <time>2021-09-14T09:34:08.000Z</time>
      </trkpt>
      <trkpt lat="45.29105" lon="4.81286">
        <ele>143.954883</ele>
        <time>2021-09-14T09:34:11.000Z</time>
      </trkpt>
      <trkpt lat="45.29104" lon="4.81282">
        <ele>143.95814</ele>
        <time>2021-09-14T09:34:12.000Z</time>
      </trkpt>
      <trkpt lat="45.29105" lon="4.81282">
        <ele>143.958697</ele>
        <time>2021-09-14T09:34:14.000Z</time>
      </trkpt>
      <trkpt lat="45.29101" lon="4.81283">
        <ele>143.962632</ele>
        <time>2021-09-14T09:34:52.000Z</time>
      </trkpt>
      <trkpt lat="45.29099" lon="4.81283">
        <ele>143.964719</ele>
        <time>2021-09-14T09:34:53.000Z</time>
      </trkpt>
      <trkpt lat="45.29079" lon="4.81289">
        <ele>143.986614</ele>
        <time>2021-09-14T09:35:01.000Z</time>
      </trkpt>
      <trkpt lat="45.29062" lon="4.81297">
        <ele>144.306696</ele>
        <time>2021-09-14T09:35:08.000Z</time>
      </trkpt>
      <trkpt lat="45.2906" lon="4.8131">
        <ele>144.698843</ele>
        <time>2021-09-14T09:35:12.000Z</time>
      </trkpt>
      <trkpt lat="45.29064" lon="4.81339">
        <ele>145.527349</ele>
        <time>2021-09-14T09:35:20.000Z</time>
      </trkpt>
      <trkpt lat="45.29068" lon="4.81367">
        <ele>146.350235</ele>
        <time>2021-09-14T09:35:27.000Z</time>
      </trkpt>
      <trkpt lat="45.29072" lon="4.8139">
        <ele>147.025776</ele>
        <time>2021-09-14T09:35:33.000Z</time>
      </trkpt>
      <trkpt lat="45.29076" lon="4.81408">
        <ele>147.573262</ele>
        <time>2021-09-14T09:35:39.000Z</time>
      </trkpt>
      <trkpt lat="45.29077" lon="4.81411">
        <ele>147.669594</ele>
        <time>2021-09-14T09:35:44.000Z</time>
      </trkpt>
      <trkpt lat="45.2908" lon="4.8141">
        <ele>147.819458</ele>
        <time>2021-09-14T09:35:48.000Z</time>
      </trkpt>
      <trkpt lat="45.29082" lon="4.81409">
        <ele>147.879617</ele>
        <time>2021-09-14T09:35:49.000Z</time>
      </trkpt>
      <trkpt lat="45.29092" lon="4.81405">
        <ele>148.318867</ele>
        <time>2021-09-14T09:35:54.000Z</time>
      </trkpt>
      <trkpt lat="45.29106" lon="4.814">
        <ele>148.897087</ele>
        <time>2021-09-14T09:36:00.000Z</time>
      </trkpt>
      <trkpt lat="45.29119" lon="4.81396">
        <ele>149.445224</ele>
        <time>2021-09-14T09:36:05.000Z</time>
      </trkpt>
      <trkpt lat="45.29129" lon="4.81396">
        <ele>149.836608</ele>
        <time>2021-09-14T09:36:11.000Z</time>
      </trkpt>
      <trkpt lat="45.29129" lon="4.81395">
        <ele>149.869667</ele>
        <time>2021-09-14T09:36:13.000Z</time>
      </trkpt>
      <trkpt lat="45.29132" lon="4.81395">
        <ele>149.984199</ele>
        <time>2021-09-14T09:36:18.000Z</time>
      </trkpt>
      <trkpt lat="45.29134" lon="4.81395">
        <ele>150.041822</ele>
        <time>2021-09-14T09:36:19.000Z</time>
      </trkpt>
      <trkpt lat="45.29145" lon="4.81392">
        <ele>150.491181</ele>
        <time>2021-09-14T09:36:25.000Z</time>
      </trkpt>
      <trkpt lat="45.29164" lon="4.81388">
        <ele>151.280099</ele>
        <time>2021-09-14T09:36:33.000Z</time>
      </trkpt>
      <trkpt lat="45.29174" lon="4.81385">
        <ele>151.61904</ele>
        <time>2021-09-14T09:36:39.000Z</time>
      </trkpt>
      <trkpt lat="45.29188" lon="4.81381">
        <ele>152.080748</ele>
        <time>2021-09-14T09:36:45.000Z</time>
      </trkpt>
      <trkpt lat="45.29208" lon="4.81375">
        <ele>152.714357</ele>
        <time>2021-09-14T09:36:53.000Z</time>
      </trkpt>
      <trkpt lat="45.29223" lon="4.81371">
        <ele>153.18754</ele>
        <time>2021-09-14T09:36:59.000Z</time>
      </trkpt>
      <trkpt lat="45.2924" lon="4.81366">
        <ele>153.743972</ele>
        <time>2021-09-14T09:37:06.000Z</time>
      </trkpt>
      <trkpt lat="45.29253" lon="4.81363">
        <ele>154.16117</ele>
        <time>2021-09-14T09:37:11.000Z</time>
      </trkpt>
      <trkpt lat="45.29264" lon="4.81359">
        <ele>154.494422</ele>
        <time>2021-09-14T09:37:17.000Z</time>
      </trkpt>
      <trkpt lat="45.29283" lon="4.81353">
        <ele>155.125716</ele>
        <time>2021-09-14T09:37:25.000Z</time>
      </trkpt>
      <trkpt lat="45.29309" lon="4.81344">
        <ele>155.970848</ele>
        <time>2021-09-14T09:37:33.000Z</time>
      </trkpt>
      <trkpt lat="45.29332" lon="4.81336">
        <ele>156.725134</ele>
        <time>2021-09-14T09:37:39.000Z</time>
      </trkpt>
      <trkpt lat="45.29353" lon="4.81329">
        <ele>157.194544</ele>
        <time>2021-09-14T09:37:44.000Z</time>
      </trkpt>
      <trkpt lat="45.2935" lon="4.8132">
        <ele>157.299098</ele>
        <time>2021-09-14T09:37:46.000Z</time>
      </trkpt>
      <trkpt lat="45.29342" lon="4.8132">
        <ele>157.438174</ele>
        <time>2021-09-14T09:37:50.000Z</time>
      </trkpt>
      <trkpt lat="45.29329" lon="4.81324">
        <ele>157.659115</ele>
        <time>2021-09-14T09:37:55.000Z</time>
      </trkpt>
      <trkpt lat="45.29314" lon="4.8133">
        <ele>157.917771</ele>
        <time>2021-09-14T09:38:01.000Z</time>
      </trkpt>
      <trkpt lat="45.29297" lon="4.81336">
        <ele>158.212804</ele>
        <time>2021-09-14T09:38:07.000Z</time>
      </trkpt>
      <trkpt lat="45.2928" lon="4.81342">
        <ele>158.506214</ele>
        <time>2021-09-14T09:38:13.000Z</time>
      </trkpt>
      <trkpt lat="45.29277" lon="4.81343">
        <ele>158.561597</ele>
        <time>2021-09-14T09:38:16.000Z</time>
      </trkpt>
      <trkpt lat="45.29274" lon="4.81344">
        <ele>158.621847</ele>
        <time>2021-09-14T09:38:18.000Z</time>
      </trkpt>
      <trkpt lat="45.29271" lon="4.81345">
        <ele>158.665004</ele>
        <time>2021-09-14T09:38:20.000Z</time>
      </trkpt>
      <trkpt lat="45.29268" lon="4.81346">
        <ele>158.709785</ele>
        <time>2021-09-14T09:38:22.000Z</time>
      </trkpt>
      <trkpt lat="45.29255" lon="4.81352">
        <ele>158.938514</ele>
        <time>2021-09-14T09:38:28.000Z</time>
      </trkpt>
      <trkpt lat="45.29251" lon="4.81355">
        <ele>159.019187</ele>
        <time>2021-09-14T09:38:33.000Z</time>
      </trkpt>
      <trkpt lat="45.29246" lon="4.81358">
        <ele>159.105894</ele>
        <time>2021-09-14T09:38:38.000Z</time>
      </trkpt>
      <trkpt lat="45.29236" lon="4.81365">
        <ele>159.300994</ele>
        <time>2021-09-14T09:38:44.000Z</time>
      </trkpt>
      <trkpt lat="45.29221" lon="4.81372">
        <ele>159.561281</ele>
        <time>2021-09-14T09:38:50.000Z</time>
      </trkpt>
      <trkpt lat="45.29197" lon="4.81378">
        <ele>159.970356</ele>
        <time>2021-09-14T09:38:58.000Z</time>
      </trkpt>
      <trkpt lat="45.29178" lon="4.81383">
        <ele>159.102035</ele>
        <time>2021-09-14T09:39:05.000Z</time>
      </trkpt>
      <trkpt lat="45.29168" lon="4.81386">
        <ele>158.588863</ele>
        <time>2021-09-14T09:39:10.000Z</time>
      </trkpt>
      <trkpt lat="45.29163" lon="4.81388">
        <ele>158.344236</ele>
        <time>2021-09-14T09:39:12.000Z</time>
      </trkpt>
      <trkpt lat="45.29157" lon="4.81389">
        <ele>158.059646</ele>
        <time>2021-09-14T09:39:14.000Z</time>
      </trkpt>
      <trkpt lat="45.29144" lon="4.81392">
        <ele>157.40994</ele>
        <time>2021-09-14T09:39:19.000Z</time>
      </trkpt>
      <trkpt lat="45.29134" lon="4.81395">
        <ele>156.876996</ele>
        <time>2021-09-14T09:39:25.000Z</time>
      </trkpt>
      <trkpt lat="45.29128" lon="4.81396">
        <ele>156.599316</ele>
        <time>2021-09-14T09:39:32.000Z</time>
      </trkpt>
      <trkpt lat="45.29125" lon="4.81396">
        <ele>156.465759</ele>
        <time>2021-09-14T09:39:36.000Z</time>
      </trkpt>
      <trkpt lat="45.29125" lon="4.81396">
        <ele>156.426248</ele>
        <time>2021-09-14T09:45:40.000Z</time>
      </trkpt>
      <trkpt lat="45.29117" lon="4.81396">
        <ele>156.037514</ele>
        <time>2021-09-14T09:45:45.000Z</time>
      </trkpt>
      <trkpt lat="45.29108" lon="4.81399">
        <ele>155.612227</ele>
        <time>2021-09-14T09:45:51.000Z</time>
      </trkpt>
      <trkpt lat="45.29106" lon="4.81389">
        <ele>155.248081</ele>
        <time>2021-09-14T09:45:58.000Z</time>
      </trkpt>
      <trkpt lat="45.29102" lon="4.81387">
        <ele>155.033119</ele>
        <time>2021-09-14T09:46:04.000Z</time>
      </trkpt>
      <trkpt lat="45.29078" lon="4.81371">
        <ele>153.727216</ele>
        <time>2021-09-14T10:03:06.000Z</time>
      </trkpt>
      <trkpt lat="45.29073" lon="4.81368">
        <ele>153.468661</ele>
        <time>2021-09-14T10:03:08.000Z</time>
      </trkpt>
      <trkpt lat="45.29066" lon="4.81356">
        <ele>152.927494</ele>
        <time>2021-09-14T10:03:13.000Z</time>
      </trkpt>
      <trkpt lat="45.29063" lon="4.81334">
        <ele>152.166381</ele>
        <time>2021-09-14T10:03:18.000Z</time>
      </trkpt>
      <trkpt lat="45.2906" lon="4.81312">
        <ele>151.372815</ele>
        <time>2021-09-14T10:03:22.000Z</time>
      </trkpt>
      <trkpt lat="45.2906" lon="4.81307">
        <ele>151.185196</ele>
        <time>2021-09-14T10:03:23.000Z</time>
      </trkpt>
      <trkpt lat="45.29061" lon="4.81301">
        <ele>150.980285</ele>
        <time>2021-09-14T10:03:24.000Z</time>
      </trkpt>
      <trkpt lat="45.29066" lon="4.81293">
        <ele>150.598629</ele>
        <time>2021-09-14T10:03:26.000Z</time>
      </trkpt>
      <trkpt lat="45.29091" lon="4.81286">
        <ele>149.401862</ele>
        <time>2021-09-14T10:03:31.000Z</time>
      </trkpt>
      <trkpt lat="45.29101" lon="4.81283">
        <ele>148.925557</ele>
        <time>2021-09-14T10:03:33.000Z</time>
      </trkpt>
      <trkpt lat="45.29104" lon="4.81282">
        <ele>148.765445</ele>
        <time>2021-09-14T10:03:34.000Z</time>
      </trkpt>
      <trkpt lat="45.29104" lon="4.8127">
        <ele>148.366423</ele>
        <time>2021-09-14T10:03:36.000Z</time>
      </trkpt>
      <trkpt lat="45.29103" lon="4.8126">
        <ele>148.006522</ele>
        <time>2021-09-14T10:03:38.000Z</time>
      </trkpt>
      <trkpt lat="45.29102" lon="4.81251">
        <ele>147.731631</ele>
        <time>2021-09-14T10:03:40.000Z</time>
      </trkpt>
      <trkpt lat="45.29101" lon="4.81248">
        <ele>147.616074</ele>
        <time>2021-09-14T10:03:42.000Z</time>
      </trkpt>
      <trkpt lat="45.29101" lon="4.81243">
        <ele>147.446781</ele>
        <time>2021-09-14T10:03:57.000Z</time>
      </trkpt>
      <trkpt lat="45.29101" lon="4.81243">
        <ele>147.446781</ele>
        <time>2021-09-14T10:03:59.000Z</time>
      </trkpt>
      <trkpt lat="45.29101" lon="4.81243">
        <ele>147.446781</ele>
        <time>2021-09-14T10:04:05.000Z</time>
      </trkpt>
      <trkpt lat="45.29101" lon="4.81243">
        <ele>147.446781</ele>
        <time>2021-09-14T10:04:11.000Z</time>
      </trkpt>
      <trkpt lat="45.29088" lon="4.81177">
        <ele>145.147975</ele>
        <time>2021-09-14T10:04:17.000Z</time>
      </trkpt>
      <trkpt lat="45.29085" lon="4.81161">
        <ele>144.595482</ele>
        <time>2021-09-14T10:04:23.000Z</time>
      </trkpt>
      <trkpt lat="45.2908" lon="4.81145">
        <ele>144.000971</ele>
        <time>2021-09-14T10:04:29.000Z</time>
      </trkpt>
      <trkpt lat="45.29077" lon="4.81127">
        <ele>143.409021</ele>
        <time>2021-09-14T10:04:35.000Z</time>
      </trkpt>
      <trkpt lat="45.29075" lon="4.8111">
        <ele>142.825381</ele>
        <time>2021-09-14T10:04:41.000Z</time>
      </trkpt>
      <trkpt lat="45.29075" lon="4.81102">
        <ele>142.558645</ele>
        <time>2021-09-14T10:04:44.000Z</time>
      </trkpt>
      <trkpt lat="45.29075" lon="4.81103">
        <ele>142.547435</ele>
        <time>2021-09-14T10:04:45.000Z</time>
      </trkpt>
      <trkpt lat="45.29075" lon="4.81102">
        <ele>142.537501</ele>
        <time>2021-09-14T10:04:46.000Z</time>
      </trkpt>
      <trkpt lat="45.29072" lon="4.81102">
        <ele>142.497072</ele>
        <time>2021-09-14T10:04:48.000Z</time>
      </trkpt>
      <trkpt lat="45.29062" lon="4.81103">
        <ele>142.37182</ele>
        <time>2021-09-14T10:04:53.000Z</time>
      </trkpt>
      <trkpt lat="45.29048" lon="4.81105">
        <ele>142.189242</ele>
        <time>2021-09-14T10:04:59.000Z</time>
      </trkpt>
      <trkpt lat="45.29037" lon="4.81107">
        <ele>142.044422</ele>
        <time>2021-09-14T10:05:04.000Z</time>
      </trkpt>
      <trkpt lat="45.29023" lon="4.81108">
        <ele>141.863052</ele>
        <time>2021-09-14T10:05:09.000Z</time>
      </trkpt>
      <trkpt lat="45.28995" lon="4.8111">
        <ele>141.496328</ele>
        <time>2021-09-14T10:05:17.000Z</time>
      </trkpt>
      <trkpt lat="45.28963" lon="4.81112">
        <ele>141.07515</ele>
        <time>2021-09-14T10:05:25.000Z</time>
      </trkpt>
      <trkpt lat="45.28935" lon="4.81114">
        <ele>140.711147</ele>
        <time>2021-09-14T10:05:31.000Z</time>
      </trkpt>
      <trkpt lat="45.28896" lon="4.81116">
        <ele>140.216994</ele>
        <time>2021-09-14T10:05:39.000Z</time>
      </trkpt>
      <trkpt lat="45.28878" lon="4.81118">
        <ele>140.041643</ele>
        <time>2021-09-14T10:05:43.000Z</time>
      </trkpt>
      <trkpt lat="45.28869" lon="4.81118">
        <ele>139.947667</ele>
        <time>2021-09-14T10:05:45.000Z</time>
      </trkpt>
      <trkpt lat="45.28845" lon="4.8112">
        <ele>139.714206</ele>
        <time>2021-09-14T10:05:50.000Z</time>
      </trkpt>
      <trkpt lat="45.2883" lon="4.8112">
        <ele>139.573726</ele>
        <time>2021-09-14T10:05:53.000Z</time>
      </trkpt>
      <trkpt lat="45.28798" lon="4.81118">
        <ele>139.261631</ele>
        <time>2021-09-14T10:06:00.000Z</time>
      </trkpt>
      <trkpt lat="45.28794" lon="4.81118">
        <ele>139.219872</ele>
        <time>2021-09-14T10:06:01.000Z</time>
      </trkpt>
      <trkpt lat="45.28776" lon="4.81116">
        <ele>139.05299</ele>
        <time>2021-09-14T10:06:05.000Z</time>
      </trkpt>
      <trkpt lat="45.28772" lon="4.81115">
        <ele>139.01128</ele>
        <time>2021-09-14T10:06:06.000Z</time>
      </trkpt>
      <trkpt lat="45.28759" lon="4.81116">
        <ele>138.881493</ele>
        <time>2021-09-14T10:06:09.000Z</time>
      </trkpt>
      <trkpt lat="45.28749" lon="4.81117">
        <ele>138.789479</ele>
        <time>2021-09-14T10:06:11.000Z</time>
      </trkpt>
      <trkpt lat="45.28719" lon="4.81118">
        <ele>138.498876</ele>
        <time>2021-09-14T10:06:17.000Z</time>
      </trkpt>
      <trkpt lat="45.28714" lon="4.81119">
        <ele>138.463569</ele>
        <time>2021-09-14T10:06:18.000Z</time>
      </trkpt>
      <trkpt lat="45.28688" lon="4.8112">
        <ele>138.292736</ele>
        <time>2021-09-14T10:06:23.000Z</time>
      </trkpt>
      <trkpt lat="45.28664" lon="4.81122">
        <ele>138.133031</ele>
        <time>2021-09-14T10:06:28.000Z</time>
      </trkpt>
      <trkpt lat="45.28658" lon="4.81122">
        <ele>138.097034</ele>
        <time>2021-09-14T10:06:29.000Z</time>
      </trkpt>
      <trkpt lat="45.2863" lon="4.81123">
        <ele>137.911153</ele>
        <time>2021-09-14T10:06:35.000Z</time>
      </trkpt>
      <trkpt lat="45.28611" lon="4.81123">
        <ele>137.790817</ele>
        <time>2021-09-14T10:06:39.000Z</time>
      </trkpt>
      <trkpt lat="45.28598" lon="4.8112">
        <ele>137.702439</ele>
        <time>2021-09-14T10:06:42.000Z</time>
      </trkpt>
      <trkpt lat="45.28581" lon="4.81112">
        <ele>137.583118</ele>
        <time>2021-09-14T10:06:46.000Z</time>
      </trkpt>
      <trkpt lat="45.28571" lon="4.81112">
        <ele>137.519654</ele>
        <time>2021-09-14T10:06:48.000Z</time>
      </trkpt>
      <trkpt lat="45.28561" lon="4.81111">
        <ele>137.456189</ele>
        <time>2021-09-14T10:06:50.000Z</time>
      </trkpt>
      <trkpt lat="45.28553" lon="4.81111">
        <ele>137.399261</ele>
        <time>2021-09-14T10:06:52.000Z</time>
      </trkpt>
      <trkpt lat="45.28548" lon="4.81111">
        <ele>137.372432</ele>
        <time>2021-09-14T10:06:53.000Z</time>
      </trkpt>
      <trkpt lat="45.28544" lon="4.81111">
        <ele>137.346256</ele>
        <time>2021-09-14T10:06:54.000Z</time>
      </trkpt>
      <trkpt lat="45.28528" lon="4.8111">
        <ele>137.231275</ele>
        <time>2021-09-14T10:06:58.000Z</time>
      </trkpt>
      <trkpt lat="45.28498" lon="4.81108">
        <ele>137.01347</ele>
        <time>2021-09-14T10:07:05.000Z</time>
      </trkpt>
      <trkpt lat="45.28461" lon="4.81104">
        <ele>136.747683</ele>
        <time>2021-09-14T10:07:12.000Z</time>
      </trkpt>
      <trkpt lat="45.28426" lon="4.81102">
        <ele>136.498256</ele>
        <time>2021-09-14T10:07:18.000Z</time>
      </trkpt>
      <trkpt lat="45.2842" lon="4.81102">
        <ele>136.455009</ele>
        <time>2021-09-14T10:07:19.000Z</time>
      </trkpt>
      <trkpt lat="45.28403" lon="4.81107">
        <ele>136.326495</ele>
        <time>2021-09-14T10:07:22.000Z</time>
      </trkpt>
      <trkpt lat="45.28392" lon="4.8111">
        <ele>136.245197</ele>
        <time>2021-09-14T10:07:24.000Z</time>
      </trkpt>
      <trkpt lat="45.28363" lon="4.81113">
        <ele>136.033005</ele>
        <time>2021-09-14T10:07:30.000Z</time>
      </trkpt>
      <trkpt lat="45.28332" lon="4.81116">
        <ele>135.831566</ele>
        <time>2021-09-14T10:07:36.000Z</time>
      </trkpt>
      <trkpt lat="45.28304" lon="4.81119">
        <ele>135.652576</ele>
        <time>2021-09-14T10:07:41.000Z</time>
      </trkpt>
      <trkpt lat="45.28271" lon="4.81123">
        <ele>135.439128</ele>
        <time>2021-09-14T10:07:47.000Z</time>
      </trkpt>
      <trkpt lat="45.28245" lon="4.81128">
        <ele>135.267152</ele>
        <time>2021-09-14T10:07:52.000Z</time>
      </trkpt>
      <trkpt lat="45.28219" lon="4.81134">
        <ele>135.096207</ele>
        <time>2021-09-14T10:07:57.000Z</time>
      </trkpt>
      <trkpt lat="45.28196" lon="4.81136">
        <ele>134.945444</ele>
        <time>2021-09-14T10:08:02.000Z</time>
      </trkpt>
      <trkpt lat="45.28188" lon="4.81136">
        <ele>134.892289</ele>
        <time>2021-09-14T10:08:04.000Z</time>
      </trkpt>
      <trkpt lat="45.28179" lon="4.81137">
        <ele>134.837592</ele>
        <time>2021-09-14T10:08:06.000Z</time>
      </trkpt>
      <trkpt lat="45.28154" lon="4.81141">
        <ele>134.696913</ele>
        <time>2021-09-14T10:08:12.000Z</time>
      </trkpt>
      <trkpt lat="45.2815" lon="4.81142">
        <ele>134.671316</ele>
        <time>2021-09-14T10:08:13.000Z</time>
      </trkpt>
      <trkpt lat="45.2814" lon="4.81144">
        <ele>134.614488</ele>
        <time>2021-09-14T10:08:15.000Z</time>
      </trkpt>
      <trkpt lat="45.2813" lon="4.81145">
        <ele>134.56279</ele>
        <time>2021-09-14T10:08:17.000Z</time>
      </trkpt>
      <trkpt lat="45.28122" lon="4.81147">
        <ele>134.513936</ele>
        <time>2021-09-14T10:08:19.000Z</time>
      </trkpt>
      <trkpt lat="45.28114" lon="4.81149">
        <ele>134.467367</ele>
        <time>2021-09-14T10:08:21.000Z</time>
      </trkpt>
      <trkpt lat="45.2811" lon="4.81149">
        <ele>134.444056</ele>
        <time>2021-09-14T10:08:22.000Z</time>
      </trkpt>
      <trkpt lat="45.28101" lon="4.8115">
        <ele>134.394297</ele>
        <time>2021-09-14T10:08:24.000Z</time>
      </trkpt>
      <trkpt lat="45.28087" lon="4.81152">
        <ele>134.316308</ele>
        <time>2021-09-14T10:08:27.000Z</time>
      </trkpt>
      <trkpt lat="45.28062" lon="4.81157">
        <ele>134.17622</ele>
        <time>2021-09-14T10:08:32.000Z</time>
      </trkpt>
      <trkpt lat="45.28032" lon="4.81162">
        <ele>134.00212</ele>
        <time>2021-09-14T10:08:38.000Z</time>
      </trkpt>
      <trkpt lat="45.28022" lon="4.81163">
        <ele>133.949119</ele>
        <time>2021-09-14T10:08:40.000Z</time>
      </trkpt>
      <trkpt lat="45.28013" lon="4.81164">
        <ele>133.894993</ele>
        <time>2021-09-14T10:08:42.000Z</time>
      </trkpt>
      <trkpt lat="45.27988" lon="4.81171">
        <ele>133.718569</ele>
        <time>2021-09-14T10:08:47.000Z</time>
      </trkpt>
      <trkpt lat="45.27978" lon="4.81172">
        <ele>133.638953</ele>
        <time>2021-09-14T10:08:49.000Z</time>
      </trkpt>
      <trkpt lat="45.27969" lon="4.81173">
        <ele>133.567816</ele>
        <time>2021-09-14T10:08:51.000Z</time>
      </trkpt>
      <trkpt lat="45.27964" lon="4.81174">
        <ele>133.530822</ele>
        <time>2021-09-14T10:08:52.000Z</time>
      </trkpt>
      <trkpt lat="45.27941" lon="4.81182">
        <ele>133.344619</ele>
        <time>2021-09-14T10:08:57.000Z</time>
      </trkpt>
      <trkpt lat="45.27931" lon="4.81185">
        <ele>133.264471</ele>
        <time>2021-09-14T10:08:59.000Z</time>
      </trkpt>
      <trkpt lat="45.27922" lon="4.81185">
        <ele>133.188979</ele>
        <time>2021-09-14T10:09:01.000Z</time>
      </trkpt>
      <trkpt lat="45.279" lon="4.81183">
        <ele>133.021972</ele>
        <time>2021-09-14T10:09:05.000Z</time>
      </trkpt>
      <trkpt lat="45.27881" lon="4.81181">
        <ele>132.872067</ele>
        <time>2021-09-14T10:09:09.000Z</time>
      </trkpt>
      <trkpt lat="45.27846" lon="4.8118">
        <ele>132.595996</ele>
        <time>2021-09-14T10:09:16.000Z</time>
      </trkpt>
      <trkpt lat="45.27825" lon="4.8118">
        <ele>132.429277</ele>
        <time>2021-09-14T10:09:20.000Z</time>
      </trkpt>
      <trkpt lat="45.2782" lon="4.81181">
        <ele>132.384213</ele>
        <time>2021-09-14T10:09:21.000Z</time>
      </trkpt>
      <trkpt lat="45.27811" lon="4.81181">
        <ele>132.302051</ele>
        <time>2021-09-14T10:09:23.000Z</time>
      </trkpt>
      <trkpt lat="45.27801" lon="4.81181">
        <ele>132.217203</ele>
        <time>2021-09-14T10:09:25.000Z</time>
      </trkpt>
      <trkpt lat="45.2778" lon="4.81178">
        <ele>132.029731</ele>
        <time>2021-09-14T10:09:30.000Z</time>
      </trkpt>
      <trkpt lat="45.27762" lon="4.81175">
        <ele>131.863651</ele>
        <time>2021-09-14T10:09:34.000Z</time>
      </trkpt>
      <trkpt lat="45.27757" lon="4.81175">
        <ele>131.818783</ele>
        <time>2021-09-14T10:09:35.000Z</time>
      </trkpt>
      <trkpt lat="45.27747" lon="4.81174">
        <ele>131.730352</ele>
        <time>2021-09-14T10:09:37.000Z</time>
      </trkpt>
      <trkpt lat="45.27738" lon="4.81178">
        <ele>131.646635</ele>
        <time>2021-09-14T10:09:39.000Z</time>
      </trkpt>
      <trkpt lat="45.27729" lon="4.81181">
        <ele>131.560218</ele>
        <time>2021-09-14T10:09:41.000Z</time>
      </trkpt>
      <trkpt lat="45.27718" lon="4.81182">
        <ele>131.46367</ele>
        <time>2021-09-14T10:09:43.000Z</time>
      </trkpt>
      <trkpt lat="45.27712" lon="4.81181">
        <ele>131.410678</ele>
        <time>2021-09-14T10:09:44.000Z</time>
      </trkpt>
      <trkpt lat="45.2769" lon="4.81179">
        <ele>131.216202</ele>
        <time>2021-09-14T10:09:48.000Z</time>
      </trkpt>
      <trkpt lat="45.27665" lon="4.81178">
        <ele>130.994685</ele>
        <time>2021-09-14T10:09:53.000Z</time>
      </trkpt>
      <trkpt lat="45.27626" lon="4.81177">
        <ele>130.585447</ele>
        <time>2021-09-14T10:10:01.000Z</time>
      </trkpt>
      <trkpt lat="45.27584" lon="4.81177">
        <ele>130.078902</ele>
        <time>2021-09-14T10:10:09.000Z</time>
      </trkpt>
      <trkpt lat="45.27546" lon="4.81178">
        <ele>129.632958</ele>
        <time>2021-09-14T10:10:16.000Z</time>
      </trkpt>
      <trkpt lat="45.27541" lon="4.81178">
        <ele>129.569739</ele>
        <time>2021-09-14T10:10:17.000Z</time>
      </trkpt>
      <trkpt lat="45.27531" lon="4.81177">
        <ele>129.447892</ele>
        <time>2021-09-14T10:10:19.000Z</time>
      </trkpt>
      <trkpt lat="45.27526" lon="4.81175">
        <ele>129.388463</ele>
        <time>2021-09-14T10:10:20.000Z</time>
      </trkpt>
      <trkpt lat="45.2752" lon="4.81174">
        <ele>129.321709</ele>
        <time>2021-09-14T10:10:21.000Z</time>
      </trkpt>
      <trkpt lat="45.27504" lon="4.81172">
        <ele>129.123688</ele>
        <time>2021-09-14T10:10:24.000Z</time>
      </trkpt>
      <trkpt lat="45.2747" lon="4.81172">
        <ele>128.720597</ele>
        <time>2021-09-14T10:10:30.000Z</time>
      </trkpt>
      <trkpt lat="45.27454" lon="4.81172">
        <ele>128.691191</ele>
        <time>2021-09-14T10:10:33.000Z</time>
      </trkpt>
      <trkpt lat="45.27444" lon="4.81172">
        <ele>128.699386</ele>
        <time>2021-09-14T10:10:35.000Z</time>
      </trkpt>
      <trkpt lat="45.27418" lon="4.81171">
        <ele>128.720879</ele>
        <time>2021-09-14T10:10:40.000Z</time>
      </trkpt>
      <trkpt lat="45.27391" lon="4.81172">
        <ele>128.74413</ele>
        <time>2021-09-14T10:10:45.000Z</time>
      </trkpt>
      <trkpt lat="45.27363" lon="4.81173">
        <ele>128.766803</ele>
        <time>2021-09-14T10:10:51.000Z</time>
      </trkpt>
      <trkpt lat="45.27337" lon="4.81176">
        <ele>128.788933</ele>
        <time>2021-09-14T10:10:57.000Z</time>
      </trkpt>
      <trkpt lat="45.27304" lon="4.81179">
        <ele>128.816347</ele>
        <time>2021-09-14T10:11:06.000Z</time>
      </trkpt>
      <trkpt lat="45.27281" lon="4.81182">
        <ele>128.941504</ele>
        <time>2021-09-14T10:11:13.000Z</time>
      </trkpt>
      <trkpt lat="45.27257" lon="4.81184">
        <ele>129.443955</ele>
        <time>2021-09-14T10:11:21.000Z</time>
      </trkpt>
      <trkpt lat="45.2724" lon="4.81185">
        <ele>129.790652</ele>
        <time>2021-09-14T10:11:27.000Z</time>
      </trkpt>
      <trkpt lat="45.27218" lon="4.81187">
        <ele>130.239303</ele>
        <time>2021-09-14T10:11:35.000Z</time>
      </trkpt>
      <trkpt lat="45.27197" lon="4.81188">
        <ele>130.669638</ele>
        <time>2021-09-14T10:11:43.000Z</time>
      </trkpt>
      <trkpt lat="45.27185" lon="4.81188">
        <ele>130.906001</ele>
        <time>2021-09-14T10:11:48.000Z</time>
      </trkpt>
      <trkpt lat="45.27171" lon="4.81191">
        <ele>131.190376</ele>
        <time>2021-09-14T10:11:52.000Z</time>
      </trkpt>
      <trkpt lat="45.27141" lon="4.81189">
        <ele>131.798908</ele>
        <time>2021-09-14T10:11:58.000Z</time>
      </trkpt>
      <trkpt lat="45.27106" lon="4.81193">
        <ele>132.506171</ele>
        <time>2021-09-14T10:12:04.000Z</time>
      </trkpt>
      <trkpt lat="45.27064" lon="4.81197">
        <ele>132.766092</ele>
        <time>2021-09-14T10:12:11.000Z</time>
      </trkpt>
      <trkpt lat="45.27047" lon="4.81198">
        <ele>132.869085</ele>
        <time>2021-09-14T10:12:14.000Z</time>
      </trkpt>
      <trkpt lat="45.27032" lon="4.81199">
        <ele>132.966415</ele>
        <time>2021-09-14T10:12:17.000Z</time>
      </trkpt>
      <trkpt lat="45.27003" lon="4.81198">
        <ele>133.144365</ele>
        <time>2021-09-14T10:12:23.000Z</time>
      </trkpt>
      <trkpt lat="45.26983" lon="4.81194">
        <ele>133.267661</ele>
        <time>2021-09-14T10:12:27.000Z</time>
      </trkpt>
      <trkpt lat="45.26978" lon="4.81193">
        <ele>133.297121</ele>
        <time>2021-09-14T10:12:28.000Z</time>
      </trkpt>
      <trkpt lat="45.26971" lon="4.81196">
        <ele>133.343756</ele>
        <time>2021-09-14T10:12:30.000Z</time>
      </trkpt>
      <trkpt lat="45.26959" lon="4.81199">
        <ele>133.421192</ele>
        <time>2021-09-14T10:12:32.000Z</time>
      </trkpt>
      <trkpt lat="45.26918" lon="4.81197">
        <ele>133.670318</ele>
        <time>2021-09-14T10:12:39.000Z</time>
      </trkpt>
      <trkpt lat="45.26897" lon="4.81199">
        <ele>133.794532</ele>
        <time>2021-09-14T10:12:44.000Z</time>
      </trkpt>
      <trkpt lat="45.26876" lon="4.81202">
        <ele>133.92072</ele>
        <time>2021-09-14T10:12:48.000Z</time>
      </trkpt>
      <trkpt lat="45.26866" lon="4.81203">
        <ele>133.982295</ele>
        <time>2021-09-14T10:12:50.000Z</time>
      </trkpt>
      <trkpt lat="45.26833" lon="4.81209">
        <ele>134.176433</ele>
        <time>2021-09-14T10:12:56.000Z</time>
      </trkpt>
      <trkpt lat="45.26791" lon="4.81217">
        <ele>134.428564</ele>
        <time>2021-09-14T10:13:04.000Z</time>
      </trkpt>
      <trkpt lat="45.26748" lon="4.81225">
        <ele>134.667411</ele>
        <time>2021-09-14T10:13:12.000Z</time>
      </trkpt>
      <trkpt lat="45.26717" lon="4.81235">
        <ele>134.489191</ele>
        <time>2021-09-14T10:13:18.000Z</time>
      </trkpt>
      <trkpt lat="45.26683" lon="4.81253">
        <ele>134.285681</ele>
        <time>2021-09-14T10:13:25.000Z</time>
      </trkpt>
      <trkpt lat="45.26657" lon="4.81266">
        <ele>134.133599</ele>
        <time>2021-09-14T10:13:30.000Z</time>
      </trkpt>
      <trkpt lat="45.26646" lon="4.81271">
        <ele>134.071755</ele>
        <time>2021-09-14T10:13:32.000Z</time>
      </trkpt>
      <trkpt lat="45.26632" lon="4.81273">
        <ele>133.993217</ele>
        <time>2021-09-14T10:13:35.000Z</time>
      </trkpt>
      <trkpt lat="45.26628" lon="4.81273">
        <ele>133.966483</ele>
        <time>2021-09-14T10:13:36.000Z</time>
      </trkpt>
      <trkpt lat="45.26597" lon="4.81268">
        <ele>133.795349</ele>
        <time>2021-09-14T10:13:42.000Z</time>
      </trkpt>
      <trkpt lat="45.26581" lon="4.81261">
        <ele>133.700397</ele>
        <time>2021-09-14T10:13:46.000Z</time>
      </trkpt>
      <trkpt lat="45.2657" lon="4.81255">
        <ele>133.651716</ele>
        <time>2021-09-14T10:13:49.000Z</time>
      </trkpt>
      <trkpt lat="45.26565" lon="4.81252">
        <ele>133.634516</ele>
        <time>2021-09-14T10:13:50.000Z</time>
      </trkpt>
      <trkpt lat="45.26561" lon="4.8125">
        <ele>133.61691</ele>
        <time>2021-09-14T10:13:51.000Z</time>
      </trkpt>
      <trkpt lat="45.26551" lon="4.81246">
        <ele>133.58281</ele>
        <time>2021-09-14T10:13:53.000Z</time>
      </trkpt>
      <trkpt lat="45.26541" lon="4.81242">
        <ele>133.546065</ele>
        <time>2021-09-14T10:13:55.000Z</time>
      </trkpt>
      <trkpt lat="45.26506" lon="4.81234">
        <ele>133.426709</ele>
        <time>2021-09-14T10:14:01.000Z</time>
      </trkpt>
      <trkpt lat="45.26472" lon="4.81229">
        <ele>133.309898</ele>
        <time>2021-09-14T10:14:07.000Z</time>
      </trkpt>
      <trkpt lat="45.26439" lon="4.81224">
        <ele>133.193767</ele>
        <time>2021-09-14T10:14:13.000Z</time>
      </trkpt>
      <trkpt lat="45.26423" lon="4.81222">
        <ele>133.138284</ele>
        <time>2021-09-14T10:14:16.000Z</time>
      </trkpt>
      <trkpt lat="45.26418" lon="4.81222">
        <ele>133.12114</ele>
        <time>2021-09-14T10:14:17.000Z</time>
      </trkpt>
      <trkpt lat="45.2639" lon="4.81222">
        <ele>132.976358</ele>
        <time>2021-09-14T10:14:22.000Z</time>
      </trkpt>
      <trkpt lat="45.26385" lon="4.81222">
        <ele>132.925805</ele>
        <time>2021-09-14T10:14:23.000Z</time>
      </trkpt>
      <trkpt lat="45.26362" lon="4.81224">
        <ele>132.71866</ele>
        <time>2021-09-14T10:14:27.000Z</time>
      </trkpt>
      <trkpt lat="45.26335" lon="4.81225">
        <ele>132.464897</ele>
        <time>2021-09-14T10:14:32.000Z</time>
      </trkpt>
      <trkpt lat="45.26304" lon="4.81221">
        <ele>132.178572</ele>
        <time>2021-09-14T10:14:38.000Z</time>
      </trkpt>
      <trkpt lat="45.26277" lon="4.81217">
        <ele>131.934754</ele>
        <time>2021-09-14T10:14:43.000Z</time>
      </trkpt>
      <trkpt lat="45.26257" lon="4.81214">
        <ele>131.746374</ele>
        <time>2021-09-14T10:14:47.000Z</time>
      </trkpt>
      <trkpt lat="45.26231" lon="4.8121">
        <ele>131.509935</ele>
        <time>2021-09-14T10:14:52.000Z</time>
      </trkpt>
      <trkpt lat="45.26226" lon="4.81209">
        <ele>131.462537</ele>
        <time>2021-09-14T10:14:53.000Z</time>
      </trkpt>
      <trkpt lat="45.2621" lon="4.81203">
        <ele>131.40918</ele>
        <time>2021-09-14T10:14:56.000Z</time>
      </trkpt>
      <trkpt lat="45.26195" lon="4.81197">
        <ele>131.414002</ele>
        <time>2021-09-14T10:14:59.000Z</time>
      </trkpt>
      <trkpt lat="45.26184" lon="4.81194">
        <ele>131.417132</ele>
        <time>2021-09-14T10:15:01.000Z</time>
      </trkpt>
      <trkpt lat="45.26168" lon="4.8119">
        <ele>131.422181</ele>
        <time>2021-09-14T10:15:04.000Z</time>
      </trkpt>
      <trkpt lat="45.26152" lon="4.81186">
        <ele>131.427234</ele>
        <time>2021-09-14T10:15:07.000Z</time>
      </trkpt>
      <trkpt lat="45.26113" lon="4.81176">
        <ele>131.439058</ele>
        <time>2021-09-14T10:15:14.000Z</time>
      </trkpt>
      <trkpt lat="45.26089" lon="4.8117">
        <ele>131.446602</ele>
        <time>2021-09-14T10:15:19.000Z</time>
      </trkpt>
      <trkpt lat="45.26056" lon="4.8116">
        <ele>131.456676</ele>
        <time>2021-09-14T10:15:25.000Z</time>
      </trkpt>
      <trkpt lat="45.26051" lon="4.81159">
        <ele>131.458327</ele>
        <time>2021-09-14T10:15:26.000Z</time>
      </trkpt>
      <trkpt lat="45.26036" lon="4.81153">
        <ele>131.477423</ele>
        <time>2021-09-14T10:15:29.000Z</time>
      </trkpt>
      <trkpt lat="45.26027" lon="4.81148">
        <ele>131.498501</ele>
        <time>2021-09-14T10:15:31.000Z</time>
      </trkpt>
      <trkpt lat="45.26017" lon="4.81142">
        <ele>131.521071</ele>
        <time>2021-09-14T10:15:33.000Z</time>
      </trkpt>
      <trkpt lat="45.26013" lon="4.8114">
        <ele>131.530683</ele>
        <time>2021-09-14T10:15:34.000Z</time>
      </trkpt>
      <trkpt lat="45.26" lon="4.81132">
        <ele>131.561318</ele>
        <time>2021-09-14T10:15:37.000Z</time>
      </trkpt>
      <trkpt lat="45.25969" lon="4.81116">
        <ele>131.632214</ele>
        <time>2021-09-14T10:15:43.000Z</time>
      </trkpt>
      <trkpt lat="45.25942" lon="4.81102">
        <ele>131.691938</ele>
        <time>2021-09-14T10:15:48.000Z</time>
      </trkpt>
      <trkpt lat="45.25911" lon="4.81086">
        <ele>131.761815</ele>
        <time>2021-09-14T10:15:54.000Z</time>
      </trkpt>
      <trkpt lat="45.259" lon="4.81081">
        <ele>131.786174</ele>
        <time>2021-09-14T10:15:56.000Z</time>
      </trkpt>
      <trkpt lat="45.25884" lon="4.81074">
        <ele>131.821388</ele>
        <time>2021-09-14T10:15:59.000Z</time>
      </trkpt>
      <trkpt lat="45.2586" lon="4.81066">
        <ele>131.83007</ele>
        <time>2021-09-14T10:16:04.000Z</time>
      </trkpt>
      <trkpt lat="45.25834" lon="4.81056">
        <ele>131.808896</ele>
        <time>2021-09-14T10:16:09.000Z</time>
      </trkpt>
      <trkpt lat="45.25814" lon="4.81046">
        <ele>131.792029</ele>
        <time>2021-09-14T10:16:13.000Z</time>
      </trkpt>
      <trkpt lat="45.25787" lon="4.81036">
        <ele>131.769099</ele>
        <time>2021-09-14T10:16:18.000Z</time>
      </trkpt>
      <trkpt lat="45.25756" lon="4.81025">
        <ele>131.744156</ele>
        <time>2021-09-14T10:16:24.000Z</time>
      </trkpt>
      <trkpt lat="45.25734" lon="4.81012">
        <ele>131.724597</ele>
        <time>2021-09-14T10:16:29.000Z</time>
      </trkpt>
      <trkpt lat="45.25713" lon="4.80999">
        <ele>131.706961</ele>
        <time>2021-09-14T10:16:34.000Z</time>
      </trkpt>
      <trkpt lat="45.25705" lon="4.80994">
        <ele>131.699406</ele>
        <time>2021-09-14T10:16:36.000Z</time>
      </trkpt>
      <trkpt lat="45.25694" lon="4.80988">
        <ele>131.728203</ele>
        <time>2021-09-14T10:16:38.000Z</time>
      </trkpt>
      <trkpt lat="45.25681" lon="4.80982">
        <ele>131.766991</ele>
        <time>2021-09-14T10:16:41.000Z</time>
      </trkpt>
      <trkpt lat="45.25677" lon="4.8098">
        <ele>131.779069</ele>
        <time>2021-09-14T10:16:42.000Z</time>
      </trkpt>
      <trkpt lat="45.25673" lon="4.80977">
        <ele>131.793296</ele>
        <time>2021-09-14T10:16:43.000Z</time>
      </trkpt>
      <trkpt lat="45.25663" lon="4.80973">
        <ele>131.821011</ele>
        <time>2021-09-14T10:16:45.000Z</time>
      </trkpt>
      <trkpt lat="45.25658" lon="4.80971">
        <ele>131.836356</ele>
        <time>2021-09-14T10:16:46.000Z</time>
      </trkpt>
      <trkpt lat="45.2562" lon="4.80956">
        <ele>131.949139</ele>
        <time>2021-09-14T10:16:53.000Z</time>
      </trkpt>
      <trkpt lat="45.25587" lon="4.80943">
        <ele>132.045976</ele>
        <time>2021-09-14T10:16:59.000Z</time>
      </trkpt>
      <trkpt lat="45.25552" lon="4.8093">
        <ele>132.151362</ele>
        <time>2021-09-14T10:17:06.000Z</time>
      </trkpt>
      <trkpt lat="45.25523" lon="4.80917">
        <ele>132.275201</ele>
        <time>2021-09-14T10:17:12.000Z</time>
      </trkpt>
      <trkpt lat="45.25503" lon="4.8091">
        <ele>132.421009</ele>
        <time>2021-09-14T10:17:16.000Z</time>
      </trkpt>
      <trkpt lat="45.25493" lon="4.80908">
        <ele>132.492559</ele>
        <time>2021-09-14T10:17:18.000Z</time>
      </trkpt>
      <trkpt lat="45.25482" lon="4.80905">
        <ele>132.568366</ele>
        <time>2021-09-14T10:17:20.000Z</time>
      </trkpt>
      <trkpt lat="45.25466" lon="4.80903">
        <ele>132.67949</ele>
        <time>2021-09-14T10:17:23.000Z</time>
      </trkpt>
      <trkpt lat="45.25442" lon="4.80901">
        <ele>132.854264</ele>
        <time>2021-09-14T10:17:28.000Z</time>
      </trkpt>
      <trkpt lat="45.25423" lon="4.80899">
        <ele>132.987307</ele>
        <time>2021-09-14T10:17:32.000Z</time>
      </trkpt>
      <trkpt lat="45.25408" lon="4.80895">
        <ele>133.09489</ele>
        <time>2021-09-14T10:17:35.000Z</time>
      </trkpt>
      <trkpt lat="45.25399" lon="4.80892">
        <ele>133.159096</ele>
        <time>2021-09-14T10:17:37.000Z</time>
      </trkpt>
      <trkpt lat="45.2539" lon="4.8089">
        <ele>133.223363</ele>
        <time>2021-09-14T10:17:39.000Z</time>
      </trkpt>
      <trkpt lat="45.25378" lon="4.80889">
        <ele>133.308846</ele>
        <time>2021-09-14T10:17:41.000Z</time>
      </trkpt>
      <trkpt lat="45.25369" lon="4.80896">
        <ele>133.378902</ele>
        <time>2021-09-14T10:17:42.000Z</time>
      </trkpt>
      <trkpt lat="45.25366" lon="4.80902">
        <ele>133.415452</ele>
        <time>2021-09-14T10:17:43.000Z</time>
      </trkpt>
      <trkpt lat="45.2536" lon="4.80915">
        <ele>133.514954</ele>
        <time>2021-09-14T10:17:45.000Z</time>
      </trkpt>
      <trkpt lat="45.25352" lon="4.80926">
        <ele>133.693738</ele>
        <time>2021-09-14T10:17:47.000Z</time>
      </trkpt>
      <trkpt lat="45.25343" lon="4.80934">
        <ele>133.877853</ele>
        <time>2021-09-14T10:17:49.000Z</time>
      </trkpt>
      <trkpt lat="45.25326" lon="4.80948">
        <ele>134.212681</ele>
        <time>2021-09-14T10:17:53.000Z</time>
      </trkpt>
      <trkpt lat="45.25322" lon="4.8095">
        <ele>134.286535</ele>
        <time>2021-09-14T10:17:54.000Z</time>
      </trkpt>
      <trkpt lat="45.25309" lon="4.80955">
        <ele>134.511249</ele>
        <time>2021-09-14T10:17:57.000Z</time>
      </trkpt>
      <trkpt lat="45.25293" lon="4.80959">
        <ele>134.777376</ele>
        <time>2021-09-14T10:18:01.000Z</time>
      </trkpt>
      <trkpt lat="45.2528" lon="4.80963">
        <ele>135.010717</ele>
        <time>2021-09-14T10:18:06.000Z</time>
      </trkpt>
      <trkpt lat="45.25278" lon="4.80963">
        <ele>135.045163</ele>
        <time>2021-09-14T10:18:07.000Z</time>
      </trkpt>
      <trkpt lat="45.25269" lon="4.80964">
        <ele>135.1842</ele>
        <time>2021-09-14T10:18:11.000Z</time>
      </trkpt>
      <trkpt lat="45.25253" lon="4.80966">
        <ele>135.454134</ele>
        <time>2021-09-14T10:18:18.000Z</time>
      </trkpt>
      <trkpt lat="45.25235" lon="4.80967">
        <ele>135.764579</ele>
        <time>2021-09-14T10:18:25.000Z</time>
      </trkpt>
      <trkpt lat="45.25221" lon="4.80971">
        <ele>135.999799</ele>
        <time>2021-09-14T10:18:31.000Z</time>
      </trkpt>
      <trkpt lat="45.25215" lon="4.80984">
        <ele>136.193924</ele>
        <time>2021-09-14T10:18:35.000Z</time>
      </trkpt>
      <trkpt lat="45.25213" lon="4.81021">
        <ele>136.510789</ele>
        <time>2021-09-14T10:18:42.000Z</time>
      </trkpt>
      <trkpt lat="45.25212" lon="4.81027">
        <ele>136.510697</ele>
        <time>2021-09-14T10:18:43.000Z</time>
      </trkpt>
      <trkpt lat="45.25212" lon="4.81039">
        <ele>136.510507</ele>
        <time>2021-09-14T10:18:45.000Z</time>
      </trkpt>
      <trkpt lat="45.25208" lon="4.8105">
        <ele>136.510316</ele>
        <time>2021-09-14T10:18:47.000Z</time>
      </trkpt>
      <trkpt lat="45.25196" lon="4.81067">
        <ele>136.509952</ele>
        <time>2021-09-14T10:18:51.000Z</time>
      </trkpt>
      <trkpt lat="45.25167" lon="4.81095">
        <ele>136.509172</ele>
        <time>2021-09-14T10:19:00.000Z</time>
      </trkpt>
      <trkpt lat="45.2516" lon="4.81103">
        <ele>136.508981</ele>
        <time>2021-09-14T10:19:02.000Z</time>
      </trkpt>
      <trkpt lat="45.25157" lon="4.81108">
        <ele>136.508877</ele>
        <time>2021-09-14T10:19:03.000Z</time>
      </trkpt>
      <trkpt lat="45.25148" lon="4.81108">
        <ele>136.508692</ele>
        <time>2021-09-14T10:19:04.000Z</time>
      </trkpt>
      <trkpt lat="45.25139" lon="4.811">
        <ele>136.508458</ele>
        <time>2021-09-14T10:19:06.000Z</time>
      </trkpt>
      <trkpt lat="45.25106" lon="4.81072">
        <ele>136.507621</ele>
        <time>2021-09-14T10:19:13.000Z</time>
      </trkpt>
      <trkpt lat="45.25069" lon="4.81041">
        <ele>136.521545</ele>
        <time>2021-09-14T10:19:21.000Z</time>
      </trkpt>
      <trkpt lat="45.25037" lon="4.81018">
        <ele>136.557489</ele>
        <time>2021-09-14T10:19:28.000Z</time>
      </trkpt>
      <trkpt lat="45.25016" lon="4.81002">
        <ele>136.580939</ele>
        <time>2021-09-14T10:19:33.000Z</time>
      </trkpt>
      <trkpt lat="45.25012" lon="4.80999">
        <ele>136.585532</ele>
        <time>2021-09-14T10:19:34.000Z</time>
      </trkpt>
      <trkpt lat="45.25004" lon="4.80993">
        <ele>136.59451</ele>
        <time>2021-09-14T10:19:36.000Z</time>
      </trkpt>
      <trkpt lat="45.24989" lon="4.80982">
        <ele>136.611147</ele>
        <time>2021-09-14T10:19:40.000Z</time>
      </trkpt>
      <trkpt lat="45.24976" lon="4.8097">
        <ele>136.627069</ele>
        <time>2021-09-14T10:19:44.000Z</time>
      </trkpt>
      <trkpt lat="45.2497" lon="4.80962">
        <ele>136.635423</ele>
        <time>2021-09-14T10:19:46.000Z</time>
      </trkpt>
      <trkpt lat="45.24966" lon="4.80958">
        <ele>136.639698</ele>
        <time>2021-09-14T10:19:47.000Z</time>
      </trkpt>
      <trkpt lat="45.24959" lon="4.80953">
        <ele>136.647801</ele>
        <time>2021-09-14T10:19:49.000Z</time>
      </trkpt>
      <trkpt lat="45.24955" lon="4.8095">
        <ele>136.651882</ele>
        <time>2021-09-14T10:19:50.000Z</time>
      </trkpt>
      <trkpt lat="45.24928" lon="4.80932">
        <ele>136.682428</ele>
        <time>2021-09-14T10:19:56.000Z</time>
      </trkpt>
      <trkpt lat="45.24905" lon="4.80917">
        <ele>136.737373</ele>
        <time>2021-09-14T10:20:01.000Z</time>
      </trkpt>
      <trkpt lat="45.24882" lon="4.80901">
        <ele>136.799853</ele>
        <time>2021-09-14T10:20:06.000Z</time>
      </trkpt>
      <trkpt lat="45.2485" lon="4.80879">
        <ele>136.886893</ele>
        <time>2021-09-14T10:20:13.000Z</time>
      </trkpt>
      <trkpt lat="45.24837" lon="4.80869">
        <ele>136.923022</ele>
        <time>2021-09-14T10:20:16.000Z</time>
      </trkpt>
      <trkpt lat="45.24829" lon="4.80863">
        <ele>136.945877</ele>
        <time>2021-09-14T10:20:18.000Z</time>
      </trkpt>
      <trkpt lat="45.24807" lon="4.80846">
        <ele>137.007508</ele>
        <time>2021-09-14T10:20:23.000Z</time>
      </trkpt>
      <trkpt lat="45.24783" lon="4.80829">
        <ele>137.072024</ele>
        <time>2021-09-14T10:20:30.000Z</time>
      </trkpt>
      <trkpt lat="45.24765" lon="4.80815">
        <ele>137.123344</ele>
        <time>2021-09-14T10:20:35.000Z</time>
      </trkpt>
      <trkpt lat="45.24742" lon="4.80798">
        <ele>137.237618</ele>
        <time>2021-09-14T10:20:41.000Z</time>
      </trkpt>
      <trkpt lat="45.24727" lon="4.80787">
        <ele>137.315573</ele>
        <time>2021-09-14T10:20:45.000Z</time>
      </trkpt>
      <trkpt lat="45.24705" lon="4.8077">
        <ele>137.42803</ele>
        <time>2021-09-14T10:20:51.000Z</time>
      </trkpt>
      <trkpt lat="45.24687" lon="4.80757">
        <ele>137.520823</ele>
        <time>2021-09-14T10:20:56.000Z</time>
      </trkpt>
      <trkpt lat="45.24657" lon="4.80734">
        <ele>137.678092</ele>
        <time>2021-09-14T10:21:04.000Z</time>
      </trkpt>
      <trkpt lat="45.24641" lon="4.80722">
        <ele>137.757557</ele>
        <time>2021-09-14T10:21:08.000Z</time>
      </trkpt>
      <trkpt lat="45.2463" lon="4.80714">
        <ele>137.81791</ele>
        <time>2021-09-14T10:21:11.000Z</time>
      </trkpt>
      <trkpt lat="45.24618" lon="4.80705">
        <ele>137.879771</ele>
        <time>2021-09-14T10:21:15.000Z</time>
      </trkpt>
      <trkpt lat="45.24594" lon="4.80687">
        <ele>138.030999</ele>
        <time>2021-09-14T10:21:21.000Z</time>
      </trkpt>
      <trkpt lat="45.24579" lon="4.80676">
        <ele>138.144031</ele>
        <time>2021-09-14T10:21:25.000Z</time>
      </trkpt>
      <trkpt lat="45.24563" lon="4.80666">
        <ele>138.260694</ele>
        <time>2021-09-14T10:21:29.000Z</time>
      </trkpt>
      <trkpt lat="45.24555" lon="4.80661">
        <ele>138.318778</ele>
        <time>2021-09-14T10:21:31.000Z</time>
      </trkpt>
      <trkpt lat="45.24529" lon="4.80654">
        <ele>138.50212</ele>
        <time>2021-09-14T10:21:37.000Z</time>
      </trkpt>
      <trkpt lat="45.24503" lon="4.80646">
        <ele>138.684131</ele>
        <time>2021-09-14T10:21:43.000Z</time>
      </trkpt>
      <trkpt lat="45.2449" lon="4.80642">
        <ele>138.769564</ele>
        <time>2021-09-14T10:21:46.000Z</time>
      </trkpt>
      <trkpt lat="45.24465" lon="4.80635">
        <ele>138.945384</ele>
        <time>2021-09-14T10:21:52.000Z</time>
      </trkpt>
      <trkpt lat="45.24449" lon="4.8063">
        <ele>139.058062</ele>
        <time>2021-09-14T10:21:57.000Z</time>
      </trkpt>
      <trkpt lat="45.24436" lon="4.80626">
        <ele>139.147785</ele>
        <time>2021-09-14T10:22:03.000Z</time>
      </trkpt>
      <trkpt lat="45.24428" lon="4.80624">
        <ele>139.181955</ele>
        <time>2021-09-14T10:22:08.000Z</time>
      </trkpt>
      <trkpt lat="45.24425" lon="4.80623">
        <ele>139.187282</ele>
        <time>2021-09-14T10:22:11.000Z</time>
      </trkpt>
      <trkpt lat="45.24422" lon="4.80622">
        <ele>139.194702</ele>
        <time>2021-09-14T10:22:13.000Z</time>
      </trkpt>
      <trkpt lat="45.24403" lon="4.80616">
        <ele>139.238968</ele>
        <time>2021-09-14T10:22:19.000Z</time>
      </trkpt>
      <trkpt lat="45.24376" lon="4.80608">
        <ele>139.301563</ele>
        <time>2021-09-14T10:22:26.000Z</time>
      </trkpt>
      <trkpt lat="45.24345" lon="4.80598">
        <ele>139.373195</ele>
        <time>2021-09-14T10:22:33.000Z</time>
      </trkpt>
      <trkpt lat="45.24317" lon="4.80589">
        <ele>139.438735</ele>
        <time>2021-09-14T10:22:39.000Z</time>
      </trkpt>
      <trkpt lat="45.24312" lon="4.80588">
        <ele>139.450086</ele>
        <time>2021-09-14T10:22:40.000Z</time>
      </trkpt>
      <trkpt lat="45.24298" lon="4.80584">
        <ele>139.483156</ele>
        <time>2021-09-14T10:22:43.000Z</time>
      </trkpt>
      <trkpt lat="45.24288" lon="4.80581">
        <ele>139.505161</ele>
        <time>2021-09-14T10:22:45.000Z</time>
      </trkpt>
      <trkpt lat="45.24284" lon="4.80579">
        <ele>139.515561</ele>
        <time>2021-09-14T10:22:46.000Z</time>
      </trkpt>
      <trkpt lat="45.24245" lon="4.80568">
        <ele>139.577623</ele>
        <time>2021-09-14T10:22:54.000Z</time>
      </trkpt>
      <trkpt lat="45.24219" lon="4.8056">
        <ele>139.579209</ele>
        <time>2021-09-14T10:23:00.000Z</time>
      </trkpt>
      <trkpt lat="45.24198" lon="4.80557">
        <ele>139.580477</ele>
        <time>2021-09-14T10:23:05.000Z</time>
      </trkpt>
      <trkpt lat="45.24182" lon="4.80555">
        <ele>139.581435</ele>
        <time>2021-09-14T10:23:10.000Z</time>
      </trkpt>
      <trkpt lat="45.24173" lon="4.80554">
        <ele>139.581927</ele>
        <time>2021-09-14T10:23:12.000Z</time>
      </trkpt>
      <trkpt lat="45.24157" lon="4.80552">
        <ele>139.582909</ele>
        <time>2021-09-14T10:23:16.000Z</time>
      </trkpt>
      <trkpt lat="45.24128" lon="4.80551">
        <ele>139.584611</ele>
        <time>2021-09-14T10:23:23.000Z</time>
      </trkpt>
      <trkpt lat="45.24108" lon="4.80551">
        <ele>139.585817</ele>
        <time>2021-09-14T10:23:28.000Z</time>
      </trkpt>
      <trkpt lat="45.24096" lon="4.8055">
        <ele>139.586552</ele>
        <time>2021-09-14T10:23:31.000Z</time>
      </trkpt>
      <trkpt lat="45.24087" lon="4.8055">
        <ele>139.587095</ele>
        <time>2021-09-14T10:23:33.000Z</time>
      </trkpt>
      <trkpt lat="45.24077" lon="4.8055">
        <ele>139.582757</ele>
        <time>2021-09-14T10:23:34.000Z</time>
      </trkpt>
      <trkpt lat="45.24077" lon="4.8055">
        <ele>139.582757</ele>
        <time>2021-09-14T10:23:35.000Z</time>
      </trkpt>
      <trkpt lat="45.24058" lon="4.8055">
        <ele>139.471662</ele>
        <time>2021-09-14T10:23:39.000Z</time>
      </trkpt>
      <trkpt lat="45.24021" lon="4.8055">
        <ele>139.263716</ele>
        <time>2021-09-14T10:23:47.000Z</time>
      </trkpt>
      <trkpt lat="45.24002" lon="4.80551">
        <ele>139.154227</ele>
        <time>2021-09-14T10:23:51.000Z</time>
      </trkpt>
      <trkpt lat="45.23992" lon="4.80552">
        <ele>139.096619</ele>
        <time>2021-09-14T10:23:53.000Z</time>
      </trkpt>
      <trkpt lat="45.23987" lon="4.80552">
        <ele>139.067539</ele>
        <time>2021-09-14T10:23:54.000Z</time>
      </trkpt>
      <trkpt lat="45.23982" lon="4.80553">
        <ele>139.03844</ele>
        <time>2021-09-14T10:23:55.000Z</time>
      </trkpt>
      <trkpt lat="45.23972" lon="4.80556">
        <ele>138.980414</ele>
        <time>2021-09-14T10:23:57.000Z</time>
      </trkpt>
      <trkpt lat="45.23958" lon="4.80572">
        <ele>138.8765</ele>
        <time>2021-09-14T10:24:00.000Z</time>
      </trkpt>
      <trkpt lat="45.23948" lon="4.80583">
        <ele>138.805465</ele>
        <time>2021-09-14T10:24:02.000Z</time>
      </trkpt>
      <trkpt lat="45.23929" lon="4.80606">
        <ele>138.662541</ele>
        <time>2021-09-14T10:24:06.000Z</time>
      </trkpt>
      <trkpt lat="45.23924" lon="4.80612">
        <ele>138.627589</ele>
        <time>2021-09-14T10:24:07.000Z</time>
      </trkpt>
      <trkpt lat="45.23919" lon="4.80618">
        <ele>138.591424</ele>
        <time>2021-09-14T10:24:08.000Z</time>
      </trkpt>
      <trkpt lat="45.23916" lon="4.80623">
        <ele>138.561041</ele>
        <time>2021-09-14T10:24:09.000Z</time>
      </trkpt>
      <trkpt lat="45.23912" lon="4.80623">
        <ele>138.501281</ele>
        <time>2021-09-14T10:24:10.000Z</time>
      </trkpt>
      <trkpt lat="45.23904" lon="4.80614">
        <ele>138.321003</ele>
        <time>2021-09-14T10:24:12.000Z</time>
      </trkpt>
      <trkpt lat="45.23889" lon="4.80597">
        <ele>138.000437</ele>
        <time>2021-09-14T10:24:16.000Z</time>
      </trkpt>
      <trkpt lat="45.23887" lon="4.80596">
        <ele>137.963969</ele>
        <time>2021-09-14T10:24:17.000Z</time>
      </trkpt>
      <trkpt lat="45.23889" lon="4.80599">
        <ele>137.906487</ele>
        <time>2021-09-14T10:24:19.000Z</time>
      </trkpt>
      <trkpt lat="45.23896" lon="4.80605">
        <ele>137.775803</ele>
        <time>2021-09-14T10:24:23.000Z</time>
      </trkpt>
      <trkpt lat="45.23909" lon="4.8062">
        <ele>137.481407</ele>
        <time>2021-09-14T10:24:28.000Z</time>
      </trkpt>
      <trkpt lat="45.23911" lon="4.80622">
        <ele>137.444193</ele>
        <time>2021-09-14T10:24:31.000Z</time>
      </trkpt>
      <trkpt lat="45.2391" lon="4.80629">
        <ele>137.366268</ele>
        <time>2021-09-14T10:24:40.000Z</time>
      </trkpt>
      <trkpt lat="45.23896" lon="4.80639">
        <ele>137.103839</ele>
        <time>2021-09-14T10:24:45.000Z</time>
      </trkpt>
      <trkpt lat="45.23873" lon="4.80651">
        <ele>136.687213</ele>
        <time>2021-09-14T10:24:51.000Z</time>
      </trkpt>
      <trkpt lat="45.23865" lon="4.80655">
        <ele>136.543213</ele>
        <time>2021-09-14T10:24:53.000Z</time>
      </trkpt>
      <trkpt lat="45.23853" lon="4.80659">
        <ele>136.344725</ele>
        <time>2021-09-14T10:24:55.000Z</time>
      </trkpt>
      <trkpt lat="45.23848" lon="4.80647">
        <ele>136.172851</ele>
        <time>2021-09-14T10:24:57.000Z</time>
      </trkpt>
      <trkpt lat="45.23836" lon="4.80634">
        <ele>135.922633</ele>
        <time>2021-09-14T10:25:00.000Z</time>
      </trkpt>
      <trkpt lat="45.238" lon="4.80598">
        <ele>135.225001</ele>
        <time>2021-09-14T10:25:08.000Z</time>
      </trkpt>
      <trkpt lat="45.23777" lon="4.80575">
        <ele>134.820501</ele>
        <time>2021-09-14T10:25:13.000Z</time>
      </trkpt>
      <trkpt lat="45.23751" lon="4.80549">
        <ele>134.344727</ele>
        <time>2021-09-14T10:25:19.000Z</time>
      </trkpt>
      <trkpt lat="45.23731" lon="4.80537">
        <ele>134.036849</ele>
        <time>2021-09-14T10:25:23.000Z</time>
      </trkpt>
      <trkpt lat="45.23707" lon="4.80523">
        <ele>133.648806</ele>
        <time>2021-09-14T10:25:28.000Z</time>
      </trkpt>
      <trkpt lat="45.23685" lon="4.80514">
        <ele>133.322256</ele>
        <time>2021-09-14T10:25:32.000Z</time>
      </trkpt>
      <trkpt lat="45.23662" lon="4.80506">
        <ele>132.979163</ele>
        <time>2021-09-14T10:25:36.000Z</time>
      </trkpt>
      <trkpt lat="45.23628" lon="4.80495">
        <ele>132.599255</ele>
        <time>2021-09-14T10:25:42.000Z</time>
      </trkpt>
      <trkpt lat="45.23624" lon="4.80493">
        <ele>132.552879</ele>
        <time>2021-09-14T10:25:43.000Z</time>
      </trkpt>
      <trkpt lat="45.23614" lon="4.8049">
        <ele>132.456449</ele>
        <time>2021-09-14T10:25:45.000Z</time>
      </trkpt>
      <trkpt lat="45.23605" lon="4.80488">
        <ele>132.356789</ele>
        <time>2021-09-14T10:25:47.000Z</time>
      </trkpt>
      <trkpt lat="45.23595" lon="4.80486">
        <ele>132.251837</ele>
        <time>2021-09-14T10:25:49.000Z</time>
      </trkpt>
      <trkpt lat="45.23584" lon="4.80483">
        <ele>132.143852</ele>
        <time>2021-09-14T10:25:51.000Z</time>
      </trkpt>
      <trkpt lat="45.23574" lon="4.80481">
        <ele>132.038005</ele>
        <time>2021-09-14T10:25:53.000Z</time>
      </trkpt>
      <trkpt lat="45.23554" lon="4.80476">
        <ele>131.832383</ele>
        <time>2021-09-14T10:25:57.000Z</time>
      </trkpt>
      <trkpt lat="45.2355" lon="4.80475">
        <ele>131.786595</ele>
        <time>2021-09-14T10:25:58.000Z</time>
      </trkpt>
      <trkpt lat="45.23545" lon="4.80474">
        <ele>131.739914</ele>
        <time>2021-09-14T10:25:59.000Z</time>
      </trkpt>
      <trkpt lat="45.23536" lon="4.80472">
        <ele>131.645427</ele>
        <time>2021-09-14T10:26:01.000Z</time>
      </trkpt>
      <trkpt lat="45.23531" lon="4.80471">
        <ele>131.593457</ele>
        <time>2021-09-14T10:26:02.000Z</time>
      </trkpt>
      <trkpt lat="45.2349" lon="4.80461">
        <ele>131.165679</ele>
        <time>2021-09-14T10:26:09.000Z</time>
      </trkpt>
      <trkpt lat="45.23458" lon="4.80454">
        <ele>130.848141</ele>
        <time>2021-09-14T10:26:15.000Z</time>
      </trkpt>
      <trkpt lat="45.23439" lon="4.8045">
        <ele>130.66318</ele>
        <time>2021-09-14T10:26:19.000Z</time>
      </trkpt>
      <trkpt lat="45.23435" lon="4.80449">
        <ele>130.621444</ele>
        <time>2021-09-14T10:26:20.000Z</time>
      </trkpt>
      <trkpt lat="45.2343" lon="4.80448">
        <ele>130.579605</ele>
        <time>2021-09-14T10:26:21.000Z</time>
      </trkpt>
      <trkpt lat="45.23412" lon="4.80443">
        <ele>130.402443</ele>
        <time>2021-09-14T10:26:25.000Z</time>
      </trkpt>
      <trkpt lat="45.23409" lon="4.80443">
        <ele>130.366506</ele>
        <time>2021-09-14T10:26:26.000Z</time>
      </trkpt>
      <trkpt lat="45.234" lon="4.80441">
        <ele>130.285779</ele>
        <time>2021-09-14T10:26:28.000Z</time>
      </trkpt>
      <trkpt lat="45.23386" lon="4.80437">
        <ele>130.142656</ele>
        <time>2021-09-14T10:26:32.000Z</time>
      </trkpt>
      <trkpt lat="45.23375" lon="4.80435">
        <ele>130.035688</ele>
        <time>2021-09-14T10:26:34.000Z</time>
      </trkpt>
      <trkpt lat="45.23372" lon="4.80434">
        <ele>130.006495</ele>
        <time>2021-09-14T10:26:35.000Z</time>
      </trkpt>
      <trkpt lat="45.2336" lon="4.80431">
        <ele>129.893624</ele>
        <time>2021-09-14T10:26:38.000Z</time>
      </trkpt>
      <trkpt lat="45.23342" lon="4.80427">
        <ele>129.723423</ele>
        <time>2021-09-14T10:26:43.000Z</time>
      </trkpt>
      <trkpt lat="45.23322" lon="4.80423">
        <ele>129.52782</ele>
        <time>2021-09-14T10:26:48.000Z</time>
      </trkpt>
      <trkpt lat="45.23301" lon="4.80424">
        <ele>129.328598</ele>
        <time>2021-09-14T10:26:53.000Z</time>
      </trkpt>
      <trkpt lat="45.23284" lon="4.80427">
        <ele>129.225546</ele>
        <time>2021-09-14T10:26:57.000Z</time>
      </trkpt>
      <trkpt lat="45.23268" lon="4.80434">
        <ele>129.122644</ele>
        <time>2021-09-14T10:27:02.000Z</time>
      </trkpt>
      <trkpt lat="45.23245" lon="4.80435">
        <ele>128.978786</ele>
        <time>2021-09-14T10:27:08.000Z</time>
      </trkpt>
      <trkpt lat="45.23229" lon="4.80435">
        <ele>128.883557</ele>
        <time>2021-09-14T10:27:12.000Z</time>
      </trkpt>
      <trkpt lat="45.23219" lon="4.80434">
        <ele>128.819044</ele>
        <time>2021-09-14T10:27:15.000Z</time>
      </trkpt>
      <trkpt lat="45.23194" lon="4.80433">
        <ele>128.66544</ele>
        <time>2021-09-14T10:27:21.000Z</time>
      </trkpt>
      <trkpt lat="45.23181" lon="4.80432">
        <ele>128.586796</ele>
        <time>2021-09-14T10:27:24.000Z</time>
      </trkpt>
      <trkpt lat="45.23177" lon="4.80432">
        <ele>128.559763</ele>
        <time>2021-09-14T10:27:25.000Z</time>
      </trkpt>
      <trkpt lat="45.23172" lon="4.80432">
        <ele>128.530889</ele>
        <time>2021-09-14T10:27:26.000Z</time>
      </trkpt>
      <trkpt lat="45.23153" lon="4.80431">
        <ele>128.412311</ele>
        <time>2021-09-14T10:27:30.000Z</time>
      </trkpt>
      <trkpt lat="45.2314" lon="4.80431">
        <ele>128.33735</ele>
        <time>2021-09-14T10:27:33.000Z</time>
      </trkpt>
      <trkpt lat="45.23112" lon="4.80427">
        <ele>128.322396</ele>
        <time>2021-09-14T10:27:38.000Z</time>
      </trkpt>
      <trkpt lat="45.23082" lon="4.8042">
        <ele>128.554237</ele>
        <time>2021-09-14T10:27:44.000Z</time>
      </trkpt>
      <trkpt lat="45.23067" lon="4.80425">
        <ele>128.666617</ele>
        <time>2021-09-14T10:27:48.000Z</time>
      </trkpt>
      <trkpt lat="45.23046" lon="4.80419">
        <ele>128.826602</ele>
        <time>2021-09-14T10:27:55.000Z</time>
      </trkpt>
      <trkpt lat="45.23021" lon="4.80409">
        <ele>129.019807</ele>
        <time>2021-09-14T10:28:02.000Z</time>
      </trkpt>
      <trkpt lat="45.22991" lon="4.80408">
        <ele>129.250411</ele>
        <time>2021-09-14T10:28:09.000Z</time>
      </trkpt>
      <trkpt lat="45.22953" lon="4.80406">
        <ele>129.529678</ele>
        <time>2021-09-14T10:28:17.000Z</time>
      </trkpt>
      <trkpt lat="45.22921" lon="4.80404">
        <ele>129.80489</ele>
        <time>2021-09-14T10:28:24.000Z</time>
      </trkpt>
      <trkpt lat="45.2289" lon="4.80407">
        <ele>130.081559</ele>
        <time>2021-09-14T10:28:31.000Z</time>
      </trkpt>
      <trkpt lat="45.22855" lon="4.80411">
        <ele>130.398971</ele>
        <time>2021-09-14T10:28:39.000Z</time>
      </trkpt>
      <trkpt lat="45.22822" lon="4.80417">
        <ele>130.699918</ele>
        <time>2021-09-14T10:28:47.000Z</time>
      </trkpt>
      <trkpt lat="45.22787" lon="4.80428">
        <ele>131.017119</ele>
        <time>2021-09-14T10:28:55.000Z</time>
      </trkpt>
      <trkpt lat="45.22746" lon="4.8044">
        <ele>131.37329</ele>
        <time>2021-09-14T10:29:05.000Z</time>
      </trkpt>
      <trkpt lat="45.22718" lon="4.80451">
        <ele>131.614416</ele>
        <time>2021-09-14T10:29:13.000Z</time>
      </trkpt>
      <trkpt lat="45.22694" lon="4.8046">
        <ele>131.81316</ele>
        <time>2021-09-14T10:29:19.000Z</time>
      </trkpt>
      <trkpt lat="45.22662" lon="4.80473">
        <ele>132.083954</ele>
        <time>2021-09-14T10:29:26.000Z</time>
      </trkpt>
      <trkpt lat="45.22618" lon="4.8049">
        <ele>132.45789</ele>
        <time>2021-09-14T10:29:35.000Z</time>
      </trkpt>
      <trkpt lat="45.22579" lon="4.8051">
        <ele>132.69332</ele>
        <time>2021-09-14T10:29:43.000Z</time>
      </trkpt>
      <trkpt lat="45.22541" lon="4.80534">
        <ele>132.780458</ele>
        <time>2021-09-14T10:29:51.000Z</time>
      </trkpt>
      <trkpt lat="45.22501" lon="4.80555">
        <ele>132.872889</ele>
        <time>2021-09-14T10:29:59.000Z</time>
      </trkpt>
      <trkpt lat="45.22466" lon="4.80574">
        <ele>132.952332</ele>
        <time>2021-09-14T10:30:06.000Z</time>
      </trkpt>
      <trkpt lat="45.22426" lon="4.80595">
        <ele>133.031886</ele>
        <time>2021-09-14T10:30:14.000Z</time>
      </trkpt>
      <trkpt lat="45.22377" lon="4.80622">
        <ele>132.642098</ele>
        <time>2021-09-14T10:30:24.000Z</time>
      </trkpt>
      <trkpt lat="45.22361" lon="4.8063">
        <ele>132.518754</ele>
        <time>2021-09-14T10:30:27.000Z</time>
      </trkpt>
      <trkpt lat="45.2235" lon="4.80635">
        <ele>132.436476</ele>
        <time>2021-09-14T10:30:29.000Z</time>
      </trkpt>
      <trkpt lat="45.22308" lon="4.80658">
        <ele>132.102469</ele>
        <time>2021-09-14T10:30:37.000Z</time>
      </trkpt>
      <trkpt lat="45.2226" lon="4.80684">
        <ele>131.723266</ele>
        <time>2021-09-14T10:30:46.000Z</time>
      </trkpt>
      <trkpt lat="45.22234" lon="4.80698">
        <ele>131.197599</ele>
        <time>2021-09-14T10:30:51.000Z</time>
      </trkpt>
      <trkpt lat="45.22224" lon="4.80703">
        <ele>130.989576</ele>
        <time>2021-09-14T10:30:53.000Z</time>
      </trkpt>
      <trkpt lat="45.22191" lon="4.80716">
        <ele>130.344283</ele>
        <time>2021-09-14T10:30:59.000Z</time>
      </trkpt>
      <trkpt lat="45.2217" lon="4.80723">
        <ele>129.917221</ele>
        <time>2021-09-14T10:31:03.000Z</time>
      </trkpt>
      <trkpt lat="45.22165" lon="4.80725">
        <ele>129.814056</ele>
        <time>2021-09-14T10:31:04.000Z</time>
      </trkpt>
      <trkpt lat="45.22154" lon="4.80729">
        <ele>129.611468</ele>
        <time>2021-09-14T10:31:06.000Z</time>
      </trkpt>
      <trkpt lat="45.22138" lon="4.80735">
        <ele>129.283993</ele>
        <time>2021-09-14T10:31:09.000Z</time>
      </trkpt>
      <trkpt lat="45.22107" lon="4.80751">
        <ele>128.639145</ele>
        <time>2021-09-14T10:31:15.000Z</time>
      </trkpt>
      <trkpt lat="45.22075" lon="4.80767">
        <ele>128.156365</ele>
        <time>2021-09-14T10:31:21.000Z</time>
      </trkpt>
      <trkpt lat="45.22054" lon="4.80778">
        <ele>128.00819</ele>
        <time>2021-09-14T10:31:25.000Z</time>
      </trkpt>
      <trkpt lat="45.22045" lon="4.80782">
        <ele>127.941578</ele>
        <time>2021-09-14T10:31:27.000Z</time>
      </trkpt>
      <trkpt lat="45.22019" lon="4.80787">
        <ele>127.75667</ele>
        <time>2021-09-14T10:31:32.000Z</time>
      </trkpt>
      <trkpt lat="45.21987" lon="4.80799">
        <ele>127.528131</ele>
        <time>2021-09-14T10:31:38.000Z</time>
      </trkpt>
      <trkpt lat="45.21972" lon="4.80804">
        <ele>127.42063</ele>
        <time>2021-09-14T10:31:41.000Z</time>
      </trkpt>
      <trkpt lat="45.21962" lon="4.80808">
        <ele>127.350156</ele>
        <time>2021-09-14T10:31:43.000Z</time>
      </trkpt>
      <trkpt lat="45.21921" lon="4.80823">
        <ele>127.061276</ele>
        <time>2021-09-14T10:31:51.000Z</time>
      </trkpt>
      <trkpt lat="45.21904" lon="4.80838">
        <ele>126.942873</ele>
        <time>2021-09-14T10:31:55.000Z</time>
      </trkpt>
      <trkpt lat="45.219" lon="4.80843">
        <ele>126.916609</ele>
        <time>2021-09-14T10:31:56.000Z</time>
      </trkpt>
      <trkpt lat="45.21879" lon="4.80844">
        <ele>126.802255</ele>
        <time>2021-09-14T10:32:00.000Z</time>
      </trkpt>
      <trkpt lat="45.21874" lon="4.80844">
        <ele>126.772884</ele>
        <time>2021-09-14T10:32:01.000Z</time>
      </trkpt>
      <trkpt lat="45.21868" lon="4.80844">
        <ele>126.745649</ele>
        <time>2021-09-14T10:32:02.000Z</time>
      </trkpt>
      <trkpt lat="45.21855" lon="4.80846">
        <ele>126.67104</ele>
        <time>2021-09-14T10:32:05.000Z</time>
      </trkpt>
      <trkpt lat="45.21829" lon="4.80852">
        <ele>126.530839</ele>
        <time>2021-09-14T10:32:11.000Z</time>
      </trkpt>
      <trkpt lat="45.21806" lon="4.80857">
        <ele>126.40963</ele>
        <time>2021-09-14T10:32:17.000Z</time>
      </trkpt>
      <trkpt lat="45.21789" lon="4.80861">
        <ele>126.31544</ele>
        <time>2021-09-14T10:32:21.000Z</time>
      </trkpt>
      <trkpt lat="45.21784" lon="4.80862">
        <ele>126.290529</ele>
        <time>2021-09-14T10:32:22.000Z</time>
      </trkpt>
      <trkpt lat="45.21747" lon="4.80871">
        <ele>126.087028</ele>
        <time>2021-09-14T10:32:30.000Z</time>
      </trkpt>
      <trkpt lat="45.21711" lon="4.80879">
        <ele>125.871161</ele>
        <time>2021-09-14T10:32:37.000Z</time>
      </trkpt>
      <trkpt lat="45.21662" lon="4.8089">
        <ele>125.565806</ele>
        <time>2021-09-14T10:32:46.000Z</time>
      </trkpt>
      <trkpt lat="45.21646" lon="4.80894">
        <ele>125.466138</ele>
        <time>2021-09-14T10:32:49.000Z</time>
      </trkpt>
      <trkpt lat="45.21631" lon="4.80897">
        <ele>125.371469</ele>
        <time>2021-09-14T10:32:52.000Z</time>
      </trkpt>
      <trkpt lat="45.21594" lon="4.80905">
        <ele>125.142874</ele>
        <time>2021-09-14T10:33:00.000Z</time>
      </trkpt>
      <trkpt lat="45.21554" lon="4.80914">
        <ele>125.009452</ele>
        <time>2021-09-14T10:33:09.000Z</time>
      </trkpt>
      <trkpt lat="45.21515" lon="4.80922">
        <ele>125.303837</ele>
        <time>2021-09-14T10:33:18.000Z</time>
      </trkpt>
      <trkpt lat="45.2151" lon="4.80924">
        <ele>125.339284</ele>
        <time>2021-09-14T10:33:19.000Z</time>
      </trkpt>
      <trkpt lat="45.21491" lon="4.80929">
        <ele>125.48647</ele>
        <time>2021-09-14T10:33:23.000Z</time>
      </trkpt>
      <trkpt lat="45.21486" lon="4.80931">
        <ele>125.524986</ele>
        <time>2021-09-14T10:33:24.000Z</time>
      </trkpt>
      <trkpt lat="45.21451" lon="4.80941">
        <ele>125.797876</ele>
        <time>2021-09-14T10:33:31.000Z</time>
      </trkpt>
      <trkpt lat="45.2142" lon="4.80949">
        <ele>126.038283</ele>
        <time>2021-09-14T10:33:37.000Z</time>
      </trkpt>
      <trkpt lat="45.21388" lon="4.80958">
        <ele>126.281864</ele>
        <time>2021-09-14T10:33:43.000Z</time>
      </trkpt>
      <trkpt lat="45.21374" lon="4.80962">
        <ele>126.454235</ele>
        <time>2021-09-14T10:33:46.000Z</time>
      </trkpt>
      <trkpt lat="45.21356" lon="4.80967">
        <ele>126.684945</ele>
        <time>2021-09-14T10:33:50.000Z</time>
      </trkpt>
      <trkpt lat="45.21329" lon="4.80975">
        <ele>127.051367</ele>
        <time>2021-09-14T10:33:58.000Z</time>
      </trkpt>
      <trkpt lat="45.21302" lon="4.80983">
        <ele>127.4006</ele>
        <time>2021-09-14T10:34:06.000Z</time>
      </trkpt>
      <trkpt lat="45.2128" lon="4.80988">
        <ele>127.688554</ele>
        <time>2021-09-14T10:34:13.000Z</time>
      </trkpt>
      <trkpt lat="45.2125" lon="4.80993">
        <ele>128.082182</ele>
        <time>2021-09-14T10:34:21.000Z</time>
      </trkpt>
      <trkpt lat="45.21223" lon="4.81003">
        <ele>128.438536</ele>
        <time>2021-09-14T10:34:28.000Z</time>
      </trkpt>
      <trkpt lat="45.21195" lon="4.81013">
        <ele>128.765926</ele>
        <time>2021-09-14T10:34:35.000Z</time>
      </trkpt>
      <trkpt lat="45.21186" lon="4.81016">
        <ele>128.844794</ele>
        <time>2021-09-14T10:34:37.000Z</time>
      </trkpt>
      <trkpt lat="45.21168" lon="4.81023">
        <ele>129.025105</ele>
        <time>2021-09-14T10:34:42.000Z</time>
      </trkpt>
      <trkpt lat="45.21143" lon="4.81034">
        <ele>129.260679</ele>
        <time>2021-09-14T10:34:48.000Z</time>
      </trkpt>
      <trkpt lat="45.21114" lon="4.81048">
        <ele>129.552583</ele>
        <time>2021-09-14T10:34:56.000Z</time>
      </trkpt>
      <trkpt lat="45.2109" lon="4.8106">
        <ele>129.786245</ele>
        <time>2021-09-14T10:35:02.000Z</time>
      </trkpt>
      <trkpt lat="45.21061" lon="4.81074">
        <ele>130.070266</ele>
        <time>2021-09-14T10:35:09.000Z</time>
      </trkpt>
      <trkpt lat="45.21032" lon="4.81088">
        <ele>130.248977</ele>
        <time>2021-09-14T10:35:16.000Z</time>
      </trkpt>
      <trkpt lat="45.20999" lon="4.81104">
        <ele>129.97698</ele>
        <time>2021-09-14T10:35:23.000Z</time>
      </trkpt>
      <trkpt lat="45.2096" lon="4.81126">
        <ele>129.641077</ele>
        <time>2021-09-14T10:35:31.000Z</time>
      </trkpt>
      <trkpt lat="45.20925" lon="4.81147">
        <ele>129.340583</ele>
        <time>2021-09-14T10:35:38.000Z</time>
      </trkpt>
      <trkpt lat="45.20901" lon="4.81161">
        <ele>129.129329</ele>
        <time>2021-09-14T10:35:43.000Z</time>
      </trkpt>
      <trkpt lat="45.20893" lon="4.81171">
        <ele>129.044858</ele>
        <time>2021-09-14T10:35:45.000Z</time>
      </trkpt>
      <trkpt lat="45.20879" lon="4.81186">
        <ele>128.908642</ele>
        <time>2021-09-14T10:35:48.000Z</time>
      </trkpt>
      <trkpt lat="45.2087" lon="4.81196">
        <ele>128.800909</ele>
        <time>2021-09-14T10:35:50.000Z</time>
      </trkpt>
      <trkpt lat="45.20865" lon="4.81201">
        <ele>128.744116</ele>
        <time>2021-09-14T10:35:51.000Z</time>
      </trkpt>
      <trkpt lat="45.20853" lon="4.81216">
        <ele>128.580149</ele>
        <time>2021-09-14T10:35:54.000Z</time>
      </trkpt>
      <trkpt lat="45.20841" lon="4.81225">
        <ele>128.44877</ele>
        <time>2021-09-14T10:35:56.000Z</time>
      </trkpt>
      <trkpt lat="45.2083" lon="4.81231">
        <ele>128.328783</ele>
        <time>2021-09-14T10:35:58.000Z</time>
      </trkpt>
      <trkpt lat="45.20808" lon="4.81244">
        <ele>128.099335</ele>
        <time>2021-09-14T10:36:02.000Z</time>
      </trkpt>
      <trkpt lat="45.20792" lon="4.81253">
        <ele>127.919091</ele>
        <time>2021-09-14T10:36:05.000Z</time>
      </trkpt>
      <trkpt lat="45.20781" lon="4.81259">
        <ele>127.804125</ele>
        <time>2021-09-14T10:36:07.000Z</time>
      </trkpt>
      <trkpt lat="45.20745" lon="4.81273">
        <ele>127.438148</ele>
        <time>2021-09-14T10:36:14.000Z</time>
      </trkpt>
      <trkpt lat="45.20711" lon="4.81287">
        <ele>127.084979</ele>
        <time>2021-09-14T10:36:21.000Z</time>
      </trkpt>
      <trkpt lat="45.20668" lon="4.81311">
        <ele>126.914297</ele>
        <time>2021-09-14T10:36:30.000Z</time>
      </trkpt>
      <trkpt lat="45.20636" lon="4.81331">
        <ele>126.788047</ele>
        <time>2021-09-14T10:36:37.000Z</time>
      </trkpt>
      <trkpt lat="45.20627" lon="4.81338">
        <ele>126.752854</ele>
        <time>2021-09-14T10:36:39.000Z</time>
      </trkpt>
      <trkpt lat="45.2062" lon="4.81344">
        <ele>126.721611</ele>
        <time>2021-09-14T10:36:41.000Z</time>
      </trkpt>
      <trkpt lat="45.20616" lon="4.81347">
        <ele>126.704828</ele>
        <time>2021-09-14T10:36:42.000Z</time>
      </trkpt>
      <trkpt lat="45.20611" lon="4.81351">
        <ele>126.687145</ele>
        <time>2021-09-14T10:36:43.000Z</time>
      </trkpt>
      <trkpt lat="45.20596" lon="4.81354">
        <ele>126.630763</ele>
        <time>2021-09-14T10:36:46.000Z</time>
      </trkpt>
      <trkpt lat="45.20575" lon="4.81358">
        <ele>126.553319</ele>
        <time>2021-09-14T10:36:50.000Z</time>
      </trkpt>
      <trkpt lat="45.20569" lon="4.81362">
        <ele>126.531655</ele>
        <time>2021-09-14T10:36:51.000Z</time>
      </trkpt>
      <trkpt lat="45.20567" lon="4.81368">
        <ele>126.514437</ele>
        <time>2021-09-14T10:36:52.000Z</time>
      </trkpt>
      <trkpt lat="45.20563" lon="4.8138">
        <ele>126.482222</ele>
        <time>2021-09-14T10:36:54.000Z</time>
      </trkpt>
      <trkpt lat="45.20555" lon="4.81385">
        <ele>126.448241</ele>
        <time>2021-09-14T10:36:56.000Z</time>
      </trkpt>
      <trkpt lat="45.2055" lon="4.81386">
        <ele>126.432678</ele>
        <time>2021-09-14T10:36:57.000Z</time>
      </trkpt>
      <trkpt lat="45.20518" lon="4.81388">
        <ele>126.514427</ele>
        <time>2021-09-14T10:37:03.000Z</time>
      </trkpt>
      <trkpt lat="45.20485" lon="4.8139">
        <ele>126.599764</ele>
        <time>2021-09-14T10:37:09.000Z</time>
      </trkpt>
      <trkpt lat="45.20469" lon="4.81391">
        <ele>126.641282</ele>
        <time>2021-09-14T10:37:12.000Z</time>
      </trkpt>
      <trkpt lat="45.20448" lon="4.81393">
        <ele>126.695097</ele>
        <time>2021-09-14T10:37:16.000Z</time>
      </trkpt>
      <trkpt lat="45.20415" lon="4.81393">
        <ele>126.777766</ele>
        <time>2021-09-14T10:37:22.000Z</time>
      </trkpt>
      <trkpt lat="45.20367" lon="4.81392">
        <ele>126.919571</ele>
        <time>2021-09-14T10:37:31.000Z</time>
      </trkpt>
      <trkpt lat="45.20336" lon="4.81391">
        <ele>127.15734</ele>
        <time>2021-09-14T10:37:37.000Z</time>
      </trkpt>
      <trkpt lat="45.20311" lon="4.81384">
        <ele>127.348478</ele>
        <time>2021-09-14T10:37:42.000Z</time>
      </trkpt>
      <trkpt lat="45.20307" lon="4.81382">
        <ele>127.387688</ele>
        <time>2021-09-14T10:37:43.000Z</time>
      </trkpt>
      <trkpt lat="45.20289" lon="4.81373">
        <ele>127.533867</ele>
        <time>2021-09-14T10:37:47.000Z</time>
      </trkpt>
      <trkpt lat="45.20281" lon="4.81367">
        <ele>127.602267</ele>
        <time>2021-09-14T10:37:49.000Z</time>
      </trkpt>
      <trkpt lat="45.20262" lon="4.81352">
        <ele>127.769408</ele>
        <time>2021-09-14T10:37:54.000Z</time>
      </trkpt>
      <trkpt lat="45.20253" lon="4.81347">
        <ele>127.839204</ele>
        <time>2021-09-14T10:37:56.000Z</time>
      </trkpt>
      <trkpt lat="45.20244" lon="4.81344">
        <ele>127.913129</ele>
        <time>2021-09-14T10:37:58.000Z</time>
      </trkpt>
      <trkpt lat="45.20225" lon="4.81334">
        <ele>128.065092</ele>
        <time>2021-09-14T10:38:02.000Z</time>
      </trkpt>
      <trkpt lat="45.20213" lon="4.81323">
        <ele>128.177973</ele>
        <time>2021-09-14T10:38:05.000Z</time>
      </trkpt>
      <trkpt lat="45.20209" lon="4.81319">
        <ele>128.214295</ele>
        <time>2021-09-14T10:38:06.000Z</time>
      </trkpt>
      <trkpt lat="45.20189" lon="4.81301">
        <ele>128.420234</ele>
        <time>2021-09-14T10:38:11.000Z</time>
      </trkpt>
      <trkpt lat="45.20177" lon="4.81289">
        <ele>128.554592</ele>
        <time>2021-09-14T10:38:14.000Z</time>
      </trkpt>
      <trkpt lat="45.2017" lon="4.81279">
        <ele>128.645441</ele>
        <time>2021-09-14T10:38:16.000Z</time>
      </trkpt>
      <trkpt lat="45.20134" lon="4.81228">
        <ele>129.106897</ele>
        <time>2021-09-14T10:38:26.000Z</time>
      </trkpt>
      <trkpt lat="45.20119" lon="4.81207">
        <ele>129.298176</ele>
        <time>2021-09-14T10:38:30.000Z</time>
      </trkpt>
      <trkpt lat="45.20115" lon="4.81202">
        <ele>129.344902</ele>
        <time>2021-09-14T10:38:31.000Z</time>
      </trkpt>
      <trkpt lat="45.20104" lon="4.81188">
        <ele>129.480907</ele>
        <time>2021-09-14T10:38:34.000Z</time>
      </trkpt>
      <trkpt lat="45.20097" lon="4.81177">
        <ele>129.57199</ele>
        <time>2021-09-14T10:38:36.000Z</time>
      </trkpt>
      <trkpt lat="45.20072" lon="4.81128">
        <ele>129.930508</ele>
        <time>2021-09-14T10:38:44.000Z</time>
      </trkpt>
      <trkpt lat="45.20051" lon="4.81086">
        <ele>130.058968</ele>
        <time>2021-09-14T10:38:51.000Z</time>
      </trkpt>
      <trkpt lat="45.20033" lon="4.81049">
        <ele>130.167954</ele>
        <time>2021-09-14T10:38:57.000Z</time>
      </trkpt>
      <trkpt lat="45.20022" lon="4.81026">
        <ele>130.23879</ele>
        <time>2021-09-14T10:39:01.000Z</time>
      </trkpt>
      <trkpt lat="45.20012" lon="4.81008">
        <ele>130.295478</ele>
        <time>2021-09-14T10:39:04.000Z</time>
      </trkpt>
      <trkpt lat="45.20006" lon="4.80996">
        <ele>130.332466</ele>
        <time>2021-09-14T10:39:06.000Z</time>
      </trkpt>
      <trkpt lat="45.19984" lon="4.8096">
        <ele>130.45167</ele>
        <time>2021-09-14T10:39:12.000Z</time>
      </trkpt>
      <trkpt lat="45.19951" lon="4.80912">
        <ele>130.572032</ele>
        <time>2021-09-14T10:39:20.000Z</time>
      </trkpt>
      <trkpt lat="45.19916" lon="4.80872">
        <ele>130.633458</ele>
        <time>2021-09-14T10:39:28.000Z</time>
      </trkpt>
      <trkpt lat="45.19907" lon="4.80864">
        <ele>130.647999</ele>
        <time>2021-09-14T10:39:30.000Z</time>
      </trkpt>
      <trkpt lat="45.19895" lon="4.80848">
        <ele>130.671311</ele>
        <time>2021-09-14T10:39:33.000Z</time>
      </trkpt>
      <trkpt lat="45.19866" lon="4.80811">
        <ele>130.725256</ele>
        <time>2021-09-14T10:39:40.000Z</time>
      </trkpt>
      <trkpt lat="45.19854" lon="4.80801">
        <ele>130.745203</ele>
        <time>2021-09-14T10:39:43.000Z</time>
      </trkpt>
      <trkpt lat="45.19845" lon="4.80798">
        <ele>130.757133</ele>
        <time>2021-09-14T10:39:45.000Z</time>
      </trkpt>
      <trkpt lat="45.19841" lon="4.80797">
        <ele>130.763075</ele>
        <time>2021-09-14T10:39:46.000Z</time>
      </trkpt>
      <trkpt lat="45.19815" lon="4.80789">
        <ele>130.826072</ele>
        <time>2021-09-14T10:39:53.000Z</time>
      </trkpt>
      <trkpt lat="45.19794" lon="4.80786">
        <ele>130.942036</ele>
        <time>2021-09-14T10:39:59.000Z</time>
      </trkpt>
      <trkpt lat="45.19771" lon="4.80786">
        <ele>131.071194</ele>
        <time>2021-09-14T10:40:06.000Z</time>
      </trkpt>
      <trkpt lat="45.19754" lon="4.80784">
        <ele>131.162866</ele>
        <time>2021-09-14T10:40:10.000Z</time>
      </trkpt>
      <trkpt lat="45.19735" lon="4.80778">
        <ele>131.275734</ele>
        <time>2021-09-14T10:40:15.000Z</time>
      </trkpt>
      <trkpt lat="45.19712" lon="4.80771">
        <ele>131.405685</ele>
        <time>2021-09-14T10:40:20.000Z</time>
      </trkpt>
      <trkpt lat="45.19707" lon="4.80771">
        <ele>131.434677</ele>
        <time>2021-09-14T10:40:21.000Z</time>
      </trkpt>
      <trkpt lat="45.19702" lon="4.8077">
        <ele>131.461471</ele>
        <time>2021-09-14T10:40:22.000Z</time>
      </trkpt>
      <trkpt lat="45.19679" lon="4.80768">
        <ele>131.590867</ele>
        <time>2021-09-14T10:40:27.000Z</time>
      </trkpt>
      <trkpt lat="45.19651" lon="4.80766">
        <ele>131.744277</ele>
        <time>2021-09-14T10:40:33.000Z</time>
      </trkpt>
      <trkpt lat="45.19616" lon="4.80763">
        <ele>131.856634</ele>
        <time>2021-09-14T10:40:41.000Z</time>
      </trkpt>
      <trkpt lat="45.19578" lon="4.80762">
        <ele>131.951375</ele>
        <time>2021-09-14T10:40:50.000Z</time>
      </trkpt>
      <trkpt lat="45.19556" lon="4.80764">
        <ele>132.004696</ele>
        <time>2021-09-14T10:40:55.000Z</time>
      </trkpt>
      <trkpt lat="45.19543" lon="4.80765">
        <ele>132.037629</ele>
        <time>2021-09-14T10:40:58.000Z</time>
      </trkpt>
      <trkpt lat="45.19511" lon="4.80767">
        <ele>132.114805</ele>
        <time>2021-09-14T10:41:05.000Z</time>
      </trkpt>
      <trkpt lat="45.19507" lon="4.80768">
        <ele>132.125381</ele>
        <time>2021-09-14T10:41:06.000Z</time>
      </trkpt>
      <trkpt lat="45.19498" lon="4.80764">
        <ele>132.147593</ele>
        <time>2021-09-14T10:41:08.000Z</time>
      </trkpt>
      <trkpt lat="45.1949" lon="4.80759">
        <ele>132.169799</ele>
        <time>2021-09-14T10:41:10.000Z</time>
      </trkpt>
      <trkpt lat="45.19476" lon="4.80755">
        <ele>132.204752</ele>
        <time>2021-09-14T10:41:13.000Z</time>
      </trkpt>
      <trkpt lat="45.19463" lon="4.80757">
        <ele>132.237514</ele>
        <time>2021-09-14T10:41:16.000Z</time>
      </trkpt>
      <trkpt lat="45.19459" lon="4.80758">
        <ele>132.251441</ele>
        <time>2021-09-14T10:41:17.000Z</time>
      </trkpt>
      <trkpt lat="45.19446" lon="4.8076">
        <ele>132.29325</ele>
        <time>2021-09-14T10:41:20.000Z</time>
      </trkpt>
      <trkpt lat="45.19437" lon="4.80762">
        <ele>132.320466</ele>
        <time>2021-09-14T10:41:22.000Z</time>
      </trkpt>
      <trkpt lat="45.19425" lon="4.80765">
        <ele>132.362165</ele>
        <time>2021-09-14T10:41:25.000Z</time>
      </trkpt>
      <trkpt lat="45.19412" lon="4.8077">
        <ele>132.402819</ele>
        <time>2021-09-14T10:41:28.000Z</time>
      </trkpt>
      <trkpt lat="45.19383" lon="4.80781">
        <ele>132.50106</ele>
        <time>2021-09-14T10:41:35.000Z</time>
      </trkpt>
      <trkpt lat="45.19346" lon="4.80796">
        <ele>132.624014</ele>
        <time>2021-09-14T10:41:43.000Z</time>
      </trkpt>
      <trkpt lat="45.17168" lon="4.81346">
        <ele>156.860279</ele>
        <time>2021-09-14T10:54:22.000Z</time>
      </trkpt>
      <trkpt lat="45.17122" lon="4.81331">
        <ele>156.666893</ele>
        <time>2021-09-14T10:55:16.000Z</time>
      </trkpt>
      <trkpt lat="45.17122" lon="4.81331">
        <ele>156.66719</ele>
        <time>2021-09-14T10:55:17.000Z</time>
      </trkpt>
      <trkpt lat="45.17125" lon="4.81322">
        <ele>156.673927</ele>
        <time>2021-09-14T10:59:44.000Z</time>
      </trkpt>
      <trkpt lat="45.17128" lon="4.81322">
        <ele>156.676903</ele>
        <time>2021-09-14T10:59:46.000Z</time>
      </trkpt>
      <trkpt lat="45.17133" lon="4.81322">
        <ele>156.681762</ele>
        <time>2021-09-14T10:59:52.000Z</time>
      </trkpt>
      <trkpt lat="45.17134" lon="4.81322">
        <ele>156.683052</ele>
        <time>2021-09-14T10:59:54.000Z</time>
      </trkpt>
      <trkpt lat="45.1706" lon="4.81384">
        <ele>156.768282</ele>
        <time>2021-09-14T11:06:05.000Z</time>
      </trkpt>
      <trkpt lat="45.17059" lon="4.81381">
        <ele>156.770328</ele>
        <time>2021-09-14T11:06:07.000Z</time>
      </trkpt>
      <trkpt lat="45.17058" lon="4.81374">
        <ele>156.775606</ele>
        <time>2021-09-14T11:06:14.000Z</time>
      </trkpt>
      <trkpt lat="45.17053" lon="4.81375">
        <ele>156.780793</ele>
        <time>2021-09-14T11:06:20.000Z</time>
      </trkpt>
      <trkpt lat="45.17053" lon="4.81376">
        <ele>156.781453</ele>
        <time>2021-09-14T11:06:22.000Z</time>
      </trkpt>
      <trkpt lat="45.1706" lon="4.81405">
        <ele>156.803182</ele>
        <time>2021-09-14T11:06:57.000Z</time>
      </trkpt>
      <trkpt lat="45.1706" lon="4.81405">
        <ele>156.803182</ele>
        <time>2021-09-14T11:06:58.000Z</time>
      </trkpt>
      <trkpt lat="45.17058" lon="4.81396">
        <ele>156.463261</ele>
        <time>2021-09-14T11:07:00.000Z</time>
      </trkpt>
      <trkpt lat="45.17059" lon="4.81354">
        <ele>154.930837</ele>
        <time>2021-09-14T11:09:34.000Z</time>
      </trkpt>
      <trkpt lat="45.17062" lon="4.81415">
        <ele>152.719193</ele>
        <time>2021-09-14T11:09:36.000Z</time>
      </trkpt>
      <trkpt lat="45.17057" lon="4.81343">
        <ele>150.134726</ele>
        <time>2021-09-14T11:09:46.000Z</time>
      </trkpt>
      <trkpt lat="45.17124" lon="4.81336">
        <ele>146.145399</ele>
        <time>2021-09-14T11:14:09.000Z</time>
      </trkpt>
      <trkpt lat="45.17121" lon="4.81333">
        <ele>145.793419</ele>
        <time>2021-09-14T11:14:14.000Z</time>
      </trkpt>
      <trkpt lat="45.17121" lon="4.81333">
        <ele>145.78226</ele>
        <time>2021-09-14T11:20:37.000Z</time>
      </trkpt>
      <trkpt lat="45.17121" lon="4.81328">
        <ele>145.525109</ele>
        <time>2021-09-14T11:20:39.000Z</time>
      </trkpt>
      <trkpt lat="45.17121" lon="4.81325">
        <ele>145.32362</ele>
        <time>2021-09-14T11:20:41.000Z</time>
      </trkpt>
      <trkpt lat="45.17138" lon="4.81323">
        <ele>144.005086</ele>
        <time>2021-09-14T11:20:46.000Z</time>
      </trkpt>
      <trkpt lat="45.17158" lon="4.81323">
        <ele>142.382379</ele>
        <time>2021-09-14T11:20:51.000Z</time>
      </trkpt>
      <trkpt lat="45.17166" lon="4.81323">
        <ele>141.75711</ele>
        <time>2021-09-14T11:20:53.000Z</time>
      </trkpt>
      <trkpt lat="45.17195" lon="4.81324">
        <ele>139.484971</ele>
        <time>2021-09-14T11:21:00.000Z</time>
      </trkpt>
      <trkpt lat="45.17211" lon="4.81325">
        <ele>138.218347</ele>
        <time>2021-09-14T11:21:04.000Z</time>
      </trkpt>
      <trkpt lat="45.17225" lon="4.81325">
        <ele>137.102058</ele>
        <time>2021-09-14T11:21:09.000Z</time>
      </trkpt>
      <trkpt lat="45.17245" lon="4.81325">
        <ele>135.511248</ele>
        <time>2021-09-14T11:21:14.000Z</time>
      </trkpt>
      <trkpt lat="45.17249" lon="4.81325">
        <ele>135.177159</ele>
        <time>2021-09-14T11:21:15.000Z</time>
      </trkpt>
      <trkpt lat="45.17268" lon="4.81318">
        <ele>133.642996</ele>
        <time>2021-09-14T11:21:20.000Z</time>
      </trkpt>
      <trkpt lat="45.17271" lon="4.81317">
        <ele>133.394729</ele>
        <time>2021-09-14T11:21:21.000Z</time>
      </trkpt>
      <trkpt lat="45.17282" lon="4.81318">
        <ele>133.300308</ele>
        <time>2021-09-14T11:21:23.000Z</time>
      </trkpt>
      <trkpt lat="45.17274" lon="4.81295">
        <ele>133.17593</ele>
        <time>2021-09-14T11:21:27.000Z</time>
      </trkpt>
      <trkpt lat="45.17273" lon="4.81283">
        <ele>133.117309</ele>
        <time>2021-09-14T11:21:29.000Z</time>
      </trkpt>
      <trkpt lat="45.17272" lon="4.81271">
        <ele>133.057444</ele>
        <time>2021-09-14T11:21:31.000Z</time>
      </trkpt>
      <trkpt lat="45.17277" lon="4.81259">
        <ele>132.99342</ele>
        <time>2021-09-14T11:21:33.000Z</time>
      </trkpt>
      <trkpt lat="45.17281" lon="4.81256">
        <ele>132.957591</ele>
        <time>2021-09-14T11:21:34.000Z</time>
      </trkpt>
      <trkpt lat="45.17291" lon="4.81253">
        <ele>132.888885</ele>
        <time>2021-09-14T11:21:35.000Z</time>
      </trkpt>
      <trkpt lat="45.17307" lon="4.81253">
        <ele>132.781611</ele>
        <time>2021-09-14T11:21:39.000Z</time>
      </trkpt>
      <trkpt lat="45.17356" lon="4.81254">
        <ele>132.448185</ele>
        <time>2021-09-14T11:21:47.000Z</time>
      </trkpt>
      <trkpt lat="45.17393" lon="4.81248">
        <ele>132.192751</ele>
        <time>2021-09-14T11:21:53.000Z</time>
      </trkpt>
      <trkpt lat="45.17431" lon="4.81241">
        <ele>132.210834</ele>
        <time>2021-09-14T11:21:59.000Z</time>
      </trkpt>
      <trkpt lat="45.17449" lon="4.81238">
        <ele>132.247781</ele>
        <time>2021-09-14T11:22:02.000Z</time>
      </trkpt>
      <trkpt lat="45.17455" lon="4.81239">
        <ele>132.260691</ele>
        <time>2021-09-14T11:22:04.000Z</time>
      </trkpt>
      <trkpt lat="45.17492" lon="4.81248">
        <ele>132.336474</ele>
        <time>2021-09-14T11:22:10.000Z</time>
      </trkpt>
      <trkpt lat="45.17526" lon="4.81263">
        <ele>132.409786</ele>
        <time>2021-09-14T11:22:16.000Z</time>
      </trkpt>
      <trkpt lat="45.17579" lon="4.81285">
        <ele>132.525119</ele>
        <time>2021-09-14T11:22:25.000Z</time>
      </trkpt>
      <trkpt lat="45.17614" lon="4.81285">
        <ele>132.618995</ele>
        <time>2021-09-14T11:22:31.000Z</time>
      </trkpt>
      <trkpt lat="45.17626" lon="4.81283">
        <ele>132.648912</ele>
        <time>2021-09-14T11:22:35.000Z</time>
      </trkpt>
      <trkpt lat="45.17651" lon="4.81287">
        <ele>132.717687</ele>
        <time>2021-09-14T11:22:37.000Z</time>
      </trkpt>
      <trkpt lat="45.17651" lon="4.81287">
        <ele>132.717875</ele>
        <time>2021-09-14T11:22:38.000Z</time>
      </trkpt>
      <trkpt lat="45.17659" lon="4.81295">
        <ele>132.743796</ele>
        <time>2021-09-14T11:22:40.000Z</time>
      </trkpt>
      <trkpt lat="45.17665" lon="4.81305">
        <ele>132.768845</ele>
        <time>2021-09-14T11:22:42.000Z</time>
      </trkpt>
      <trkpt lat="45.17671" lon="4.81318">
        <ele>132.797544</ele>
        <time>2021-09-14T11:22:45.000Z</time>
      </trkpt>
      <trkpt lat="45.17672" lon="4.81322">
        <ele>132.805063</ele>
        <time>2021-09-14T11:22:49.000Z</time>
      </trkpt>
      <trkpt lat="45.17673" lon="4.81324">
        <ele>132.809814</ele>
        <time>2021-09-14T11:22:52.000Z</time>
      </trkpt>
      <trkpt lat="45.17675" lon="4.81327">
        <ele>132.816118</ele>
        <time>2021-09-14T11:22:56.000Z</time>
      </trkpt>
      <trkpt lat="45.17676" lon="4.81329">
        <ele>132.820725</ele>
        <time>2021-09-14T11:22:57.000Z</time>
      </trkpt>
      <trkpt lat="45.17679" lon="4.81334">
        <ele>132.833492</ele>
        <time>2021-09-14T11:23:00.000Z</time>
      </trkpt>
      <trkpt lat="45.17706" lon="4.81329">
        <ele>132.905714</ele>
        <time>2021-09-14T11:23:06.000Z</time>
      </trkpt>
      <trkpt lat="45.17744" lon="4.81321">
        <ele>132.97278</ele>
        <time>2021-09-14T11:23:13.000Z</time>
      </trkpt>
      <trkpt lat="45.17788" lon="4.81315">
        <ele>132.832506</ele>
        <time>2021-09-14T11:23:20.000Z</time>
      </trkpt>
      <trkpt lat="45.17826" lon="4.81319">
        <ele>132.71508</ele>
        <time>2021-09-14T11:23:25.000Z</time>
      </trkpt>
      <trkpt lat="45.17881" lon="4.81339">
        <ele>132.534552</ele>
        <time>2021-09-14T11:23:32.000Z</time>
      </trkpt>
      <trkpt lat="45.17889" lon="4.81343">
        <ele>132.508623</ele>
        <time>2021-09-14T11:23:33.000Z</time>
      </trkpt>
      <trkpt lat="45.17937" lon="4.81362">
        <ele>132.381841</ele>
        <time>2021-09-14T11:23:39.000Z</time>
      </trkpt>
      <trkpt lat="45.17992" lon="4.81379">
        <ele>132.269902</ele>
        <time>2021-09-14T11:23:45.000Z</time>
      </trkpt>
      <trkpt lat="45.18044" lon="4.81394">
        <ele>132.16541</ele>
        <time>2021-09-14T11:23:53.000Z</time>
      </trkpt>
      <trkpt lat="45.18102" lon="4.81403">
        <ele>132.054336</ele>
        <time>2021-09-14T11:24:01.000Z</time>
      </trkpt>
      <trkpt lat="45.18115" lon="4.81404">
        <ele>132.030326</ele>
        <time>2021-09-14T11:24:03.000Z</time>
      </trkpt>
      <trkpt lat="45.18137" lon="4.81403">
        <ele>131.993764</ele>
        <time>2021-09-14T11:24:06.000Z</time>
      </trkpt>
      <trkpt lat="45.18158" lon="4.81399">
        <ele>131.95743</ele>
        <time>2021-09-14T11:24:09.000Z</time>
      </trkpt>
      <trkpt lat="45.18206" lon="4.81391">
        <ele>131.872742</ele>
        <time>2021-09-14T11:24:16.000Z</time>
      </trkpt>
      <trkpt lat="45.18265" lon="4.81387">
        <ele>131.772117</ele>
        <time>2021-09-14T11:24:24.000Z</time>
      </trkpt>
      <trkpt lat="45.18307" lon="4.81386">
        <ele>132.09119</ele>
        <time>2021-09-14T11:24:30.000Z</time>
      </trkpt>
      <trkpt lat="45.1835" lon="4.8138">
        <ele>132.470031</ele>
        <time>2021-09-14T11:24:37.000Z</time>
      </trkpt>
      <trkpt lat="45.18381" lon="4.81379">
        <ele>132.743748</ele>
        <time>2021-09-14T11:24:44.000Z</time>
      </trkpt>
      <trkpt lat="45.18413" lon="4.81382">
        <ele>133.020647</ele>
        <time>2021-09-14T11:24:52.000Z</time>
      </trkpt>
      <trkpt lat="45.18425" lon="4.8139">
        <ele>133.139856</ele>
        <time>2021-09-14T11:24:56.000Z</time>
      </trkpt>
      <trkpt lat="45.18429" lon="4.81395">
        <ele>133.189574</ele>
        <time>2021-09-14T11:24:57.000Z</time>
      </trkpt>
      <trkpt lat="45.18437" lon="4.81395">
        <ele>133.259764</ele>
        <time>2021-09-14T11:24:59.000Z</time>
      </trkpt>
      <trkpt lat="45.18445" lon="4.81388">
        <ele>133.339546</ele>
        <time>2021-09-14T11:25:01.000Z</time>
      </trkpt>
      <trkpt lat="45.18446" lon="4.8138">
        <ele>133.414515</ele>
        <time>2021-09-14T11:25:02.000Z</time>
      </trkpt>
      <trkpt lat="45.18432" lon="4.81328">
        <ele>133.989141</ele>
        <time>2021-09-14T11:25:10.000Z</time>
      </trkpt>
      <trkpt lat="45.18423" lon="4.81285">
        <ele>134.440829</ele>
        <time>2021-09-14T11:25:17.000Z</time>
      </trkpt>
      <trkpt lat="45.18412" lon="4.81225">
        <ele>135.061096</ele>
        <time>2021-09-14T11:25:27.000Z</time>
      </trkpt>
      <trkpt lat="45.18401" lon="4.81167">
        <ele>135.67512</ele>
        <time>2021-09-14T11:25:36.000Z</time>
      </trkpt>
      <trkpt lat="45.18392" lon="4.81116">
        <ele>135.879379</ele>
        <time>2021-09-14T11:25:43.000Z</time>
      </trkpt>
      <trkpt lat="45.18381" lon="4.8106">
        <ele>135.782444</ele>
        <time>2021-09-14T11:25:50.000Z</time>
      </trkpt>
      <trkpt lat="45.18371" lon="4.81002">
        <ele>135.682545</ele>
        <time>2021-09-14T11:25:57.000Z</time>
      </trkpt>
      <trkpt lat="45.18366" lon="4.80952">
        <ele>135.598292</ele>
        <time>2021-09-14T11:26:03.000Z</time>
      </trkpt>
      <trkpt lat="45.18366" lon="4.80922">
        <ele>135.547908</ele>
        <time>2021-09-14T11:26:06.000Z</time>
      </trkpt>
      <trkpt lat="45.18366" lon="4.80914">
        <ele>135.534296</ele>
        <time>2021-09-14T11:26:08.000Z</time>
      </trkpt>
      <trkpt lat="45.18371" lon="4.80869">
        <ele>135.208074</ele>
        <time>2021-09-14T11:26:14.000Z</time>
      </trkpt>
      <trkpt lat="45.18366" lon="4.80861">
        <ele>135.074448</ele>
        <time>2021-09-14T11:26:17.000Z</time>
      </trkpt>
      <trkpt lat="45.18361" lon="4.80868">
        <ele>134.955708</ele>
        <time>2021-09-14T11:26:20.000Z</time>
      </trkpt>
      <trkpt lat="45.1836" lon="4.80872">
        <ele>134.895787</ele>
        <time>2021-09-14T11:26:21.000Z</time>
      </trkpt>
      <trkpt lat="45.18353" lon="4.80888">
        <ele>134.673091</ele>
        <time>2021-09-14T11:26:23.000Z</time>
      </trkpt>
      <trkpt lat="45.18351" lon="4.80893">
        <ele>134.592151</ele>
        <time>2021-09-14T11:26:24.000Z</time>
      </trkpt>
      <trkpt lat="45.18342" lon="4.80913">
        <ele>134.305358</ele>
        <time>2021-09-14T11:26:29.000Z</time>
      </trkpt>
      <trkpt lat="45.18328" lon="4.80945">
        <ele>133.842629</ele>
        <time>2021-09-14T11:26:35.000Z</time>
      </trkpt>
      <trkpt lat="45.18323" lon="4.80956">
        <ele>133.682041</ele>
        <time>2021-09-14T11:26:38.000Z</time>
      </trkpt>
      <trkpt lat="45.18315" lon="4.80972">
        <ele>133.456691</ele>
        <time>2021-09-14T11:26:41.000Z</time>
      </trkpt>
      <trkpt lat="45.18305" lon="4.81">
        <ele>133.068975</ele>
        <time>2021-09-14T11:26:46.000Z</time>
      </trkpt>
      <trkpt lat="45.18299" lon="4.81024">
        <ele>132.764281</ele>
        <time>2021-09-14T11:26:51.000Z</time>
      </trkpt>
      <trkpt lat="45.18298" lon="4.81065">
        <ele>132.378413</ele>
        <time>2021-09-14T11:26:56.000Z</time>
      </trkpt>
      <trkpt lat="45.183" lon="4.81085">
        <ele>132.361794</ele>
        <time>2021-09-14T11:27:00.000Z</time>
      </trkpt>
      <trkpt lat="45.18303" lon="4.81109">
        <ele>132.341378</ele>
        <time>2021-09-14T11:27:04.000Z</time>
      </trkpt>
      <trkpt lat="45.18298" lon="4.81117">
        <ele>132.332857</ele>
        <time>2021-09-14T11:27:06.000Z</time>
      </trkpt>
      <trkpt lat="45.18289" lon="4.81118">
        <ele>132.322295</ele>
        <time>2021-09-14T11:27:07.000Z</time>
      </trkpt>
      <trkpt lat="45.18262" lon="4.8112">
        <ele>132.290345</ele>
        <time>2021-09-14T11:27:13.000Z</time>
      </trkpt>
      <trkpt lat="45.18231" lon="4.8112">
        <ele>132.253341</ele>
        <time>2021-09-14T11:27:19.000Z</time>
      </trkpt>
      <trkpt lat="45.18196" lon="4.8112">
        <ele>132.212436</ele>
        <time>2021-09-14T11:27:26.000Z</time>
      </trkpt>
      <trkpt lat="45.18163" lon="4.81116">
        <ele>132.172978</ele>
        <time>2021-09-14T11:27:33.000Z</time>
      </trkpt>
      <trkpt lat="45.18125" lon="4.81108">
        <ele>132.134266</ele>
        <time>2021-09-14T11:27:41.000Z</time>
      </trkpt>
      <trkpt lat="45.18088" lon="4.81099">
        <ele>132.096332</ele>
        <time>2021-09-14T11:27:49.000Z</time>
      </trkpt>
      <trkpt lat="45.18049" lon="4.81087">
        <ele>132.057194</ele>
        <time>2021-09-14T11:27:57.000Z</time>
      </trkpt>
      <trkpt lat="45.18005" lon="4.8107">
        <ele>132.01139</ele>
        <time>2021-09-14T11:28:06.000Z</time>
      </trkpt>
      <trkpt lat="45.17962" lon="4.81053">
        <ele>131.930399</ele>
        <time>2021-09-14T11:28:15.000Z</time>
      </trkpt>
      <trkpt lat="45.17924" lon="4.81033">
        <ele>131.839143</ele>
        <time>2021-09-14T11:28:23.000Z</time>
      </trkpt>
      <trkpt lat="45.17881" lon="4.81011">
        <ele>131.734163</ele>
        <time>2021-09-14T11:28:32.000Z</time>
      </trkpt>
      <trkpt lat="45.17843" lon="4.8099">
        <ele>131.641556</ele>
        <time>2021-09-14T11:28:40.000Z</time>
      </trkpt>
      <trkpt lat="45.17805" lon="4.8097">
        <ele>131.549497</ele>
        <time>2021-09-14T11:28:48.000Z</time>
      </trkpt>
      <trkpt lat="45.17765" lon="4.80949">
        <ele>131.460641</ele>
        <time>2021-09-14T11:28:56.000Z</time>
      </trkpt>
      <trkpt lat="45.17726" lon="4.80928">
        <ele>131.371178</ele>
        <time>2021-09-14T11:29:04.000Z</time>
      </trkpt>
      <trkpt lat="45.17676" lon="4.80901">
        <ele>131.258573</ele>
        <time>2021-09-14T11:29:14.000Z</time>
      </trkpt>
      <trkpt lat="45.17631" lon="4.80876">
        <ele>131.194569</ele>
        <time>2021-09-14T11:29:23.000Z</time>
      </trkpt>
      <trkpt lat="45.17594" lon="4.80857">
        <ele>131.182812</ele>
        <time>2021-09-14T11:29:30.000Z</time>
      </trkpt>
      <trkpt lat="45.17559" lon="4.80837">
        <ele>131.171434</ele>
        <time>2021-09-14T11:29:37.000Z</time>
      </trkpt>
      <trkpt lat="45.17518" lon="4.80815">
        <ele>131.158118</ele>
        <time>2021-09-14T11:29:45.000Z</time>
      </trkpt>
      <trkpt lat="45.17478" lon="4.80793">
        <ele>131.154535</ele>
        <time>2021-09-14T11:29:53.000Z</time>
      </trkpt>
      <trkpt lat="45.17468" lon="4.80788">
        <ele>131.169303</ele>
        <time>2021-09-14T11:29:55.000Z</time>
      </trkpt>
      <trkpt lat="45.17454" lon="4.8078">
        <ele>131.190876</ele>
        <time>2021-09-14T11:29:58.000Z</time>
      </trkpt>
      <trkpt lat="45.17425" lon="4.80764">
        <ele>131.234655</ele>
        <time>2021-09-14T11:30:04.000Z</time>
      </trkpt>
      <trkpt lat="45.17416" lon="4.80759">
        <ele>131.24914</ele>
        <time>2021-09-14T11:30:06.000Z</time>
      </trkpt>
      <trkpt lat="45.17403" lon="4.80752">
        <ele>131.268007</ele>
        <time>2021-09-14T11:30:09.000Z</time>
      </trkpt>
      <trkpt lat="45.17366" lon="4.80732">
        <ele>131.32333</ele>
        <time>2021-09-14T11:30:17.000Z</time>
      </trkpt>
      <trkpt lat="45.17316" lon="4.80707">
        <ele>131.398414</ele>
        <time>2021-09-14T11:30:27.000Z</time>
      </trkpt>
      <trkpt lat="45.17266" lon="4.80682">
        <ele>131.373041</ele>
        <time>2021-09-14T11:30:37.000Z</time>
      </trkpt>
      <trkpt lat="45.17221" lon="4.80664">
        <ele>131.348905</ele>
        <time>2021-09-14T11:30:46.000Z</time>
      </trkpt>
      <trkpt lat="45.1718" lon="4.8065">
        <ele>131.327503</ele>
        <time>2021-09-14T11:30:54.000Z</time>
      </trkpt>
      <trkpt lat="45.17128" lon="4.80636">
        <ele>131.379158</ele>
        <time>2021-09-14T11:31:04.000Z</time>
      </trkpt>
      <trkpt lat="45.17082" lon="4.80627">
        <ele>131.623319</ele>
        <time>2021-09-14T11:31:13.000Z</time>
      </trkpt>
      <trkpt lat="45.17072" lon="4.80625">
        <ele>131.677401</ele>
        <time>2021-09-14T11:31:15.000Z</time>
      </trkpt>
      <trkpt lat="45.17052" lon="4.80622">
        <ele>131.782341</ele>
        <time>2021-09-14T11:31:19.000Z</time>
      </trkpt>
      <trkpt lat="45.17012" lon="4.80617">
        <ele>131.992747</ele>
        <time>2021-09-14T11:31:27.000Z</time>
      </trkpt>
      <trkpt lat="45.1698" lon="4.80617">
        <ele>132.161261</ele>
        <time>2021-09-14T11:31:34.000Z</time>
      </trkpt>
      <trkpt lat="45.16961" lon="4.80625">
        <ele>132.344128</ele>
        <time>2021-09-14T11:31:40.000Z</time>
      </trkpt>
      <trkpt lat="45.16946" lon="4.80629">
        <ele>132.870062</ele>
        <time>2021-09-14T11:31:46.000Z</time>
      </trkpt>
      <trkpt lat="45.16924" lon="4.80623">
        <ele>133.629454</ele>
        <time>2021-09-14T11:31:55.000Z</time>
      </trkpt>
      <trkpt lat="45.16909" lon="4.8063">
        <ele>134.187814</ele>
        <time>2021-09-14T11:32:02.000Z</time>
      </trkpt>
      <trkpt lat="45.16893" lon="4.8064">
        <ele>134.801563</ele>
        <time>2021-09-14T11:32:11.000Z</time>
      </trkpt>
      <trkpt lat="45.16886" lon="4.80643">
        <ele>135.056991</ele>
        <time>2021-09-14T11:32:15.000Z</time>
      </trkpt>
      <trkpt lat="45.16881" lon="4.80644">
        <ele>135.224129</ele>
        <time>2021-09-14T11:32:17.000Z</time>
      </trkpt>
      <trkpt lat="45.1688" lon="4.80638">
        <ele>135.382036</ele>
        <time>2021-09-14T11:32:19.000Z</time>
      </trkpt>
      <trkpt lat="45.16881" lon="4.80636">
        <ele>135.453652</ele>
        <time>2021-09-14T11:32:20.000Z</time>
      </trkpt>
      <trkpt lat="45.16893" lon="4.80625">
        <ele>135.933127</ele>
        <time>2021-09-14T11:32:26.000Z</time>
      </trkpt>
      <trkpt lat="45.16904" lon="4.80615">
        <ele>136.373343</ele>
        <time>2021-09-14T11:32:31.000Z</time>
      </trkpt>
      <trkpt lat="45.16903" lon="4.80606">
        <ele>136.594659</ele>
        <time>2021-09-14T11:32:34.000Z</time>
      </trkpt>
      <trkpt lat="45.16885" lon="4.8062">
        <ele>137.303768</ele>
        <time>2021-09-14T11:32:40.000Z</time>
      </trkpt>
      <trkpt lat="45.16869" lon="4.80633">
        <ele>137.943952</ele>
        <time>2021-09-14T11:32:47.000Z</time>
      </trkpt>
      <trkpt lat="45.16852" lon="4.80647">
        <ele>138.601189</ele>
        <time>2021-09-14T11:32:55.000Z</time>
      </trkpt>
      <trkpt lat="45.16826" lon="4.80658">
        <ele>139.326039</ele>
        <time>2021-09-14T11:33:04.000Z</time>
      </trkpt>
      <trkpt lat="45.16808" lon="4.80665">
        <ele>139.853005</ele>
        <time>2021-09-14T11:33:11.000Z</time>
      </trkpt>
      <trkpt lat="45.1679" lon="4.80679">
        <ele>140.393898</ele>
        <time>2021-09-14T11:33:17.000Z</time>
      </trkpt>
      <trkpt lat="45.16779" lon="4.80684">
        <ele>140.715849</ele>
        <time>2021-09-14T11:33:20.000Z</time>
      </trkpt>
      <trkpt lat="45.16763" lon="4.80693">
        <ele>141.177391</ele>
        <time>2021-09-14T11:33:24.000Z</time>
      </trkpt>
      <trkpt lat="45.16748" lon="4.80697">
        <ele>141.603367</ele>
        <time>2021-09-14T11:33:28.000Z</time>
      </trkpt>
      <trkpt lat="45.16744" lon="4.80697">
        <ele>141.710835</ele>
        <time>2021-09-14T11:33:29.000Z</time>
      </trkpt>
      <trkpt lat="45.16729" lon="4.80706">
        <ele>142.162563</ele>
        <time>2021-09-14T11:33:33.000Z</time>
      </trkpt>
      <trkpt lat="45.16721" lon="4.80712">
        <ele>142.398437</ele>
        <time>2021-09-14T11:33:35.000Z</time>
      </trkpt>
      <trkpt lat="45.1669" lon="4.80732">
        <ele>143.323027</ele>
        <time>2021-09-14T11:33:42.000Z</time>
      </trkpt>
      <trkpt lat="45.16663" lon="4.80753">
        <ele>143.574479</ele>
        <time>2021-09-14T11:33:48.000Z</time>
      </trkpt>
      <trkpt lat="45.16659" lon="4.80756">
        <ele>143.609482</ele>
        <time>2021-09-14T11:33:49.000Z</time>
      </trkpt>
      <trkpt lat="45.16648" lon="4.80766">
        <ele>143.710907</ele>
        <time>2021-09-14T11:33:52.000Z</time>
      </trkpt>
      <trkpt lat="45.16642" lon="4.80776">
        <ele>143.774533</ele>
        <time>2021-09-14T11:33:54.000Z</time>
      </trkpt>
      <trkpt lat="45.16633" lon="4.80784">
        <ele>143.851184</ele>
        <time>2021-09-14T11:33:56.000Z</time>
      </trkpt>
      <trkpt lat="45.16628" lon="4.80783">
        <ele>143.888368</ele>
        <time>2021-09-14T11:33:57.000Z</time>
      </trkpt>
      <trkpt lat="45.16619" lon="4.80787">
        <ele>143.962948</ele>
        <time>2021-09-14T11:33:59.000Z</time>
      </trkpt>
      <trkpt lat="45.16606" lon="4.80796">
        <ele>144.071921</ele>
        <time>2021-09-14T11:34:02.000Z</time>
      </trkpt>
      <trkpt lat="45.16571" lon="4.8082">
        <ele>144.355467</ele>
        <time>2021-09-14T11:34:09.000Z</time>
      </trkpt>
      <trkpt lat="45.16524" lon="4.80853">
        <ele>144.697544</ele>
        <time>2021-09-14T11:34:18.000Z</time>
      </trkpt>
      <trkpt lat="45.16519" lon="4.80857">
        <ele>144.701202</ele>
        <time>2021-09-14T11:34:19.000Z</time>
      </trkpt>
      <trkpt lat="45.16483" lon="4.80882">
        <ele>144.725974</ele>
        <time>2021-09-14T11:34:27.000Z</time>
      </trkpt>
      <trkpt lat="45.16449" lon="4.80906">
        <ele>144.749654</ele>
        <time>2021-09-14T11:34:33.000Z</time>
      </trkpt>
      <trkpt lat="45.16407" lon="4.80935">
        <ele>144.779135</ele>
        <time>2021-09-14T11:34:41.000Z</time>
      </trkpt>
      <trkpt lat="45.16359" lon="4.80964">
        <ele>144.752511</ele>
        <time>2021-09-14T11:34:49.000Z</time>
      </trkpt>
      <trkpt lat="45.16315" lon="4.80991">
        <ele>144.495738</ele>
        <time>2021-09-14T11:34:56.000Z</time>
      </trkpt>
      <trkpt lat="45.16293" lon="4.8101">
        <ele>144.352626</ele>
        <time>2021-09-14T11:35:00.000Z</time>
      </trkpt>
      <trkpt lat="45.16287" lon="4.81016">
        <ele>144.316323</ele>
        <time>2021-09-14T11:35:01.000Z</time>
      </trkpt>
      <trkpt lat="45.16276" lon="4.81027">
        <ele>144.243017</ele>
        <time>2021-09-14T11:35:03.000Z</time>
      </trkpt>
      <trkpt lat="45.16253" lon="4.81047">
        <ele>144.097281</ele>
        <time>2021-09-14T11:35:07.000Z</time>
      </trkpt>
      <trkpt lat="45.16247" lon="4.81052">
        <ele>144.06061</ele>
        <time>2021-09-14T11:35:08.000Z</time>
      </trkpt>
      <trkpt lat="45.16238" lon="4.81066">
        <ele>143.987639</ele>
        <time>2021-09-14T11:35:10.000Z</time>
      </trkpt>
      <trkpt lat="45.16233" lon="4.81072">
        <ele>143.952197</ele>
        <time>2021-09-14T11:35:11.000Z</time>
      </trkpt>
      <trkpt lat="45.16213" lon="4.81097">
        <ele>143.781979</ele>
        <time>2021-09-14T11:35:15.000Z</time>
      </trkpt>
      <trkpt lat="45.16208" lon="4.81101">
        <ele>143.706628</ele>
        <time>2021-09-14T11:35:16.000Z</time>
      </trkpt>
      <trkpt lat="45.16167" lon="4.81127">
        <ele>143.153916</ele>
        <time>2021-09-14T11:35:24.000Z</time>
      </trkpt>
      <trkpt lat="45.16143" lon="4.81158">
        <ele>142.761815</ele>
        <time>2021-09-14T11:35:30.000Z</time>
      </trkpt>
      <trkpt lat="45.16123" lon="4.81187">
        <ele>142.416313</ele>
        <time>2021-09-14T11:35:35.000Z</time>
      </trkpt>
      <trkpt lat="45.16101" lon="4.81223">
        <ele>142.00665</ele>
        <time>2021-09-14T11:35:41.000Z</time>
      </trkpt>
      <trkpt lat="45.16076" lon="4.81266">
        <ele>141.52953</ele>
        <time>2021-09-14T11:35:48.000Z</time>
      </trkpt>
      <trkpt lat="45.16073" lon="4.81272">
        <ele>141.467202</ele>
        <time>2021-09-14T11:35:49.000Z</time>
      </trkpt>
      <trkpt lat="45.16062" lon="4.81295">
        <ele>141.226433</ele>
        <time>2021-09-14T11:35:53.000Z</time>
      </trkpt>
      <trkpt lat="45.16047" lon="4.81325">
        <ele>140.907765</ele>
        <time>2021-09-14T11:35:58.000Z</time>
      </trkpt>
      <trkpt lat="45.16045" lon="4.81332">
        <ele>140.840252</ele>
        <time>2021-09-14T11:35:59.000Z</time>
      </trkpt>
      <trkpt lat="45.16039" lon="4.81364">
        <ele>140.551862</ele>
        <time>2021-09-14T11:36:03.000Z</time>
      </trkpt>
      <trkpt lat="45.16037" lon="4.81373">
        <ele>140.471635</ele>
        <time>2021-09-14T11:36:04.000Z</time>
      </trkpt>
      <trkpt lat="45.16032" lon="4.81401">
        <ele>140.222519</ele>
        <time>2021-09-14T11:36:07.000Z</time>
      </trkpt>
      <trkpt lat="45.16028" lon="4.81418">
        <ele>140.061501</ele>
        <time>2021-09-14T11:36:09.000Z</time>
      </trkpt>
      <trkpt lat="45.16003" lon="4.81478">
        <ele>139.460483</ele>
        <time>2021-09-14T11:36:16.000Z</time>
      </trkpt>
      <trkpt lat="45.15982" lon="4.8153">
        <ele>138.86768</ele>
        <time>2021-09-14T11:36:22.000Z</time>
      </trkpt>
      <trkpt lat="45.15954" lon="4.81606">
        <ele>138.02921</ele>
        <time>2021-09-14T11:36:28.000Z</time>
      </trkpt>
      <trkpt lat="45.15934" lon="4.81661">
        <ele>137.410551</ele>
        <time>2021-09-14T11:36:34.000Z</time>
      </trkpt>
      <trkpt lat="45.15924" lon="4.81688">
        <ele>137.113549</ele>
        <time>2021-09-14T11:36:37.000Z</time>
      </trkpt>
      <trkpt lat="45.15924" lon="4.81708">
        <ele>136.91842</ele>
        <time>2021-09-14T11:36:39.000Z</time>
      </trkpt>
      <trkpt lat="45.1593" lon="4.81748">
        <ele>136.729712</ele>
        <time>2021-09-14T11:36:43.000Z</time>
      </trkpt>
      <trkpt lat="45.15932" lon="4.81758">
        <ele>136.681606</ele>
        <time>2021-09-14T11:36:44.000Z</time>
      </trkpt>
      <trkpt lat="45.15934" lon="4.81789">
        <ele>136.53542</ele>
        <time>2021-09-14T11:36:47.000Z</time>
      </trkpt>
      <trkpt lat="45.15933" lon="4.81799">
        <ele>136.48795</ele>
        <time>2021-09-14T11:36:48.000Z</time>
      </trkpt>
      <trkpt lat="45.15929" lon="4.81819">
        <ele>136.393744</ele>
        <time>2021-09-14T11:36:50.000Z</time>
      </trkpt>
      <trkpt lat="45.15927" lon="4.81829">
        <ele>136.345355</ele>
        <time>2021-09-14T11:36:51.000Z</time>
      </trkpt>
      <trkpt lat="45.15919" lon="4.8189">
        <ele>136.056078</ele>
        <time>2021-09-14T11:36:57.000Z</time>
      </trkpt>
      <trkpt lat="45.1591" lon="4.81957">
        <ele>135.741698</ele>
        <time>2021-09-14T11:37:04.000Z</time>
      </trkpt>
      <trkpt lat="45.15904" lon="4.82011">
        <ele>135.556961</ele>
        <time>2021-09-14T11:37:10.000Z</time>
      </trkpt>
      <trkpt lat="45.1589" lon="4.82087">
        <ele>135.294705</ele>
        <time>2021-09-14T11:37:19.000Z</time>
      </trkpt>
      <trkpt lat="45.15875" lon="4.8215">
        <ele>135.072187</ele>
        <time>2021-09-14T11:37:27.000Z</time>
      </trkpt>
      <trkpt lat="45.15859" lon="4.82209">
        <ele>134.835629</ele>
        <time>2021-09-14T11:37:35.000Z</time>
      </trkpt>
      <trkpt lat="45.1584" lon="4.82266">
        <ele>134.399963</ele>
        <time>2021-09-14T11:37:43.000Z</time>
      </trkpt>
      <trkpt lat="45.15815" lon="4.82327">
        <ele>133.926591</ele>
        <time>2021-09-14T11:37:52.000Z</time>
      </trkpt>
      <trkpt lat="45.15791" lon="4.82374">
        <ele>133.525316</ele>
        <time>2021-09-14T11:38:00.000Z</time>
      </trkpt>
      <trkpt lat="45.15762" lon="4.8241">
        <ele>133.14776</ele>
        <time>2021-09-14T11:38:08.000Z</time>
      </trkpt>
      <trkpt lat="45.15731" lon="4.82441">
        <ele>132.649879</ele>
        <time>2021-09-14T11:38:16.000Z</time>
      </trkpt>
      <trkpt lat="45.15697" lon="4.82469">
        <ele>132.145319</ele>
        <time>2021-09-14T11:38:24.000Z</time>
      </trkpt>
      <trkpt lat="45.1566" lon="4.82489">
        <ele>131.620514</ele>
        <time>2021-09-14T11:38:32.000Z</time>
      </trkpt>
      <trkpt lat="45.15619" lon="4.82502">
        <ele>131.073408</ele>
        <time>2021-09-14T11:38:40.000Z</time>
      </trkpt>
      <trkpt lat="45.15582" lon="4.82509">
        <ele>130.697922</ele>
        <time>2021-09-14T11:38:47.000Z</time>
      </trkpt>
      <trkpt lat="45.15546" lon="4.8251">
        <ele>130.503991</ele>
        <time>2021-09-14T11:38:54.000Z</time>
      </trkpt>
      <trkpt lat="45.15502" lon="4.82507">
        <ele>130.267089</ele>
        <time>2021-09-14T11:39:03.000Z</time>
      </trkpt>
      <trkpt lat="45.15466" lon="4.82501">
        <ele>130.074156</ele>
        <time>2021-09-14T11:39:10.000Z</time>
      </trkpt>
      <trkpt lat="45.15426" lon="4.82489">
        <ele>129.859325</ele>
        <time>2021-09-14T11:39:18.000Z</time>
      </trkpt>
      <trkpt lat="45.15381" lon="4.8247">
        <ele>129.778998</ele>
        <time>2021-09-14T11:39:27.000Z</time>
      </trkpt>
      <trkpt lat="45.15341" lon="4.82445">
        <ele>129.73622</ele>
        <time>2021-09-14T11:39:35.000Z</time>
      </trkpt>
      <trkpt lat="45.15297" lon="4.8241">
        <ele>129.68719</ele>
        <time>2021-09-14T11:39:44.000Z</time>
      </trkpt>
      <trkpt lat="45.15251" lon="4.82372">
        <ele>129.635013</ele>
        <time>2021-09-14T11:39:54.000Z</time>
      </trkpt>
      <trkpt lat="45.15213" lon="4.82342">
        <ele>129.592795</ele>
        <time>2021-09-14T11:40:02.000Z</time>
      </trkpt>
      <trkpt lat="45.15171" lon="4.82306">
        <ele>129.545198</ele>
        <time>2021-09-14T11:40:11.000Z</time>
      </trkpt>
      <trkpt lat="45.15133" lon="4.82274">
        <ele>129.502213</ele>
        <time>2021-09-14T11:40:19.000Z</time>
      </trkpt>
      <trkpt lat="45.15096" lon="4.82243">
        <ele>129.457128</ele>
        <time>2021-09-14T11:40:27.000Z</time>
      </trkpt>
      <trkpt lat="45.15059" lon="4.82213">
        <ele>129.393841</ele>
        <time>2021-09-14T11:40:35.000Z</time>
      </trkpt>
      <trkpt lat="45.15013" lon="4.82173">
        <ele>129.313881</ele>
        <time>2021-09-14T11:40:45.000Z</time>
      </trkpt>
      <trkpt lat="45.15008" lon="4.82168">
        <ele>129.306246</ele>
        <time>2021-09-14T11:40:46.000Z</time>
      </trkpt>
      <trkpt lat="45.14992" lon="4.82153">
        <ele>129.277083</ele>
        <time>2021-09-14T11:40:50.000Z</time>
      </trkpt>
      <trkpt lat="45.14979" lon="4.82142">
        <ele>129.254184</ele>
        <time>2021-09-14T11:40:53.000Z</time>
      </trkpt>
      <trkpt lat="45.14953" lon="4.82121">
        <ele>129.211018</ele>
        <time>2021-09-14T11:40:59.000Z</time>
      </trkpt>
      <trkpt lat="45.14929" lon="4.821">
        <ele>129.231794</ele>
        <time>2021-09-14T11:41:05.000Z</time>
      </trkpt>
      <trkpt lat="45.14901" lon="4.82074">
        <ele>129.277684</ele>
        <time>2021-09-14T11:41:12.000Z</time>
      </trkpt>
      <trkpt lat="45.14871" lon="4.82046">
        <ele>129.326683</ele>
        <time>2021-09-14T11:41:19.000Z</time>
      </trkpt>
      <trkpt lat="45.1484" lon="4.82017">
        <ele>129.376936</ele>
        <time>2021-09-14T11:41:26.000Z</time>
      </trkpt>
      <trkpt lat="45.14805" lon="4.81984">
        <ele>129.434065</ele>
        <time>2021-09-14T11:41:34.000Z</time>
      </trkpt>
      <trkpt lat="45.14764" lon="4.81944">
        <ele>129.727419</ele>
        <time>2021-09-14T11:41:43.000Z</time>
      </trkpt>
      <trkpt lat="45.14728" lon="4.81907">
        <ele>130.033597</ele>
        <time>2021-09-14T11:41:51.000Z</time>
      </trkpt>
      <trkpt lat="45.14706" lon="4.81884">
        <ele>130.221689</ele>
        <time>2021-09-14T11:41:56.000Z</time>
      </trkpt>
      <trkpt lat="45.14697" lon="4.81875">
        <ele>130.297321</ele>
        <time>2021-09-14T11:41:58.000Z</time>
      </trkpt>
      <trkpt lat="45.14692" lon="4.81871">
        <ele>130.336402</ele>
        <time>2021-09-14T11:41:59.000Z</time>
      </trkpt>
      <trkpt lat="45.14675" lon="4.81853">
        <ele>130.482883</ele>
        <time>2021-09-14T11:42:03.000Z</time>
      </trkpt>
      <trkpt lat="45.14639" lon="4.81816">
        <ele>130.780217</ele>
        <time>2021-09-14T11:42:11.000Z</time>
      </trkpt>
      <trkpt lat="45.14604" lon="4.81781">
        <ele>131.040706</ele>
        <time>2021-09-14T11:42:19.000Z</time>
      </trkpt>
      <trkpt lat="45.14568" lon="4.81745">
        <ele>131.312227</ele>
        <time>2021-09-14T11:42:27.000Z</time>
      </trkpt>
      <trkpt lat="45.14536" lon="4.81712">
        <ele>131.554956</ele>
        <time>2021-09-14T11:42:34.000Z</time>
      </trkpt>
      <trkpt lat="45.14505" lon="4.81678">
        <ele>131.792139</ele>
        <time>2021-09-14T11:42:41.000Z</time>
      </trkpt>
      <trkpt lat="45.14476" lon="4.81646">
        <ele>131.800977</ele>
        <time>2021-09-14T11:42:48.000Z</time>
      </trkpt>
      <trkpt lat="45.14445" lon="4.81618">
        <ele>131.809627</ele>
        <time>2021-09-14T11:42:55.000Z</time>
      </trkpt>
      <trkpt lat="45.14408" lon="4.81583">
        <ele>131.820338</ele>
        <time>2021-09-14T11:43:03.000Z</time>
      </trkpt>
      <trkpt lat="45.14371" lon="4.81545">
        <ele>131.831147</ele>
        <time>2021-09-14T11:43:11.000Z</time>
      </trkpt>
      <trkpt lat="45.14339" lon="4.81511">
        <ele>131.934015</ele>
        <time>2021-09-14T11:43:18.000Z</time>
      </trkpt>
      <trkpt lat="45.14311" lon="4.81484">
        <ele>132.07299</ele>
        <time>2021-09-14T11:43:24.000Z</time>
      </trkpt>
      <trkpt lat="45.14285" lon="4.81456">
        <ele>132.208467</ele>
        <time>2021-09-14T11:43:30.000Z</time>
      </trkpt>
      <trkpt lat="45.14261" lon="4.8143">
        <ele>132.335053</ele>
        <time>2021-09-14T11:43:36.000Z</time>
      </trkpt>
      <trkpt lat="45.14231" lon="4.81398">
        <ele>132.487961</ele>
        <time>2021-09-14T11:43:44.000Z</time>
      </trkpt>
      <trkpt lat="45.14228" lon="4.81394">
        <ele>132.503795</ele>
        <time>2021-09-14T11:43:45.000Z</time>
      </trkpt>
      <trkpt lat="45.14207" lon="4.81368">
        <ele>132.644906</ele>
        <time>2021-09-14T11:43:52.000Z</time>
      </trkpt>
      <trkpt lat="45.14192" lon="4.81347">
        <ele>132.778217</ele>
        <time>2021-09-14T11:43:57.000Z</time>
      </trkpt>
      <trkpt lat="45.14189" lon="4.81342">
        <ele>132.805507</ele>
        <time>2021-09-14T11:43:58.000Z</time>
      </trkpt>
      <trkpt lat="45.1418" lon="4.8132">
        <ele>132.923532</ele>
        <time>2021-09-14T11:44:01.000Z</time>
      </trkpt>
      <trkpt lat="45.14176" lon="4.81312">
        <ele>132.968161</ele>
        <time>2021-09-14T11:44:02.000Z</time>
      </trkpt>
      <trkpt lat="45.14165" lon="4.81297">
        <ele>133.063385</ele>
        <time>2021-09-14T11:44:04.000Z</time>
      </trkpt>
      <trkpt lat="45.14148" lon="4.8128">
        <ele>133.198177</ele>
        <time>2021-09-14T11:44:07.000Z</time>
      </trkpt>
      <trkpt lat="45.14141" lon="4.81267">
        <ele>133.272225</ele>
        <time>2021-09-14T11:44:09.000Z</time>
      </trkpt>
      <trkpt lat="45.14138" lon="4.8126">
        <ele>133.306486</ele>
        <time>2021-09-14T11:44:10.000Z</time>
      </trkpt>
      <trkpt lat="45.14135" lon="4.81255">
        <ele>133.338977</ele>
        <time>2021-09-14T11:44:11.000Z</time>
      </trkpt>
      <trkpt lat="45.14128" lon="4.81254">
        <ele>133.380764</ele>
        <time>2021-09-14T11:44:14.000Z</time>
      </trkpt>
      <trkpt lat="45.14118" lon="4.81252">
        <ele>133.446354</ele>
        <time>2021-09-14T11:44:20.000Z</time>
      </trkpt>
      <trkpt lat="45.14114" lon="4.8125">
        <ele>133.476363</ele>
        <time>2021-09-14T11:44:23.000Z</time>
      </trkpt>
      <trkpt lat="45.1411" lon="4.81247">
        <ele>133.501922</ele>
        <time>2021-09-14T11:44:25.000Z</time>
      </trkpt>
      <trkpt lat="45.14107" lon="4.81243">
        <ele>133.528262</ele>
        <time>2021-09-14T11:44:27.000Z</time>
      </trkpt>
      <trkpt lat="45.141" lon="4.81236">
        <ele>133.585123</ele>
        <time>2021-09-14T11:44:30.000Z</time>
      </trkpt>
      <trkpt lat="45.14082" lon="4.81211">
        <ele>133.703899</ele>
        <time>2021-09-14T11:44:37.000Z</time>
      </trkpt>
      <trkpt lat="45.14061" lon="4.81184">
        <ele>133.561222</ele>
        <time>2021-09-14T11:44:44.000Z</time>
      </trkpt>
      <trkpt lat="45.14039" lon="4.81155">
        <ele>133.408714</ele>
        <time>2021-09-14T11:44:51.000Z</time>
      </trkpt>
      <trkpt lat="45.14024" lon="4.81135">
        <ele>133.304256</ele>
        <time>2021-09-14T11:44:56.000Z</time>
      </trkpt>
      <trkpt lat="45.14004" lon="4.81107">
        <ele>133.161578</ele>
        <time>2021-09-14T11:45:02.000Z</time>
      </trkpt>
      <trkpt lat="45.13983" lon="4.81078">
        <ele>133.011821</ele>
        <time>2021-09-14T11:45:08.000Z</time>
      </trkpt>
      <trkpt lat="45.13966" lon="4.81053">
        <ele>132.889813</ele>
        <time>2021-09-14T11:45:13.000Z</time>
      </trkpt>
      <trkpt lat="45.13942" lon="4.81019">
        <ele>132.7486</ele>
        <time>2021-09-14T11:45:20.000Z</time>
      </trkpt>
      <trkpt lat="45.1392" lon="4.80987">
        <ele>132.643519</ele>
        <time>2021-09-14T11:45:27.000Z</time>
      </trkpt>
      <trkpt lat="45.13907" lon="4.80965">
        <ele>132.574177</ele>
        <time>2021-09-14T11:45:33.000Z</time>
      </trkpt>
      <trkpt lat="45.13893" lon="4.80941">
        <ele>132.500997</ele>
        <time>2021-09-14T11:45:40.000Z</time>
      </trkpt>
      <trkpt lat="45.13882" lon="4.80923">
        <ele>132.445091</ele>
        <time>2021-09-14T11:45:45.000Z</time>
      </trkpt>
      <trkpt lat="45.1387" lon="4.80904">
        <ele>132.385464</ele>
        <time>2021-09-14T11:45:51.000Z</time>
      </trkpt>
      <trkpt lat="45.13864" lon="4.8088">
        <ele>132.325804</ele>
        <time>2021-09-14T11:45:57.000Z</time>
      </trkpt>
      <trkpt lat="45.13859" lon="4.80871">
        <ele>132.297755</ele>
        <time>2021-09-14T11:46:01.000Z</time>
      </trkpt>
      <trkpt lat="45.13858" lon="4.80869">
        <ele>132.293465</ele>
        <time>2021-09-14T11:46:02.000Z</time>
      </trkpt>
      <trkpt lat="45.13856" lon="4.80861">
        <ele>132.272382</ele>
        <time>2021-09-14T11:46:05.000Z</time>
      </trkpt>
      <trkpt lat="45.13854" lon="4.80857">
        <ele>132.262233</ele>
        <time>2021-09-14T11:46:06.000Z</time>
      </trkpt>
      <trkpt lat="45.13844" lon="4.8083">
        <ele>132.18568</ele>
        <time>2021-09-14T11:46:13.000Z</time>
      </trkpt>
      <trkpt lat="45.1384" lon="4.80801">
        <ele>132.111171</ele>
        <time>2021-09-14T11:46:21.000Z</time>
      </trkpt>
      <trkpt lat="45.13835" lon="4.80793">
        <ele>132.081053</ele>
        <time>2021-09-14T11:46:24.000Z</time>
      </trkpt>
      <trkpt lat="45.13832" lon="4.80783">
        <ele>132.053719</ele>
        <time>2021-09-14T11:46:26.000Z</time>
      </trkpt>
      <trkpt lat="45.13829" lon="4.80773">
        <ele>132.023304</ele>
        <time>2021-09-14T11:46:28.000Z</time>
      </trkpt>
      <trkpt lat="45.13809" lon="4.80721">
        <ele>131.871141</ele>
        <time>2021-09-14T11:46:38.000Z</time>
      </trkpt>
      <trkpt lat="45.13799" lon="4.807">
        <ele>131.804982</ele>
        <time>2021-09-14T11:46:42.000Z</time>
      </trkpt>
      <trkpt lat="45.13794" lon="4.80689">
        <ele>131.768278</ele>
        <time>2021-09-14T11:46:44.000Z</time>
      </trkpt>
      <trkpt lat="45.13787" lon="4.80679">
        <ele>131.732754</ele>
        <time>2021-09-14T11:46:46.000Z</time>
      </trkpt>
      <trkpt lat="45.13779" lon="4.80674">
        <ele>131.700597</ele>
        <time>2021-09-14T11:46:48.000Z</time>
      </trkpt>
      <trkpt lat="45.13775" lon="4.80672">
        <ele>131.68506</ele>
        <time>2021-09-14T11:46:49.000Z</time>
      </trkpt>
      <trkpt lat="45.13771" lon="4.8067">
        <ele>131.669178</ele>
        <time>2021-09-14T11:46:50.000Z</time>
      </trkpt>
      <trkpt lat="45.13765" lon="4.80661">
        <ele>131.637539</ele>
        <time>2021-09-14T11:46:52.000Z</time>
      </trkpt>
      <trkpt lat="45.13749" lon="4.80621">
        <ele>131.504807</ele>
        <time>2021-09-14T11:46:58.000Z</time>
      </trkpt>
      <trkpt lat="45.13725" lon="4.80577">
        <ele>131.278852</ele>
        <time>2021-09-14T11:47:05.000Z</time>
      </trkpt>
      <trkpt lat="45.13699" lon="4.80527">
        <ele>131.027738</ele>
        <time>2021-09-14T11:47:13.000Z</time>
      </trkpt>
      <trkpt lat="45.1367" lon="4.80483">
        <ele>130.784311</ele>
        <time>2021-09-14T11:47:21.000Z</time>
      </trkpt>
      <trkpt lat="45.13637" lon="4.80446">
        <ele>130.539548</ele>
        <time>2021-09-14T11:47:29.000Z</time>
      </trkpt>
      <trkpt lat="45.13601" lon="4.80415">
        <ele>130.243442</ele>
        <time>2021-09-14T11:47:37.000Z</time>
      </trkpt>
      <trkpt lat="45.13565" lon="4.80388">
        <ele>129.942867</ele>
        <time>2021-09-14T11:47:45.000Z</time>
      </trkpt>
      <trkpt lat="45.13533" lon="4.80365">
        <ele>129.682086</ele>
        <time>2021-09-14T11:47:52.000Z</time>
      </trkpt>
      <trkpt lat="45.13522" lon="4.8035">
        <ele>129.570044</ele>
        <time>2021-09-14T11:47:55.000Z</time>
      </trkpt>
      <trkpt lat="45.13511" lon="4.80335">
        <ele>129.457663</ele>
        <time>2021-09-14T11:47:58.000Z</time>
      </trkpt>
      <trkpt lat="45.135" lon="4.8032">
        <ele>129.344751</ele>
        <time>2021-09-14T11:48:01.000Z</time>
      </trkpt>
      <trkpt lat="45.13492" lon="4.80312">
        <ele>129.276745</ele>
        <time>2021-09-14T11:48:03.000Z</time>
      </trkpt>
      <trkpt lat="45.13488" lon="4.80309">
        <ele>129.240913</ele>
        <time>2021-09-14T11:48:04.000Z</time>
      </trkpt>
      <trkpt lat="45.13483" lon="4.80305">
        <ele>129.202408</ele>
        <time>2021-09-14T11:48:05.000Z</time>
      </trkpt>
      <trkpt lat="45.13466" lon="4.80297">
        <ele>129.106907</ele>
        <time>2021-09-14T11:48:08.000Z</time>
      </trkpt>
      <trkpt lat="45.13448" lon="4.80296">
        <ele>129.015117</ele>
        <time>2021-09-14T11:48:12.000Z</time>
      </trkpt>
      <trkpt lat="45.13433" lon="4.80296">
        <ele>128.938502</ele>
        <time>2021-09-14T11:48:16.000Z</time>
      </trkpt>
      <trkpt lat="45.13424" lon="4.80296">
        <ele>128.896132</ele>
        <time>2021-09-14T11:48:18.000Z</time>
      </trkpt>
      <trkpt lat="45.13402" lon="4.80282">
        <ele>128.771232</ele>
        <time>2021-09-14T11:48:24.000Z</time>
      </trkpt>
      <trkpt lat="45.13398" lon="4.80279">
        <ele>128.750872</ele>
        <time>2021-09-14T11:48:25.000Z</time>
      </trkpt>
      <trkpt lat="45.1339" lon="4.80274">
        <ele>128.707271</ele>
        <time>2021-09-14T11:48:27.000Z</time>
      </trkpt>
      <trkpt lat="45.13376" lon="4.80269">
        <ele>128.636553</ele>
        <time>2021-09-14T11:48:30.000Z</time>
      </trkpt>
      <trkpt lat="45.13372" lon="4.80268">
        <ele>128.611989</ele>
        <time>2021-09-14T11:48:31.000Z</time>
      </trkpt>
      <trkpt lat="45.1334" lon="4.80268">
        <ele>128.450722</ele>
        <time>2021-09-14T11:48:38.000Z</time>
      </trkpt>
      <trkpt lat="45.13335" lon="4.80268">
        <ele>128.42904</ele>
        <time>2021-09-14T11:48:39.000Z</time>
      </trkpt>
      <trkpt lat="45.13311" lon="4.80265">
        <ele>128.306374</ele>
        <time>2021-09-14T11:48:44.000Z</time>
      </trkpt>
      <trkpt lat="45.13287" lon="4.80259">
        <ele>128.189976</ele>
        <time>2021-09-14T11:48:49.000Z</time>
      </trkpt>
      <trkpt lat="45.13267" lon="4.80255">
        <ele>128.099865</ele>
        <time>2021-09-14T11:48:53.000Z</time>
      </trkpt>
      <trkpt lat="45.13236" lon="4.80252">
        <ele>127.957023</ele>
        <time>2021-09-14T11:48:59.000Z</time>
      </trkpt>
      <trkpt lat="45.13226" lon="4.80249">
        <ele>127.909314</ele>
        <time>2021-09-14T11:49:01.000Z</time>
      </trkpt>
      <trkpt lat="45.13205" lon="4.80245">
        <ele>127.814898</ele>
        <time>2021-09-14T11:49:05.000Z</time>
      </trkpt>
      <trkpt lat="45.13186" lon="4.80243">
        <ele>127.724894</ele>
        <time>2021-09-14T11:49:09.000Z</time>
      </trkpt>
      <trkpt lat="45.13143" lon="4.80249">
        <ele>127.527841</ele>
        <time>2021-09-14T11:49:17.000Z</time>
      </trkpt>
      <trkpt lat="45.13106" lon="4.80245">
        <ele>127.372534</ele>
        <time>2021-09-14T11:49:24.000Z</time>
      </trkpt>
      <trkpt lat="45.13071" lon="4.8024">
        <ele>127.235965</ele>
        <time>2021-09-14T11:49:31.000Z</time>
      </trkpt>
      <trkpt lat="45.13062" lon="4.80238">
        <ele>127.199186</ele>
        <time>2021-09-14T11:49:33.000Z</time>
      </trkpt>
      <trkpt lat="45.13043" lon="4.80235">
        <ele>127.124001</ele>
        <time>2021-09-14T11:49:37.000Z</time>
      </trkpt>
      <trkpt lat="45.13008" lon="4.80229">
        <ele>126.985525</ele>
        <time>2021-09-14T11:49:44.000Z</time>
      </trkpt>
      <trkpt lat="45.12978" lon="4.80223">
        <ele>126.866447</ele>
        <time>2021-09-14T11:49:50.000Z</time>
      </trkpt>
      <trkpt lat="45.12967" lon="4.80221">
        <ele>126.82489</ele>
        <time>2021-09-14T11:49:52.000Z</time>
      </trkpt>
      <trkpt lat="45.12957" lon="4.8022">
        <ele>126.784147</ele>
        <time>2021-09-14T11:49:54.000Z</time>
      </trkpt>
      <trkpt lat="45.12947" lon="4.80218">
        <ele>126.752119</ele>
        <time>2021-09-14T11:49:56.000Z</time>
      </trkpt>
      <trkpt lat="45.12914" lon="4.80212">
        <ele>126.71305</ele>
        <time>2021-09-14T11:50:03.000Z</time>
      </trkpt>
      <trkpt lat="45.12894" lon="4.80209">
        <ele>126.690004</ele>
        <time>2021-09-14T11:50:07.000Z</time>
      </trkpt>
      <trkpt lat="45.12884" lon="4.80206">
        <ele>126.678384</ele>
        <time>2021-09-14T11:50:09.000Z</time>
      </trkpt>
      <trkpt lat="45.12865" lon="4.80198">
        <ele>126.655534</ele>
        <time>2021-09-14T11:50:13.000Z</time>
      </trkpt>
      <trkpt lat="45.12856" lon="4.80195">
        <ele>126.643852</ele>
        <time>2021-09-14T11:50:15.000Z</time>
      </trkpt>
      <trkpt lat="45.12821" lon="4.80181">
        <ele>126.601861</ele>
        <time>2021-09-14T11:50:22.000Z</time>
      </trkpt>
      <trkpt lat="45.12802" lon="4.80177">
        <ele>126.579858</ele>
        <time>2021-09-14T11:50:25.000Z</time>
      </trkpt>
      <trkpt lat="45.12797" lon="4.80177">
        <ele>126.573938</ele>
        <time>2021-09-14T11:50:26.000Z</time>
      </trkpt>
      <trkpt lat="45.12769" lon="4.80172">
        <ele>126.515474</ele>
        <time>2021-09-14T11:50:32.000Z</time>
      </trkpt>
      <trkpt lat="45.12745" lon="4.80167">
        <ele>126.337751</ele>
        <time>2021-09-14T11:50:36.000Z</time>
      </trkpt>
      <trkpt lat="45.12721" lon="4.8017">
        <ele>126.16173</ele>
        <time>2021-09-14T11:50:40.000Z</time>
      </trkpt>
      <trkpt lat="45.12716" lon="4.8017">
        <ele>126.128729</ele>
        <time>2021-09-14T11:50:41.000Z</time>
      </trkpt>
      <trkpt lat="45.12707" lon="4.80171">
        <ele>126.062146</ele>
        <time>2021-09-14T11:50:43.000Z</time>
      </trkpt>
      <trkpt lat="45.12698" lon="4.80169">
        <ele>125.996342</ele>
        <time>2021-09-14T11:50:45.000Z</time>
      </trkpt>
      <trkpt lat="45.12694" lon="4.80168">
        <ele>125.964634</ele>
        <time>2021-09-14T11:50:46.000Z</time>
      </trkpt>
      <trkpt lat="45.12681" lon="4.80165">
        <ele>125.868573</ele>
        <time>2021-09-14T11:50:49.000Z</time>
      </trkpt>
      <trkpt lat="45.12653" lon="4.8016">
        <ele>125.657992</ele>
        <time>2021-09-14T11:50:55.000Z</time>
      </trkpt>
      <trkpt lat="45.12643" lon="4.80158">
        <ele>125.589295</ele>
        <time>2021-09-14T11:50:57.000Z</time>
      </trkpt>
      <trkpt lat="45.12624" lon="4.80154">
        <ele>125.443719</ele>
        <time>2021-09-14T11:51:01.000Z</time>
      </trkpt>
      <trkpt lat="45.12619" lon="4.80153">
        <ele>125.408248</ele>
        <time>2021-09-14T11:51:02.000Z</time>
      </trkpt>
      <trkpt lat="45.12601" lon="4.80149">
        <ele>125.273025</ele>
        <time>2021-09-14T11:51:06.000Z</time>
      </trkpt>
      <trkpt lat="45.12577" lon="4.80144">
        <ele>125.175776</ele>
        <time>2021-09-14T11:51:11.000Z</time>
      </trkpt>
      <trkpt lat="45.12567" lon="4.80142">
        <ele>125.14565</ele>
        <time>2021-09-14T11:51:13.000Z</time>
      </trkpt>
      <trkpt lat="45.12538" lon="4.80136">
        <ele>125.055882</ele>
        <time>2021-09-14T11:51:19.000Z</time>
      </trkpt>
      <trkpt lat="45.12534" lon="4.80135">
        <ele>125.040667</ele>
        <time>2021-09-14T11:51:20.000Z</time>
      </trkpt>
      <trkpt lat="45.12518" lon="4.80132">
        <ele>124.993167</ele>
        <time>2021-09-14T11:51:23.000Z</time>
      </trkpt>
      <trkpt lat="45.12502" lon="4.80128">
        <ele>124.944018</ele>
        <time>2021-09-14T11:51:26.000Z</time>
      </trkpt>
      <trkpt lat="45.12492" lon="4.80126">
        <ele>124.910993</ele>
        <time>2021-09-14T11:51:28.000Z</time>
      </trkpt>
      <trkpt lat="45.12482" lon="4.80123">
        <ele>124.879785</ele>
        <time>2021-09-14T11:51:30.000Z</time>
      </trkpt>
      <trkpt lat="45.12447" lon="4.80115">
        <ele>124.76974</ele>
        <time>2021-09-14T11:51:37.000Z</time>
      </trkpt>
      <trkpt lat="45.12412" lon="4.80104">
        <ele>124.718273</ele>
        <time>2021-09-14T11:51:44.000Z</time>
      </trkpt>
      <trkpt lat="45.1238" lon="4.80103">
        <ele>124.924274</ele>
        <time>2021-09-14T11:51:50.000Z</time>
      </trkpt>
      <trkpt lat="45.12356" lon="4.80099">
        <ele>125.08392</ele>
        <time>2021-09-14T11:51:56.000Z</time>
      </trkpt>
      <trkpt lat="45.12321" lon="4.80094">
        <ele>125.319303</ele>
        <time>2021-09-14T11:52:05.000Z</time>
      </trkpt>
      <trkpt lat="45.1228" lon="4.80098">
        <ele>125.591871</ele>
        <time>2021-09-14T11:52:15.000Z</time>
      </trkpt>
      <trkpt lat="45.12242" lon="4.80104">
        <ele>125.843583</ele>
        <time>2021-09-14T11:52:24.000Z</time>
      </trkpt>
      <trkpt lat="45.12215" lon="4.80111">
        <ele>125.995573</ele>
        <time>2021-09-14T11:52:31.000Z</time>
      </trkpt>
      <trkpt lat="45.12187" lon="4.80124">
        <ele>126.158981</ele>
        <time>2021-09-14T11:52:38.000Z</time>
      </trkpt>
      <trkpt lat="45.12166" lon="4.80139">
        <ele>126.288547</ele>
        <time>2021-09-14T11:52:44.000Z</time>
      </trkpt>
      <trkpt lat="45.12148" lon="4.8015">
        <ele>126.393663</ele>
        <time>2021-09-14T11:52:50.000Z</time>
      </trkpt>
      <trkpt lat="45.12127" lon="4.80156">
        <ele>126.514089</ele>
        <time>2021-09-14T11:52:56.000Z</time>
      </trkpt>
      <trkpt lat="45.12123" lon="4.80157">
        <ele>126.537606</ele>
        <time>2021-09-14T11:52:57.000Z</time>
      </trkpt>
      <trkpt lat="45.12119" lon="4.80159">
        <ele>126.560585</ele>
        <time>2021-09-14T11:52:58.000Z</time>
      </trkpt>
      <trkpt lat="45.12104" lon="4.80168">
        <ele>126.647784</ele>
        <time>2021-09-14T11:53:02.000Z</time>
      </trkpt>
      <trkpt lat="45.12088" lon="4.80177">
        <ele>126.741182</ele>
        <time>2021-09-14T11:53:07.000Z</time>
      </trkpt>
      <trkpt lat="45.12084" lon="4.8017">
        <ele>126.775973</ele>
        <time>2021-09-14T11:53:09.000Z</time>
      </trkpt>
      <trkpt lat="45.12084" lon="4.80168">
        <ele>126.787417</ele>
        <time>2021-09-14T11:53:10.000Z</time>
      </trkpt>
      <trkpt lat="45.12088" lon="4.80145">
        <ele>126.853006</ele>
        <time>2021-09-14T11:53:17.000Z</time>
      </trkpt>
      <trkpt lat="45.1209" lon="4.80124">
        <ele>126.853006</ele>
        <time>2021-09-14T11:53:24.000Z</time>
      </trkpt>
      <trkpt lat="45.12101" lon="4.80098">
        <ele>126.853006</ele>
        <time>2021-09-14T11:53:29.000Z</time>
      </trkpt>
      <trkpt lat="45.12103" lon="4.80097">
        <ele>126.853006</ele>
        <time>2021-09-14T11:53:30.000Z</time>
      </trkpt>
      <trkpt lat="45.12109" lon="4.80095">
        <ele>126.853006</ele>
        <time>2021-09-14T11:53:32.000Z</time>
      </trkpt>
      <trkpt lat="45.12115" lon="4.80081">
        <ele>126.853006</ele>
        <time>2021-09-14T11:53:36.000Z</time>
      </trkpt>
      <trkpt lat="45.12116" lon="4.80071">
        <ele>126.853006</ele>
        <time>2021-09-14T11:53:42.000Z</time>
      </trkpt>
      <trkpt lat="45.12116" lon="4.80065">
        <ele>126.853006</ele>
        <time>2021-09-14T11:53:49.000Z</time>
      </trkpt>
      <trkpt lat="45.12116" lon="4.8006">
        <ele>126.853006</ele>
        <time>2021-09-14T11:53:51.000Z</time>
      </trkpt>
      <trkpt lat="45.12117" lon="4.80041">
        <ele>126.853006</ele>
        <time>2021-09-14T11:53:59.000Z</time>
      </trkpt>
      <trkpt lat="45.12117" lon="4.80039">
        <ele>126.853006</ele>
        <time>2021-09-14T11:54:00.000Z</time>
      </trkpt>
      <trkpt lat="45.12117" lon="4.8003">
        <ele>126.853006</ele>
        <time>2021-09-14T11:54:05.000Z</time>
      </trkpt>
      <trkpt lat="45.12118" lon="4.80026">
        <ele>126.853006</ele>
        <time>2021-09-14T11:54:07.000Z</time>
      </trkpt>
      <trkpt lat="45.12119" lon="4.80024">
        <ele>126.853006</ele>
        <time>2021-09-14T11:54:10.000Z</time>
      </trkpt>
      <trkpt lat="45.12122" lon="4.8001">
        <ele>126.853006</ele>
        <time>2021-09-14T11:54:24.000Z</time>
      </trkpt>
      <trkpt lat="45.12123" lon="4.80008">
        <ele>126.853006</ele>
        <time>2021-09-14T11:54:25.000Z</time>
      </trkpt>
      <trkpt lat="45.12123" lon="4.80007">
        <ele>126.853006</ele>
        <time>2021-09-14T11:54:26.000Z</time>
      </trkpt>
      <trkpt lat="45.12131" lon="4.80035">
        <ele>126.853006</ele>
        <time>2021-09-14T11:54:28.000Z</time>
      </trkpt>
      <trkpt lat="45.12134" lon="4.80036">
        <ele>126.853006</ele>
        <time>2021-09-14T11:54:31.000Z</time>
      </trkpt>
      <trkpt lat="45.12134" lon="4.80036">
        <ele>126.853006</ele>
        <time>2021-09-14T11:54:33.000Z</time>
      </trkpt>
    </trkseg>
  </trk>
</gpx>